<<back to data home page
PLEASE HELP THE STATION - DONATE ANY AMOUNT BY CLICKING THIS LINK!!!

    Month/Day/Year       Maximum   Minimum    Rel    Dew       Rainfall  Seasonal  Soil     Soil      Baro       Wind    Wind        Peak    Peak Gust  Evap     Leaf     Net
    and                  Air Temp  Air Temp   Hum    Point     Inches    Rainfall  Temp     Moisture  Pressure   Speed   Direction   Gust    Direction  Pan      Wetness  Radiation
    Local Time           Deg F     Deg F      %      Deg F               Inches    Deg F    dS/m      mbar       knots   comp deg    knots   comp deg   Inches   mV       W_m2
----------------------------------------------------------------------------------------------------------------------------------------------------------------------------------
   08/30/2016 00:10      72.5      71.7       60     57.4      0.00      0.00      85.9     0.53      1012.0     1       225         2       208        8.70     271      -64.2
   08/30/2016 00:00      73.1      72.6       59     57.7      0.00      0.00      85.3     0.54      1012.0     1       117         3        80        8.70     271      -66.5
   08/29/2016 23:50      73.4      73.2       58     57.9      0.00      0.00      85.8     0.53      1012.0     1        50         2        73        8.70     271      -67.2
   08/29/2016 23:40      73.8      73.3       58     57.9      0.00      0.00      85.9     0.54      1012.0     1        38         2        38        8.71     271      -67.6
   08/29/2016 23:30      74.4      73.9       57     58.0      0.00      0.00      85.6     0.53      1012.0     2        67         2        67        8.71     271      -68.2
   08/29/2016 23:20      74.7      74.3       57     58.1      0.00      0.00      85.6     0.53      1012.0     2        38         3        38        8.71     271      -68.8
   08/29/2016 23:10      74.9      74.7       56     58.3      0.00      0.00      85.8     0.54      1012.0     2        42         3        34        8.71     270      -68.8
   08/29/2016 23:00      75.0      74.7       56     57.9      0.00      0.00      85.8     0.53      1012.0     1        34         3        40        8.71     270      -67.8
   08/29/2016 22:50      75.4      75.0       54     57.6      0.00      0.00      85.9     0.54      1012.0     1        56         1        32        8.71     270      -67.3
   08/29/2016 22:40      75.7      75.4       54     57.8      0.00      0.00      85.7     0.54      1011.0     1        21         1        85        8.71     270      -67.3
   08/29/2016 22:30      75.9      75.5       50     55.5      0.00      0.00      85.7     0.54      1011.0     1        95         2        71        8.72     270      -68.5
   08/29/2016 22:20      77.1      76.2       47     55.0      0.00      0.00      85.9     0.54      1011.0     1        96         2       103        8.72     269      -68.9
   08/29/2016 22:10      77.8      77.2       46     55.3      0.00      0.00      85.8     0.54      1011.0     1       126         1       130        8.72     269      -68.7
   08/29/2016 22:00      78.5      77.8       44     54.5      0.00      0.00      85.5     0.54      1011.0     1       204         1       221        8.73     269      -68.3
   08/29/2016 21:50      78.9      78.5       42     53.4      0.00      0.00      85.8     0.54      1011.0     1       165         1       209        8.73     269      -69.3
   08/29/2016 21:40      79.3      78.9       39     52.1      0.00      0.00      85.7     0.54      1011.0     1       141         1       152        8.73     269      -70.1
   08/29/2016 21:30      80.6      79.4       37     51.2      0.00      0.00      85.5     0.54      1011.0     1       149         3       133        8.73     269      -70.5
   08/29/2016 21:20      81.8      80.7       35     51.2      0.00      0.00      85.7     0.54      1011.0     1       261         2       258        8.74     268      -70.5
   08/29/2016 21:10      83.7      81.9       33     51.0      0.00      0.00      85.6     0.54      1011.0     1       221         1       179        8.74     268      -71.5
   08/29/2016 21:00      84.6      84.0       32     51.2      0.00      0.00      85.7     0.54      1011.0     1        63         1        83        8.74     268      -74.4
   08/29/2016 20:50      84.8      84.4       32     51.1      0.00      0.00      85.6     0.53      1011.0     2       209         5       233        8.74     268      -74.8
   08/29/2016 20:40      85.1      84.8       31     51.0      0.00      0.00      85.7     0.53      1011.0     2        59         4        18        8.75     268      -77.0
   08/29/2016 20:30      85.2      84.6       31     50.6      0.00      0.00      85.6     0.53      1011.0     2       153         3       174        8.75     268      -78.0
   08/29/2016 20:20      86.6      85.6       29     50.1      0.00      0.00      85.5     0.53      1010.0     2       191         3       217        8.75     268      -80.5
   08/29/2016 20:10      87.1      86.7       28     49.9      0.00      0.00      85.4     0.53      1010.0     2       186         4       197        8.75     268      -82.6
   08/29/2016 20:00      87.7      87.2       27     49.8      0.00      0.00      85.5     0.53      1010.0     2       205         3       210        8.75     268      -83.5
   08/29/2016 19:50      88.6      87.8       27     49.8      0.00      0.00      85.5     0.53      1010.0     2       169         3       193        8.76     268      -84.7
   08/29/2016 19:40      89.5      88.9       26     49.8      0.00      0.00      85.4     0.53      1010.0     1       180         2       183        8.76     268      -86.1
   08/29/2016 19:30      90.2      89.7       25     49.6      0.00      0.00      85.3     0.53      1010.0     2       207         4       237        8.76     268      -85.7
   08/29/2016 19:20      91.1      90.4       25     49.6      0.00      0.00      85.3     0.53      1010.0     3       217         5       213        8.76     267      -83.2
   08/29/2016 19:10      92.3      91.2       24     49.8      0.00      0.00      85.2     0.53      1010.0     4       203         6       248        8.77     267      -78.9
   08/29/2016 19:00      93.5      92.4       23     49.9      0.00      0.00      85.1     0.53      1010.0     4       217         6       197        8.77     267      -69.5
   08/29/2016 18:50      94.0      93.7       23     50.0      0.00      0.00      85.1     0.53      1010.0     3       210         6       213        8.78     267      -55.0
   08/29/2016 18:40      94.9      94.0       22     49.8      0.00      0.00      85.0     0.53      1010.0     5       212         6       215        8.78     267      -36.0
   08/29/2016 18:30      96.4      94.9       21     49.8      0.00      0.00      85.0     0.53      1010.0     4       211         7       200        8.79     267      -16.0
   08/29/2016 18:20      97.9      96.7       20     49.9      0.00      0.00      84.9     0.53      1010.0     5       214         6       209        8.79     267        4.5
   08/29/2016 18:10      98.3      98.0       19     49.1      0.00      0.00      84.9     0.53      1010.0     4       224         6       234        8.80     267       25.0
   08/29/2016 18:00      99.3      98.7       19     48.9      0.00      0.00      84.9     0.53      1010.0     4       220         8       223        8.80     267       46.5
   08/29/2016 17:50      99.5      99.2       18     48.5      0.00      0.00      84.9     0.53      1010.0     4       217         6       191        8.81     267       70.0
   08/29/2016 17:40     100.9      99.8       17     48.4      0.00      0.00      84.7     0.53      1010.0     4       212         6       199        8.81     267       91.0
   08/29/2016 17:30     101.7     100.5       17     47.7      0.00      0.00      84.6     0.53      1010.0     5       241         8       235        8.82     267      112.4
   08/29/2016 17:20     101.8     101.2       16     47.1      0.00      0.00      84.5     0.53      1010.0     4       268         6       251        8.82     268      133.6
   08/29/2016 17:10     102.4     101.7       16     47.0      0.00      0.00      84.6     0.53      1010.0     4       281         5       288        8.82     267      155.2
   08/29/2016 17:00     101.8     101.3       15     45.1      0.00      0.00      84.5     0.53      1010.0     4       230         7       241        8.83     267      178.0
   08/29/2016 16:50     101.7     101.1       15     45.1      0.00      0.00      84.2     0.53      1010.0     5       228         7       251        8.83     267      199.5
   08/29/2016 16:40     102.2     101.2       15     45.9      0.00      0.00      84.2     0.53      1010.0     5       210         8       198        8.84     267      219.8
   08/29/2016 16:30     102.4     101.8       15     45.5      0.00      0.00      84.3     0.53      1010.0     5       206         8       215        8.85     267      241.4
   08/29/2016 16:20     102.7     102.1       15     45.9      0.00      0.00      84.0     0.53      1010.0     4       209         6       220        8.85     267      261.8
   08/29/2016 16:10     102.7     102.1       15     46.7      0.00      0.00      84.0     0.53      1010.0     4       212         8       213        8.86     269      282.8
   08/29/2016 16:00     103.5     102.4       16     47.2      0.00      0.00      84.0     0.53      1010.0     4       246         7       198        8.86     269      303.9
   08/29/2016 15:50     102.2     101.3       16     46.8      0.00      0.00      83.9     0.53      1010.0     5       214         8       218        8.86     269      323.5
   08/29/2016 15:40     101.9     100.9       22     54.8      0.00      0.00      83.9     0.53      1010.0     3       207         5       145        8.86     269      342.9
   08/29/2016 15:30     101.8     101.3       25     59.0      0.00      0.00      83.9     0.53      1011.0     3        39         5        75        8.86     269      357.8
   08/29/2016 15:20     101.5      99.7       26     59.1      0.00      0.00      83.7     0.53      1011.0     3       104         4         9        8.86     269      376.2
   08/29/2016 15:10     101.9     100.5       26     59.5      0.00      0.00      83.7     0.53      1011.0     3        68         5        14        8.86     269      387.9
   08/29/2016 15:00     102.4     101.3       26     60.0      0.00      0.00      83.4     0.53      1011.0     3        18         4        12        8.86     270      407.3
   08/29/2016 14:50     102.6     101.0       26     60.0      0.00      0.00      83.5     0.53      1011.0     2        31         4        91        8.86     270      420.5
   08/29/2016 14:40     101.1     100.6       26     59.6      0.00      0.00      83.5     0.53      1011.0     2        84         5        70        8.86     270      432.0
   08/29/2016 14:30     101.7      99.5       26     59.5      0.00      0.00      83.5     0.53      1011.0     2        35         4       142        8.86     269      442.1
   08/29/2016 14:20     100.1      98.8       27     59.4      0.00      0.00      83.2     0.53      1011.0     2        26         4        40        8.86     269      455.2
   08/29/2016 14:10      99.8      98.2       28     59.9      0.00      0.00      83.2     0.53      1012.0     3        18         7         8        8.87     269      464.4
   08/29/2016 14:00      99.3      97.7       27     59.4      0.00      0.00      83.1     0.53      1012.0     3        56         5       110        8.87     270      475.1
   08/29/2016 13:50      97.7      97.3       28     59.3      0.00      0.00      83.1     0.53      1012.0     2        79         5       101        8.87     270      481.1
   08/29/2016 13:40      98.1      96.3       29     59.4      0.00      0.00      83.1     0.53      1012.0     3        38         4        25        8.87     270      488.7
   08/29/2016 13:30      97.5      96.6       29     59.1      0.00      0.00      83.2     0.53      1012.0     3        34         5        35        8.87     270      493.9
   08/29/2016 13:20      97.2      96.1       27     57.5      0.00      0.00      82.8     0.53      1012.0     3        32         4        52        8.87     271      496.3
   08/29/2016 13:10      96.8      94.6       28     57.1      0.00      0.00      83.0     0.53      1012.0     3       328         4       243        8.87     271      503.5
   08/29/2016 13:00      95.8      94.7       28     56.9      0.00      0.00      83.1     0.53      1013.0     2       340         4        32        8.87     272      506.0
   08/29/2016 12:50      94.9      94.0       29     57.1      0.00      0.00      82.9     0.53      1013.0     4       356         6       353        8.87     272      507.7
   08/29/2016 12:40      94.9      92.9       29     57.1      0.00      0.00      83.1     0.53      1013.0     2        23         4       338        8.87     272      509.9
   08/29/2016 12:30      92.5      91.7       31     56.9      0.00      0.00      82.9     0.53      1013.0     2       322         3       354        8.87     273      509.1
   08/29/2016 12:20      92.3      91.3       31     57.1      0.00      0.00      83.0     0.53      1013.0     3        27         4        28        8.87     273      508.5
   08/29/2016 12:10      91.7      90.8       32     57.1      0.00      0.00      82.8     0.53      1013.0     2        36         3        31        8.87     276      508.2
   08/29/2016 12:00      91.0      90.1       33     57.4      0.00      0.00      82.6     0.53      1014.0     3        22         5        14        8.87     278      503.9
   08/29/2016 11:50      90.2      89.1       34     57.3      0.00      0.00      83.5     0.53      1014.0     3       339         4       341        8.87     281      502.8
   08/29/2016 11:40      89.6      88.9       34     57.4      0.00      0.00      83.2     0.53      1014.0     3        24         5       350        8.86     287      499.5
   08/29/2016 11:30      89.2      87.7       35     57.5      0.00      0.00      82.5     0.53      1014.0     2        30         3       321        8.86     291      495.9
   08/29/2016 11:20      88.0      86.8       36     57.5      0.00      0.00      83.1     0.53      1014.0     2       358         4       349        8.86     295      491.6
   08/29/2016 11:10      87.6      86.5       37     57.4      0.00      0.00      83.3     0.53      1014.0     2        23         3       333        8.86     308      485.3
   08/29/2016 11:00      86.7      85.1       38     57.7      0.00      0.00      83.3     0.53      1014.0     3        65         4        91        8.86     325      479.0
   08/29/2016 10:50      85.2      84.0       40     57.8      0.00      0.00      83.2     0.53      1014.0     2        54         4        22        8.86     341      470.2
   08/29/2016 10:40      83.8      82.4       42     57.6      0.00      0.00      83.0     0.53      1014.0     3        60         5        64        8.86     355      461.2
   08/29/2016 10:30      82.4      81.6       44     57.7      0.00      0.00      82.9     0.53      1014.0     2        41         4        36        8.86     372      452.4
   08/29/2016 10:20      81.4      80.8       45     57.7      0.00      0.00      83.4     0.53      1015.0     2        53         3        32        8.85     378      441.5
   08/29/2016 10:10      81.0      79.3       47     57.9      0.00      0.00      82.7     0.54      1015.0     1       348         3        38        8.85     393      426.5
   08/29/2016 10:00      79.6      78.9       48     57.8      0.00      0.00      83.2     0.52      1015.0     2        11         3       346        8.09     270      373.7
   08/29/2016 09:50      78.8      77.8       49     57.7      0.00      0.00      83.3     0.52      1015.0     2         1         2        94        8.09     270      357.0
   08/29/2016 09:40      77.8      77.0       51     57.6      0.00      0.00      83.5     0.52      1015.0     2        25         3       316        8.09     270      337.8
   08/29/2016 09:30      76.9      76.1       52     57.6      0.00      0.00      83.5     0.52      1015.0     2        69         2        24        8.09     270      319.3
   08/29/2016 09:20      76.0      75.4       54     57.8      0.00      0.00      83.3     0.52      1015.0     2       359         4         0        8.09     270      299.3
   08/29/2016 09:10      75.9      74.8       55     58.0      0.00      0.00      83.2     0.53      1015.0     2        37         3       359        8.09     270      277.8
   08/29/2016 09:00      75.3      73.7       56     57.7      0.00      0.00      83.4     0.53      1015.0     2        64         3        67        8.10     270      255.7
   08/29/2016 08:50      73.8      72.8       58     57.8      0.00      0.00      83.2     0.53      1015.0     1         9         2       352        8.10     270      233.3
   08/29/2016 08:40      73.0      72.5       59     57.8      0.00      0.00      83.3     0.53      1015.0     2       354         3         1        8.10     270      209.9
   08/29/2016 08:30      73.0      71.8       60     57.7      0.00      0.00      83.4     0.53      1015.0     1       355         2       354        8.10     270      185.7
   08/29/2016 08:20      72.8      71.0       61     58.0      0.00      0.00      83.7     0.53      1015.0     1        56         2        74        8.10     270      162.0
   08/29/2016 08:10      70.8      69.2       65     57.6      0.00      0.00      83.3     0.53      1015.0     1         9         2        68        8.10     270      139.3
   08/29/2016 08:00      69.3      67.6       68     57.5      0.00      0.00      83.3     0.53      1015.0     2        44         3        30        8.10     270      114.4
   08/29/2016 07:50      67.5      66.5       71     57.3      0.00      0.00      83.6     0.53      1015.0     2        81         3        81        8.10     271       87.9
   08/29/2016 07:40      66.5      65.5       73     57.2      0.00      0.00      84.1     0.53      1015.0     1        77         2        93        8.10     271       55.7
   08/29/2016 07:30      65.4      64.3       76     57.0      0.00      0.00      83.7     0.53      1015.0     2        77         2        74        8.10     271        6.2
   08/29/2016 07:20      64.5      63.4       77     56.6      0.00      0.00      83.4     0.53      1015.0     1       148         1       163        8.10     271      -29.2
   08/29/2016 07:10      63.5      62.6       80     56.6      0.00      0.00      83.7     0.53      1015.0     1       174         1       159        8.10     271      -31.2
   08/29/2016 07:00      62.6      62.0       81     56.4      0.00      0.00      84.0     0.53      1015.0     1       159         1       177        8.10     271      -35.7
   08/29/2016 06:50      62.2      61.7       80     55.7      0.00      0.00      83.8     0.53      1014.0     1        98         2       103        8.10     271      -41.9
   08/29/2016 06:40      61.9      61.7       80     55.7      0.00      0.00      84.0     0.53      1014.0     1        39         1        35        8.10     271      -47.0
   08/29/2016 06:30      62.1      61.6       81     55.8      0.00      0.00      83.8     0.53      1014.0     2       120         3       150        8.10     271      -50.1
   08/29/2016 06:20      61.9      61.6       82     56.1      0.00      0.00      83.7     0.53      1014.0     2       155         3       170        8.10     271      -49.9
   08/29/2016 06:10      62.0      61.7       82     56.3      0.00      0.00      83.8     0.53      1014.0     1       152         1       130        8.10     271      -49.6
   08/29/2016 06:00      61.9      61.6       83     56.5      0.00      0.00      84.0     0.53      1014.0     1       149         1       193        8.10     271      -49.8
   08/29/2016 05:50      61.9      61.6       84     56.8      0.00      0.00      84.0     0.53      1014.0     1       133         1       149        8.10     271      -50.6
   08/29/2016 05:40      61.7      61.6       83     56.5      0.00      0.00      84.1     0.53      1014.0     0        79         1       152        8.10     271      -52.8
   08/29/2016 05:30      62.0      61.7       83     56.6      0.00      0.00      84.3     0.53      1014.0     1       137         2       124        8.10     271      -53.4
   08/29/2016 05:20      61.9      61.5       82     56.1      0.00      0.00      84.2     0.53      1014.0     2       169         3       165        8.11     271      -55.6
   08/29/2016 05:10      62.4      62.0       82     56.8      0.00      0.00      84.2     0.53      1014.0     1       148         2       150        8.11     271      -54.2
   08/29/2016 05:00      62.5      62.3       82     56.9      0.00      0.00      84.1     0.53      1014.0     1       179         1       169        8.11     271      -54.2
   08/29/2016 04:50      62.6      62.5       82     57.0      0.00      0.00      84.2     0.53      1014.0     1       154         1       141        8.11     270      -53.8
   08/29/2016 04:40      62.9      62.7       82     57.1      0.00      0.00      84.3     0.53      1014.0     1       159         2       138        8.11     270      -54.6
   08/29/2016 04:30      62.8      62.5       81     56.9      0.00      0.00      84.2     0.53      1015.0     1       156         1       157        8.11     270      -54.8
   08/29/2016 04:20      62.9      62.7       81     57.0      0.00      0.00      84.2     0.53      1015.0     1       173         1       169        8.11     270      -54.2
   08/29/2016 04:10      63.1      62.7       81     57.0      0.00      0.00      84.0     0.53      1015.0     2       148         2       159        8.11     270      -55.1
   08/29/2016 04:00      63.3      63.1       80     57.1      0.00      0.00      84.4     0.53      1015.0     1       144         2       113        8.11     270      -55.4
   08/29/2016 03:50      63.5      63.3       80     57.0      0.00      0.00      84.3     0.53      1015.0     1       149         1       148        8.11     270      -56.3
   08/29/2016 03:40      63.5      63.4       79     57.0      0.00      0.00      84.6     0.53      1015.0     1       178         1       124        8.11     270      -56.4
   08/29/2016 03:30      63.9      63.4       77     56.1      0.00      0.00      84.5     0.53      1015.0     1       154         2       136        8.11     270      -57.2
   08/29/2016 03:20      64.3      64.0       76     56.6      0.00      0.00      84.5     0.53      1015.0     2       146         3       130        8.11     270      -58.2
   08/29/2016 03:10      64.5      64.2       77     56.9      0.00      0.00      84.5     0.53      1015.0     2       150         3       142        8.11     269      -57.6
   08/29/2016 03:00      65.0      64.4       76     56.8      0.00      0.00      84.5     0.53      1015.0     1       169         3       138        8.11     269      -57.4
   08/29/2016 02:50      65.3      65.0       74     56.7      0.00      0.00      84.5     0.53      1015.0     1       185         2       140        8.11     269      -56.2
   08/29/2016 02:40      65.2      64.9       74     56.7      0.00      0.00      84.9     0.53      1015.0     1       198         1       220        8.11     269      -56.7
   08/29/2016 02:30      65.5      65.0       74     56.9      0.00      0.00      84.3     0.53      1015.0     2       140         2       149        8.11     269      -56.9
   08/29/2016 02:20      65.7      65.5       73     57.0      0.00      0.00      84.5     0.53      1015.0     1       145         2       136        8.11     269      -56.6
   08/29/2016 02:10      66.0      65.7       73     57.1      0.00      0.00      84.4     0.53      1015.0     1       104         1       125        8.11     269      -57.0
   08/29/2016 02:00      66.3      66.2       73     57.4      0.00      0.00      84.4     0.53      1015.0     0        59         1        82        8.12     269      -56.8
   08/29/2016 01:50      66.3      66.0       73     57.1      0.00      0.00      84.8     0.53      1015.0     1       156         2       138        8.12     269      -58.0
   08/29/2016 01:40      66.5      66.1       71     56.5      0.00      0.00      84.9     0.53      1015.0     1       116         2       125        8.13     269      -58.0
   08/29/2016 01:30      67.2      66.6       71     57.1      0.00      0.00      85.0     0.53      1015.0     1       156         1       157        8.13     269      -58.1
   08/29/2016 01:20      67.5      67.2       70     57.2      0.00      0.00      84.7     0.53      1015.0     0        74         1       125        8.13     269      -58.5
   08/29/2016 01:10      68.2      67.5       69     57.1      0.00      0.00      85.1     0.53      1015.0     1       119         1       108        8.13     269      -59.1
   08/29/2016 01:00      68.5      68.2       69     57.7      0.00      0.00      84.8     0.53      1015.0     1       104         2        84        8.13     268      -60.0
   08/29/2016 00:50      69.0      68.5       68     57.7      0.00      0.00      84.8     0.53      1015.0     1        79         2       108        8.13     268      -61.0
   08/29/2016 00:40      69.3      69.0       67     57.8      0.00      0.00      84.8     0.53      1015.0     1        64         1        58        8.13     268      -61.3
   08/29/2016 00:30      69.8      69.4       67     58.1      0.00      0.00      85.1     0.53      1015.0     2        57         3        26        8.13     268      -62.0
   08/29/2016 00:20      69.8      69.6       67     58.2      0.00      0.00      84.9     0.53      1015.0     2        40         3        39        8.13     268      -61.8
   08/29/2016 00:10      69.8      69.5       67     58.1      0.00      0.00      84.8     0.53      1015.0     1        69         2        84        8.14     268      -61.2
   08/29/2016 00:00      70.1      69.6       65     57.4      0.00      0.00      84.7     0.53      1015.0     1        49         2        37        8.14     268      -61.0
   08/28/2016 23:50      70.5      70.1       63     57.3      0.00      0.00      85.1     0.53      1015.0     1        72         1        74        8.13     268      -61.3
   08/28/2016 23:40      71.1      70.7       62     57.3      0.00      0.00      84.9     0.53      1015.0     1        59         1        43        8.13     268      -61.5
   08/28/2016 23:30      71.2      70.8       61     56.9      0.00      0.00      85.0     0.53      1015.0     1        83         2       102        8.14     268      -61.7
   08/28/2016 23:20      70.8      70.4       58     55.3      0.00      0.00      84.8     0.53      1015.0     1       136         2       109        8.14     267      -61.5
   08/28/2016 23:10      71.0      70.8       57     54.8      0.00      0.00      85.1     0.53      1015.0     1       131         2       111        8.14     267      -61.0
   08/28/2016 23:00      71.8      71.0       55     54.4      0.00      0.00      84.8     0.53      1015.0     1        83         1        65        8.14     267      -62.8
   08/28/2016 22:50      72.6      71.9       54     54.6      0.00      0.00      85.0     0.53      1015.0     1       102         1       120        8.14     267      -63.6
   08/28/2016 22:40      73.7      72.8       52     54.6      0.00      0.00      84.9     0.53      1015.0     1       215         1       230        8.14     267      -64.5
   08/28/2016 22:30      74.6      73.8       51     55.0      0.00      0.00      85.0     0.53      1015.0     1        28         2         3        8.14     267      -65.8
   08/28/2016 22:20      74.6      74.4       51     55.1      0.00      0.00      85.1     0.53      1015.0     2       317         3       267        8.14     267      -66.7
   08/28/2016 22:10      74.9      74.4       50     54.9      0.00      0.00      85.1     0.53      1015.0     1       195         3       256        8.14     267      -67.5
   08/28/2016 22:00      75.3      74.7       50     55.0      0.00      0.00      84.9     0.53      1015.0     1       314         3       242        8.14     267      -68.1
   08/28/2016 21:50      75.9      75.4       49     55.1      0.00      0.00      84.9     0.53      1014.0     1        12         2       321        8.14     266      -69.8
   08/28/2016 21:40      76.0      75.7       49     55.2      0.00      0.00      85.0     0.53      1014.0     2       352         3       340        8.14     266      -71.1
   08/28/2016 21:30      76.0      75.8       49     55.2      0.00      0.00      84.8     0.53      1014.0     2       240         5       166        8.14     266      -72.3
   08/28/2016 21:20      76.1      75.9       48     55.2      0.00      0.00      85.0     0.53      1014.0     4       209         6       202        8.14     266      -73.1
   08/28/2016 21:10      76.5      76.2       48     55.1      0.00      0.00      85.0     0.53      1014.0     5       205         7       210        8.15     266      -74.1
   08/28/2016 21:00      77.0      76.6       47     54.9      0.00      0.00      84.8     0.53      1014.0     4       223         5       211        8.15     266      -75.4
   08/28/2016 20:50      77.3      76.7       46     54.8      0.00      0.00      84.6     0.53      1014.0     4       210         7       209        8.15     266      -76.0
   08/28/2016 20:40      77.4      77.1       45     54.5      0.00      0.00      84.8     0.53      1014.0     4       202         5       211        8.15     266      -76.8
   08/28/2016 20:30      77.8      77.4       44     54.0      0.00      0.00      84.6     0.53      1014.0     3       225         5       255        8.16     266      -78.3
   08/28/2016 20:20      78.4      77.8       43     53.7      0.00      0.00      84.7     0.53      1014.0     3       216         5       256        8.16     266      -79.7
   08/28/2016 20:10      78.9      78.5       41     53.1      0.00      0.00      84.6     0.53      1014.0     2       221         3       244        8.17     266      -81.3
   08/28/2016 20:00      80.3      79.1       39     52.3      0.00      0.00      84.6     0.53      1014.0     3       221         5       217        8.17     265      -82.2
   08/28/2016 19:50      80.9      80.2       38     52.7      0.00      0.00      84.5     0.53      1013.0     3       229         5       238        8.17     266      -83.6
   08/28/2016 19:40      81.4      81.1       37     52.8      0.00      0.00      84.7     0.53      1013.0     3       285         5       282        8.18     265      -84.7
   08/28/2016 19:30      82.4      81.6       36     52.6      0.00      0.00      84.3     0.53      1013.0     4       262         6       258        8.18     265      -84.4
   08/28/2016 19:20      83.1      82.4       34     51.9      0.00      0.00      84.4     0.53      1013.0     5       268         7       249        8.18     265      -81.7
   08/28/2016 19:10      84.9      83.3       32     51.3      0.00      0.00      84.4     0.53      1013.0     5       265         7       259        8.19     265      -76.9
   08/28/2016 19:00      85.6      84.7       30     50.5      0.00      0.00      84.5     0.53      1013.0     4       283         6       313        8.19     265      -68.6
   08/28/2016 18:50      86.0      85.5       30     50.4      0.00      0.00      84.3     0.53      1013.0     4       282         6       298        8.19     265      -54.1
   08/28/2016 18:40      86.7      86.0       29     50.3      0.00      0.00      84.2     0.53      1013.0     6       289         8       285        8.20     265      -34.8
   08/28/2016 18:30      87.6      87.0       28     50.5      0.00      0.00      84.2     0.53      1013.0     5       302         7       304        8.20     265      -13.8
   08/28/2016 18:20      89.0      87.7       28     50.8      0.00      0.00      84.1     0.53      1013.0     5       295         8       275        8.20     265        7.7
   08/28/2016 18:10      90.3      89.0       27     50.9      0.00      0.00      84.1     0.53      1013.0     5       302         8       307        8.21     265       29.0
   08/28/2016 18:00      91.3      90.8       24     49.7      0.00      0.00      84.0     0.53      1013.0     4       309         6       306        8.21     265       51.8
   08/28/2016 17:50      91.8      91.1       24     49.5      0.00      0.00      83.9     0.53      1013.0     5       309         8       291        8.22     265       76.1
   08/28/2016 17:40      92.5      91.8       22     48.5      0.00      0.00      83.9     0.53      1013.0     5       319         7       308        8.22     265       97.7
   08/28/2016 17:30      93.7      92.4       21     47.2      0.00      0.00      83.8     0.53      1013.0     7       318         9       314        8.23     265      118.0
   08/28/2016 17:20      94.0      93.6       19     45.9      0.00      0.00      83.8     0.53      1013.0     5       307         9       300        8.24     265      139.3
   08/28/2016 17:10      94.1      93.5       20     46.2      0.00      0.00      83.7     0.53      1013.0     5       291        10       309        8.24     265      160.9
   08/28/2016 17:00      95.4      94.5       19     46.0      0.00      0.00      83.7     0.53      1013.0     6       314         9       344        8.25     265      181.3
   08/28/2016 16:50      95.4      94.6       19     45.9      0.00      0.00      83.5     0.53      1013.0     5       276         7       316        8.25     265      204.8
   08/28/2016 16:40      95.7      94.8       19     46.1      0.00      0.00      83.4     0.53      1013.0     5       271         8       267        8.26     265      228.2
   08/28/2016 16:30      96.0      94.7       20     47.3      0.00      0.00      83.2     0.53      1013.0     4       269         8       251        8.27     264      250.4
   08/28/2016 16:20      95.1      94.5       20     47.5      0.00      0.00      83.2     0.53      1013.0     5       289         7       276        8.27     265      273.2
   08/28/2016 16:10      95.7      94.6       20     47.3      0.00      0.00      83.3     0.53      1013.0     7       276        13       356        8.28     265      295.2
   08/28/2016 16:00      95.5      94.4       20     47.2      0.00      0.00      83.0     0.53      1013.0     6       296        11       275        8.28     265      318.3
   08/28/2016 15:50      95.3      94.8       19     46.5      0.00      0.00      83.0     0.53      1013.0     6       263         9       255        8.28     265      340.9
   08/28/2016 15:40      94.9      94.2       21     48.2      0.00      0.00      82.9     0.53      1013.0     6       221         9       246        8.29     265      361.6
   08/28/2016 15:30      95.2      94.2       21     48.6      0.00      0.00      82.9     0.52      1013.0     7       203        11       175        8.29     265      380.0
   08/28/2016 15:20      95.2      94.5       20     47.6      0.00      0.00      82.9     0.52      1013.0     6       230         8       237        8.29     265      393.9
   08/28/2016 15:10      95.3      94.8       19     46.7      0.00      0.00      82.8     0.52      1013.0     6       215         9       210        8.29     265      408.9
   08/28/2016 15:00      95.3      94.9       19     47.0      0.00      0.00      82.7     0.52      1013.0     7       223         9       248        8.30     266      423.5
   08/28/2016 14:50      96.1      95.2       20     48.7      0.00      0.00      82.5     0.52      1013.0     6       223        10       250        8.30     266      436.7
   08/28/2016 14:40      96.0      94.9       20     47.3      0.00      0.00      82.4     0.52      1014.0     6       220         9       181        8.30     266      447.8
   08/28/2016 14:30      96.2      95.2       19     46.3      0.00      0.00      82.3     0.52      1014.0     7       226        11       209        8.30     265      454.7
   08/28/2016 14:20      96.1      95.0       20     47.5      0.00      0.00      82.3     0.52      1014.0     6       239         9       275        8.31     266      465.3
   08/28/2016 14:10      96.4      95.2       19     47.7      0.00      0.00      82.3     0.52      1014.0     7       226        12       236        8.31     266      474.0
   08/28/2016 14:00      95.9      95.3       19     47.4      0.00      0.00      82.3     0.52      1014.0     6       221         9       246        8.31     266      478.9
   08/28/2016 13:50      96.0      94.7       21     49.5      0.00      0.00      82.4     0.52      1014.0     3       196         7       214        8.31     267      482.7
   08/28/2016 13:40      95.2      94.2       23     51.4      0.00      0.00      82.2     0.52      1014.0     4       240         6       262        8.32     267      487.7
   08/28/2016 13:30      95.3      93.2       26     54.5      0.00      0.00      82.1     0.52      1014.0     3       264         8       258        8.32     267      492.9
   08/28/2016 13:20      94.1      93.2       27     54.6      0.00      0.00      82.3     0.52      1014.0     3       271         7       249        8.32     268      497.1
   08/28/2016 13:10      93.8      92.1       27     54.6      0.00      0.00      82.0     0.52      1014.0     4       319         7       262        8.32     268      500.0
   08/28/2016 13:00      92.0      90.8       29     54.2      0.00      0.00      82.1     0.52      1015.0     4       293         6       301        8.32     269      504.1
   08/28/2016 12:50      93.0      90.9       28     54.1      0.00      0.00      81.9     0.52      1015.0     4       295         6       250        8.32     270      505.7
   08/28/2016 12:40      92.4      90.7       28     53.9      0.00      0.00      82.1     0.52      1015.0     2       267         4       230        8.32     270      506.3
   08/28/2016 12:30      90.9      90.1       30     55.0      0.00      0.00      81.9     0.52      1015.0     3       322         5       311        8.33     270      506.8
   08/28/2016 12:20      90.4      89.6       31     55.7      0.00      0.00      82.0     0.52      1015.0     3       337         6       298        8.33     270      504.0
   08/28/2016 12:10      89.3      88.4       32     55.5      0.00      0.00      82.1     0.52      1015.0     2        24         5       337        8.33     270      501.3
   08/28/2016 12:00      89.1      87.0       33     55.2      0.00      0.00      81.9     0.52      1015.0     2        51         4       126        8.33     270      500.0
   08/28/2016 11:50      87.2      85.6       35     55.2      0.00      0.00      82.2     0.52      1015.0     3       214         4        31        8.33     270      496.5
   08/28/2016 11:40      86.4      85.5       35     55.6      0.00      0.00      82.1     0.52      1016.0     2       323         3       339        8.33     270      490.6
   08/28/2016 11:30      86.3      85.5       36     55.5      0.00      0.00      82.0     0.52      1016.0     2       324         3        14        8.33     271      487.2
   08/28/2016 11:20      85.1      83.5       38     55.6      0.00      0.00      82.0     0.52      1016.0     1       175         3        35        8.33     271      478.7
   08/28/2016 11:10      84.1      82.8       39     56.2      0.00      0.00      82.0     0.52      1016.0     2       285         4       295        8.33     271      471.1
   08/28/2016 11:00      82.6      81.3       43     57.1      0.00      0.00      81.9     0.52      1016.0     2       340         4       306        8.33     271      460.6
   08/28/2016 10:50      81.8      79.9       45     57.5      0.00      0.00      82.0     0.52      1016.0     3        43         4        71        8.33     270      450.3
   08/28/2016 10:40      79.9      79.6       47     57.7      0.00      0.00      82.1     0.52      1016.0     2        64         5        26        8.33     270      437.8
   08/28/2016 10:30      79.9      79.1       48     57.8      0.00      0.00      82.3     0.52      1016.0     2        38         3        73        8.33     271      424.1
   08/28/2016 10:20      79.3      77.5       49     57.8      0.00      0.00      81.8     0.53      1016.0     2        48         3        82        8.33     271      409.6
   08/28/2016 10:10      77.4      76.3       52     57.8      0.00      0.00      82.1     0.53      1016.0     2        28         3        87        8.33     272      394.2
   08/28/2016 10:00      76.6      75.8       53     58.0      0.00      0.00      82.2     0.53      1016.0     3        10         4        34        8.34     272      378.0
   08/28/2016 09:50      75.7      74.7       55     57.9      0.00      0.00      81.9     0.53      1016.0     2       356         3       326        8.33     272      359.5
   08/28/2016 09:40      75.2      74.0       56     57.9      0.00      0.00      82.2     0.53      1016.0     2         6         3       337        8.33     272      340.8
   08/28/2016 09:30      74.6      73.3       57     57.8      0.00      0.00      82.2     0.53      1016.0     2        19         2         0        8.33     273      321.3
   08/28/2016 09:20      73.6      72.8       58     57.7      0.00      0.00      82.6     0.53      1016.0     1       178         1       141        8.34     275      302.0
   08/28/2016 09:10      72.7      72.5       59     57.6      0.00      0.00      82.4     0.53      1017.0     2        67         3        83        8.34     276      279.8
   08/28/2016 09:00      72.4      71.0       61     57.5      0.00      0.00      82.4     0.53      1017.0     1       102         2        52        8.34     277      256.9
   08/28/2016 08:50      70.9      70.3       63     57.6      0.00      0.00      82.3     0.53      1017.0     1        26         3        66        8.34     279      234.1
   08/28/2016 08:40      70.1      69.6       65     57.5      0.00      0.00      82.5     0.53      1017.0     2        98         3        76        8.34     280      211.7
   08/28/2016 08:30      69.9      68.2       67     57.6      0.00      0.00      82.6     0.53      1017.0     2        80         2        64        8.34     281      186.4
   08/28/2016 08:20      68.3      67.5       69     57.5      0.00      0.00      82.4     0.53      1017.0     1       354         2         2        8.34     283      157.5
   08/28/2016 08:10      67.8      66.5       70     57.3      0.00      0.00      82.8     0.53      1017.0     1         6         2       348        8.34     285      132.9
   08/28/2016 08:00      66.5      64.4       75     57.2      0.00      0.00      82.5     0.53      1017.0     2        37         2        32        8.34     286      114.3
   08/28/2016 07:50      64.3      62.8       80     57.0      0.00      0.00      82.7     0.53      1016.0     1        15         2         5        8.34     287      110.8
   08/28/2016 07:40      62.8      61.6       83     57.1      0.00      0.00      82.6     0.53      1016.0     1       339         2       356        8.34     287       73.6
   08/28/2016 07:30      61.8      60.4       86     56.7      0.00      0.00      82.8     0.53      1016.0     1         2         1       350        8.35     286       43.5
   08/28/2016 07:20      60.5      59.7       87     56.3      0.00      0.00      82.6     0.53      1016.0     1        92         1        84        8.35     285        3.5
   08/28/2016 07:10      59.8      59.4       89     56.2      0.00      0.00      82.2     0.53      1016.0     1       113         1       111        8.35     284       -1.9
   08/28/2016 07:00      59.4      59.0       90     56.2      0.00      0.00      82.8     0.54      1016.0     1       158         1       153        8.35     283       -6.7
   08/28/2016 06:50      59.1      58.6       90     55.7      0.00      0.00      82.8     0.54      1016.0     1       137         1       132        8.35     282      -13.7
   08/28/2016 06:40      59.1      58.8       90     56.1      0.00      0.00      82.7     0.54      1016.0     1       138         1       135        8.35     281      -19.8
   08/28/2016 06:30      59.0      58.7       90     56.1      0.00      0.00      83.1     0.54      1016.0     0       150         1       148        8.35     280      -24.7
   08/28/2016 06:20      58.8      58.5       90     55.8      0.00      0.00      82.9     0.54      1016.0     1       150         1       142        8.35     280      -28.1
   08/28/2016 06:10      59.1      58.7       90     56.0      0.00      0.00      82.7     0.54      1016.0     1       159         1       127        8.35     279      -29.6
   08/28/2016 06:00      59.1      58.8       90     55.9      0.00      0.00      82.9     0.54      1016.0     1       140         1       141        8.35     278      -31.1
   08/28/2016 05:50      59.1      58.7       90     55.9      0.00      0.00      82.8     0.54      1016.0     1       176         1       129        8.35     278      -32.0
   08/28/2016 05:40      59.0      58.6       89     55.6      0.00      0.00      82.9     0.54      1016.0     1       185         2       151        8.35     278      -33.5
   08/28/2016 05:30      59.3      59.0       90     56.1      0.00      0.00      83.3     0.54      1016.0     1       154         2       128        8.35     277      -34.5
   08/28/2016 05:20      59.2      59.0       89     55.7      0.00      0.00      82.8     0.54      1016.0     1       164         2       143        8.35     277      -36.1
   08/28/2016 05:10      59.6      59.3       88     55.9      0.00      0.00      83.0     0.54      1016.0     1       145         2       146        8.35     277      -37.3
   08/28/2016 05:00      59.6      59.2       88     55.7      0.00      0.00      83.0     0.54      1015.0     1       148         1       140        8.35     276      -38.5
   08/28/2016 04:50      59.5      59.4       88     55.9      0.00      0.00      83.0     0.54      1015.0     1       223         1       238        8.35     276      -40.0
   08/28/2016 04:40      59.7      59.3       87     55.6      0.00      0.00      83.2     0.54      1015.0     1       150         2       134        8.35     276      -41.6
   08/28/2016 04:30      59.9      59.8       87     56.0      0.00      0.00      83.2     0.54      1015.0     1       151         1       152        8.35     275      -42.6
   08/28/2016 04:20      59.9      59.7       86     55.7      0.00      0.00      83.4     0.54      1015.0     1       121         1       126        8.35     275      -45.1
   08/28/2016 04:10      60.2      59.7       86     55.8      0.00      0.00      83.5     0.54      1015.0     2       123         3       141        8.35     275      -46.5
   08/28/2016 04:00      60.0      59.8       86     55.8      0.00      0.00      83.3     0.54      1015.0     1       179         2       149        8.35     275      -47.3
   08/28/2016 03:50      60.2      59.9       86     55.8      0.00      0.00      83.4     0.54      1015.0     1       160         2       130        8.35     274      -48.0
   08/28/2016 03:40      60.4      60.2       86     56.0      0.00      0.00      83.7     0.54      1015.0     1       171         2       130        8.36     274      -48.6
   08/28/2016 03:30      60.5      60.2       85     56.0      0.00      0.00      83.8     0.54      1015.0     2       147         2       137        8.36     274      -50.5
   08/28/2016 03:20      60.8      60.4       85     56.1      0.00      0.00      83.3     0.54      1015.0     1       141         2       141        8.36     274      -50.9
   08/28/2016 03:10      61.0      60.8       84     55.9      0.00      0.00      83.8     0.54      1015.0     1       157         2       149        8.36     274      -53.2
   08/28/2016 03:00      61.1      60.9       84     56.2      0.00      0.00      83.6     0.54      1015.0     2       191         2       182        8.36     273      -52.1
   08/28/2016 02:50      61.3      61.0       84     56.4      0.00      0.00      83.7     0.54      1015.0     2       171         2       147        8.36     273      -53.2
   08/28/2016 02:40      61.5      61.3       83     56.3      0.00      0.00      83.5     0.54      1016.0     1       157         2       145        8.36     273      -53.9
   08/28/2016 02:30      61.7      61.5       83     56.4      0.00      0.00      83.7     0.54      1015.0     1       149         1       141        8.36     273      -53.8
   08/28/2016 02:20      62.0      61.7       82     56.3      0.00      0.00      83.6     0.54      1016.0     1       162         2       148        8.36     272      -53.2
   08/28/2016 02:10      62.1      61.8       80     55.8      0.00      0.00      84.0     0.54      1016.0     1       130         2       117        8.36     272      -54.8
   08/28/2016 02:00      62.5      62.0       80     55.9      0.00      0.00      83.7     0.54      1016.0     1       128         2       131        8.36     272      -54.9
   08/28/2016 01:50      62.5      62.1       81     56.2      0.00      0.00      83.7     0.54      1016.0     0       156         1       249        8.36     272      -54.3
   08/28/2016 01:40      62.1      61.9       80     55.6      0.00      0.00      83.7     0.54      1016.0     1       160         1       122        8.36     272      -54.9
   08/28/2016 01:30      62.5      62.0       80     55.9      0.00      0.00      84.1     0.54      1016.0     1       115         1       133        8.36     271      -55.0
   08/28/2016 01:20      62.7      62.3       79     56.0      0.00      0.00      83.9     0.54      1016.0     0        86         1       119        8.36     271      -55.4
   08/28/2016 01:10      63.0      62.7       79     56.3      0.00      0.00      83.6     0.54      1016.0     1       107         1       161        8.37     271      -55.8
   08/28/2016 01:00      63.1      62.8       79     56.2      0.00      0.00      84.1     0.54      1016.0     1       135         1       122        8.37     271      -56.5
   08/28/2016 00:50      63.3      62.9       77     56.0      0.00      0.00      84.0     0.54      1016.0     1       129         1       135        8.36     271      -57.1
   08/28/2016 00:40      63.9      63.4       77     56.1      0.00      0.00      83.9     0.54      1015.0     1       143         1       139        8.37     271      -56.9
   08/28/2016 00:30      63.9      63.4       77     56.4      0.00      0.00      83.7     0.54      1015.0     2       171         2       150        8.37     271      -57.4
   08/28/2016 00:20      63.8      63.4       76     55.9      0.00      0.00      84.1     0.54      1015.0     2       144         2       135        8.37     271      -57.8
   08/28/2016 00:10      64.4      64.0       75     56.2      0.00      0.00      83.9     0.54      1015.0     1       179         1       137        8.37     271      -57.7
   08/28/2016 00:00      64.4      64.2       75     56.2      0.00      0.00      84.2     0.54      1015.0     1       174         1       129        8.37     271      -58.4
   08/27/2016 23:50      64.6      64.3       74     56.0      0.00      0.00      83.8     0.54      1015.0     1       125         1       138        8.37     271      -59.0
   08/27/2016 23:40      64.9      64.8       73     55.9      0.00      0.00      83.7     0.54      1015.0     1       119         1       103        8.37     271      -59.6
   08/27/2016 23:30      65.4      65.0       72     56.1      0.00      0.00      84.1     0.54      1015.0     1       108         1       130        8.37     271      -60.4
   08/27/2016 23:20      65.6      65.3       72     56.2      0.00      0.00      84.3     0.54      1015.0     0        91         1        67        8.37     270      -60.7
   08/27/2016 23:10      66.2      65.7       71     56.4      0.00      0.00      84.1     0.54      1015.0     0        77         1        54        8.37     270      -61.0
   08/27/2016 23:00      66.4      66.2       71     56.6      0.00      0.00      84.1     0.54      1015.0     1        74         1        88        8.37     270      -62.0
   08/27/2016 22:50      66.6      66.3       70     56.5      0.00      0.00      84.2     0.54      1015.0     1       105         3       101        8.37     270      -62.6
   08/27/2016 22:40      66.8      66.6       69     56.4      0.00      0.00      84.2     0.54      1015.0     1       100         2        94        8.37     270      -62.8
   08/27/2016 22:30      67.2      66.9       69     56.6      0.00      0.00      84.4     0.54      1015.0     1       116         2       125        8.37     270      -63.7
   08/27/2016 22:20      67.4      67.1       69     56.7      0.00      0.00      83.9     0.54      1015.0     2       102         2        96        8.37     270      -64.3
   08/27/2016 22:10      67.7      67.3       68     56.6      0.00      0.00      84.2     0.54      1015.0     1        97         1        81        8.38     269      -64.9
   08/27/2016 22:00      67.9      67.7       67     56.4      0.00      0.00      84.1     0.54      1015.0     1        75         1       108        8.38     269      -65.2
   08/27/2016 21:50      68.4      68.0       65     55.8      0.00      0.00      83.8     0.54      1015.0     1        69         2        82        8.38     269      -65.4
   08/27/2016 21:40      68.9      68.5       64     55.9      0.00      0.00      84.1     0.54      1015.0     1       220         1       251        8.38     269      -65.7
   08/27/2016 21:30      69.3      68.9       63     56.0      0.00      0.00      84.1     0.54      1015.0     1       204         2       179        8.38     269      -67.3
   08/27/2016 21:20      69.7      69.3       62     55.9      0.00      0.00      83.9     0.54      1014.0     1       229         2       187        8.38     269      -68.0
   08/27/2016 21:10      69.8      69.7       61     55.9      0.00      0.00      84.0     0.54      1014.0     1        37         2        56        8.38     269      -68.1
   08/27/2016 21:00      70.0      69.7       61     55.9      0.00      0.00      84.0     0.54      1014.0     2       218         4       188        8.38     269      -68.6
   08/27/2016 20:50      70.4      70.1       60     55.9      0.00      0.00      83.9     0.54      1014.0     2       222         3       199        8.38     268      -69.1
   08/27/2016 20:40      70.9      70.3       59     55.7      0.00      0.00      84.0     0.54      1014.0     3       201         4       210        8.39     268      -70.1
   08/27/2016 20:30      71.0      70.8       59     55.9      0.00      0.00      83.9     0.54      1014.0     1       185         2       192        8.39     268      -70.7
   08/27/2016 20:20      71.5      71.2       58     55.9      0.00      0.00      83.9     0.54      1014.0     3       223         6       228        8.39     268      -70.9
   08/27/2016 20:10      71.7      71.4       58     55.9      0.00      0.00      83.9     0.54      1014.0     3       215         4       202        8.39     268      -71.5
   08/27/2016 20:00      72.3      71.7       57     55.9      0.00      0.00      83.8     0.54      1014.0     4       218         5       225        8.40     268      -72.7
   08/27/2016 19:50      73.0      72.4       56     55.9      0.00      0.00      83.9     0.54      1014.0     4       202         5       194        8.40     268      -73.7
   08/27/2016 19:40      73.5      73.0       55     55.9      0.00      0.00      83.9     0.54      1013.0     3       223         5       205        8.40     267      -74.4
   08/27/2016 19:30      74.0      73.7       54     56.0      0.00      0.00      83.9     0.54      1013.0     3       211         5       197        8.41     267      -73.3
   08/27/2016 19:20      75.3      74.2       52     56.0      0.00      0.00      83.6     0.54      1013.0     4       222         5       176        8.41     267      -69.9
   08/27/2016 19:10      75.8      75.4       50     55.9      0.00      0.00      83.7     0.54      1013.0     4       246         5       256        8.41     267      -63.8
   08/27/2016 19:00      76.3      76.0       50     56.0      0.00      0.00      83.6     0.54      1013.0     5       236         7       251        8.42     267      -53.4
   08/27/2016 18:50      77.4      76.3       48     56.0      0.00      0.00      83.8     0.54      1013.0     6       226         8       249        8.42     267      -38.7
   08/27/2016 18:40      78.4      77.5       47     55.9      0.00      0.00      83.5     0.54      1013.0     5       228         7       226        8.43     267      -20.6
   08/27/2016 18:30      78.6      78.3       45     55.6      0.00      0.00      83.5     0.54      1013.0     5       254         7       262        8.43     267       -0.1
   08/27/2016 18:20      79.5      78.8       44     55.7      0.00      0.00      83.4     0.54      1013.0     5       245         7       256        8.43     267       21.2
   08/27/2016 18:10      80.2      79.7       44     55.8      0.00      0.00      83.4     0.54      1013.0     5       276         6       280        8.44     267       42.2
   08/27/2016 18:00      80.0      79.3       44     55.7      0.00      0.00      83.4     0.54      1013.0     6       258         9       247        8.44     267       66.6
   08/27/2016 17:50      80.8      79.6       43     55.7      0.00      0.00      83.2     0.54      1013.0     4       256         7       251        8.44     267       91.1
   08/27/2016 17:40      81.0      80.5       42     55.8      0.00      0.00      83.4     0.54      1013.0     5       253         7       259        8.45     267      114.2
   08/27/2016 17:30      80.9      80.2       43     55.8      0.00      0.00      83.4     0.54      1013.0     5       252         9       264        8.45     267      137.8
   08/27/2016 17:20      81.7      81.2       42     55.8      0.00      0.00      83.2     0.54      1013.0     5       241         7       257        8.45     267      159.8
   08/27/2016 17:10      81.9      81.4       42     56.0      0.00      0.00      83.2     0.54      1013.0     5       253         9       266        8.46     267      181.0
   08/27/2016 17:00      83.1      82.0       41     56.3      0.00      0.00      83.0     0.54      1013.0     6       286         9       312        8.46     267      201.0
   08/27/2016 16:50      83.0      82.6       41     56.4      0.00      0.00      83.1     0.54      1013.0     6       296         7       294        8.46     267      223.1
   08/27/2016 16:40      83.1      82.2       41     56.3      0.00      0.00      83.2     0.54      1013.0     6       255         8       250        8.47     267      245.3
   08/27/2016 16:30      83.9      82.3       40     56.5      0.00      0.00      82.8     0.54      1013.0     5       251         7       226        8.47     267      267.4
   08/27/2016 16:20      84.6      84.0       39     56.9      0.00      0.00      82.8     0.54      1013.0     4       274         8       346        8.47     267      286.0
   08/27/2016 16:10      85.6      84.2       39     57.0      0.00      0.00      82.8     0.53      1013.0     6       276        10       314        8.47     268      307.6
   08/27/2016 16:00      85.1      84.0       40     57.1      0.00      0.00      83.1     0.53      1013.0     5       273         5       245        8.48     268      329.3
   08/27/2016 15:50      85.2      84.0       38     56.5      0.00      0.00      82.9     0.53      1013.0     4       242         8       262        8.48     268      347.5
   08/27/2016 15:40      85.0      83.8       38     55.9      0.00      0.00      82.6     0.53      1013.0     4       254         5       237        8.48     268      363.5
   08/27/2016 15:30      83.7      82.7       39     55.5      0.00      0.00      82.8     0.53      1013.0     2       185         4       226        8.49     268      382.2
   08/27/2016 15:20      85.4      83.5       37     55.8      0.00      0.00      82.5     0.53      1013.0     3       274         5       329        8.49     268      395.6
   08/27/2016 15:10      84.0      83.3       39     55.7      0.00      0.00      82.5     0.53      1013.0     4       320         8       304        8.49     269      412.6
   08/27/2016 15:00      83.5      82.5       39     55.2      0.00      0.00      82.6     0.53      1013.0     2       328         5       348        8.49     269      425.6
   08/27/2016 14:50      82.9      82.5       39     55.2      0.00      0.00      82.7     0.53      1013.0     4       359         6       357        8.49     269      439.0
   08/27/2016 14:40      82.7      81.5       39     54.9      0.00      0.00      82.5     0.53      1014.0     3       329         7       357        8.50     269      450.9
   08/27/2016 14:30      82.3      81.4       39     54.8      0.00      0.00      82.6     0.53      1014.0     3       314         6       317        8.50     269      461.0
   08/27/2016 14:20      81.9      81.4       40     54.8      0.00      0.00      82.3     0.53      1014.0     4       343         6       354        8.50     268      468.6
   08/27/2016 14:10      81.8      80.7       40     54.8      0.00      0.00      82.0     0.53      1014.0     4       325         5       297        8.50     268      480.8
   08/27/2016 14:00      81.0      79.9       41     54.8      0.00      0.00      82.3     0.53      1014.0     3       108         4       320        8.50     269      489.3
   08/27/2016 13:50      80.9      79.5       42     54.7      0.00      0.00      82.1     0.53      1014.0     3       357         6         3        8.50     269      494.8
   08/27/2016 13:40      80.5      79.0       42     54.7      0.00      0.00      82.5     0.53      1014.0     3       355         4        45        8.50     269      500.0
   08/27/2016 13:30      79.2      77.6       44     54.6      0.00      0.00      82.3     0.53      1015.0     3        48         5         6        8.50     269      505.4
   08/27/2016 13:20      77.8      76.5       46     54.6      0.00      0.00      82.4     0.53      1015.0     3        40         5        81        8.50     270      509.1
   08/27/2016 13:10      77.3      75.0       48     55.3      0.00      0.00      82.3     0.53      1015.0     3         5         5        71        8.51     270      512.4
   08/27/2016 13:00      76.6      75.7       49     55.6      0.00      0.00      82.3     0.53      1015.0     3         8         4       329        8.51     271      513.9
   08/27/2016 12:50      76.5      74.7       50     56.0      0.00      0.00      82.2     0.53      1015.0     3        17         3         6        8.51     271      515.8
   08/27/2016 12:40      75.2      73.8       53     56.1      0.00      0.00      82.3     0.53      1015.0     2       350         5       352        8.51     272      520.7
   08/27/2016 12:30      73.5      72.4       56     56.2      0.00      0.00      82.2     0.53      1015.0     2       324         4       343        8.51     272      519.9
   08/27/2016 12:20      73.2      72.3       56     56.4      0.00      0.00      82.4     0.53      1015.0     4       352         5       296        8.51     272      516.2
   08/27/2016 12:10      73.2      72.3       56     56.4      0.00      0.00      82.5     0.53      1016.0     2       356         4       357        8.51     272      509.6
   08/27/2016 12:00      73.0      72.1       57     56.4      0.00      0.00      82.2     0.53      1016.0     2       359         4       110        8.51     272      513.8
   08/27/2016 11:50      72.7      70.8       59     56.4      0.00      0.00      82.5     0.53      1016.0     2        70         5        73        8.51     272      518.4
   08/27/2016 11:40      71.3      70.4       60     56.4      0.00      0.00      82.6     0.53      1016.0     3       353         5       358        8.51     272      538.0
   08/27/2016 11:30      70.5      68.6       62     56.4      0.00      0.00      82.6     0.54      1016.0     3         6         6       337        8.51     272      565.9
   08/27/2016 11:20      68.3      67.6       65     56.0      0.00      0.00      82.7     0.54      1016.0     2       305         3       279        8.51     273      425.8
   08/27/2016 11:10      68.3      67.1       67     56.1      0.00      0.00      82.5     0.54      1016.0     2       310         4       319        8.51     273      267.7
   08/27/2016 11:00      67.3      66.2       69     56.1      0.00      0.00      82.6     0.54      1016.0     2        67         3        69        8.52     273      210.8
   08/27/2016 10:50      66.2      65.5       71     56.0      0.00      0.00      82.7     0.54      1016.0     2       158         3       153        8.51     273      160.9
   08/27/2016 10:40      65.6      65.2       72     56.1      0.00      0.00      82.4     0.54      1016.0     3       152         6       137        8.52     273      128.1
   08/27/2016 10:30      65.4      65.0       73     56.3      0.00      0.00      82.3     0.54      1016.0     2       157         4       121        8.52     273      106.9
   08/27/2016 10:20      65.2      64.6       74     56.4      0.00      0.00      82.6     0.54      1016.0     3       151         4       134        8.52     273       98.7
   08/27/2016 10:10      65.3      64.9       73     56.3      0.00      0.00      82.9     0.54      1016.0     3       172         4       149        8.52     273       81.3
   08/27/2016 10:00      65.3      64.9       73     56.4      0.00      0.00      82.9     0.54      1016.0     2       278         2       302        8.52     273       75.7
   08/27/2016 09:50      65.1      64.3       75     56.4      0.00      0.00      82.4     0.54      1016.0     1        53         2       354        8.52     273       61.5
   08/27/2016 09:40      64.4      63.8       76     56.3      0.00      0.00      82.5     0.54      1016.0     2        98         3       103        8.52     273       54.9
   08/27/2016 09:30      64.3      63.8       76     56.2      0.00      0.00      82.9     0.54      1016.0     2       169         4       120        8.52     273       47.2
   08/27/2016 09:20      64.3      63.6       76     56.4      0.00      0.00      82.6     0.54      1016.0     1       116         2       126        8.52     273       41.4
   08/27/2016 09:10      64.3      63.8       76     56.3      0.00      0.00      82.9     0.54      1016.0     1       186         3       194        8.52     273       41.4
   08/27/2016 09:00      64.1      63.8       76     56.4      0.00      0.00      82.9     0.54      1016.0     2       125         3       150        8.52     273       40.3
   08/27/2016 08:50      64.1      63.8       76     56.3      0.00      0.00      82.9     0.54      1016.0     2        78         3       112        8.52     273       32.6
   08/27/2016 08:40      64.0      63.3       77     56.2      0.00      0.00      82.8     0.54      1016.0     2         7         3         2        8.52     274       28.0
   08/27/2016 08:30      63.5      63.3       77     56.2      0.00      0.00      82.9     0.54      1016.0     1        47         2        24        8.52     273       24.0
   08/27/2016 08:20      63.5      63.1       78     56.3      0.00      0.00      82.6     0.54      1016.0     2       335         3         3        8.52     274       25.1
   08/27/2016 08:10      63.3      62.6       79     56.2      0.00      0.00      83.5     0.54      1016.0     1       172         2       226        8.52     274       24.4
   08/27/2016 08:00      62.6      62.3       79     56.0      0.00      0.00      82.8     0.54      1015.0     2       213         2       228        8.52     274       18.5
   08/27/2016 07:50      62.5      62.3       80     56.0      0.00      0.00      83.0     0.54      1015.0     2       218         3       225        8.52     274       15.7
   08/27/2016 07:40      62.7      62.4       79     56.1      0.00      0.00      83.2     0.54      1015.0     1       178         3       213        8.52     275       10.9
   08/27/2016 07:30      62.6      62.3       80     56.1      0.00      0.00      83.2     0.54      1015.0     1         9         3       339        8.52     275        4.2
   08/27/2016 07:20      62.3      62.1       80     56.1      0.00      0.00      83.4     0.54      1015.0     1       358         2       325        8.52     276        0.2
   08/27/2016 07:10      62.3      62.1       80     56.1      0.00      0.00      83.0     0.54      1015.0     1       107         4        86        8.52     277       -4.3
   08/27/2016 07:00      62.2      61.8       81     56.0      0.00      0.00      82.8     0.54      1015.0     1       151         3       146        8.52     277       -8.6
   08/27/2016 06:50      62.0      61.8       81     55.9      0.00      0.00      83.0     0.54      1015.0     2       137         3       163        8.52     277      -10.6
   08/27/2016 06:40      62.0      61.7       81     55.9      0.00      0.00      83.2     0.54      1015.0     1       119         3       126        8.52     278      -12.8
   08/27/2016 06:30      61.9      61.7       81     55.9      0.00      0.00      83.7     0.54      1015.0     1       252         2       247        8.52     278      -14.0
   08/27/2016 06:20      61.9      61.7       81     55.9      0.00      0.00      83.4     0.54      1015.0     2       321         4       318        8.52     278      -14.9
   08/27/2016 06:10      62.0      61.7       81     55.9      0.00      0.00      83.4     0.54      1015.0     1       270         3       329        8.52     278      -15.0
   08/27/2016 06:00      61.9      61.7       81     55.9      0.00      0.00      83.3     0.54      1014.0     1       151         2       181        8.52     278      -14.9
   08/27/2016 05:50      61.9      61.7       81     55.9      0.00      0.00      83.6     0.54      1014.0     1       180         2       187        8.52     279      -14.8
   08/27/2016 05:40      62.0      61.7       81     55.9      0.00      0.00      83.3     0.54      1014.0     1       160         2       135        8.52     279      -14.7
   08/27/2016 05:30      61.9      61.6       81     55.7      0.00      0.00      83.5     0.54      1014.0     1       258         2       267        8.52     279      -14.5
   08/27/2016 05:20      61.6      61.4       81     55.7      0.00      0.00      83.5     0.54      1014.0     2       255         3       232        8.52     280      -14.3
   08/27/2016 05:10      61.5      61.3       82     55.8      0.00      0.00      83.8     0.54      1014.0     2       255         3       236        8.52     280      -14.3
   08/27/2016 05:00      61.4      61.3       82     55.9      0.00      0.00      83.2     0.54      1014.0     2       237         3       230        8.52     280      -14.2
   08/27/2016 04:50      61.3      60.9       83     55.8      0.00      0.00      83.7     0.54      1014.0     2       261         3       268        8.52     280      -14.1
   08/27/2016 04:40      61.0      60.9       83     55.8      0.00      0.00      83.9     0.54      1014.0     2       239         3       241        8.52     281      -13.9
   08/27/2016 04:30      60.9      60.6       84     55.6      0.00      0.00      83.9     0.54      1014.0     3       235         4       255        8.52     282      -14.0
   08/27/2016 04:20      60.7      60.4       84     55.7      0.00      0.00      83.5     0.54      1014.0     2       222         3       258        8.52     284      -14.8
   08/27/2016 04:10      60.7      60.4       85     55.8      0.00      0.00      83.8     0.54      1014.0     1       228         2       248        8.53     284      -14.9
   08/27/2016 04:00      60.5      60.2       85     55.9      0.00      0.00      83.8     0.54      1014.0     1       143         1       132        8.53     284      -14.6
   08/27/2016 03:50      60.3      59.8       86     55.7      0.00      0.00      83.7     0.55      1014.0     0       111         1       341        8.53     284      -14.2
   08/27/2016 03:40      59.9      59.2       86     55.2      0.00      0.00      83.8     0.55      1014.0     1       177         2       177        8.53     284      -14.3
   08/27/2016 03:30      59.3      58.5       87     55.0      0.00      0.00      84.1     0.55      1014.0     2       172         2       164        8.53     284      -16.4
   08/27/2016 03:20      58.5      57.7       88     54.6      0.00      0.00      84.5     0.55      1014.0     2       172         2       176        8.53     284      -20.8
   08/27/2016 03:10      58.1      57.9       88     54.6      0.00      0.00      83.8     0.55      1014.0     1       155         1       140        8.53     282      -29.6
   08/27/2016 03:00      58.2      57.9       88     54.4      0.00      0.00      84.2     0.55      1014.0     1       197         2       196        8.53     279      -43.5
   08/27/2016 02:50      58.5      58.2       88     54.8      0.00      0.00      83.6     0.55      1014.0     1       207         1       193        8.53     279      -46.3
   08/27/2016 02:40      58.6      58.4       87     54.6      0.00      0.00      84.7     0.55      1015.0     1       183         2       163        8.53     278      -49.2
   08/27/2016 02:30      58.9      58.5       86     54.6      0.00      0.00      84.3     0.55      1014.0     2       181         3       159        8.53     278      -50.0
   08/27/2016 02:20      59.1      58.8       86     54.7      0.00      0.00      84.5     0.55      1014.0     2       193         3       186        8.53     278      -50.2
   08/27/2016 02:10      59.3      59.0       86     55.0      0.00      0.00      83.9     0.55      1014.0     1       179         2       173        8.53     276      -49.9
   08/27/2016 02:00      59.4      59.2       86     54.9      0.00      0.00      84.4     0.55      1014.0     1       105         1       127        8.53     276      -53.2
   08/27/2016 01:50      59.6      59.4       84     54.6      0.00      0.00      84.3     0.55      1014.0     1       122         1       109        8.53     275      -56.0
   08/27/2016 01:40      60.0      59.7       83     54.7      0.00      0.00      84.2     0.55      1014.0     1       130         1       120        8.53     275      -57.1
   08/27/2016 01:30      60.0      59.8       83     54.9      0.00      0.00      84.7     0.55      1014.0     1       101         2       101        8.53     274      -58.3
   08/27/2016 01:20      60.2      59.9       82     54.4      0.00      0.00      84.2     0.55      1014.0     1        74         1        85        8.53     274      -59.0
   08/27/2016 01:10      60.4      60.2       81     54.5      0.00      0.00      84.7     0.55      1014.0     1        94         1        77        8.53     274      -60.5
   08/27/2016 01:00      61.2      60.5       80     54.8      0.00      0.00      84.5     0.55      1014.0     1        93         1       126        8.53     273      -61.0
   08/27/2016 00:50      61.5      61.3       81     55.4      0.00      0.00      84.5     0.55      1014.0     1        76         1        83        8.53     273      -61.0
   08/27/2016 00:40      61.7      61.4       80     55.3      0.00      0.00      84.6     0.55      1014.0     1        62         1        65        8.53     273      -61.1
   08/27/2016 00:30      61.7      61.5       82     56.0      0.00      0.00      84.6     0.55      1014.0     1        32         2        22        8.53     272      -60.4
   08/27/2016 00:20      61.7      61.3       83     56.3      0.00      0.00      84.6     0.55      1014.0     1        77         2        99        8.53     272      -60.5
   08/27/2016 00:10      61.5      61.1       81     55.5      0.00      0.00      84.7     0.55      1014.0     1        96         2       111        8.53     272      -61.9
   08/27/2016 00:00      62.2      61.7       81     55.9      0.00      0.00      84.7     0.55      1014.0     1       118         1       126        8.53     271      -61.4
   08/26/2016 23:50      62.5      62.3       80     56.2      0.00      0.00      84.4     0.55      1014.0     1        85         1        68        8.53     271      -62.8
   08/26/2016 23:40      62.8      62.5       80     56.4      0.00      0.00      84.5     0.55      1014.0     1       123         2       137        8.53     271      -62.8
   08/26/2016 23:30      62.8      62.8       80     56.6      0.00      0.00      84.8     0.55      1014.0     1       185         2       205        8.53     271      -63.2
   08/26/2016 23:20      63.4      62.9       79     56.5      0.00      0.00      84.5     0.55      1014.0     1       205         1       194        8.53     271      -63.7
   08/26/2016 23:10      63.5      63.3       79     56.6      0.00      0.00      84.4     0.55      1014.0     1       278         2       237        8.54     271      -64.4
   08/26/2016 23:00      63.4      63.2       79     56.7      0.00      0.00      84.7     0.55      1014.0     2       229         3       244        8.54     271      -65.0
   08/26/2016 22:50      63.5      63.2       79     56.6      0.00      0.00      84.6     0.55      1014.0     2       199         2       190        8.54     270      -65.4
   08/26/2016 22:40      63.7      63.4       78     56.6      0.00      0.00      84.7     0.55      1014.0     2       218         3       243        8.54     270      -66.4
   08/26/2016 22:30      64.0      63.7       78     56.8      0.00      0.00      85.0     0.55      1014.0     3       228         4       247        8.54     270      -67.5
   08/26/2016 22:20      64.0      63.7       78     56.8      0.00      0.00      84.7     0.55      1014.0     3       232         6       226        8.54     270      -68.3
   08/26/2016 22:10      64.1      63.8       77     56.8      0.00      0.00      84.8     0.55      1014.0     3       213         5       212        8.54     270      -69.0
   08/26/2016 22:00      64.6      64.3       76     56.6      0.00      0.00      84.7     0.55      1014.0     3       215         6       203        8.54     269      -70.4
   08/26/2016 21:50      64.9      64.6       75     56.6      0.00      0.00      84.8     0.55      1014.0     4       226         5       240        8.54     269      -70.6
   08/26/2016 21:40      65.1      64.8       74     56.6      0.00      0.00      84.8     0.55      1014.0     4       234         6       229        8.54     269      -70.4
   08/26/2016 21:30      65.4      65.2       73     56.6      0.00      0.00      84.6     0.55      1014.0     4       238         6       229        8.54     269      -70.9
   08/26/2016 21:20      65.7      65.4       73     56.5      0.00      0.00      84.9     0.55      1014.0     4       234         7       245        8.54     269      -72.0
   08/26/2016 21:10      66.3      65.7       72     56.5      0.00      0.00      84.8     0.55      1014.0     3       226         6       198        8.55     269      -72.9
   08/26/2016 21:00      66.5      66.3       71     56.5      0.00      0.00      84.8     0.55      1014.0     4       230         6       232        8.55     269      -73.3
   08/26/2016 20:50      67.2      66.7       69     56.5      0.00      0.00      84.6     0.55      1014.0     4       226         6       247        8.55     269      -73.9
   08/26/2016 20:40      67.6      67.2       68     56.4      0.00      0.00      84.5     0.55      1014.0     5       236         7       240        8.55     269      -74.7
   08/26/2016 20:30      68.2      67.6       66     56.2      0.00      0.00      84.4     0.55      1014.0     4       236         5       261        8.56     268      -75.5
   08/26/2016 20:20      68.9      68.3       64     56.0      0.00      0.00      84.6     0.55      1014.0     4       241         6       236        8.56     268      -76.1
   08/26/2016 20:10      69.2      68.8       63     55.9      0.00      0.00      84.6     0.55      1013.0     4       225         7       241        8.56     268      -76.9
   08/26/2016 20:00      69.9      69.3       62     55.9      0.00      0.00      84.5     0.55      1013.0     4       237         7       241        8.56     268      -77.7
   08/26/2016 19:50      70.5      70.0       60     56.0      0.00      0.00      84.5     0.55      1013.0     4       227         8       232        8.57     268      -78.6
   08/26/2016 19:40      71.3      70.5       59     56.0      0.00      0.00      84.6     0.55      1013.0     5       220         7       248        8.57     268      -79.1
   08/26/2016 19:30      72.0      71.3       58     56.1      0.00      0.00      84.3     0.55      1013.0     4       221         5       237        8.58     268      -78.4
   08/26/2016 19:20      73.2      72.2       56     56.2      0.00      0.00      84.5     0.55      1013.0     5       226         7       240        8.59     267      -75.3
   08/26/2016 19:10      73.8      73.4       55     56.2      0.00      0.00      84.7     0.55      1013.0     4       222         8       253        8.59     267      -70.1
   08/26/2016 19:00      74.2      73.8       54     56.2      0.00      0.00      84.6     0.55      1012.0     4       206         5       213        8.60     267      -60.7
   08/26/2016 18:50      74.4      74.1       53     56.0      0.00      0.00      84.2     0.55      1012.0     4       195         5       214        8.60     267      -48.0
   08/26/2016 18:40      74.9      74.3       53     56.1      0.00      0.00      84.4     0.55      1012.0     4       188         5       200        8.60     267      -31.1
   08/26/2016 18:30      75.6      75.2       51     56.3      0.00      0.00      84.2     0.55      1012.0     4       174         6       180        8.61     267      -12.9
   08/26/2016 18:20      76.6      75.7       50     56.5      0.00      0.00      84.2     0.55      1012.0     5       154         7       156        8.62     267        8.3
   08/26/2016 18:10      77.3      76.6       49     56.5      0.00      0.00      84.2     0.55      1012.0     5       161         7       161        8.62     267       31.1
   08/26/2016 18:00      77.5      76.8       49     56.5      0.00      0.00      84.4     0.55      1012.0     5       152         7       134        8.63     267       55.3
   08/26/2016 17:50      77.6      77.4       48     56.5      0.00      0.00      84.0     0.55      1012.0     6       155         8       174        8.63     267       79.8
   08/26/2016 17:40      78.1      77.7       48     56.4      0.00      0.00      84.1     0.55      1012.0     5       146         6       144        8.63     267      103.1
   08/26/2016 17:30      78.5      77.9       47     56.2      0.00      0.00      84.1     0.55      1012.0     5       151         7       131        8.64     267      126.9
   08/26/2016 17:20      78.5      77.8       47     56.0      0.00      0.00      83.9     0.55      1012.0     5       179         7       196        8.64     267      149.4
   08/26/2016 17:10      79.6      78.7       45     56.1      0.00      0.00      84.0     0.55      1012.0     5       181         8       176        8.64     267      165.6
   08/26/2016 17:00      80.6      79.8       44     56.1      0.00      0.00      84.0     0.55      1012.0     5       217         7       196        8.65     267      187.8
   08/26/2016 16:50      81.3      80.3       42     55.7      0.00      0.00      83.9     0.55      1012.0     4       167         6       176        8.65     267      213.5
   08/26/2016 16:40      80.8      79.8       41     54.6      0.00      0.00      83.7     0.55      1012.0     3       208         5       200        8.65     267      237.6
   08/26/2016 16:30      80.3      79.8       41     54.6      0.00      0.00      83.9     0.55      1012.0     4       183         6       149        8.66     267      260.6
   08/26/2016 16:20      80.4      79.8       42     54.6      0.00      0.00      83.8     0.55      1012.0     6       178         7       201        8.66     267      285.4
   08/26/2016 16:10      80.2      79.7       42     54.6      0.00      0.00      83.9     0.55      1012.0     6       201         8       204        8.66     267      306.9
   08/26/2016 16:00      80.7      79.8       42     55.0      0.00      0.00      83.4     0.54      1012.0     6       181         9       170        8.66     268      325.9
   08/26/2016 15:50      81.1      80.7       41     55.1      0.00      0.00      83.4     0.54      1012.0     7       155        11       165        8.67     268      346.4
   08/26/2016 15:40      83.3      81.3       40     55.4      0.00      0.00      83.5     0.54      1012.0     5       137         8       135        8.67     268      364.7
   08/26/2016 15:30      84.2      82.6       38     55.5      0.00      0.00      83.3     0.54      1012.0     4        57         7        93        8.68     269      375.6
   08/26/2016 15:20      83.5      82.9       39     55.5      0.00      0.00      83.5     0.54      1012.0     4        32         6         2        8.68     269      390.8
   08/26/2016 15:10      83.1      81.4       40     55.6      0.00      0.00      83.4     0.54      1013.0     3        79         5       133        8.68     269      408.5
   08/26/2016 15:00      83.0      82.5       40     55.8      0.00      0.00      83.4     0.54      1013.0     4        37         7       131        8.68     269      419.5
   08/26/2016 14:50      83.8      82.9       39     55.9      0.00      0.00      83.4     0.54      1013.0     4        49         6        71        8.69     270      434.3
   08/26/2016 14:40      84.0      82.7       39     56.0      0.00      0.00      83.2     0.54      1013.0     3        34         5        81        8.69     270      446.2
   08/26/2016 14:30      83.4      82.1       40     55.8      0.00      0.00      83.0     0.54      1013.0     4        42         6        61        8.69     269      456.4
   08/26/2016 14:20      82.5      81.9       40     55.7      0.00      0.00      83.1     0.54      1013.0     4        40         5        19        8.69     269      465.9
   08/26/2016 14:10      82.7      82.0       40     55.8      0.00      0.00      83.0     0.54      1013.0     4        21         6        30        8.69     269      474.6
   08/26/2016 14:00      82.4      81.6       41     55.9      0.00      0.00      83.0     0.54      1013.0     4        20         6        64        8.70     270      485.2
   08/26/2016 13:50      82.3      80.8       42     56.1      0.00      0.00      83.2     0.54      1014.0     5         3         8         2        8.70     270      485.7
   08/26/2016 13:40      81.4      79.5       43     56.0      0.00      0.00      83.0     0.54      1014.0     4         6         6       359        8.70     270      491.4
   08/26/2016 13:30      80.4      79.6       44     56.0      0.00      0.00      83.2     0.54      1014.0     5         5         8       329        8.70     270      493.3
   08/26/2016 13:20      80.8      79.4       44     56.1      0.00      0.00      83.1     0.54      1014.0     4       339        10       348        8.70     270      504.3
   08/26/2016 13:10      79.8      78.7       45     56.3      0.00      0.00      83.1     0.54      1014.0     3        44         4        26        8.70     270      512.9
   08/26/2016 13:00      79.9      78.5       45     56.4      0.00      0.00      83.1     0.54      1014.0     3        78         5       114        8.70     272      512.0
   08/26/2016 12:50      78.5      77.2       48     56.5      0.00      0.00      83.0     0.54      1014.0     3        38         5        31        8.70     272      510.5
   08/26/2016 12:40      78.0      76.7       48     56.6      0.00      0.00      83.0     0.54      1014.0     3       359         7       325        8.71     272      510.6
   08/26/2016 12:30      76.9      76.0       51     56.6      0.00      0.00      82.9     0.54      1014.0     3        46         4        33        8.71     272      511.6
   08/26/2016 12:20      76.7      75.3       51     56.5      0.00      0.00      83.1     0.54      1015.0     4        95         8        91        8.71     272      509.7
   08/26/2016 12:10      76.3      75.2       52     56.8      0.00      0.00      82.9     0.54      1015.0     4       351         6         3        8.71     272      508.6
   08/26/2016 12:00      75.7      74.5       53     56.7      0.00      0.00      83.1     0.54      1015.0     3        60         7        69        8.71     273      504.0
   08/26/2016 11:50      74.3      73.0       56     56.6      0.00      0.00      83.0     0.54      1015.0     3        28         5        15        8.71     273      500.4
   08/26/2016 11:40      73.4      73.0       56     56.7      0.00      0.00      83.1     0.54      1015.0     5         5         6       359        8.71     273      494.9
   08/26/2016 11:30      74.1      73.5       55     56.5      0.00      0.00      82.9     0.54      1015.0     3        62         5        71        8.71     273      487.2
   08/26/2016 11:20      73.2      72.3       57     56.6      0.00      0.00      83.1     0.54      1015.0     3        38         4        15        8.71     273      483.9
   08/26/2016 11:10      72.4      71.2       58     56.6      0.00      0.00      82.9     0.54      1015.0     3        23         4        23        8.71     274      476.6
   08/26/2016 11:00      71.4      70.2       61     56.6      0.00      0.00      83.1     0.54      1015.0     3        21         5        37        8.72     274      436.3
   08/26/2016 10:50      71.3      69.9       61     56.6      0.00      0.00      83.2     0.54      1015.0     3        32         6        89        8.72     273      466.6
   08/26/2016 10:40      69.9      68.8       63     56.5      0.00      0.00      83.1     0.55      1015.0     2        41         3        27        8.72     275      403.4
   08/26/2016 10:30      68.6      68.0       66     56.4      0.00      0.00      83.0     0.55      1015.0     2       128         4       129        8.72     277      229.6
   08/26/2016 10:20      68.1      67.3       67     56.5      0.00      0.00      83.3     0.55      1015.0     3        92         4        85        8.72     281      231.9
   08/26/2016 10:10      67.6      67.0       68     56.4      0.00      0.00      83.1     0.55      1015.0     2         2         3         1        8.72     284      197.8
   08/26/2016 10:00      67.5      66.7       69     56.5      0.00      0.00      83.1     0.55      1015.0     2        44         3       208        8.72     286      163.5
   08/26/2016 09:50      66.7      66.3       70     56.4      0.00      0.00      83.4     0.55      1015.0     1        98         2        90        8.72     289      144.0
   08/26/2016 09:40      66.3      65.3       72     56.5      0.00      0.00      83.1     0.55      1015.0     3        74         6       130        8.72     291      149.9
   08/26/2016 09:30      65.4      64.7       74     56.7      0.00      0.00      83.3     0.55      1015.0     3       137         5       162        8.72     293      107.5
   08/26/2016 09:20      64.9      64.5       75     56.8      0.00      0.00      83.1     0.55      1015.0     3       134         5       115        8.72     294       87.2
   08/26/2016 09:10      65.4      64.7       74     56.8      0.00      0.00      83.4     0.55      1015.0     3       116         6       138        8.72     295       83.8
   08/26/2016 09:00      65.0      64.5       75     56.8      0.00      0.00      83.5     0.55      1015.0     4       121         6       123        8.72     296       71.6
   08/26/2016 08:50      64.9      64.3       76     56.8      0.00      0.00      83.8     0.55      1015.0     2        99         4       128        8.72     297       59.8
   08/26/2016 08:40      64.5      64.2       76     56.7      0.00      0.00      83.2     0.55      1015.0     3        90         4       159        8.73     297       53.6
   08/26/2016 08:30      64.9      64.5       75     56.7      0.00      0.00      83.4     0.55      1015.0     3       135         5       122        8.73     298       48.1
   08/26/2016 08:20      65.0      64.5       75     56.5      0.00      0.00      83.5     0.55      1015.0     2        73         2        93        8.73     298       44.5
   08/26/2016 08:10      64.7      64.3       75     56.4      0.00      0.00      83.7     0.55      1014.0     3        65         6        92        8.73     298       42.0
   08/26/2016 08:00      64.7      64.1       75     56.5      0.00      0.00      83.7     0.55      1014.0     2        80         4       129        8.73     298       27.2
   08/26/2016 07:50      64.4      63.8       76     56.4      0.00      0.00      83.5     0.55      1014.0     3        89         4        58        8.73     298       21.0
   08/26/2016 07:40      64.2      64.0       76     56.2      0.00      0.00      83.8     0.55      1014.0     4       102         6        91        8.73     298       19.3
   08/26/2016 07:30      64.3      64.0       75     56.1      0.00      0.00      83.7     0.55      1014.0     3        97         4        73        8.73     297       13.6
   08/26/2016 07:20      64.4      64.0       74     55.9      0.00      0.00      83.9     0.55      1014.0     2        73         5        93        8.73     297       10.0
   08/26/2016 07:10      64.2      63.9       74     55.8      0.00      0.00      83.5     0.55      1014.0     3        69         4        71        8.73     295        3.0
   08/26/2016 07:00      64.1      63.8       74     55.6      0.00      0.00      83.6     0.55      1014.0     3        76         4        82        8.73     294       -5.4
   08/26/2016 06:50      64.1      63.8       74     55.6      0.00      0.00      83.8     0.55      1014.0     2        89         4        73        8.73     292      -12.8
   08/26/2016 06:40      64.3      64.0       74     55.7      0.00      0.00      83.8     0.55      1014.0     2        94         4       134        8.73     292      -17.7
   08/26/2016 06:30      64.3      64.0       74     55.9      0.00      0.00      84.0     0.55      1014.0     3        94         5        91        8.73     292      -23.0
   08/26/2016 06:20      64.3      64.1       74     55.9      0.00      0.00      84.4     0.55      1014.0     2        89         3       121        8.73     292      -21.5
   08/26/2016 06:10      64.4      64.2       74     55.9      0.00      0.00      83.9     0.55      1014.0     2       103         4       124        8.73     291      -23.8
   08/26/2016 06:00      64.6      64.3       74     55.9      0.00      0.00      84.4     0.55      1014.0     2       104         4        93        8.73     291      -20.9
   08/26/2016 05:50      64.6      64.3       74     55.8      0.00      0.00      83.9     0.55      1013.0     2        47         3        37        8.73     291      -25.8
   08/26/2016 05:40      64.6      64.3       74     56.1      0.00      0.00      83.7     0.55      1013.0     2       103         4       129        8.73     290      -25.0
   08/26/2016 05:30      64.8      64.5       75     56.4      0.00      0.00      84.3     0.55      1013.0     3        88         4        73        8.73     290      -22.7
   08/26/2016 05:20      64.9      64.6       74     56.4      0.00      0.00      84.0     0.55      1013.0     2       100         3        65        8.73     291      -18.4
   08/26/2016 05:10      64.9      64.5       74     56.3      0.00      0.00      84.5     0.55      1013.0     2        99         4       118        8.74     290      -19.1
   08/26/2016 05:00      65.0      64.7       74     56.4      0.00      0.00      84.4     0.55      1013.0     3        99         4       133        8.74     290      -23.6
   08/26/2016 04:50      65.1      64.8       74     56.5      0.00      0.00      84.1     0.55      1013.0     2        80         3        95        8.74     290      -18.8
   08/26/2016 04:40      65.0      64.6       75     56.5      0.00      0.00      84.2     0.55      1013.0     2        57         3        87        8.74     290      -21.0
   08/26/2016 04:30      64.9      64.7       76     57.0      0.00      0.00      84.3     0.55      1013.0     3        91         5       100        8.74     289      -21.3
   08/26/2016 04:20      64.7      64.6       76     57.1      0.00      0.00      83.8     0.55      1013.0     3       111         5       119        8.74     289      -19.3
   08/26/2016 04:10      64.9      64.7       77     57.2      0.00      0.00      84.1     0.55      1013.0     5       116         5       142        8.74     288      -18.2
   08/26/2016 04:00      64.9      64.6       78     57.6      0.00      0.00      84.5     0.55      1013.0     4       109         5        76        8.74     288      -18.5
   08/26/2016 03:50      64.9      64.6       79     58.0      0.00      0.00      84.3     0.55      1013.0     3       102         5       113        8.74     288      -16.9
   08/26/2016 03:40      64.7      64.4       79     58.0      0.00      0.00      84.7     0.55      1013.0     3        99         5       108        8.74     288      -17.2
   08/26/2016 03:30      64.6      64.4       79     58.0      0.00      0.00      84.3     0.55      1013.0     3       124         5       133        8.74     288      -17.2
   08/26/2016 03:20      64.6      64.3       79     58.0      0.00      0.00      84.5     0.55      1013.0     3       122         4        92        8.74     288      -16.1
   08/26/2016 03:10      64.5      64.2       80     58.0      0.00      0.00      84.2     0.55      1013.0     3        98         4       144        8.74     288      -15.9
   08/26/2016 03:00      64.5      64.2       80     58.1      0.00      0.00      84.5     0.55      1013.0     3        92         4        90        8.75     288      -15.9
   08/26/2016 02:50      64.4      64.0       81     58.1      0.00      0.00      84.5     0.56      1013.0     2        87         4       110        8.75     288      -15.6
   08/26/2016 02:40      64.0      63.8       81     58.0      0.00      0.00      84.6     0.55      1013.0     3        66         5        82        8.75     287      -15.8
   08/26/2016 02:30      64.0      63.7       81     57.9      0.00      0.00      84.9     0.56      1013.0     2        65         3        67        8.75     287      -16.2
   08/26/2016 02:20      63.9      63.5       82     58.0      0.00      0.00      84.5     0.56      1013.0     3        75         3        90        8.75     287      -15.8
   08/26/2016 02:10      63.8      63.7       82     58.1      0.00      0.00      84.4     0.56      1013.0     3        99         5       153        8.75     287      -15.7
   08/26/2016 02:00      63.9      63.7       81     58.0      0.00      0.00      84.7     0.56      1013.0     2        92         4        75        8.75     287      -15.8
   08/26/2016 01:50      63.8      63.5       81     57.9      0.00      0.00      84.7     0.56      1013.0     2       116         3        76        8.75     286      -15.6
   08/26/2016 01:40      63.8      63.5       81     57.8      0.00      0.00      84.6     0.56      1013.0     2       105         5       132        8.75     287      -15.7
   08/26/2016 01:30      63.5      63.3       81     57.6      0.00      0.00      84.8     0.56      1013.0     3        95         6       122        8.75     286      -15.6
   08/26/2016 01:20      63.4      63.0       81     57.3      0.00      0.00      84.7     0.56      1013.0     2       146         2       117        8.75     286      -15.8
   08/26/2016 01:10      63.1      62.8       81     57.1      0.00      0.00      84.8     0.56      1013.0     1       174         2       168        8.75     285      -17.2
   08/26/2016 01:00      62.8      62.3       82     57.0      0.00      0.00      84.7     0.56      1013.0     2       139         3       138        8.75     284      -22.8
   08/26/2016 00:50      62.6      62.5       81     56.8      0.00      0.00      84.8     0.56      1013.0     1       118         1       130        8.75     281      -39.2
   08/26/2016 00:40      62.9      62.6       82     57.1      0.00      0.00      84.7     0.56      1013.0     2       119         2       113        8.75     279      -60.8
   08/26/2016 00:30      62.9      62.8       81     57.0      0.00      0.00      84.8     0.56      1013.0     2       118         3       122        8.75     278      -61.9
   08/26/2016 00:20      63.4      63.0       80     56.9      0.00      0.00      85.0     0.56      1013.0     2       119         3       131        8.76     276      -62.0
   08/26/2016 00:10      63.6      63.2       80     57.1      0.00      0.00      85.1     0.56      1013.0     2       110         4       130        8.76     276      -62.4
   08/26/2016 00:00      64.1      63.8       80     57.7      0.00      0.00      85.0     0.56      1013.0     2        71         3        20        8.76     275      -62.6
   08/25/2016 23:50      64.3      64.2       78     57.4      0.00      0.00      85.2     0.56      1013.0     2        65         3        35        8.76     274      -62.8
   08/25/2016 23:40      64.9      64.3       77     57.5      0.00      0.00      84.9     0.56      1013.0     2       114         3       120        8.76     273      -63.1
   08/25/2016 23:30      65.4      65.1       76     57.6      0.00      0.00      85.1     0.56      1013.0     2        93         3       116        8.76     273      -63.1
   08/25/2016 23:20      65.8      65.5       75     57.5      0.00      0.00      85.2     0.56      1013.0     2        85         3        82        8.76     273      -62.9
   08/25/2016 23:10      66.1      65.7       74     57.4      0.00      0.00      85.1     0.56      1013.0     2        87         2        71        8.76     271      -63.3
   08/25/2016 23:00      66.4      66.2       73     57.6      0.00      0.00      85.1     0.56      1013.0     2        83         3        61        8.76     271      -63.6
   08/25/2016 22:50      66.7      66.4       74     58.0      0.00      0.00      85.2     0.56      1013.0     2        49         3        54        8.76     271      -64.5
   08/25/2016 22:40      66.9      66.6       73     58.0      0.00      0.00      84.9     0.56      1013.0     1        74         2        65        8.76     270      -64.4
   08/25/2016 22:30      67.3      66.9       72     58.0      0.00      0.00      85.0     0.56      1013.0     2        56         3        69        8.77     270      -64.7
   08/25/2016 22:20      67.5      67.3       71     57.8      0.00      0.00      85.2     0.56      1013.0     2        57         3        77        8.77     269      -65.1
   08/25/2016 22:10      67.8      67.5       71     57.9      0.00      0.00      85.1     0.56      1013.0     2        70         4        73        8.77     269      -65.5
   08/25/2016 22:00      68.1      67.9       70     58.0      0.00      0.00      85.0     0.56      1013.0     2        59         3        38        8.77     269      -66.4
   08/25/2016 21:50      68.7      68.2       69     58.1      0.00      0.00      85.3     0.56      1013.0     2        38         3        22        8.77     269      -66.6
   08/25/2016 21:40      69.2      68.7       68     58.1      0.00      0.00      85.0     0.56      1013.0     3        46         4        80        8.77     269      -66.7
   08/25/2016 21:30      69.7      69.3       67     57.9      0.00      0.00      85.2     0.56      1013.0     2        42         4        67        8.78     269      -66.7
   08/25/2016 21:20      70.3      69.8       65     57.9      0.00      0.00      85.1     0.56      1012.0     2        59         4        71        8.78     270      -67.3
   08/25/2016 21:10      70.3      70.2       65     57.8      0.00      0.00      85.2     0.56      1012.0     2        60         4        77        8.78     270      -67.0
   08/25/2016 21:00      70.2      69.8       64     57.2      0.00      0.00      85.1     0.56      1012.0     2        63         4        78        8.78     270      -67.5
   08/25/2016 20:50      70.3      69.9       62     56.4      0.00      0.00      85.2     0.56      1012.0     1       204         2       121        8.78     270      -67.5
   08/25/2016 20:40      70.6      70.4       62     56.8      0.00      0.00      85.1     0.56      1012.0     1       186         2       215        8.79     270      -69.3
   08/25/2016 20:30      70.8      70.5       62     56.9      0.00      0.00      84.9     0.56      1012.0     2       177         2       164        8.79     270      -69.5
   08/25/2016 20:20      71.2      70.8       61     56.8      0.00      0.00      84.9     0.56      1012.0     2       189         2       189        8.79     270      -70.8
   08/25/2016 20:10      71.5      71.3       60     56.9      0.00      0.00      85.0     0.56      1012.0     1       176         2       169        8.79     270      -71.7
   08/25/2016 20:00      71.8      71.5       60     57.0      0.00      0.00      85.0     0.56      1012.0     2       177         3       161        8.79     270      -72.0
   08/25/2016 19:50      72.5      71.8       59     57.0      0.00      0.00      85.0     0.56      1012.0     3       161         5       181        8.79     270      -72.9
   08/25/2016 19:40      72.7      72.3       58     56.9      0.00      0.00      85.0     0.56      1012.0     3       162         5       174        8.80     270      -73.4
   08/25/2016 19:30      73.3      72.9       57     56.8      0.00      0.00      84.8     0.56      1012.0     4       169         6       163        8.80     269      -72.2
   08/25/2016 19:20      74.3      73.2       55     56.6      0.00      0.00      84.8     0.56      1012.0     4       176         5       186        8.80     269      -68.3
   08/25/2016 19:10      75.5      74.7       51     56.1      0.00      0.00      84.9     0.56      1012.0     4       161         6       175        8.80     269      -63.4
   08/25/2016 19:00      76.4      75.7       49     55.4      0.00      0.00      84.8     0.56      1011.0     4       154         5       176        8.81     269      -54.6
   08/25/2016 18:50      77.9      76.8       45     54.3      0.00      0.00      84.9     0.56      1011.0     3       152         5       122        8.81     269      -42.9
   08/25/2016 18:40      78.4      77.9       40     51.9      0.00      0.00      84.7     0.56      1011.0     4       135         6       142        8.81     269      -26.9
   08/25/2016 18:30      79.0      78.4       41     53.2      0.00      0.00      84.8     0.56      1011.0     5       143         6       162        8.82     269       -7.5
   08/25/2016 18:20      79.6      79.2       39     52.4      0.00      0.00      84.9     0.56      1011.0     5       119         7       130        8.82     269       13.6
   08/25/2016 18:10      80.2      79.5       38     52.3      0.00      0.00      84.5     0.56      1011.0     5       131         8       132        8.82     269       33.1
   08/25/2016 18:00      80.3      79.9       38     51.9      0.00      0.00      84.5     0.56      1011.0     3       150         6       159        8.83     269       52.8
   08/25/2016 17:50      81.0      80.4       36     51.2      0.00      0.00      84.6     0.56      1011.0     4       138         5       146        8.83     269       73.4
   08/25/2016 17:40      81.5      80.7       35     50.5      0.00      0.00      84.6     0.56      1011.0     4       139         6       151        8.83     269       93.8
   08/25/2016 17:30      81.9      81.3       35     51.5      0.00      0.00      84.5     0.56      1011.0     4       118         6       134        8.84     269      116.8
   08/25/2016 17:20      82.3      81.5       34     50.6      0.00      0.00      84.5     0.56      1011.0     4       137         5       143        8.84     269      138.3
   08/25/2016 17:10      82.9      82.1       33     50.5      0.00      0.00      84.4     0.56      1011.0     3       101         5       130        8.84     269      157.8
   08/25/2016 17:00      82.9      81.9       34     51.6      0.00      0.00      84.3     0.56      1011.0     3       123         5       159        8.85     269      179.7
   08/25/2016 16:50      83.5      82.3       33     51.0      0.00      0.00      84.3     0.56      1011.0     4       112         5       142        8.85     269      200.0
   08/25/2016 16:40      83.6      82.4       32     50.5      0.00      0.00      84.3     0.56      1011.0     4       149         6       152        8.85     269      221.8
   08/25/2016 16:30      83.2      82.5       30     48.4      0.00      0.00      84.2     0.56      1011.0     3       119         5       150        8.86     269      241.7
   08/25/2016 16:20      83.0      82.4       28     46.2      0.00      0.00      84.1     0.56      1011.0     5       138         7       151        8.86     269      263.8
   08/25/2016 16:10      83.1      81.9       27     45.6      0.00      0.00      84.1     0.56      1011.0     6       136         9       153        8.87     268      284.8
   08/25/2016 16:00      83.6      83.1       29     47.9      0.00      0.00      84.0     0.56      1011.0     5       115         8       148        8.87     270      308.3
   08/25/2016 15:50      83.2      82.3       31     49.3      0.00      0.00      84.0     0.56      1012.0     6       116         9       128        8.87     269      330.2
   08/25/2016 15:40      83.5      82.6       33     51.1      0.00      0.00      83.9     0.56      1012.0     5       125         9       129        8.88     269      348.5
   08/25/2016 15:30      83.8      82.6       35     52.5      0.00      0.00      84.0     0.56      1012.0     7       143        10       134        8.88     269      367.2
   08/25/2016 15:20      84.1      83.1       33     51.1      0.00      0.00      84.0     0.56      1012.0     5       140         8       134        8.89     269      382.7
   08/25/2016 15:10      84.8      83.6       32     51.3      0.00      0.00      83.8     0.56      1012.0     5       135         7       134        8.89     270      398.0
   08/25/2016 15:00      85.5      84.6       32     51.9      0.00      0.00      83.5     0.56      1012.0     5       136         8       169        8.90     270      409.7
   08/25/2016 14:50      85.1      83.7       34     53.2      0.00      0.00      83.7     0.56      1012.0     5       136        12       137        8.90     270      424.3
   08/25/2016 14:40      85.7      83.9       34     53.5      0.00      0.00      83.4     0.56      1012.0     5        89         7       115        8.91     270      437.1
   08/25/2016 14:30      86.2      84.5       34     53.5      0.00      0.00      83.5     0.56      1012.0     6        86         9        98        8.91     270      448.8
   08/25/2016 14:20      86.2      84.5       33     53.0      0.00      0.00      83.4     0.56      1012.0     6       100        10       126        8.91     270      454.9
   08/25/2016 14:10      84.9      84.0       34     53.4      0.00      0.00      83.4     0.56      1012.0     6        87         9        69        8.92     270      464.2
   08/25/2016 14:00      86.3      84.9       35     54.9      0.00      0.00      83.2     0.55      1012.0     6       107         8       120        8.92     270      471.8
   08/25/2016 13:50      86.8      86.2       34     54.8      0.00      0.00      83.5     0.55      1012.0     5        71         7        96        8.92     270      476.2
   08/25/2016 13:40      86.7      86.1       36     56.2      0.00      0.00      83.2     0.55      1012.0     4        70         5        26        8.93     271      479.8
   08/25/2016 13:30      86.2      85.6       37     56.5      0.00      0.00      83.3     0.55      1012.0     4        59         5        51        8.93     271      482.7
   08/25/2016 13:20      86.3      85.9       36     56.1      0.00      0.00      83.5     0.55      1012.0     4        45         8        76        8.93     272      486.0
   08/25/2016 13:10      85.8      85.2       36     55.6      0.00      0.00      83.3     0.55      1012.0     4        63         8       101        8.93     272      488.6
   08/25/2016 13:00      85.9      85.0       36     55.3      0.00      0.00      83.4     0.55      1012.0     4        45         7        63        8.93     273      487.8
   08/25/2016 12:50      85.6      84.2       37     55.7      0.00      0.00      83.2     0.55      1013.0     4        37         6        52        8.93     274      489.2
   08/25/2016 12:40      83.8      83.3       39     56.4      0.00      0.00      83.1     0.55      1013.0     4        26         6        36        8.93     274      486.8
   08/25/2016 12:30      83.7      82.6       40     56.6      0.00      0.00      83.2     0.55      1013.0     3        39         6        97        8.93     275      489.5
   08/25/2016 12:20      83.0      81.7       42     56.5      0.00      0.00      83.1     0.55      1013.0     3        62         4        90        8.94     275      487.6
   08/25/2016 12:10      81.9      81.5       42     56.3      0.00      0.00      83.2     0.55      1013.0     4        35         6        76        8.94     276      486.5
   08/25/2016 12:00      81.4      80.7       44     57.0      0.00      0.00      83.1     0.55      1013.0     3        49         4        67        8.94     276      484.1
   08/25/2016 11:50      81.2      80.5       44     57.0      0.00      0.00      83.3     0.55      1013.0     4        43         5        66        8.94     276      478.7
   08/25/2016 11:40      81.3      79.9       46     57.8      0.00      0.00      83.1     0.55      1014.0     4        32         6        76        8.94     277      472.6
   08/25/2016 11:30      80.5      79.8       46     57.5      0.00      0.00      83.1     0.55      1014.0     3        42         4        19        8.94     281      465.7
   08/25/2016 11:20      79.8      79.0       47     57.5      0.00      0.00      83.4     0.55      1014.0     3        51         5        79        8.94     289      458.3
   08/25/2016 11:10      79.2      77.9       49     57.5      0.00      0.00      83.2     0.55      1014.0     3        48         6        74        8.94     294      448.2
   08/25/2016 11:00      78.7      77.4       49     57.4      0.00      0.00      83.5     0.55      1014.0     3        50         6        26        8.94     304      438.4
   08/25/2016 10:50      77.5      76.6       50     57.1      0.00      0.00      83.1     0.56      1014.0     3        27         5        57        8.94     322      426.5
   08/25/2016 10:40      77.3      76.6       50     56.9      0.00      0.00      83.2     0.56      1014.0     3         9         5         4        8.94     336      414.2
   08/25/2016 10:30      76.4      75.2       51     56.7      0.00      0.00      83.7     0.56      1014.0     3        24         6        80        8.94     345      401.5
   08/25/2016 10:20      75.5      75.2       52     56.7      0.00      0.00      83.3     0.56      1014.0     3        15         4        20        8.94     351      385.6
   08/25/2016 10:10      75.6      74.6       53     56.6      0.00      0.00      83.4     0.56      1014.0     3        33         4        32        8.94     356      369.0
   08/25/2016 10:00      74.6      73.7       54     56.5      0.00      0.00      83.6     0.56      1014.0     3        33         4        67        8.94     361      349.9
   08/25/2016 09:50      74.2      72.9       55     56.6      0.00      0.00      83.8     0.56      1015.0     2        31         4       346        8.94     366      333.6
   08/25/2016 09:40      72.9      72.3       57     56.4      0.00      0.00      83.8     0.56      1015.0     2        44         4        36        8.94     371      313.8
   08/25/2016 09:30      72.7      71.7       57     56.3      0.00      0.00      83.8     0.56      1015.0     2        11         4        33        8.94     374      293.9
   08/25/2016 09:20      71.8      70.0       59     55.8      0.00      0.00      84.0     0.56      1015.0     3       108         4        63        8.94     379      276.0
   08/25/2016 09:10      70.3      69.4       60     55.5      0.00      0.00      84.0     0.56      1014.0     2       339         4         4        8.94     385      253.0
   08/25/2016 09:00      71.0      70.2       59     55.6      0.00      0.00      83.8     0.56      1014.0     2        30         4       353        8.94     388      231.2
   08/25/2016 08:50      70.1      69.2       61     55.5      0.00      0.00      83.9     0.56      1015.0     2        89         3       100        8.94     391      206.4
   08/25/2016 08:40      69.6      68.7       61     55.1      0.00      0.00      83.6     0.56      1015.0     2       140         2       118        8.94     392      183.2
   08/25/2016 08:30      69.2      68.2       61     54.9      0.00      0.00      83.7     0.56      1015.0     2        84         2        86        8.94     395      160.2
   08/25/2016 08:20      68.9      68.2       61     54.5      0.00      0.00      83.6     0.56      1015.0     1        67         2       143        8.94     397      137.4
   08/25/2016 08:10      68.1      66.2       63     54.2      0.00      0.00      84.1     0.56      1015.0     1        50         2        76        8.95     398      115.4
   08/25/2016 08:00      66.1      65.3       66     54.0      0.00      0.00      84.1     0.56      1015.0     1        11         2        24        8.95     398       92.2
   08/25/2016 07:50      65.6      65.0       67     53.9      0.00      0.00      84.1     0.57      1015.0     1        27         2       345        8.95     398       17.5
   08/25/2016 07:40      65.0      64.0       68     53.7      0.00      0.00      84.2     0.57      1015.0     1       123         2       127        8.95     397       -5.0
   08/25/2016 07:30      64.1      63.0       69     53.3      0.00      0.00      84.4     0.57      1014.0     1       145         1       138        8.95     397       -5.7
   08/25/2016 07:20      63.0      61.8       71     52.8      0.00      0.00      84.4     0.57      1014.0     1       172         1       190        8.95     396      -19.4
   08/25/2016 07:10      61.6      60.8       73     52.5      0.00      0.00      84.3     0.57      1014.0     1       160         1       182        8.95     395      -25.4
   08/25/2016 07:00      60.9      60.2       75     52.5      0.00      0.00      84.2     0.57      1014.0     1       160         1       142        8.95     395      -31.6
   08/25/2016 06:50      60.4      59.9       75     52.2      0.00      0.00      84.4     0.57      1014.0     1       185         1       194        8.95     394      -38.4
   08/25/2016 06:40      60.0      59.8       76     52.4      0.00      0.00      84.0     0.57      1014.0     1       153         2       151        8.95     393      -44.8
   08/25/2016 06:30      60.0      59.9       76     52.4      0.00      0.00      84.6     0.57      1014.0     1       165         1       138        8.95     391      -49.6
   08/25/2016 06:20      60.0      59.8       77     52.5      0.00      0.00      84.5     0.57      1014.0     1       157         1       153        8.95     389      -51.6
   08/25/2016 06:10      60.1      59.8       76     52.4      0.00      0.00      84.5     0.57      1014.0     1       165         1       148        8.95     393      -52.6
   08/25/2016 06:00      60.0      59.8       76     52.2      0.00      0.00      85.0     0.57      1014.0     1       145         2       147        8.95     392      -53.3
   08/25/2016 05:50      60.1      59.9       75     52.2      0.00      0.00      84.4     0.57      1014.0     1       140         1       153        8.95     390      -54.0
   08/25/2016 05:40      60.4      60.1       74     52.1      0.00      0.00      84.1     0.57      1014.0     1       132         1       124        8.95     389      -54.3
   08/25/2016 05:30      60.5      60.3       75     52.4      0.00      0.00      85.0     0.57      1014.0     1       166         1       157        8.95     388      -54.4
   08/25/2016 05:20      60.5      60.1       74     52.0      0.00      0.00      84.6     0.57      1014.0     2       137         2       132        8.95     387      -55.3
   08/25/2016 05:10      60.4      60.0       74     51.8      0.00      0.00      84.7     0.57      1014.0     1       162         2       142        8.95     385      -55.2
   08/25/2016 05:00      60.5      60.3       73     51.7      0.00      0.00      84.9     0.57      1014.0     2       140         2       139        8.95     383      -55.9
   08/25/2016 04:50      60.9      60.5       72     51.6      0.00      0.00      85.3     0.57      1014.0     2       142         2       140        8.95     381      -56.0
   08/25/2016 04:40      61.0      60.8       71     51.4      0.00      0.00      85.3     0.57      1014.0     1       144         2       136        8.96     378      -55.9
   08/25/2016 04:30      61.0      60.8       70     51.0      0.00      0.00      85.2     0.57      1014.0     1       182         1       185        8.96     378      -56.3
   08/25/2016 04:20      61.1      60.8       71     51.5      0.00      0.00      85.3     0.57      1014.0     1       144         1       152        8.96     377      -56.0
   08/25/2016 04:10      61.0      60.8       70     51.2      0.00      0.00      84.8     0.57      1014.0     1       146         1       150        8.96     375      -56.7
   08/25/2016 04:00      61.4      61.2       70     51.5      0.00      0.00      85.2     0.57      1014.0     1       131         2       129        8.96     372      -58.1
   08/25/2016 03:50      61.3      61.1       70     51.5      0.00      0.00      85.0     0.57      1014.0     2       134         2       127        8.96     369      -58.4
   08/25/2016 03:40      61.7      61.3       70     51.5      0.00      0.00      85.5     0.57      1014.0     1       147         2       147        8.96     367      -58.6
   08/25/2016 03:30      61.9      61.5       69     51.3      0.00      0.00      85.2     0.57      1014.0     1       140         2       140        8.96     365      -58.8
   08/25/2016 03:20      62.2      61.8       70     51.9      0.00      0.00      85.4     0.57      1014.0     1       149         1       157        8.96     363      -58.5
   08/25/2016 03:10      62.2      62.0       67     51.0      0.00      0.00      85.1     0.57      1014.0     1       137         2       136        8.96     361      -59.0
   08/25/2016 03:00      62.4      62.2       67     51.2      0.00      0.00      85.3     0.57      1014.0     1       169         1       160        8.96     358      -58.6
   08/25/2016 02:50      62.6      62.3       66     51.1      0.00      0.00      85.4     0.57      1014.0     1       143         2       133        8.96     355      -59.0
   08/25/2016 02:40      62.8      62.5       66     51.2      0.00      0.00      85.4     0.58      1014.0     1       143         1       140        8.97     352      -59.3
   08/25/2016 02:30      63.1      62.8       66     51.4      0.00      0.00      85.3     0.58      1014.0     0       101         0       148        8.97     349      -58.6
   08/25/2016 02:20      63.3      63.1       66     51.5      0.00      0.00      85.3     0.58      1014.0     0        99         1       100        8.97     345      -59.8
   08/25/2016 02:10      63.4      63.2       65     51.3      0.00      0.00      85.2     0.58      1014.0     1       136         2       143        8.97     341      -60.5
   08/25/2016 02:00      63.5      63.4       65     51.4      0.00      0.00      85.7     0.58      1014.0     1       148         1       131        8.97     337      -60.5
   08/25/2016 01:50      64.1      63.5       64     51.3      0.00      0.00      85.5     0.58      1014.0     1       141         2       143        8.97     334      -60.7
   08/25/2016 01:40      64.3      64.1       63     51.4      0.00      0.00      86.0     0.58      1014.0     1       137         1       130        8.97     330      -60.7
   08/25/2016 01:30      64.5      64.1       62     51.0      0.00      0.00      85.6     0.58      1014.0     1       124         1       143        8.98     327      -61.4
   08/25/2016 01:20      64.9      64.5       61     51.1      0.00      0.00      85.6     0.58      1014.0     1        95         1       111        8.98     324      -61.4
   08/25/2016 01:10      65.2      64.9       60     50.7      0.00      0.00      85.7     0.58      1014.0     1       113         2       101        8.98     319      -62.2
   08/25/2016 01:00      65.5      65.1       60     50.9      0.00      0.00      85.7     0.58      1014.0     1       119         2       136        8.98     316      -62.7
   08/25/2016 00:50      65.4      65.2       59     50.5      0.00      0.00      85.8     0.58      1014.0     1       110         2       113        8.98     313      -63.0
   08/25/2016 00:40      65.8      65.5       58     50.7      0.00      0.00      85.9     0.58      1014.0     1       118         2       106        8.98     309      -62.7
   08/25/2016 00:30      66.2      65.8       58     50.8      0.00      0.00      85.6     0.58      1014.0     1       110         2        86        8.99     306      -63.5
   08/25/2016 00:20      66.6      66.3       57     51.0      0.00      0.00      86.1     0.58      1014.0     1        92         2       121        8.99     303      -63.6
   08/25/2016 00:10      66.7      66.5       58     51.2      0.00      0.00      85.8     0.58      1014.0     1        91         2        84        8.99     300      -64.9
   08/25/2016 00:00      66.8      66.6       57     51.1      0.00      0.00      86.1     0.58      1014.0     2       114         3       129        9.00     298      -65.4
   08/24/2016 23:50      67.0      66.8       57     51.1      0.00      0.00      85.7     0.58      1014.0     2       110         2       124        9.00     296      -65.4
   08/24/2016 23:40      67.2      67.1       56     51.0      0.00      0.00      86.1     0.58      1014.0     2        99         3       107        9.00     295      -65.8
   08/24/2016 23:30      67.5      67.3       56     50.9      0.00      0.00      86.0     0.58      1014.0     2        93         3        97        9.00     293      -65.9
   08/24/2016 23:20      67.5      67.2       55     50.5      0.00      0.00      86.0     0.58      1014.0     2       118         3       133        9.01     291      -66.7
   08/24/2016 23:10      67.7      67.4       54     50.5      0.00      0.00      85.8     0.58      1014.0     1        95         3       113        9.01     289      -67.0
   08/24/2016 23:00      68.0      67.7       53     50.3      0.00      0.00      86.4     0.58      1014.0     1       108         2        93        9.01     287      -67.0
   08/24/2016 22:50      68.1      67.9       53     50.4      0.00      0.00      86.1     0.58      1014.0     1        89         3        78        9.01     286      -67.1
   08/24/2016 22:40      68.4      68.1       53     50.4      0.00      0.00      85.6     0.58      1014.0     2        92         3        67        9.01     284      -67.4
   08/24/2016 22:30      69.2      68.5       52     50.4      0.00      0.00      85.8     0.58      1014.0     2        86         3        97        9.01     283      -67.5
   08/24/2016 22:20      69.5      69.1       51     50.6      0.00      0.00      86.2     0.58      1014.0     2        76         3        68        9.02     282      -68.0
   08/24/2016 22:10      69.8      69.3       51     50.6      0.00      0.00      86.2     0.58      1014.0     2        69         3       112        9.02     281      -68.1
   08/24/2016 22:00      70.3      70.0       50     50.6      0.00      0.00      85.9     0.58      1014.0     2        95         2       114        9.02     279      -68.5
   08/24/2016 21:50      70.8      70.4       49     50.6      0.00      0.00      85.9     0.58      1014.0     2        86         3        84        9.02     279      -68.8
   08/24/2016 21:40      71.3      70.8       48     50.4      0.00      0.00      86.1     0.58      1014.0     2        93         3       115        9.02     277      -68.8
   08/24/2016 21:30      72.3      71.5       46     50.0      0.00      0.00      86.0     0.58      1014.0     2        79         3        65        9.03     277      -69.7
   08/24/2016 21:20      72.7      72.2       45     49.9      0.00      0.00      86.2     0.59      1014.0     2        72         3        64        9.03     275      -69.8
   08/24/2016 21:10      73.1      72.8       45     50.1      0.00      0.00      85.9     0.59      1014.0     2        55         4        84        9.03     275      -70.3
   08/24/2016 21:00      73.9      73.2       44     50.5      0.00      0.00      86.0     0.59      1014.0     2        88         4        79        9.03     274      -70.7
   08/24/2016 20:50      74.4      74.0       44     50.8      0.00      0.00      85.9     0.59      1014.0     2        68         3       114        9.03     273      -71.3
   08/24/2016 20:40      74.9      74.5       44     51.2      0.00      0.00      86.2     0.59      1013.0     2        87         2        67        9.04     272      -71.4
   08/24/2016 20:30      75.7      75.0       43     51.5      0.00      0.00      85.9     0.59      1013.0     2        97         3        72        9.04     271      -72.0
   08/24/2016 20:20      76.3      75.8       43     52.0      0.00      0.00      86.1     0.59      1013.0     2        92         4        73        9.04     271      -72.7
   08/24/2016 20:10      77.3      76.3       42     52.2      0.00      0.00      85.8     0.59      1013.0     2        83         3        92        9.04     270      -73.8
   08/24/2016 20:00      78.5      77.5       41     52.2      0.00      0.00      86.2     0.59      1013.0     3        81         3        74        9.04     270      -74.7
   08/24/2016 19:50      79.1      78.5       39     51.9      0.00      0.00      86.3     0.59      1013.0     2        66         2        65        9.05     270      -75.7
   08/24/2016 19:40      79.7      79.1       39     52.0      0.00      0.00      86.0     0.59      1013.0     2        68         3        70        9.05     270      -75.8
   08/24/2016 19:30      80.8      79.8       38     52.3      0.00      0.00      85.8     0.59      1013.0     2        76         2        80        9.05     270      -74.8
   08/24/2016 19:20      82.1      81.0       37     52.6      0.00      0.00      85.9     0.59      1013.0     2        94         3        96        9.05     271      -71.3
   08/24/2016 19:10      84.3      82.5       35     53.1      0.00      0.00      85.9     0.59      1013.0     2        71         4        62        9.06     272      -65.5
   08/24/2016 19:00      84.3      84.1       34     52.8      0.00      0.00      86.0     0.59      1012.0     1       189         2       219        9.06     272      -55.1
   08/24/2016 18:50      85.6      84.4       33     52.9      0.00      0.00      85.6     0.59      1012.0     3       190         5       218        9.06     272      -42.8
   08/24/2016 18:40      86.2      85.3       33     52.9      0.00      0.00      85.8     0.59      1012.0     3       202         4       224        9.07     271      -27.1
   08/24/2016 18:30      87.8      86.5       31     53.3      0.00      0.00      85.7     0.59      1012.0     2       237         4       207        9.07     271       -9.8
   08/24/2016 18:20      88.3      87.7       31     53.4      0.00      0.00      85.7     0.59      1012.0     3       269         4       236        9.07     271        8.9
   08/24/2016 18:10      88.7      88.0       31     53.4      0.00      0.00      85.7     0.59      1012.0     3       290         5       260        9.08     271       25.5
   08/24/2016 18:00      89.0      88.5       30     53.4      0.00      0.00      85.6     0.59      1012.0     3       288         5       299        9.08     272       45.1
   08/24/2016 17:50      89.5      88.6       30     53.3      0.00      0.00      85.5     0.59      1012.0     4       245         6       250        9.08     272       66.7
   08/24/2016 17:40      90.0      89.1       29     53.3      0.00      0.00      85.5     0.59      1012.0     4       261         6       227        9.08     272       87.4
   08/24/2016 17:30      91.4      89.8       29     53.8      0.00      0.00      85.4     0.59      1012.0     4       229         6       220        9.08     271      108.7
   08/24/2016 17:20      91.8      91.5       29     54.5      0.00      0.00      85.5     0.59      1012.0     5       299         8       315        9.08     272      128.0
   08/24/2016 17:10      92.8      91.5       29     55.0      0.00      0.00      85.5     0.59      1012.0     5       264         7       274        9.08     272      152.1
   08/24/2016 17:00      93.2      92.6       28     54.9      0.00      0.00      85.3     0.59      1012.0     4       286         5       310        9.08     272      172.7
   08/24/2016 16:50      94.0      93.2       26     54.1      0.00      0.00      85.4     0.60      1012.0     3        88         4        89        9.08     272      194.3
   08/24/2016 16:40      94.0      93.0       27     54.1      0.00      0.00      85.2     0.60      1012.0     3        47         4        22        9.08     272      211.4
   08/24/2016 16:30      93.5      92.9       27     54.6      0.00      0.00      85.3     0.60      1012.0     4        30         6         9        9.08     272      231.3
   08/24/2016 16:20      93.4      92.7       28     54.9      0.00      0.00      85.2     0.60      1012.0     3        34         5        30        9.08     272      248.7
   08/24/2016 16:10      94.4      93.3       27     54.7      0.00      0.00      85.2     0.60      1013.0     4        25         8       355        9.08     272      272.0
   08/24/2016 16:00      94.4      93.7       27     54.4      0.00      0.00      85.3     0.60      1013.0     4        54         7        71        9.08     272      299.9
   08/24/2016 15:50      94.3      94.0       26     54.4      0.00      0.00      85.1     0.60      1013.0     4        48         6        67        9.08     272      323.4
   08/24/2016 15:40      94.7      94.2       26     54.3      0.00      0.00      85.2     0.60      1013.0     4        51         5        94        9.08     273      345.4
   08/24/2016 15:30      95.1      93.5       26     54.1      0.00      0.00      84.9     0.60      1013.0     4        14         6        10        9.09     273      363.4
   08/24/2016 15:20      94.0      93.0       26     53.7      0.00      0.00      85.1     0.60      1013.0     3        99         5       130        9.09     273      382.3
   08/24/2016 15:10      94.7      93.7       26     54.0      0.00      0.00      84.6     0.60      1013.0     3        39         6        20        9.09     274      398.2
   08/24/2016 15:00      94.6      94.1       25     53.6      0.00      0.00      85.0     0.60      1013.0     4        30         6        42        9.09     274      411.0
   08/24/2016 14:50      94.0      92.6       26     53.3      0.00      0.00      84.7     0.61      1014.0     4        75         7       101        9.09     277      422.5
   08/24/2016 14:40      93.2      92.3       26     53.2      0.00      0.00      84.5     0.61      1014.0     5        94         9        84        9.09     281      435.7
   08/24/2016 14:30      93.7      92.3       27     53.9      0.00      0.00      84.7     0.61      1014.0     4       100         7       104        9.09     286      443.6
   08/24/2016 14:20      93.5      92.6       27     54.0      0.00      0.00      84.6     0.61      1014.0     3        48         5        88        9.09     292      452.2
   08/24/2016 14:10      93.7      92.7       27     54.4      0.00      0.00      84.6     0.61      1014.0     3        37         6         3        9.09     300      464.5
   08/24/2016 14:00      93.0      91.4       28     54.5      0.00      0.00      84.3     0.61      1014.0     4        83         6       116        9.09     308      477.4
   08/24/2016 13:50      92.9      91.7       27     53.9      0.00      0.00      84.0     0.61      1014.0     4        60         7        75        9.09     318      482.6
   08/24/2016 13:40      92.9      91.8       27     53.9      0.00      0.00      84.1     0.62      1014.0     4        43         8        73        9.09     332      492.3
   08/24/2016 13:30      92.4      91.4       28     53.9      0.00      0.00      84.6     0.62      1015.0     4        84         6        83        9.09     344      506.9
   08/24/2016 13:20      91.6      90.8       29     54.3      0.00      0.00      84.3     0.62      1015.0     3        45         4        50        9.08     350      515.3
   08/24/2016 13:10      90.9      90.3       29     54.5      0.00      0.00      83.9     0.63      1015.0     3        17         5         3        9.08     358      524.5
   08/24/2016 13:00      91.1      89.8       29     54.4      0.00      0.00      84.0     0.64      1015.0     5        27         8       331        9.08     372      536.6
   08/24/2016 12:50      91.4      90.1       29     54.4      0.00      0.00      83.9     0.64      1015.0     2        48         4        82        9.08     397      552.5
   08/24/2016 12:40      90.4      89.0       30     54.2      0.00      0.00      84.1     0.66      1015.0     3        17         4        23        9.07     418      566.2
   08/24/2016 12:30      89.4      87.9       30     53.5      0.00      0.00      84.0     0.54      1015.0     2        44         4        40        8.19     273      489.7
   08/24/2016 12:20      88.9      88.0       31     53.6      0.00      0.00      84.0     0.55      1015.0     3        29         4       358        8.19     271      486.1
   08/24/2016 12:10      88.5      87.1       31     53.6      0.00      0.00      84.1     0.55      1016.0     2        30         4        65        8.19     271      477.0
   08/24/2016 12:00      87.7      86.2       33     54.0      0.00      0.00      84.1     0.55      1016.0     3        22         4         2        8.19     271      477.2
   08/24/2016 11:50      86.8      86.3       34     54.7      0.00      0.00      84.1     0.55      1016.0     2        11         3        38        8.20     271      472.9
   08/24/2016 11:40      86.2      85.0       35     54.8      0.00      0.00      84.1     0.55      1016.0     2        43         5        83        8.20     271      465.0
   08/24/2016 11:30      86.1      84.3       35     54.7      0.00      0.00      84.2     0.55      1016.0     2         1         4        60        8.20     272      460.7
   08/24/2016 11:20      84.4      83.4       37     54.6      0.00      0.00      84.0     0.55      1016.0     3        13         5        78        8.20     271      456.0
   08/24/2016 11:10      83.3      82.5       38     54.5      0.00      0.00      84.1     0.55      1017.0     3       345         3        21        8.20     272      448.5
   08/24/2016 11:00      82.6      81.8       39     54.5      0.00      0.00      84.2     0.55      1017.0     2        16         4       355        8.20     272      438.9
   08/24/2016 10:50      82.4      81.0       40     54.6      0.00      0.00      84.1     0.55      1017.0     3        12         4       343        8.20     272      426.0
   08/24/2016 10:40      81.1      80.0       40     54.2      0.00      0.00      84.1     0.55      1017.0     3       338         5       353        8.20     272      414.9
   08/24/2016 10:30      81.2      79.2       40     54.2      0.00      0.00      84.4     0.55      1017.0     3       356         3        34        8.21     273      404.0
   08/24/2016 10:20      79.3      78.7       42     53.9      0.00      0.00      84.3     0.55      1017.0     2       342         3       323        8.21     276      391.2
   08/24/2016 10:10      79.4      78.6       42     54.2      0.00      0.00      84.3     0.55      1017.0     2        41         4       355        8.21     280      377.8
   08/24/2016 10:00      78.8      77.3       44     54.5      0.00      0.00      84.2     0.55      1017.0     2        37         2        41        8.21     283      363.7
   08/24/2016 09:50      78.0      77.2       45     54.8      0.00      0.00      84.2     0.55      1017.0     2        46         4        24        8.21     286      348.2
   08/24/2016 09:40      77.4      75.0       48     55.4      0.00      0.00      84.4     0.55      1017.0     1        47         2       350        8.22     291      326.4
   08/24/2016 09:30      75.4      75.0       50     55.0      0.00      0.00      84.6     0.55      1017.0     3       348         4         0        8.22     294      305.9
   08/24/2016 09:20      75.4      73.6       51     55.0      0.00      0.00      84.5     0.55      1017.0     2        52         4        79        8.22     297      286.5
   08/24/2016 09:10      73.8      72.5       55     55.8      0.00      0.00      84.7     0.55      1017.0     1       338         2        18        8.22     299      266.1
   08/24/2016 09:00      73.0      72.5       56     56.3      0.00      0.00      84.4     0.56      1017.0     2       359         3       350        8.23     300      244.1
   08/24/2016 08:50      72.8      71.9       57     56.4      0.00      0.00      84.5     0.56      1017.0     2       343         3         2        8.23     302      221.9
   08/24/2016 08:40      71.9      70.3       60     56.5      0.00      0.00      84.8     0.56      1017.0     1       297         2        28        8.23     304      201.1
   08/24/2016 08:30      70.5      69.9       62     56.5      0.00      0.00      84.8     0.56      1017.0     2         1         2       355        8.23     305      176.6
   08/24/2016 08:20      70.1      69.8       63     56.6      0.00      0.00      84.4     0.56      1017.0     1       345         2       344        8.24     307      153.7
   08/24/2016 08:10      69.9      69.0       64     56.8      0.00      0.00      84.4     0.56      1017.0     2        73         2       103        8.24     308      130.0
   08/24/2016 08:00      69.0      67.3       67     56.6      0.00      0.00      84.9     0.56      1017.0     1        41         2        82        8.24     306      108.4
   08/24/2016 07:50      67.5      67.0       68     56.4      0.00      0.00      84.7     0.56      1017.0     1       331         2       344        8.24     304       36.4
   08/24/2016 07:40      67.0      65.9       69     55.9      0.00      0.00      84.9     0.56      1017.0     1       235         1       213        8.24     304      -12.3
   08/24/2016 07:30      65.9      64.4       72     56.0      0.00      0.00      85.0     0.56      1017.0     1       168         1       172        8.24     301       -9.5
   08/24/2016 07:20      64.5      63.4       75     55.7      0.00      0.00      84.9     0.56      1017.0     1       136         1       134        8.24     299      -22.1
   08/24/2016 07:10      63.4      62.7       76     55.5      0.00      0.00      85.0     0.56      1017.0     0       146         1       135        8.24     298      -27.3
   08/24/2016 07:00      62.8      61.7       78     55.4      0.00      0.00      84.8     0.56      1017.0     1       129         1       119        8.24     297      -32.2
   08/24/2016 06:50      61.9      61.4       78     55.0      0.00      0.00      84.8     0.56      1017.0     1       161         2       173        8.24     295      -38.2
   08/24/2016 06:40      61.6      61.3       78     54.5      0.00      0.00      84.7     0.56      1017.0     1       210         2       147        8.24     294      -45.4
   08/24/2016 06:30      61.5      61.3       78     54.5      0.00      0.00      85.1     0.56      1017.0     2       133         2       140        8.24     293      -50.8
   08/24/2016 06:20      61.9      61.7       76     54.3      0.00      0.00      85.2     0.56      1017.0     1       138         2       139        8.24     292      -53.5
   08/24/2016 06:10      62.0      61.5       77     54.3      0.00      0.00      84.9     0.56      1017.0     1       201         2       244        8.24     290      -53.8
   08/24/2016 06:00      61.9      61.6       78     54.8      0.00      0.00      85.3     0.56      1017.0     1       141         2       132        8.24     289      -54.4
   08/24/2016 05:50      62.0      61.6       78     54.7      0.00      0.00      85.2     0.56      1017.0     1       162         1       150        8.24     288      -54.4
   08/24/2016 05:40      61.7      61.5       77     54.3      0.00      0.00      85.3     0.56      1016.0     2       168         2       149        8.24     286      -54.9
   08/24/2016 05:30      62.1      61.7       76     54.4      0.00      0.00      85.2     0.56      1016.0     1       167         2       147        8.24     285      -54.9
   08/24/2016 05:20      62.1      61.9       76     54.3      0.00      0.00      85.4     0.56      1016.0     1       156         2       143        8.24     284      -55.7
   08/24/2016 05:10      62.6      62.2       75     54.5      0.00      0.00      85.9     0.56      1016.0     1       140         2       131        8.24     283      -55.7
   08/24/2016 05:00      62.8      62.5       74     54.3      0.00      0.00      85.5     0.56      1016.0     1       136         1       132        8.24     282      -56.0
   08/24/2016 04:50      63.0      62.7       75     54.6      0.00      0.00      85.6     0.56      1016.0     1       185         1       215        8.24     281      -55.8
   08/24/2016 04:40      62.8      62.4       75     54.4      0.00      0.00      85.7     0.56      1016.0     1       160         2       142        8.24     280      -56.1
   08/24/2016 04:30      63.0      62.7       73     54.1      0.00      0.00      85.4     0.56      1016.0     1       143         2       144        8.24     280      -56.3
   08/24/2016 04:20      63.4      63.1       73     54.4      0.00      0.00      85.6     0.56      1016.0     1       152         3       138        8.24     279      -56.1
   08/24/2016 04:10      63.9      63.4       72     54.4      0.00      0.00      85.7     0.57      1016.0     1       118         1       126        8.24     277      -56.2
   08/24/2016 04:00      63.9      63.5       72     54.6      0.00      0.00      85.8     0.57      1016.0     1       122         2       127        8.24     277      -57.0
   08/24/2016 03:50      63.7      63.4       72     54.4      0.00      0.00      85.9     0.57      1016.0     1       191         2       212        8.25     276      -57.2
   08/24/2016 03:40      64.2      63.7       71     54.3      0.00      0.00      85.7     0.57      1016.0     2       141         2       138        8.25     275      -57.5
   08/24/2016 03:30      64.8      64.3       69     54.2      0.00      0.00      85.9     0.57      1016.0     2       137         2       131        8.25     274      -57.8
   08/24/2016 03:20      65.0      64.8       68     54.2      0.00      0.00      86.1     0.57      1016.0     1       226         1       195        8.25     273      -57.6
   08/24/2016 03:10      64.9      64.4       69     54.1      0.00      0.00      85.7     0.57      1016.0     1       228         1       184        8.25     273      -57.0
   08/24/2016 03:00      64.8      64.5       69     54.4      0.00      0.00      85.8     0.57      1016.0     1       140         2       148        8.25     272      -58.5
   08/24/2016 02:50      65.4      64.8       68     54.3      0.00      0.00      85.9     0.57      1016.0     1       139         2       133        8.25     271      -58.5
   08/24/2016 02:40      65.4      65.1       69     54.7      0.00      0.00      86.2     0.57      1016.0     1       138         2       102        8.25     271      -58.7
   08/24/2016 02:30      65.5      65.3       69     54.9      0.00      0.00      86.0     0.57      1016.0     1       147         2       137        8.25     270      -59.5
   08/24/2016 02:20      65.6      65.5       68     54.7      0.00      0.00      86.2     0.57      1016.0     1       131         2       140        8.25     270      -59.6
   08/24/2016 02:10      66.0      65.7       68     54.8      0.00      0.00      86.2     0.57      1016.0     1       155         2       140        8.25     270      -59.3
   08/24/2016 02:00      66.3      66.1       68     55.2      0.00      0.00      86.2     0.57      1016.0     1       139         1       144        8.25     269      -59.2
   08/24/2016 01:50      66.8      66.2       66     54.6      0.00      0.00      85.9     0.57      1016.0     2       141         2       135        8.25     269      -60.1
   08/24/2016 01:40      67.3      66.7       64     54.6      0.00      0.00      86.3     0.57      1016.0     1       170         1       210        8.25     268      -60.3
   08/24/2016 01:30      67.5      67.2       63     54.4      0.00      0.00      86.2     0.57      1016.0     1       162         2       159        8.25     268      -59.8
   08/24/2016 01:20      67.7      67.5       63     54.7      0.00      0.00      86.3     0.57      1016.0     1       130         1       160        8.25     267      -60.0
   08/24/2016 01:10      67.8      67.5       64     55.2      0.00      0.00      86.3     0.57      1016.0     1       126         1       157        8.25     267      -60.3
   08/24/2016 01:00      68.1      67.7       63     55.0      0.00      0.00      86.0     0.57      1016.0     1       122         2       126        8.25     267      -60.2
   08/24/2016 00:50      68.3      68.0       62     54.7      0.00      0.00      86.3     0.57      1016.0     1        82         2        99        8.25     267      -60.3
   08/24/2016 00:40      68.9      68.2       61     54.6      0.00      0.00      86.4     0.57      1016.0     1       127         2       154        8.25     267      -60.5
   08/24/2016 00:30      69.2      69.1       60     54.7      0.00      0.00      86.5     0.57      1016.0     1       141         2       156        8.25     267      -60.9
   08/24/2016 00:20      70.1      69.5       60     55.0      0.00      0.00      86.3     0.57      1016.0     1        94         2        85        8.25     267      -61.0
   08/24/2016 00:10      70.5      70.1       59     55.1      0.00      0.00      86.4     0.57      1017.0     1        94         2        65        8.25     267      -61.8
   08/24/2016 00:00      70.5      70.2       57     54.5      0.00      0.00      86.4     0.57      1016.0     2       113         3       113        8.25     268      -62.7
   08/23/2016 23:50      70.5      70.1       56     54.0      0.00      0.00      86.4     0.57      1016.0     1       100         2        85        8.26     267      -62.7
   08/23/2016 23:40      70.6      70.3       53     52.7      0.00      0.00      86.2     0.57      1016.0     1        96         2        84        8.25     267      -62.5
   08/23/2016 23:30      70.8      70.6       52     52.3      0.00      0.00      86.5     0.57      1017.0     1       126         1       147        8.26     268      -62.7
   08/23/2016 23:20      70.9      70.7       50     51.0      0.00      0.00      86.0     0.57      1017.0     1       119         1       120        8.26     268      -62.9
   08/23/2016 23:10      71.0      70.7       47     49.8      0.00      0.00      86.6     0.57      1017.0     1        88         1       179        8.26     268      -62.8
   08/23/2016 23:00      71.3      71.0       46     49.3      0.00      0.00      86.5     0.57      1017.0     1       126         2        76        8.26     268      -63.4
   08/23/2016 22:50      71.8      71.4       44     48.5      0.00      0.00      86.4     0.57      1017.0     1       191         1       198        8.26     269      -62.7
   08/23/2016 22:40      72.2      71.8       43     48.6      0.00      0.00      86.8     0.57      1017.0     1       180         1       180        8.26     269      -63.6
   08/23/2016 22:30      72.7      72.2       43     48.6      0.00      0.00      86.3     0.57      1017.0     1       140         1       167        8.26     269      -64.1
   08/23/2016 22:20      74.2      72.8       41     48.5      0.00      0.00      86.3     0.57      1016.0     1        96         1       102        8.26     269      -65.0
   08/23/2016 22:10      74.3      74.2       40     48.7      0.00      0.00      86.4     0.57      1016.0     1       304         2       276        8.26     269      -65.5
   08/23/2016 22:00      74.9      74.2       41     49.1      0.00      0.00      86.6     0.57      1016.0     1        12         1        63        8.26     269      -66.8
   08/23/2016 21:50      75.3      74.8       40     49.1      0.00      0.00      86.5     0.57      1016.0     2        42         2        39        8.26     269      -67.4
   08/23/2016 21:40      75.3      75.1       40     49.0      0.00      0.00      86.5     0.57      1016.0     2       199         3       204        8.27     269      -67.1
   08/23/2016 21:30      75.4      75.2       40     49.2      0.00      0.00      86.5     0.57      1016.0     4       200         5       195        8.27     269      -67.1
   08/23/2016 21:20      75.8      75.5       40     49.5      0.00      0.00      86.5     0.57      1016.0     2       200         4       189        8.27     269      -68.0
   08/23/2016 21:10      76.1      75.8       40     49.7      0.00      0.00      86.7     0.57      1016.0     2       208         4       218        8.27     269      -68.7
   08/23/2016 21:00      76.4      76.0       40     50.0      0.00      0.00      86.4     0.57      1016.0     3       198         3       183        8.28     269      -69.0
   08/23/2016 20:50      76.8      76.3       40     50.5      0.00      0.00      86.7     0.57      1016.0     4       210         5       221        8.28     269      -69.6
   08/23/2016 20:40      77.1      76.7       40     51.1      0.00      0.00      86.5     0.57      1016.0     3       215         5       205        8.28     269      -70.4
   08/23/2016 20:30      77.8      77.3       41     52.1      0.00      0.00      86.3     0.57      1016.0     4       226         6       240        8.29     268      -71.0
   08/23/2016 20:20      78.5      77.9       40     52.1      0.00      0.00      86.2     0.57      1015.0     3       236         5       237        8.29     268      -71.5
   08/23/2016 20:10      79.0      78.5       39     51.9      0.00      0.00      86.4     0.57      1015.0     3       240         4       226        8.29     268      -72.4
   08/23/2016 20:00      79.4      79.1       39     52.3      0.00      0.00      86.3     0.57      1015.0     3       231         5       232        8.29     268      -72.9
   08/23/2016 19:50      80.3      79.6       39     52.7      0.00      0.00      86.3     0.58      1015.0     3       245         4       231        8.30     268      -73.4
   08/23/2016 19:40      80.8      80.3       34     49.8      0.00      0.00      86.1     0.57      1015.0     3       262         6       258        8.30     268      -73.5
   08/23/2016 19:30      81.0      80.7       34     50.1      0.00      0.00      86.4     0.57      1015.0     3       279         4       304        8.30     268      -72.5
   08/23/2016 19:20      81.8      81.1       35     51.0      0.00      0.00      86.4     0.57      1015.0     4       302         6       305        8.30     268      -70.2
   08/23/2016 19:10      82.4      81.8       35     51.5      0.00      0.00      86.3     0.57      1015.0     4       307         5       311        8.31     268      -63.8
   08/23/2016 19:00      82.6      82.3       35     51.6      0.00      0.00      86.0     0.58      1015.0     4       312         7       292        8.31     268      -51.4
   08/23/2016 18:50      83.3      82.7       35     52.4      0.00      0.00      86.0     0.58      1015.0     4       300         6       252        8.31     268      -40.3
   08/23/2016 18:40      83.6      83.0       35     52.7      0.00      0.00      86.0     0.58      1015.0     5       298         7       305        8.32     268      -28.3
   08/23/2016 18:30      84.1      83.8       34     52.3      0.00      0.00      85.9     0.58      1015.0     6       318         7       311        8.32     268      -17.7
   08/23/2016 18:20      85.2      84.2       34     53.0      0.00      0.00      85.9     0.58      1014.0     6       308         8       322        8.32     268       -0.9
   08/23/2016 18:10      85.5      85.0       34     54.1      0.00      0.00      85.9     0.58      1014.0     5       296         7       282        8.33     268       34.3
   08/23/2016 18:00      86.4      85.9       34     54.3      0.00      0.00      85.7     0.58      1014.0     5       304         8       307        8.33     267       56.0
   08/23/2016 17:50      87.7      86.6       34     54.9      0.00      0.00      85.7     0.58      1014.0     5       286        10       306        8.33     267       77.1
   08/23/2016 17:40      88.3      87.6       34     55.7      0.00      0.00      85.7     0.58      1014.0     6       302         9       278        8.34     268      105.1
   08/23/2016 17:30      89.0      88.2       33     55.7      0.00      0.00      85.5     0.58      1014.0     6       303         8       305        8.34     267      128.8
   08/23/2016 17:20      89.6      89.0       32     55.9      0.00      0.00      85.6     0.58      1014.0     6       279        10       256        8.35     267      152.0
   08/23/2016 17:10      91.3      90.2       30     55.6      0.00      0.00      85.5     0.58      1014.0     6       282         8       285        8.35     267      172.5
   08/23/2016 17:00      91.2      90.2       30     54.8      0.00      0.00      85.4     0.58      1014.0     6       264         9       251        8.36     267      194.7
   08/23/2016 16:50      90.8      89.3       30     53.9      0.00      0.00      85.3     0.58      1014.0     4       201         7       232        8.37     267      216.1
   08/23/2016 16:40      89.9      89.5       29     53.6      0.00      0.00      85.3     0.58      1014.0     4       184         8       149        8.38     267      238.9
   08/23/2016 16:30      90.2      89.3       29     53.5      0.00      0.00      85.4     0.58      1014.0     4       184         7       180        8.38     267      260.9
   08/23/2016 16:20      89.7      89.2       29     52.9      0.00      0.00      85.2     0.58      1014.0     5       182        10       159        8.39     266      283.1
   08/23/2016 16:10      91.5      89.7       28     52.7      0.00      0.00      85.1     0.58      1014.0     6       195         9       201        8.40     267      303.3
   08/23/2016 16:00      90.5      90.0       28     52.3      0.00      0.00      85.2     0.58      1014.0     5       192         8       150        8.40     268      325.0
   08/23/2016 15:50      90.9      90.4       27     52.0      0.00      0.00      85.1     0.58      1014.0     6       180         8       155        8.41     268      342.8
   08/23/2016 15:40      90.8      89.8       27     51.9      0.00      0.00      84.8     0.58      1014.0     5       177         9       177        8.41     268      363.2
   08/23/2016 15:30      91.5      90.6       26     51.6      0.00      0.00      85.0     0.58      1015.0     5       189         8       134        8.42     268      378.9
   08/23/2016 15:20      91.0      90.2       27     51.7      0.00      0.00      84.8     0.58      1015.0     5       169         7       147        8.42     268      396.9
   08/23/2016 15:10      91.0      90.1       27     52.2      0.00      0.00      84.9     0.58      1015.0     5       167         7       185        8.42     268      411.3
   08/23/2016 15:00      91.0      89.9       28     52.9      0.00      0.00      84.6     0.58      1015.0     6       205         7       231        8.43     269      425.2
   08/23/2016 14:50      92.3      90.7       27     52.7      0.00      0.00      84.8     0.58      1015.0     6       153        10       172        8.43     269      436.2
   08/23/2016 14:40      93.4      91.9       25     51.9      0.00      0.00      84.7     0.58      1015.0     4        59         7       115        8.43     269      444.3
   08/23/2016 14:30      92.2      91.2       26     51.8      0.00      0.00      84.5     0.58      1015.0     4        39         8         7        8.44     269      453.2
   08/23/2016 14:20      91.5      90.5       26     51.7      0.00      0.00      84.6     0.58      1015.0     4        53         6        66        8.44     269      466.0
   08/23/2016 14:10      90.7      89.0       27     52.0      0.00      0.00      84.5     0.58      1015.0     4        52         6        51        8.44     269      477.4
   08/23/2016 14:00      90.4      89.1       28     52.5      0.00      0.00      84.5     0.58      1015.0     4        73         7        96        8.44     269      482.7
   08/23/2016 13:50      90.5      89.4       29     53.3      0.00      0.00      84.4     0.58      1015.0     3        77         5       117        8.45     269      486.9
   08/23/2016 13:40      90.5      89.2       29     53.2      0.00      0.00      84.5     0.58      1016.0     4        53         5        96        8.45     269      491.6
   08/23/2016 13:30      90.9      90.0       29     53.5      0.00      0.00      84.5     0.58      1016.0     4        67         7        70        8.45     269      493.8
   08/23/2016 13:20      90.3      89.6       29     53.6      0.00      0.00      84.3     0.58      1016.0     4        44         6       348        8.45     270      495.5
   08/23/2016 13:10      90.3      89.7       29     53.9      0.00      0.00      84.4     0.58      1016.0     4        19         6       355        8.45     270      497.7
   08/23/2016 13:00      90.0      88.3       30     53.4      0.00      0.00      84.0     0.58      1016.0     3        40         6        26        8.45     272      500.0
   08/23/2016 12:50      88.6      87.7       31     53.3      0.00      0.00      84.2     0.58      1016.0     4        62         6         4        8.45     272      501.1
   08/23/2016 12:40      89.0      88.2       30     52.9      0.00      0.00      84.2     0.58      1016.0     4       357         5       322        8.45     272      501.0
   08/23/2016 12:30      89.3      87.4       30     52.9      0.00      0.00      84.3     0.58      1016.0     2        45         6       348        8.46     274      502.8
   08/23/2016 12:20      87.6      86.5       31     53.0      0.00      0.00      84.2     0.59      1016.0     3        60         5        65        8.46     277      504.8
   08/23/2016 12:10      86.6      85.7       32     52.6      0.00      0.00      84.5     0.59      1016.0     2         8         4        40        8.46     280      502.6
   08/23/2016 12:00      86.3      85.0       32     52.6      0.00      0.00      84.1     0.59      1016.0     3        16         5        11        8.46     282      499.3
   08/23/2016 11:50      86.5      84.5       33     52.9      0.00      0.00      84.4     0.59      1016.0     3         8         4       317        8.46     284      495.4
   08/23/2016 11:40      85.4      84.6       33     52.7      0.00      0.00      84.4     0.59      1017.0     4       352         6       343        8.46     286      493.6
   08/23/2016 11:30      85.5      83.5       35     53.2      0.00      0.00      84.5     0.59      1017.0     3        33         5        28        8.46     287      487.8
   08/23/2016 11:20      84.0      83.0       36     53.7      0.00      0.00      84.6     0.59      1017.0     3         4         7       354        8.46     291      481.7
   08/23/2016 11:10      83.0      81.7       37     53.7      0.00      0.00      84.2     0.59      1017.0     3        41         4        61        8.46     290      472.8
   08/23/2016 11:00      82.3      81.1       38     54.0      0.00      0.00      84.4     0.60      1017.0     3        10         4       330        8.46     294      463.2
   08/23/2016 10:50      82.2      81.0       39     54.1      0.00      0.00      84.4     0.60      1017.0     3        25         5        25        8.46     301      451.5
   08/23/2016 10:40      81.8      80.8       39     54.1      0.00      0.00      84.7     0.60      1017.0     3        43         4        69        8.47     303      441.5
   08/23/2016 10:30      80.8      80.2       41     54.6      0.00      0.00      84.5     0.60      1017.0     3         8         6         5        8.47     308      427.0
   08/23/2016 10:20      80.1      78.1       44     55.3      0.00      0.00      84.5     0.60      1017.0     2       346         4         1        8.47     313      413.9
   08/23/2016 10:10      78.4      77.5       46     55.3      0.00      0.00      84.9     0.61      1017.0     3        23         4        17        8.47     314      398.8
   08/23/2016 10:00      78.1      76.2       47     55.1      0.00      0.00      84.9     0.61      1017.0     2       102         3       117        8.47     316      383.7
   08/23/2016 09:50      77.2      76.7       47     55.1      0.00      0.00      84.9     0.61      1017.0     3        88         4       148        8.47     319      362.6
   08/23/2016 09:40      77.0      75.5       48     55.0      0.00      0.00      84.8     0.61      1017.0     2        27         3        73        8.47     331      344.3
   08/23/2016 09:30      76.0      74.4       50     55.3      0.00      0.00      84.8     0.62      1017.0     2        56         4       118        8.48     335      327.4
   08/23/2016 09:20      74.9      74.3       51     55.2      0.00      0.00      85.2     0.62      1017.0     2        52         5        32        8.48     338      307.6
   08/23/2016 09:10      74.7      73.2       52     55.1      0.00      0.00      84.9     0.62      1017.0     2        59         4        83        8.48     341      284.8
   08/23/2016 09:00      73.4      72.8       53     55.2      0.00      0.00      84.8     0.63      1017.0     2        19         3        60        8.48     345      265.3
   08/23/2016 08:50      73.6      72.1       53     55.2      0.00      0.00      85.1     0.63      1017.0     2        77         4        77        8.48     357      244.3
   08/23/2016 08:40      71.9      71.1       57     55.3      0.00      0.00      85.4     0.64      1016.0     1         4         2        55        8.48     359      220.0
   08/23/2016 08:30      71.5      69.7       60     56.0      0.00      0.00      84.9     0.65      1016.0     1        17         2        26        8.48     361      195.1
   08/23/2016 08:20      69.9      68.6       62     55.9      0.00      0.00      85.6     0.55      1016.0     1       341         2         7        8.49     409      164.1
   08/23/2016 08:10      68.8      68.5       64     55.9      0.00      0.00      85.6     0.53      1016.0     2       358         3       342        8.49     268      137.6
   08/23/2016 08:00      68.8      67.2       65     55.6      0.00      0.00      85.9     0.53      1016.0     1        27         2        84        8.49     268      114.2
   08/23/2016 07:50      67.3      66.7       66     55.3      0.00      0.00      85.4     0.53      1016.0     1       203         1        95        8.49     268       31.1
   08/23/2016 07:40      66.9      65.5       68     55.2      0.00      0.00      85.8     0.53      1016.0     0       163         1       128        8.49     268      -16.6
   08/23/2016 07:30      65.5      64.2       71     55.2      0.00      0.00      85.8     0.53      1016.0     0       200         1       169        8.49     268      -11.9
   08/23/2016 07:20      64.2      62.8       74     54.9      0.00      0.00      85.9     0.53      1016.0     0       249         1       306        8.49     268      -24.9
   08/23/2016 07:10      62.9      62.4       76     54.8      0.00      0.00      85.7     0.53      1016.0     1       147         1       131        8.49     268      -30.1
   08/23/2016 07:00      62.4      61.8       78     55.3      0.00      0.00      85.6     0.53      1016.0     0       134         1       154        8.49     268      -34.1
   08/23/2016 06:50      61.9      61.6       79     55.2      0.00      0.00      85.6     0.53      1016.0     1       143         1       144        8.49     268      -39.3
   08/23/2016 06:40      61.7      61.4       79     55.1      0.00      0.00      85.7     0.53      1016.0     1       167         1       138        8.50     268      -44.5
   08/23/2016 06:30      61.9      61.5       80     55.2      0.00      0.00      85.9     0.53      1015.0     1       181         1       186        8.50     268      -49.2
   08/23/2016 06:20      61.7      61.4       79     55.1      0.00      0.00      85.6     0.53      1015.0     1       171         1       151        8.50     268      -51.5
   08/23/2016 06:10      61.6      61.3       80     55.3      0.00      0.00      86.0     0.53      1015.0     1       148         1       149        8.50     268      -52.5
   08/23/2016 06:00      61.7      61.3       78     54.7      0.00      0.00      86.1     0.53      1015.0     1       140         2       136        8.50     268      -53.6
   08/23/2016 05:50      61.9      61.4       78     54.8      0.00      0.00      86.1     0.53      1015.0     1       182         1       136        8.50     268      -53.2
   08/23/2016 05:40      61.9      61.7       78     55.0      0.00      0.00      85.9     0.53      1015.0     1       141         2       143        8.50     267      -53.5
   08/23/2016 05:30      62.0      61.9       79     55.2      0.00      0.00      86.1     0.53      1015.0     1       184         1       177        8.50     267      -53.5
   08/23/2016 05:20      62.0      61.9       78     55.0      0.00      0.00      86.4     0.53      1015.0     1       129         1       145        8.50     267      -54.1
   08/23/2016 05:10      62.0      61.8       77     54.6      0.00      0.00      86.2     0.53      1014.0     1       112         1       136        8.50     267      -54.6
   08/23/2016 05:00      62.4      62.0       77     54.8      0.00      0.00      86.5     0.53      1014.0     1       155         2       140        8.50     267      -55.1
   08/23/2016 04:50      62.6      62.4       76     54.7      0.00      0.00      86.3     0.53      1014.0     2       137         2       138        8.50     267      -55.5
   08/23/2016 04:40      62.8      62.6       75     54.6      0.00      0.00      86.2     0.53      1014.0     1       193         1       213        8.50     267      -54.9
   08/23/2016 04:30      63.0      62.5       76     55.1      0.00      0.00      86.5     0.53      1014.0     1       153         2       145        8.50     267      -55.5
   08/23/2016 04:20      63.0      62.6       74     54.5      0.00      0.00      86.5     0.53      1014.0     1       129         1       127        8.50     267      -56.5
   08/23/2016 04:10      63.1      62.8       73     54.2      0.00      0.00      86.8     0.53      1014.0     1       199         2       171        8.50     267      -56.2
   08/23/2016 04:00      63.3      63.0       74     54.8      0.00      0.00      86.5     0.53      1014.0     2       143         3       143        8.50     267      -56.6
   08/23/2016 03:50      63.3      63.1       74     54.8      0.00      0.00      86.4     0.53      1014.0     1       177         1       145        8.50     267      -56.0
   08/23/2016 03:40      63.4      63.3       74     54.8      0.00      0.00      86.6     0.53      1014.0     1       165         2       145        8.50     267      -56.1
   08/23/2016 03:30      63.7      63.4       73     54.6      0.00      0.00      86.5     0.53      1014.0     1       140         1       125        8.50     267      -57.1
   08/23/2016 03:20      63.7      63.4       72     54.4      0.00      0.00      86.5     0.53      1014.0     1       163         2       129        8.50     267      -56.8
   08/23/2016 03:10      63.7      63.4       72     54.4      0.00      0.00      86.5     0.53      1014.0     1       217         2       139        8.50     267      -56.9
   08/23/2016 03:00      64.2      63.7       72     54.8      0.00      0.00      86.6     0.53      1014.0     1       142         2       133        8.50     267      -57.6
   08/23/2016 02:50      64.3      64.1       72     55.0      0.00      0.00      86.9     0.53      1014.0     1       159         2       154        8.50     267      -57.6
   08/23/2016 02:40      64.7      64.3       72     55.0      0.00      0.00      86.7     0.53      1014.0     1       147         2       129        8.51     267      -57.7
   08/23/2016 02:30      64.6      64.3       71     54.7      0.00      0.00      87.1     0.53      1014.0     2       138         2       158        8.51     267      -58.3
   08/23/2016 02:20      65.0      64.6       69     54.5      0.00      0.00      87.0     0.53      1014.0     1       143         1       161        8.51     266      -58.3
   08/23/2016 02:10      65.2      64.9       69     54.5      0.00      0.00      86.7     0.53      1014.0     1       141         1       141        8.51     267      -58.3
   08/23/2016 02:00      65.4      65.2       68     54.6      0.00      0.00      86.8     0.53      1014.0     2       148         2       138        8.51     266      -58.9
   08/23/2016 01:50      65.8      65.5       68     54.9      0.00      0.00      86.9     0.53      1014.0     1       164         1       170        8.51     266      -58.8
   08/23/2016 01:40      66.3      65.8       68     55.4      0.00      0.00      86.9     0.53      1014.0     1       151         2       142        8.51     266      -59.6
   08/23/2016 01:30      66.5      66.1       68     55.6      0.00      0.00      87.0     0.53      1014.0     2       161         2       134        8.51     266      -59.2
   08/23/2016 01:20      66.7      66.3       67     55.1      0.00      0.00      87.1     0.53      1014.0     1       103         2       120        8.51     266      -59.4
   08/23/2016 01:10      67.2      66.7       65     54.9      0.00      0.00      87.0     0.53      1014.0     1       100         2       112        8.51     266      -60.2
   08/23/2016 01:00      67.3      66.8       65     55.1      0.00      0.00      87.2     0.53      1014.0     1       107         2       126        8.51     266      -61.3
   08/23/2016 00:50      66.9      66.5       65     54.4      0.00      0.00      87.3     0.53      1014.0     1        57         2        73        8.51     266      -61.3
   08/23/2016 00:40      66.8      66.5       64     54.0      0.00      0.00      87.2     0.53      1014.0     1       104         2        70        8.51     266      -61.5
   08/23/2016 00:30      67.3      66.9       63     54.2      0.00      0.00      87.1     0.53      1014.0     1       139         1       136        8.51     266      -61.6
   08/23/2016 00:20      67.2      67.0       63     54.0      0.00      0.00      87.1     0.53      1014.0     1       161         1       135        8.51     266      -61.5
   08/23/2016 00:10      67.7      67.3       61     53.7      0.00      0.00      87.3     0.53      1014.0     1       152         1       131        8.51     266      -62.4
   08/23/2016 00:00      68.3      67.9       61     53.9      0.00      0.00      87.1     0.53      1014.0     1       223         1       221        8.51     266      -62.9
   08/22/2016 23:50      68.6      68.1       60     54.1      0.00      0.00      87.3     0.53      1014.0     1        16         1        78        8.52     266      -63.7
   08/22/2016 23:40      69.4      68.6       59     54.1      0.00      0.00      87.3     0.53      1014.0     1       104         1        80        8.52     266      -64.5
   08/22/2016 23:30      69.8      69.5       59     54.6      0.00      0.00      87.1     0.53      1014.0     2       143         2       159        8.52     265      -65.6
   08/22/2016 23:20      70.1      69.7       58     54.5      0.00      0.00      87.2     0.53      1014.0     1       156         2       134        8.52     265      -65.5
   08/22/2016 23:10      70.2      70.0       58     54.6      0.00      0.00      87.2     0.53      1014.0     1       130         2       126        8.52     265      -66.8
   08/22/2016 23:00      70.1      69.8       55     52.9      0.00      0.00      87.4     0.53      1014.0     1       103         2        83        8.52     265      -67.2
   08/22/2016 22:50      70.3      69.8       50     50.6      0.00      0.00      87.0     0.53      1014.0     1       102         2       107        8.52     265      -67.5
   08/22/2016 22:40      70.4      70.1       47     49.2      0.00      0.00      87.3     0.53      1014.0     1       134         2        69        8.52     265      -68.3
   08/22/2016 22:30      70.9      70.4       47     49.4      0.00      0.00      87.3     0.53      1013.0     1       117         1       151        8.52     265      -69.0
   08/22/2016 22:20      71.6      71.0       45     49.1      0.00      0.00      87.3     0.53      1013.0     1       226         1       210        8.52     265      -68.7
   08/22/2016 22:10      72.1      71.6       47     50.6      0.00      0.00      87.2     0.53      1013.0     0        73         1       193        8.52     265      -70.0
   08/22/2016 22:00      73.5      72.3       45     50.6      0.00      0.00      87.3     0.53      1013.0     1        78         1        82        8.53     265      -71.0
   08/22/2016 21:50      73.8      73.6       44     50.7      0.00      0.00      87.2     0.53      1013.0     0       108         1       103        8.53     265      -72.1
   08/22/2016 21:40      73.9      73.7       45     51.2      0.00      0.00      87.4     0.53      1013.0     2       195         4       223        8.53     264      -73.0
   08/22/2016 21:30      73.9      73.7       46     51.5      0.00      0.00      87.4     0.53      1013.0     2       218         3       217        8.53     264      -73.0
   08/22/2016 21:20      74.0      73.7       46     52.0      0.00      0.00      87.2     0.53      1013.0     3       203         4       201        8.53     264      -73.6
   08/22/2016 21:10      74.5      74.1       49     53.8      0.00      0.00      87.3     0.53      1013.0     2       208         3       226        8.53     264      -74.7
   08/22/2016 21:00      75.3      74.8       48     54.2      0.00      0.00      87.3     0.53      1013.0     3       226         4       238        8.54     264      -74.8
   08/22/2016 20:50      75.9      75.2       46     53.5      0.00      0.00      87.3     0.53      1013.0     3       230         6       245        8.54     264      -75.3
   08/22/2016 20:40      76.3      75.9       45     53.1      0.00      0.00      87.2     0.53      1012.0     4       221         6       197        8.54     264      -76.2
   08/22/2016 20:30      76.8      76.3       44     53.3      0.00      0.00      87.3     0.53      1012.0     4       201         6       205        8.54     264      -77.1
   08/22/2016 20:20      77.5      77.0       44     53.5      0.00      0.00      87.2     0.53      1012.0     5       214         8       211        8.55     264      -78.6
   08/22/2016 20:10      78.4      77.5       43     53.8      0.00      0.00      87.2     0.53      1012.0     5       228         7       238        8.55     264      -80.0
   08/22/2016 20:00      79.1      78.6       42     54.0      0.00      0.00      87.0     0.53      1012.0     4       242         6       227        8.55     264      -81.0
   08/22/2016 19:50      79.5      79.3       42     54.1      0.00      0.00      87.3     0.53      1012.0     4       243         7       245        8.56     264      -81.5
   08/22/2016 19:40      80.1      79.8       41     54.3      0.00      0.00      87.2     0.53      1012.0     3       229         5       247        8.56     264      -81.8
   08/22/2016 19:30      81.0      80.2       41     54.4      0.00      0.00      87.0     0.53      1012.0     3       221         4       244        8.56     264      -79.7
   08/22/2016 19:20      82.1      81.2       39     54.4      0.00      0.00      87.0     0.53      1012.0     4       214         5       229        8.56     264      -75.8
   08/22/2016 19:10      83.7      82.2       37     54.2      0.00      0.00      87.0     0.53      1012.0     4       224         5       248        8.57     264      -66.9
   08/22/2016 19:00      84.6      83.8       35     53.9      0.00      0.00      87.0     0.53      1012.0     4       245         7       231        8.57     264      -52.9
   08/22/2016 18:50      85.0      84.4       35     53.9      0.00      0.00      86.9     0.53      1012.0     4       292         5       278        8.58     264      -38.4
   08/22/2016 18:40      86.6      85.1       33     53.3      0.00      0.00      86.9     0.53      1012.0     4       302         7       317        8.58     264      -36.5
   08/22/2016 18:30      86.7      86.1       33     53.8      0.00      0.00      86.8     0.53      1011.0     3       300         6       311        8.58     264      -31.0
   08/22/2016 18:20      86.7      86.5       33     53.9      0.00      0.00      86.5     0.53      1011.0     6       310         8       314        8.59     264       23.5
   08/22/2016 18:10      87.2      86.6       33     54.3      0.00      0.00      86.6     0.53      1011.0     5       306         9       307        8.60     264       48.5
   08/22/2016 18:00      88.3      87.3       32     54.7      0.00      0.00      86.5     0.53      1011.0     6       281         9       287        8.60     264       68.1
   08/22/2016 17:50      90.1      88.4       25     48.8      0.00      0.00      86.6     0.53      1011.0     5       258         7       196        8.61     264       90.7
   08/22/2016 17:40      90.2      89.7       19     42.1      0.00      0.00      86.5     0.53      1011.0     5       182         6       170        8.61     264      117.5
   08/22/2016 17:30      90.5      89.7       19     42.4      0.00      0.00      86.4     0.53      1011.0     5       184         7       161        8.62     264      137.0
   08/22/2016 17:20      90.4      89.9       19     42.8      0.00      0.00      86.3     0.53      1011.0     4       152         6       135        8.62     264      168.2
   08/22/2016 17:10      90.6      90.1       19     43.0      0.00      0.00      86.4     0.53      1011.0     5       158         9       134        8.63     264      203.3
   08/22/2016 17:00      91.0      90.7       19     43.3      0.00      0.00      86.3     0.53      1011.0     6       172         8       203        8.63     264      221.5
   08/22/2016 16:50      91.9      91.2       18     42.7      0.00      0.00      86.2     0.53      1011.0     5       171         8       166        8.63     263      244.8
   08/22/2016 16:40      91.8      91.2       18     42.6      0.00      0.00      86.2     0.53      1011.0     6       173         9       173        8.64     264      263.5
   08/22/2016 16:30      91.9      91.1       19     43.0      0.00      0.00      86.0     0.53      1011.0     6       174         9       167        8.64     264      284.0
   08/22/2016 16:20      92.1      91.7       18     42.8      0.00      0.00      85.8     0.53      1011.0     5       177         7       209        8.65     264      307.2
   08/22/2016 16:10      92.2      91.5       19     43.1      0.00      0.00      85.9     0.53      1011.0     7       163        11       156        8.66     264      335.8
   08/22/2016 16:00      91.3      89.8       20     44.0      0.00      0.00      85.7     0.53      1011.0     6       171        10       181        8.67     265      398.3
   08/22/2016 15:50      90.3      89.9       22     45.7      0.00      0.00      85.8     0.53      1011.0     6       152         9       140        8.68     263      159.4
   08/22/2016 15:40      90.8      90.0       21     45.5      0.00      0.00      85.8     0.52      1011.0     7       164         8       132        8.68     264      253.9
   08/22/2016 15:30      92.0      90.2       20     44.8      0.00      0.00      85.7     0.52      1011.0     6       173         9       181        8.69     263      195.7
   08/22/2016 15:20      92.1      91.2       19     44.0      0.00      0.00      85.7     0.52      1011.0     6       201         7       215        8.70     265      447.3
   08/22/2016 15:10      92.0      91.1       20     44.9      0.00      0.00      85.6     0.52      1011.0     4       230         7       250        8.70     265      317.3
   08/22/2016 15:00      91.5      90.6       22     46.4      0.00      0.00      85.6     0.52      1011.0     4       176         5       182        8.71     265      295.7
   08/22/2016 14:50      92.5      90.8       21     46.3      0.00      0.00      85.5     0.52      1011.0     6       159        10       172        8.72     265      273.7
   08/22/2016 14:40      94.3      92.5       20     46.8      0.00      0.00      85.4     0.52      1011.0     3        68         6       144        8.72     265      522.7
   08/22/2016 14:30      93.4      92.7       21     46.9      0.00      0.00      85.4     0.52      1012.0     2        91         5        73        8.72     265      491.4
   08/22/2016 14:20      93.6      92.3       21     46.8      0.00      0.00      85.3     0.52      1012.0     4        91         8       129        8.72     265      369.5
   08/22/2016 14:10      93.8      93.1       21     47.2      0.00      0.00      85.4     0.52      1012.0     3        34         4        79        8.73     265      315.3
   08/22/2016 14:00      94.3      92.7       21     47.6      0.00      0.00      85.1     0.52      1012.0     3        48         5        38        8.73     265      605.6
   08/22/2016 13:50      93.2      92.1       21     47.5      0.00      0.00      85.1     0.52      1012.0     4        11         6        25        8.73     266      590.0
   08/22/2016 13:40      92.8      92.0       22     48.0      0.00      0.00      85.1     0.52      1012.0     3        30         7       352        8.73     266      515.0
   08/22/2016 13:30      91.7      90.5       24     48.8      0.00      0.00      85.3     0.52      1012.0     3        11         5        30        8.73     266      432.3
   08/22/2016 13:20      90.6      89.8       25     49.6      0.00      0.00      85.0     0.52      1012.0     3        32         6        14        8.73     266      374.5
   08/22/2016 13:10      90.6      89.8       27     51.8      0.00      0.00      85.0     0.52      1012.0     3        15         5        28        8.73     266      488.2
   08/22/2016 13:00      90.0      89.1       29     52.8      0.00      0.00      84.9     0.52      1012.0     3        61         6        75        8.74     266      472.3
   08/22/2016 12:50      89.8      89.2       29     52.9      0.00      0.00      85.0     0.52      1013.0     4        64         6        64        8.74     267      524.7
   08/22/2016 12:40      89.7      88.2       29     52.2      0.00      0.00      85.1     0.52      1013.0     3        31         5        36        8.74     268      552.6
   08/22/2016 12:30      88.2      87.6       29     52.1      0.00      0.00      85.1     0.52      1013.0     3        45         5        75        8.74     268      555.5
   08/22/2016 12:20      88.4      87.7       29     52.2      0.00      0.00      85.0     0.52      1013.0     3        38         6        66        8.74     268      565.9
   08/22/2016 12:10      87.7      86.2       30     51.6      0.00      0.00      85.0     0.52      1013.0     3        55         4        74        8.74     267      468.5
   08/22/2016 12:00      86.8      86.1       30     51.6      0.00      0.00      85.0     0.52      1013.0     3        33         6        34        8.74     267      230.0
   08/22/2016 11:50      87.2      86.6       31     52.6      0.00      0.00      85.2     0.52      1013.0     4        12         7        12        8.74     267      447.3
   08/22/2016 11:40      86.7      85.1       33     53.0      0.00      0.00      85.0     0.52      1013.0     3        38         5        81        8.74     267      506.4
   08/22/2016 11:30      85.7      84.5       33     52.6      0.00      0.00      84.9     0.52      1013.0     3        23         5       359        8.74     267      515.7
   08/22/2016 11:20      85.0      84.0       34     52.8      0.00      0.00      85.1     0.52      1013.0     4        13         6        67        8.74     267      485.0
   08/22/2016 11:10      84.3      83.3       33     51.5      0.00      0.00      85.0     0.52      1013.0     3        18         4       328        8.75     267      473.6
   08/22/2016 11:00      83.1      82.5       33     51.0      0.00      0.00      85.1     0.52      1013.0     2        32         4        62        8.75     267      464.6
   08/22/2016 10:50      82.8      81.0       34     50.5      0.00      0.00      85.1     0.52      1013.0     3       337         5       292        8.75     268      453.3
   08/22/2016 10:40      82.0      80.8       35     51.3      0.00      0.00      85.2     0.52      1014.0     2        46         4       358        8.75     267      440.1
   08/22/2016 10:30      80.9      79.9       37     51.9      0.00      0.00      85.0     0.52      1014.0     4         2         5        13        8.75     267      426.2
   08/22/2016 10:20      79.9      79.2       40     53.2      0.00      0.00      84.9     0.52      1014.0     3        15         5         7        8.75     268      412.4
   08/22/2016 10:10      79.3      78.6       43     54.5      0.00      0.00      85.3     0.52      1013.0     3        36         4        81        8.75     268      398.2
   08/22/2016 10:00      78.8      76.8       46     54.9      0.00      0.00      84.9     0.53      1013.0     3        38         4        69        8.75     268      381.3
   08/22/2016 09:50      77.0      75.8       47     54.7      0.00      0.00      85.5     0.53      1013.0     3        27         4        86        8.75     268      363.5
   08/22/2016 09:40      76.4      75.9       46     54.2      0.00      0.00      85.2     0.53      1013.0     2        14         4       353        8.75     268      345.4
   08/22/2016 09:30      76.3      75.7       47     54.2      0.00      0.00      85.5     0.53      1013.0     2        30         3        19        8.75     268      327.4
   08/22/2016 09:20      75.6      74.4       49     54.5      0.00      0.00      85.3     0.53      1013.0     2       109         3       106        8.75     268      305.3
   08/22/2016 09:10      74.7      73.7       52     55.3      0.00      0.00      85.4     0.53      1014.0     3        53         4       125        8.75     269      283.5
   08/22/2016 09:00      73.9      72.3       53     55.1      0.00      0.00      85.4     0.53      1014.0     1        51         2        96        8.75     268      261.2
   08/22/2016 08:50      72.1      71.7       55     54.9      0.00      0.00      85.7     0.53      1014.0     1       354         3       347        8.76     269      241.4
   08/22/2016 08:40      71.9      70.7       59     55.9      0.00      0.00      85.4     0.53      1014.0     2       345         3       338        8.76     268      217.6
   08/22/2016 08:30      71.1      70.2       60     56.2      0.00      0.00      85.5     0.53      1014.0     2        87         4        20        8.76     268      193.3
   08/22/2016 08:20      70.5      69.1       62     56.4      0.00      0.00      85.4     0.53      1014.0     2        80         4        65        8.76     268      170.1
   08/22/2016 08:10      69.1      67.9       67     56.8      0.00      0.00      85.6     0.53      1013.0     1        33         3        26        8.76     268      147.6
   08/22/2016 08:00      68.1      67.2       68     56.5      0.00      0.00      85.9     0.53      1013.0     2        11         3       348        8.76     268      128.8
   08/22/2016 07:50      67.2      66.7       69     56.5      0.00      0.00      85.6     0.53      1013.0     1       255         2       189        8.76     268        5.5
   08/22/2016 07:40      66.7      66.1       70     56.5      0.00      0.00      85.8     0.53      1013.0     2       235         3       237        8.76     269      -20.4
   08/22/2016 07:30      66.2      65.0       72     56.1      0.00      0.00      85.7     0.53      1013.0     2       153         2       153        8.76     268       -6.7
   08/22/2016 07:20      65.0      63.5       74     55.8      0.00      0.00      85.9     0.53      1013.0     1       170         2       184        8.76     268      -30.0
   08/22/2016 07:10      63.3      62.1       77     55.5      0.00      0.00      86.1     0.53      1013.0     2       152         3       158        8.76     268      -33.5
   08/22/2016 07:00      62.0      60.8       80     55.1      0.00      0.00      85.9     0.53      1013.0     2       166         2       157        8.76     268      -37.3
   08/22/2016 06:50      61.0      60.3       81     54.5      0.00      0.00      86.0     0.54      1013.0     2       161         2       161        8.76     268      -42.1
   08/22/2016 06:40      60.5      60.3       81     54.6      0.00      0.00      85.6     0.54      1013.0     1       178         2       169        8.77     268      -47.4
   08/22/2016 06:30      60.8      60.4       82     55.1      0.00      0.00      86.3     0.54      1013.0     2       160         2       161        8.77     268      -51.7
   08/22/2016 06:20      60.8      60.4       81     54.5      0.00      0.00      86.0     0.54      1013.0     1       139         2       137        8.77     268      -54.9
   08/22/2016 06:10      61.0      60.8       81     55.1      0.00      0.00      85.9     0.54      1013.0     1       141         2       139        8.77     268      -55.8
   08/22/2016 06:00      61.5      61.2       78     54.6      0.00      0.00      86.2     0.54      1013.0     1       172         1       152        8.77     268      -57.0
   08/22/2016 05:50      61.6      61.4       79     54.8      0.00      0.00      86.1     0.54      1012.0     1       230         1       222        8.77     268      -55.9
   08/22/2016 05:40      61.7      61.4       79     55.0      0.00      0.00      86.2     0.54      1012.0     1       156         1       166        8.77     268      -56.6
   08/22/2016 05:30      61.9      61.4       78     54.8      0.00      0.00      86.5     0.54      1012.0     1       137         2       152        8.77     268      -57.7
   08/22/2016 05:20      62.0      61.9       78     55.2      0.00      0.00      86.3     0.54      1012.0     1       162         2       161        8.77     268      -57.3
   08/22/2016 05:10      62.1      61.9       78     55.1      0.00      0.00      85.9     0.54      1012.0     1       161         2       165        8.77     268      -56.4
   08/22/2016 05:00      62.6      62.1       77     55.1      0.00      0.00      86.3     0.54      1012.0     1       126         1       109        8.77     267      -57.3
   08/22/2016 04:50      62.8      62.5       76     55.1      0.00      0.00      86.4     0.54      1012.0     0       121         1       126        8.77     267      -57.2
   08/22/2016 04:40      63.2      62.8       76     55.3      0.00      0.00      86.5     0.54      1012.0     0        95         1        27        8.77     267      -57.6
   08/22/2016 04:30      63.2      62.9       75     55.1      0.00      0.00      86.4     0.54      1012.0     1       130         1       112        8.77     267      -57.5
   08/22/2016 04:20      63.3      63.0       75     54.9      0.00      0.00      86.6     0.54      1012.0     1       125         1       108        8.77     267      -58.7
   08/22/2016 04:10      63.4      63.1       74     54.7      0.00      0.00      86.3     0.54      1012.0     1       128         2        94        8.77     267      -59.0
   08/22/2016 04:00      63.8      63.5       72     54.7      0.00      0.00      86.6     0.54      1012.0     1       132         1       140        8.78     267      -58.9
   08/22/2016 03:50      64.2      63.8       71     54.5      0.00      0.00      86.7     0.54      1012.0     1       121         2       123        8.78     267      -60.8
   08/22/2016 03:40      64.3      64.1       71     54.6      0.00      0.00      86.4     0.54      1012.0     1       125         2       126        8.78     267      -61.2
   08/22/2016 03:30      64.8      64.5       70     54.7      0.00      0.00      86.6     0.54      1012.0     1        87         2        85        8.78     267      -61.7
   08/22/2016 03:20      65.0      64.8       70     54.9      0.00      0.00      86.8     0.54      1012.0     1       105         1       132        8.78     267      -61.9
   08/22/2016 03:10      65.5      65.1       69     54.9      0.00      0.00      86.4     0.54      1012.0     1        83         1        70        8.78     267      -62.1
   08/22/2016 03:00      65.8      65.7       69     55.2      0.00      0.00      86.7     0.54      1012.0     1        52         1        65        8.78     267      -62.6
   08/22/2016 02:50      65.8      65.7       68     55.1      0.00      0.00      86.8     0.54      1012.0     1        65         3        84        8.78     267      -63.0
   08/22/2016 02:40      66.5      66.0       67     55.0      0.00      0.00      86.6     0.54      1012.0     1        55         2        54        8.78     267      -63.1
   08/22/2016 02:30      66.7      66.5       66     55.0      0.00      0.00      86.9     0.54      1012.0     1        46         2        64        8.78     267      -63.5
   08/22/2016 02:20      67.0      66.7       66     55.0      0.00      0.00      86.8     0.54      1012.0     1        64         2        72        8.78     267      -63.6
   08/22/2016 02:10      67.4      67.0       65     55.3      0.00      0.00      86.7     0.54      1012.0     2        64         2        71        8.78     267      -64.1
   08/22/2016 02:00      67.8      67.5       66     55.9      0.00      0.00      87.0     0.54      1012.0     2        83         3        62        8.78     267      -64.1
   08/22/2016 01:50      68.2      67.8       66     56.2      0.00      0.00      87.0     0.54      1012.0     2        93         2       118        8.78     267      -64.5
   08/22/2016 01:40      68.3      68.2       65     56.2      0.00      0.00      86.9     0.54      1012.0     2       115         3       111        8.78     266      -64.8
   08/22/2016 01:30      68.6      68.4       64     55.9      0.00      0.00      87.2     0.54      1012.0     2        96         3        93        8.79     266      -65.0
   08/22/2016 01:20      68.8      68.3       63     55.5      0.00      0.00      86.9     0.54      1012.0     1        49         2        73        8.79     266      -65.0
   08/22/2016 01:10      68.4      68.1       60     53.8      0.00      0.00      87.1     0.54      1012.0     1        34         2        24        8.79     266      -64.2
   08/22/2016 01:00      68.8      68.2       54     50.9      0.00      0.00      87.0     0.54      1012.0     1        82         2        31        8.79     266      -63.7
   08/22/2016 00:50      69.2      69.0       52     51.0      0.00      0.00      87.0     0.54      1012.0     1        30         1         2        8.79     266      -63.7
   08/22/2016 00:40      69.2      68.8       52     50.4      0.00      0.00      87.0     0.54      1012.0     1       128         2       156        8.79     266      -64.4
   08/22/2016 00:30      69.5      69.0       51     50.3      0.00      0.00      87.2     0.54      1012.0     1        99         1       170        8.79     266      -65.5
   08/22/2016 00:20      69.7      69.4       51     50.6      0.00      0.00      87.3     0.54      1012.0     1       129         3       142        8.79     266      -65.9
   08/22/2016 00:10      69.8      69.4       51     50.7      0.00      0.00      87.1     0.54      1012.0     2       146         3       145        8.79     266      -66.9
   08/22/2016 00:00      70.1      69.8       51     51.1      0.00      0.00      87.3     0.54      1011.0     2       140         2       137        8.79     266      -66.5
   08/21/2016 23:50      70.9      70.3       50     51.1      0.00      0.00      87.2     0.54      1011.0     1       126         2       128        8.79     266      -66.6
   08/21/2016 23:40      71.2      70.9       49     51.0      0.00      0.00      87.3     0.54      1011.0     1       161         1       135        8.79     265      -67.1
   08/21/2016 23:30      71.5      70.9       47     49.8      0.00      0.00      87.3     0.54      1011.0     1       159         2       140        8.80     266      -67.3
   08/21/2016 23:20      72.0      71.8       46     50.0      0.00      0.00      87.3     0.54      1011.0     1       189         1       159        8.80     265      -66.5
   08/21/2016 23:10      72.5      72.2       45     50.0      0.00      0.00      87.4     0.54      1011.0     1        91         1       134        8.80     265      -67.3
   08/21/2016 23:00      72.9      72.6       44     49.5      0.00      0.00      87.3     0.54      1011.0     1       177         2       264        8.80     265      -67.4
   08/21/2016 22:50      73.2      72.9       43     49.4      0.00      0.00      87.4     0.54      1011.0     1       101         2       115        8.80     265      -68.6
   08/21/2016 22:40      73.9      73.2       43     49.3      0.00      0.00      87.2     0.54      1011.0     1       103         1       138        8.80     265      -69.3
   08/21/2016 22:30      74.8      73.9       40     48.7      0.00      0.00      87.1     0.54      1011.0     1        13         2        32        8.80     265      -69.5
   08/21/2016 22:20      76.3      74.9       39     48.9      0.00      0.00      87.5     0.54      1011.0     1       136         1       221        8.80     265      -70.3
   08/21/2016 22:10      76.7      76.3       39     49.5      0.00      0.00      87.1     0.54      1011.0     2       228         2       237        8.80     265      -71.7
   08/21/2016 22:00      77.2      76.8       37     49.1      0.00      0.00      87.2     0.54      1011.0     1       225         3       194        8.80     265      -72.6
   08/21/2016 21:50      77.5      77.2       36     48.1      0.00      0.00      87.4     0.54      1011.0     2       208         3       221        8.81     265      -73.5
   08/21/2016 21:40      77.9      77.2       34     47.3      0.00      0.00      87.2     0.54      1011.0     1       201         3       214        8.81     264      -74.0
   08/21/2016 21:30      78.3      77.9       34     47.2      0.00      0.00      87.1     0.54      1011.0     2       204         3       178        8.81     264      -75.7
   08/21/2016 21:20      78.6      78.4       33     47.3      0.00      0.00      87.2     0.54      1011.0     2       205         5       213        8.81     264      -76.0
   08/21/2016 21:10      78.9      78.7       34     48.0      0.00      0.00      87.2     0.54      1011.0     3       212         4       218        8.81     264      -76.2
   08/21/2016 21:00      79.4      78.9       34     48.4      0.00      0.00      87.1     0.54      1011.0     2       188         3       199        8.82     264      -76.6
   08/21/2016 20:50      79.9      79.4       33     47.7      0.00      0.00      87.3     0.54      1011.0     2       200         3       212        8.82     264      -77.8
   08/21/2016 20:40      80.8      80.0       32     47.5      0.00      0.00      87.4     0.54      1011.0     3       225         5       240        8.82     264      -78.9
   08/21/2016 20:30      81.1      81.0       31     47.7      0.00      0.00      87.1     0.54      1011.0     3       245         5       231        8.82     264      -80.1
   08/21/2016 20:20      81.5      81.1       31     47.9      0.00      0.00      87.0     0.54      1011.0     3       231         4       231        8.83     264      -81.0
   08/21/2016 20:10      82.0      81.6       31     47.8      0.00      0.00      87.1     0.54      1010.0     4       240         6       251        8.83     264      -82.0
   08/21/2016 20:00      82.5      81.9       30     47.6      0.00      0.00      87.0     0.54      1010.0     3       230         5       191        8.83     264      -83.4
   08/21/2016 19:50      83.1      82.6       29     47.3      0.00      0.00      87.0     0.54      1010.0     3       213         3       207        8.83     264      -84.4
   08/21/2016 19:40      84.1      83.3       28     46.7      0.00      0.00      86.9     0.54      1010.0     3       202         5       202        8.84     264      -84.0
   08/21/2016 19:30      85.0      84.2       27     46.7      0.00      0.00      86.9     0.54      1010.0     4       228         6       254        8.84     264      -81.6
   08/21/2016 19:20      86.1      85.2       25     46.1      0.00      0.00      86.9     0.54      1010.0     4       232         5       217        8.85     264      -78.5
   08/21/2016 19:10      86.5      86.1       25     46.8      0.00      0.00      86.7     0.54      1010.0     3       268         6       237        8.85     264      -70.0
   08/21/2016 19:00      87.1      86.2       27     48.8      0.00      0.00      86.7     0.54      1010.0     3       296         4       308        8.85     264      -58.1
   08/21/2016 18:50      87.6      87.1       25     47.7      0.00      0.00      86.9     0.54      1010.0     2       311         4       305        8.86     264      -40.9
   08/21/2016 18:40      87.7      87.4       25     46.9      0.00      0.00      86.6     0.54      1010.0     5       291         7       318        8.87     264      -18.9
   08/21/2016 18:30      88.4      87.7       24     47.1      0.00      0.00      86.7     0.54      1010.0     5       310         6       286        8.87     264        2.2
   08/21/2016 18:20      88.8      88.2       25     48.1      0.00      0.00      86.5     0.54      1010.0     4       293         7       316        8.88     264       22.6
   08/21/2016 18:10      89.9      88.8       24     47.6      0.00      0.00      86.5     0.53      1010.0     6       302         9       327        8.88     264       44.2
   08/21/2016 18:00      90.9      89.9       22     47.1      0.00      0.00      86.5     0.53      1010.0     5       299        10       303        8.89     264       69.0
   08/21/2016 17:50      91.3      90.7       23     47.5      0.00      0.00      86.4     0.53      1010.0     5       307         7       307        8.89     264       91.6
   08/21/2016 17:40      91.9      90.9       22     47.9      0.00      0.00      86.3     0.53      1010.0     5       310         9       318        8.90     264      112.8
   08/21/2016 17:30      92.0      91.2       23     48.4      0.00      0.00      86.2     0.53      1010.0     4       303         6       288        8.90     264      135.0
   08/21/2016 17:20      91.8      91.4       24     49.3      0.00      0.00      86.3     0.53      1010.0     6       306         8       313        8.91     264      158.3
   08/21/2016 17:10      92.8      91.4       24     50.0      0.00      0.00      86.3     0.53      1010.0     6       291         8       302        8.91     264      180.9
   08/21/2016 17:00      93.1      92.2       24     51.1      0.00      0.00      86.1     0.53      1010.0     6       307        10       319        8.92     264      203.8
   08/21/2016 16:50      93.4      92.8       25     52.1      0.00      0.00      86.1     0.53      1010.0     6       318         8       305        8.92     265      225.7
   08/21/2016 16:40      93.4      92.9       25     52.5      0.00      0.00      86.0     0.53      1010.0     7       291        11       312        8.92     265      246.3
   08/21/2016 16:30      93.8      92.5       25     52.5      0.00      0.00      85.9     0.53      1010.0     5       299        10       269        8.93     264      265.9
   08/21/2016 16:20      94.9      93.0       24     51.7      0.00      0.00      85.8     0.53      1010.0     5       298         9       283        8.93     264      285.3
   08/21/2016 16:10      94.9      94.1       24     52.0      0.00      0.00      85.8     0.53      1010.0     5       298         7       281        8.93     264      304.2
   08/21/2016 16:00      95.1      94.7       24     53.0      0.00      0.00      85.8     0.53      1010.0     5       322         9       320        8.93     265      323.0
   08/21/2016 15:50      95.2      93.7       25     53.7      0.00      0.00      85.5     0.53      1010.0     5       276         8       223        8.93     265      345.7
   08/21/2016 15:40      94.0      93.4       27     54.6      0.00      0.00      85.6     0.53      1010.0     5       240         9       258        8.93     265      365.9
   08/21/2016 15:30      94.6      94.1       26     54.6      0.00      0.00      85.5     0.53      1010.0     4       222         6       234        8.93     265      380.9
   08/21/2016 15:20      95.1      94.0       26     54.2      0.00      0.00      85.5     0.53      1011.0     3       108         7       220        8.93     265      393.2
   08/21/2016 15:10      94.5      94.0       26     54.3      0.00      0.00      85.4     0.53      1011.0     3        23         4        22        8.93     266      407.5
   08/21/2016 15:00      94.3      93.9       27     54.7      0.00      0.00      85.3     0.53      1011.0     4        31         6         7        8.93     266      419.4
   08/21/2016 14:50      94.0      93.1       28     55.0      0.00      0.00      85.2     0.53      1011.0     3        35         5        35        8.93     266      429.3
   08/21/2016 14:40      93.4      92.0       28     55.1      0.00      0.00      85.3     0.53      1011.0     3        74         5        77        8.93     266      443.8
   08/21/2016 14:30      92.9      92.4       29     55.2      0.00      0.00      85.2     0.53      1011.0     5        43         7        28        8.93     265      458.0
   08/21/2016 14:20      92.5      91.9       29     55.0      0.00      0.00      85.1     0.53      1011.0     4        47         6        80        8.93     265      469.3
   08/21/2016 14:10      92.3      91.3       30     55.5      0.00      0.00      84.9     0.53      1011.0     5        70        10        73        8.94     265      479.8
   08/21/2016 14:00      92.7      91.4       29     55.8      0.00      0.00      85.1     0.53      1011.0     5        68         6        88        8.93     265      488.1
   08/21/2016 13:50      92.7      92.3       29     56.1      0.00      0.00      85.2     0.53      1012.0     5        51         9        83        8.94     266      490.0
   08/21/2016 13:40      92.4      92.1       30     56.3      0.00      0.00      85.0     0.52      1012.0     4        38         6        60        8.94     266      488.4
   08/21/2016 13:30      92.1      91.2       31     56.8      0.00      0.00      85.0     0.52      1012.0     4        27         6        76        8.94     266      494.5
   08/21/2016 13:20      91.4      90.6       31     56.5      0.00      0.00      84.9     0.52      1012.0     3        40         6        33        8.94     266      499.3
   08/21/2016 13:10      91.7      90.9       30     55.9      0.00      0.00      84.8     0.52      1012.0     3        45         5       118        8.94     267      501.4
   08/21/2016 13:00      91.9      90.8       30     55.4      0.00      0.00      84.8     0.52      1012.0     4        59         6        74        8.94     268      503.8
   08/21/2016 12:50      91.4      90.7       29     54.5      0.00      0.00      84.7     0.52      1012.0     3        33         6        63        8.94     268      505.8
   08/21/2016 12:40      90.9      89.3       29     53.6      0.00      0.00      84.8     0.52      1012.0     3        29         5        74        8.94     268      505.6
   08/21/2016 12:30      89.3      88.4       30     53.1      0.00      0.00      84.8     0.52      1012.0     2        23         6        78        8.94     268      505.7
   08/21/2016 12:20      88.9      87.7       30     52.9      0.00      0.00      84.6     0.52      1013.0     2        51         6        96        8.94     268      504.6
   08/21/2016 12:10      88.4      87.7       30     52.9      0.00      0.00      84.6     0.52      1013.0     3        61         6        68        8.94     267      501.2
   08/21/2016 12:00      88.1      87.2       31     53.2      0.00      0.00      84.7     0.52      1013.0     3        39         6        74        8.94     267      498.3
   08/21/2016 11:50      87.4      86.1       33     54.3      0.00      0.00      84.6     0.52      1013.0     3        25         5       351        8.94     267      494.9
   08/21/2016 11:40      86.7      85.9       34     54.7      0.00      0.00      84.6     0.52      1013.0     3        31         6         1        8.94     268      489.9
   08/21/2016 11:30      85.9      84.0       36     54.6      0.00      0.00      84.9     0.53      1013.0     3        15         4        29        8.94     268      484.2
   08/21/2016 11:20      84.8      84.0       36     54.6      0.00      0.00      84.8     0.53      1013.0     2        17         3        36        8.94     267      476.6
   08/21/2016 11:10      84.2      82.8       38     55.2      0.00      0.00      84.7     0.53      1013.0     2        28         4        64        8.93     268      470.2
   08/21/2016 11:00      82.7      81.9       39     55.1      0.00      0.00      84.9     0.53      1013.0     3        28         6       356        8.94     268      459.9
   08/21/2016 10:50      82.0      80.9       40     55.0      0.00      0.00      85.0     0.53      1013.0     2        71         4        98        8.93     268      452.1
   08/21/2016 10:40      80.9      79.7       41     54.8      0.00      0.00      85.1     0.53      1013.0     3        55         4        84        8.93     267      435.9
   08/21/2016 10:30      79.9      79.1       42     54.1      0.00      0.00      85.1     0.53      1013.0     2        37         3         3        8.93     268      421.7
   08/21/2016 10:20      80.0      79.2       43     54.8      0.00      0.00      84.9     0.53      1013.0     3        47         5        81        8.93     268      407.1
   08/21/2016 10:10      79.5      77.7       44     54.8      0.00      0.00      84.9     0.53      1013.0     3        62         4        75        8.93     268      390.6
   08/21/2016 10:00      77.6      76.6       46     54.5      0.00      0.00      84.9     0.53      1013.0     3        29         4         8        8.93     268      375.0
   08/21/2016 09:50      77.3      76.1       47     54.5      0.00      0.00      85.2     0.53      1013.0     3        20         5        26        8.93     268      358.1
   08/21/2016 09:40      76.6      75.9       47     54.7      0.00      0.00      84.9     0.53      1013.0     3        45         5        84        8.93     268      340.1
   08/21/2016 09:30      76.3      74.3       49     55.1      0.00      0.00      85.0     0.53      1013.0     2        43         4        54        8.93     268      320.7
   08/21/2016 09:20      74.7      74.3       51     55.2      0.00      0.00      85.2     0.53      1013.0     3        27         4        26        8.92     268      301.5
   08/21/2016 09:10      74.5      73.8       52     55.5      0.00      0.00      85.1     0.53      1013.0     3        19         5         2        8.92     269      279.2
   08/21/2016 09:00      73.7      72.5       55     56.0      0.00      0.00      85.3     0.53      1013.0     2        54         3        91        8.92     269      258.8
   08/21/2016 08:50      72.3      71.6       58     56.3      0.00      0.00      85.1     0.53      1013.0     2        21         5       347        8.92     269      238.8
   08/21/2016 08:40      71.9      71.3       58     56.3      0.00      0.00      85.3     0.54      1013.0     2        32         2        41        8.92     269      216.2
   08/21/2016 08:30      71.4      70.9       60     56.4      0.00      0.00      85.6     0.54      1013.0     2        58         2        14        8.92     269      191.0
   08/21/2016 08:20      70.7      69.5       61     56.4      0.00      0.00      85.5     0.54      1013.0     1        28         2        68        8.58     269      166.5
   08/21/2016 08:10      69.6      69.2       63     56.2      0.00      0.00      85.6     0.54      1013.0     1        31         2        13        8.01     269      143.7
   08/21/2016 08:00      69.2      67.5       65     56.2      0.00      0.00      85.4     0.54      1013.0     0       150         1       116        8.01     269      119.4
   08/21/2016 07:50      67.3      66.4       68     55.9      0.00      0.00      85.3     0.54      1013.0     0       246         1       330        8.01     269       -1.1
   08/21/2016 07:40      66.5      65.7       69     55.7      0.00      0.00      85.4     0.54      1013.0     1       340         2       335        8.04     269       -9.5
   08/21/2016 07:30      65.9      64.7       70     55.3      0.00      0.00      85.4     0.54      1013.0     2         3         2       341        8.04     269        1.6
   08/21/2016 07:20      64.8      63.3       73     55.1      0.00      0.00      85.3     0.54      1013.0     1         7         2       352        8.04     269      -20.8
   08/21/2016 07:10      63.5      62.5       74     54.5      0.00      0.00      85.4     0.54      1013.0     0       118         1       124        8.04     269      -26.6
   08/21/2016 07:00      62.5      61.8       76     54.2      0.00      0.00      85.4     0.54      1013.0     1       192         1       143        8.04     269      -31.7
   08/21/2016 06:50      61.9      61.6       76     53.9      0.00      0.00      85.9     0.54      1013.0     1       144         2       145        8.04     269      -38.5
   08/21/2016 06:40      61.8      61.3       77     54.3      0.00      0.00      85.6     0.54      1013.0     1       133         2       144        8.04     268      -44.2
   08/21/2016 06:30      61.6      61.4       77     54.0      0.00      0.00      85.6     0.54      1013.0     2       141         3       145        8.04     268      -49.2
   08/21/2016 06:20      61.6      61.5       78     54.6      0.00      0.00      85.6     0.54      1013.0     1       152         2       132        8.04     268      -51.2
   08/21/2016 06:10      61.6      61.4       78     54.6      0.00      0.00      85.4     0.54      1013.0     1       173         1       141        8.04     268      -52.7
   08/21/2016 06:00      61.5      61.2       78     54.5      0.00      0.00      85.7     0.54      1012.0     1       187         2       149        8.04     268      -53.4
   08/21/2016 05:50      61.4      61.3       77     54.1      0.00      0.00      85.8     0.54      1012.0     2       132         2       128        8.05     268      -53.9
   08/21/2016 05:40      61.7      61.5       77     54.4      0.00      0.00      86.3     0.54      1012.0     1       134         2       130        8.05     268      -54.2
   08/21/2016 05:30      62.0      61.8       76     54.1      0.00      0.00      85.8     0.54      1012.0     1       133         2       144        8.05     268      -54.4
   08/21/2016 05:20      62.0      61.8       75     53.9      0.00      0.00      86.1     0.54      1012.0     1       260         1       228        8.05     268      -54.2
   08/21/2016 05:10      62.0      61.7       75     53.8      0.00      0.00      86.0     0.54      1012.0     1       167         2       124        8.05     268      -55.1
   08/21/2016 05:00      62.2      61.7       74     53.4      0.00      0.00      86.1     0.54      1012.0     2       141         3       146        8.05     268      -56.0
   08/21/2016 04:50      62.2      61.7       74     53.6      0.00      0.00      86.1     0.54      1012.0     1       175         1       138        8.05     268      -55.8
   08/21/2016 04:40      61.9      61.7       74     53.6      0.00      0.00      86.0     0.54      1012.0     2       156         2       154        8.06     268      -56.3
   08/21/2016 04:30      62.4      61.7       73     53.2      0.00      0.00      86.2     0.54      1012.0     2       156         3       163        8.06     268      -57.1
   08/21/2016 04:20      62.8      62.3       73     53.6      0.00      0.00      86.1     0.54      1012.0     1       148         2       138        8.06     268      -57.2
   08/21/2016 04:10      63.1      62.6       72     53.6      0.00      0.00      86.4     0.54      1012.0     1       181         1       176        8.06     268      -57.4
   08/21/2016 04:00      63.1      63.1       71     53.6      0.00      0.00      86.1     0.54      1012.0     1       168         1       153        8.06     268      -57.9
   08/21/2016 03:50      63.2      62.8       71     53.5      0.00      0.00      86.4     0.54      1012.0     1       161         1       134        8.06     267      -57.7
   08/21/2016 03:40      63.1      62.8       71     53.3      0.00      0.00      86.1     0.54      1012.0     2       138         2       150        8.06     267      -58.1
   08/21/2016 03:30      63.5      63.2       71     53.6      0.00      0.00      86.5     0.54      1012.0     1       150         2       163        8.07     267      -58.9
   08/21/2016 03:20      63.7      63.3       70     53.4      0.00      0.00      86.3     0.54      1012.0     1       145         1       152        8.07     267      -58.9
   08/21/2016 03:10      64.5      63.9       69     53.7      0.00      0.00      86.3     0.54      1012.0     0        85         1        58        8.07     267      -59.4
   08/21/2016 03:00      64.8      64.3       68     53.6      0.00      0.00      86.6     0.54      1012.0     1       117         1       221        8.07     267      -59.8
   08/21/2016 02:50      64.8      64.2       70     54.5      0.00      0.00      86.5     0.54      1012.0     2       194         2       182        8.07     267      -59.6
   08/21/2016 02:40      64.3      64.2       72     55.1      0.00      0.00      86.6     0.54      1012.0     2       146         2       157        8.07     267      -60.7
   08/21/2016 02:30      64.5      64.1       71     54.5      0.00      0.00      86.6     0.54      1012.0     1       127         2       128        8.07     267      -60.9
   08/21/2016 02:20      65.0      64.5       70     55.0      0.00      0.00      86.5     0.54      1012.0     1       122         1       141        8.07     267      -61.3
   08/21/2016 02:10      65.4      65.1       70     55.1      0.00      0.00      86.8     0.54      1012.0     1       198         1       187        8.07     267      -60.5
   08/21/2016 02:00      65.5      65.2       70     55.4      0.00      0.00      86.8     0.54      1012.0     1       196         1       229        8.07     267      -60.2
   08/21/2016 01:50      65.7      65.5       71     55.9      0.00      0.00      86.7     0.54      1012.0     0       103         1       133        8.07     267      -60.8
   08/21/2016 01:40      65.8      65.7       70     55.7      0.00      0.00      86.7     0.54      1012.0     1       117         1       123        8.08     267      -61.5
   08/21/2016 01:30      66.0      65.7       69     55.4      0.00      0.00      86.8     0.54      1012.0     1       124         2       104        8.08     267      -62.0
   08/21/2016 01:20      66.3      65.9       68     55.4      0.00      0.00      86.9     0.54      1012.0     1       113         1       123        8.08     267      -62.4
   08/21/2016 01:10      66.7      66.3       66     54.9      0.00      0.00      86.8     0.54      1012.0     1        98         1       123        8.08     267      -63.5
   08/21/2016 01:00      67.0      66.7       66     55.3      0.00      0.00      86.6     0.54      1012.0     1        89         2        21        8.08     267      -63.9
   08/21/2016 00:50      67.4      67.1       66     55.5      0.00      0.00      86.8     0.54      1012.0     1        67         1        32        8.08     267      -63.6
   08/21/2016 00:40      68.0      67.5       65     55.8      0.00      0.00      86.8     0.54      1012.0     0        44         1        54        8.08     266      -64.1
   08/21/2016 00:30      68.2      67.9       64     55.4      0.00      0.00      86.9     0.54      1012.0     1        66         1       128        8.08     266      -65.9
   08/21/2016 00:20      68.4      68.2       62     54.7      0.00      0.00      87.0     0.54      1012.0     1        75         1        78        8.08     266      -65.8
   08/21/2016 00:10      68.4      68.0       58     52.9      0.00      0.00      86.8     0.54      1012.0     1        75         2        75        8.08     266      -65.1
   08/21/2016 00:00      68.8      68.2       54     51.1      0.00      0.00      87.0     0.54      1012.0     1       102         2        85        8.08     266      -66.4
   08/20/2016 23:50      69.2      68.8       54     51.7      0.00      0.00      87.0     0.54      1012.0     1       112         1        81        8.08     266      -65.9
   08/20/2016 23:40      69.7      69.5       56     53.2      0.00      0.00      86.9     0.54      1012.0     1       141         2        99        8.08     266      -66.5
   08/20/2016 23:30      70.1      69.7       54     52.5      0.00      0.00      86.8     0.54      1012.0     1       124         2       119        8.08     266      -66.2
   08/20/2016 23:20      70.4      70.0       50     50.5      0.00      0.00      87.0     0.54      1012.0     1       102         2        96        8.08     266      -66.9
   08/20/2016 23:10      70.6      70.4       45     48.4      0.00      0.00      87.2     0.54      1012.0     1       126         1        90        8.09     266      -66.7
   08/20/2016 23:00      70.7      70.4       43     46.7      0.00      0.00      86.9     0.54      1012.0     1       120         1       126        8.09     266      -67.9
   08/20/2016 22:50      71.2      70.7       41     46.4      0.00      0.00      87.0     0.54      1012.0     1       114         2       109        8.09     265      -68.6
   08/20/2016 22:40      71.8      71.2       41     46.4      0.00      0.00      86.9     0.54      1012.0     1       126         1       133        8.09     266      -68.8
   08/20/2016 22:30      72.9      71.8       39     46.0      0.00      0.00      87.1     0.54      1012.0     1       153         2       127        8.09     265      -69.6
   08/20/2016 22:20      74.0      73.0       38     46.3      0.00      0.00      87.1     0.54      1012.0     1        23         1        57        8.09     265      -70.4
   08/20/2016 22:10      74.1      73.8       38     46.9      0.00      0.00      87.0     0.54      1012.0     2       332         3       339        8.09     265      -71.0
   08/20/2016 22:00      74.4      73.8       33     43.3      0.00      0.00      87.1     0.54      1012.0     1        35         2        33        8.09     265      -71.4
   08/20/2016 21:50      75.3      74.7       32     43.1      0.00      0.00      86.8     0.54      1011.0     1       208         3       210        8.09     265      -72.5
   08/20/2016 21:40      75.4      75.2       31     42.5      0.00      0.00      87.0     0.54      1011.0     1       212         3       206        8.09     265      -73.5
   08/20/2016 21:30      75.6      75.4       30     42.2      0.00      0.00      87.1     0.54      1011.0     2       179         3       239        8.09     265      -75.0
   08/20/2016 21:20      75.9      75.6       31     42.7      0.00      0.00      87.0     0.54      1011.0     3       197         5       195        8.10     264      -75.1
   08/20/2016 21:10      76.2      75.9       31     43.4      0.00      0.00      86.9     0.54      1011.0     3       208         5       229        8.10     264      -76.1
   08/20/2016 21:00      76.8      76.2       32     44.2      0.00      0.00      86.8     0.54      1011.0     3       210         4       198        8.10     265      -77.1
   08/20/2016 20:50      77.3      76.8       32     44.8      0.00      0.00      87.0     0.54      1011.0     2       222         4       206        8.10     264      -78.2
   08/20/2016 20:40      77.4      77.1       31     44.3      0.00      0.00      87.0     0.54      1011.0     3       212         5       208        8.10     264      -78.9
   08/20/2016 20:30      77.9      77.6       30     44.2      0.00      0.00      86.7     0.54      1011.0     2       211         2       172        8.10     264      -80.5
   08/20/2016 20:20      78.4      77.9       30     44.1      0.00      0.00      86.9     0.54      1011.0     3       221         5       241        8.10     264      -81.4
   08/20/2016 20:10      79.2      78.5       29     43.6      0.00      0.00      86.8     0.54      1011.0     4       211         5       216        8.11     264      -82.3
   08/20/2016 20:00      80.0      79.4       27     42.4      0.00      0.00      86.6     0.54      1011.0     4       228         6       216        8.11     264      -83.8
   08/20/2016 19:50      80.9      80.2       24     40.4      0.00      0.00      86.8     0.54      1011.0     4       230         7       253        8.11     264      -84.6
   08/20/2016 19:40      82.3      81.2       21     38.1      0.00      0.00      86.7     0.54      1011.0     5       220         6       237        8.11     264      -84.7
   08/20/2016 19:30      83.7      82.6       17     34.3      0.00      0.00      86.7     0.54      1010.0     4       229         6       225        8.11     264      -82.8
   08/20/2016 19:20      84.6      83.8       16     33.5      0.00      0.00      86.9     0.54      1010.0     4       250         5       257        8.12     264      -79.2
   08/20/2016 19:10      85.6      84.6       16     34.2      0.00      0.00      86.8     0.54      1010.0     4       245         5       240        8.12     264      -69.3
   08/20/2016 19:00      86.1      85.8       16     34.9      0.00      0.00      86.6     0.54      1010.0     3       235         5       238        8.12     264      -55.9
   08/20/2016 18:50      86.5      85.6       19     39.4      0.00      0.00      86.5     0.54      1010.0     4       230         6       221        8.13     264      -37.4
   08/20/2016 18:40      87.4      86.5       26     47.3      0.00      0.00      86.5     0.54      1010.0     4       264         5       264        8.13     265      -17.1
   08/20/2016 18:30      87.7      87.3       25     47.6      0.00      0.00      86.4     0.54      1010.0     4       304         5       300        8.14     265        5.0
   08/20/2016 18:20      88.5      87.7       25     48.1      0.00      0.00      86.4     0.54      1010.0     4       295         6       309        8.14     265       26.5
   08/20/2016 18:10      88.7      87.9       25     48.1      0.00      0.00      86.4     0.54      1010.0     4       295         5       305        8.14     265       45.2
   08/20/2016 18:00      89.2      88.8       25     48.5      0.00      0.00      86.2     0.54      1010.0     4       284         5       271        8.14     265       64.7
   08/20/2016 17:50      90.3      89.6       24     48.8      0.00      0.00      86.2     0.54      1010.0     4       313         6       314        8.15     265       81.3
   08/20/2016 17:40      90.8      90.5       24     49.0      0.00      0.00      86.1     0.54      1010.0     4       316         6       305        8.15     265       98.5
   08/20/2016 17:30      90.9      90.3       24     48.8      0.00      0.00      86.0     0.54      1010.0     3       330         6       333        8.15     265      115.9
   08/20/2016 17:20      90.9      90.3       23     48.2      0.00      0.00      86.1     0.54      1010.0     3       334         6       348        8.16     265      133.0
   08/20/2016 17:10      92.0      91.1       22     47.4      0.00      0.00      85.9     0.54      1010.0     4       312         8       323        8.16     265      151.4
   08/20/2016 17:00      93.3      91.9       21     47.0      0.00      0.00      85.9     0.54      1010.0     4       326         7       307        8.17     265      172.5
   08/20/2016 16:50      93.8      92.5       22     48.9      0.00      0.00      85.9     0.54      1010.0     4       336         5         8        8.17     265      196.0
   08/20/2016 16:40      94.4      93.2       21     48.3      0.00      0.00      85.8     0.54      1010.0     5       279         6       272        8.17     265      226.6
   08/20/2016 16:30      94.6      93.9       21     48.7      0.00      0.00      85.7     0.54      1010.0     4       267         6       254        8.17     265      252.4
   08/20/2016 16:20      94.4      93.3       25     52.3      0.00      0.00      85.7     0.54      1010.0     3       280         6       240        8.18     265      279.7
   08/20/2016 16:10      94.8      93.4       29     56.5      0.00      0.00      85.6     0.54      1010.0     2        40         3        33        8.19     265      303.4
   08/20/2016 16:00      94.9      94.0       28     56.0      0.00      0.00      85.5     0.54      1010.0     4         2         7       330        8.19     265      323.4
   08/20/2016 15:50      94.3      93.0       28     55.6      0.00      0.00      85.5     0.54      1010.0     3        17         5       246        8.19     265      342.2
   08/20/2016 15:40      94.0      93.4       29     56.5      0.00      0.00      85.5     0.54      1011.0     3        31         4       350        8.20     266      362.7
   08/20/2016 15:30      94.3      92.6       29     56.6      0.00      0.00      85.3     0.54      1011.0     4        23         6       355        8.20     266      382.9
   08/20/2016 15:20      92.8      92.2       30     56.4      0.00      0.00      85.3     0.54      1011.0     4        37         8        32        8.20     266      398.3
   08/20/2016 15:10      93.7      92.4       29     56.6      0.00      0.00      85.2     0.54      1011.0     4        46         6        78        8.20     266      409.9
   08/20/2016 15:00      93.9      92.7       30     56.9      0.00      0.00      85.1     0.53      1011.0     4        47         6        70        8.21     266      420.8
   08/20/2016 14:50      93.2      92.0       30     57.1      0.00      0.00      85.1     0.53      1011.0     4        33         6        16        8.21     267      434.2
   08/20/2016 14:40      94.0      93.0       29     57.1      0.00      0.00      85.1     0.53      1011.0     4        40         6        21        8.21     266      446.2
   08/20/2016 14:30      94.1      92.7       29     56.8      0.00      0.00      85.1     0.53      1011.0     4        66         7        78        8.22     266      456.4
   08/20/2016 14:20      92.9      91.3       31     56.7      0.00      0.00      85.0     0.53      1011.0     4        68         5        73        8.22     265      470.7
   08/20/2016 14:10      93.4      92.4       31     57.3      0.00      0.00      85.1     0.53      1012.0     4        66         6       123        8.23     265      476.0
   08/20/2016 14:00      93.1      92.2       30     57.2      0.00      0.00      84.8     0.53      1012.0     3        70         4        64        8.23     266      481.9
   08/20/2016 13:50      94.0      93.0       29     56.7      0.00      0.00      84.8     0.53      1012.0     4        27         6       347        8.23     266      485.5
   08/20/2016 13:40      93.3      92.5       29     55.8      0.00      0.00      84.7     0.53      1012.0     4        26         5        23        8.23     266      486.6
   08/20/2016 13:30      92.3      90.8       30     55.1      0.00      0.00      84.7     0.53      1012.0     3         9         6        13        8.24     267      488.2
   08/20/2016 13:20      92.1      91.2       29     55.1      0.00      0.00      84.8     0.53      1012.0     3        28         4        23        8.24     266      492.6
   08/20/2016 13:10      91.1      89.1       31     54.7      0.00      0.00      84.7     0.53      1012.0     3       116         5       143        8.24     267      500.7
   08/20/2016 13:00      89.8      88.8       31     54.7      0.00      0.00      84.5     0.53      1012.0     3       130         5       132        8.25     268      505.2
   08/20/2016 12:50      90.2      89.9       30     54.8      0.00      0.00      84.5     0.53      1012.0     3        56         5        78        8.25     268      504.6
   08/20/2016 12:40      90.2      88.6       31     54.9      0.00      0.00      84.6     0.53      1012.0     4        10         5        80        8.25     268      505.0
   08/20/2016 12:30      88.8      87.7       32     54.9      0.00      0.00      84.5     0.53      1013.0     3       360         6         6        8.26     269      502.1
   08/20/2016 12:20      88.3      86.6       33     55.1      0.00      0.00      84.6     0.53      1013.0     3       348         5       355        8.26     269      501.8
   08/20/2016 12:10      87.0      86.1       34     55.1      0.00      0.00      84.4     0.53      1013.0     3        20         4        24        8.26     268      502.3
   08/20/2016 12:00      86.5      85.5       35     55.0      0.00      0.00      84.7     0.53      1013.0     3       345         5       343        8.26     268      496.9
   08/20/2016 11:50      85.7      84.6       35     54.9      0.00      0.00      84.5     0.53      1013.0     3        94         4        59        8.27     268      493.6
   08/20/2016 11:40      85.4      83.6       35     54.0      0.00      0.00      84.5     0.53      1013.0     3       358         4         8        8.27     268      484.6
   08/20/2016 11:30      84.1      82.9       36     53.9      0.00      0.00      84.6     0.53      1013.0     3        48         4        88        8.27     268      475.3
   08/20/2016 11:20      83.1      81.9       38     54.5      0.00      0.00      84.8     0.53      1013.0     3        30         6         7        8.27     268      467.0
   08/20/2016 11:10      81.5      80.5       41     54.8      0.00      0.00      84.6     0.53      1014.0     2       125         3         7        8.28     268      458.7
   08/20/2016 11:00      81.1      79.3       42     55.3      0.00      0.00      84.6     0.53      1014.0     3        77         4        89        8.28     268      453.4
   08/20/2016 10:50      79.8      79.3       44     55.7      0.00      0.00      84.6     0.53      1014.0     3        36         4        10        8.28     268      442.7
   08/20/2016 10:40      79.9      78.2       46     56.2      0.00      0.00      84.7     0.53      1014.0     2        38         4        19        8.28     268      426.8
   08/20/2016 10:30      78.9      78.3       47     56.5      0.00      0.00      84.6     0.53      1014.0     3        38         5       115        8.28     268      413.9
   08/20/2016 10:20      79.0      77.7       47     56.6      0.00      0.00      84.9     0.54      1014.0     3         0         5       344        8.28     268      399.9
   08/20/2016 10:10      78.0      76.8       48     56.4      0.00      0.00      84.8     0.54      1014.0     3        40         5       358        8.29     268      387.9
   08/20/2016 10:00      76.6      75.0       53     57.1      0.00      0.00      85.0     0.54      1014.0     2        27         4        14        8.29     270      368.6
   08/20/2016 09:50      75.9      74.8       53     57.0      0.00      0.00      85.0     0.54      1014.0     3        27         5         2        8.29     269      352.8
   08/20/2016 09:40      75.6      75.2       53     56.9      0.00      0.00      84.9     0.54      1014.0     2       359         4        15        8.29     269      335.4
   08/20/2016 09:30      75.3      73.8       54     57.1      0.00      0.00      85.0     0.54      1014.0     2        32         3        62        8.30     270      316.6
   08/20/2016 09:20      73.9      73.0       57     57.4      0.00      0.00      84.9     0.54      1014.0     2        83         3       151        8.30     270      294.5
   08/20/2016 09:10      73.0      71.3       59     57.1      0.00      0.00      84.9     0.54      1014.0     2        30         3        88        8.30     270      275.3
   08/20/2016 09:00      71.4      70.7       62     57.4      0.00      0.00      84.9     0.54      1014.0     2       359         3        28        8.30     270      255.9
   08/20/2016 08:50      70.6      70.1       64     57.7      0.00      0.00      84.9     0.54      1014.0     3        11         5        18        8.30     270      236.6
   08/20/2016 08:40      70.2      68.9       67     58.0      0.00      0.00      85.1     0.54      1014.0     2         7         3        28        8.30     270      218.5
   08/20/2016 08:30      69.1      68.7       68     57.8      0.00      0.00      85.0     0.54      1014.0     2        24         3       359        8.30     270      196.0
   08/20/2016 08:20      68.8      67.9       69     57.7      0.00      0.00      85.5     0.54      1014.0     1        36         3        67        8.31     270      169.5
   08/20/2016 08:10      68.1      67.3       70     57.6      0.00      0.00      85.4     0.54      1014.0     2        29         3       348        8.31     270      147.9
   08/20/2016 08:00      67.6      66.6       71     57.6      0.00      0.00      85.4     0.55      1014.0     1       336         1       305        8.31     270      118.5
   08/20/2016 07:50      66.5      65.6       74     57.5      0.00      0.00      85.2     0.55      1014.0     1        29         1       339        8.32     270        2.8
   08/20/2016 07:40      65.8      64.8       75     57.0      0.00      0.00      85.3     0.55      1014.0     1       159         2       137        8.32     269       -3.5
   08/20/2016 07:30      64.9      63.9       76     56.6      0.00      0.00      85.5     0.55      1014.0     1       138         1       102        8.32     269       -0.1
   08/20/2016 07:20      63.8      62.5       79     56.4      0.00      0.00      85.3     0.55      1013.0     1       119         2       135        8.32     269      -24.1
   08/20/2016 07:10      62.5      61.4       81     55.9      0.00      0.00      85.3     0.55      1013.0     1       158         2       136        8.32     269      -28.7
   08/20/2016 07:00      61.6      60.8       82     55.4      0.00      0.00      85.9     0.55      1013.0     1       192         1       180        8.32     269      -33.8
   08/20/2016 06:50      60.9      60.3       83     55.3      0.00      0.00      85.8     0.55      1014.0     1       193         2       186        8.32     269      -38.7
   08/20/2016 06:40      60.4      60.3       83     55.2      0.00      0.00      85.3     0.55      1014.0     2       149         2       160        8.32     269      -44.7
   08/20/2016 06:30      60.6      60.3       82     54.7      0.00      0.00      85.4     0.55      1013.0     1       126         1       119        8.32     269      -50.3
   08/20/2016 06:20      60.6      60.4       83     55.4      0.00      0.00      85.6     0.55      1013.0     1       334         2       134        8.32     269      -50.4
   08/20/2016 06:10      60.6      60.4       84     55.5      0.00      0.00      85.8     0.55      1013.0     1       341         1       344        8.32     269      -52.4
   08/20/2016 06:00      60.9      60.5       83     55.4      0.00      0.00      85.5     0.55      1013.0     1       166         2       139        8.32     269      -53.4
   08/20/2016 05:50      61.0      60.6       83     55.7      0.00      0.00      85.8     0.55      1013.0     1       187         1       189        8.32     269      -53.9
   08/20/2016 05:40      60.6      60.5       83     55.4      0.00      0.00      85.8     0.55      1013.0     1       178         1       163        8.32     269      -55.0
   08/20/2016 05:30      60.6      60.3       82     55.0      0.00      0.00      85.7     0.55      1013.0     1       133         2       134        8.32     269      -56.5
   08/20/2016 05:20      60.8      60.6       83     55.4      0.00      0.00      86.0     0.55      1013.0     1       166         2       157        8.32     269      -56.3
   08/20/2016 05:10      61.0      60.8       82     55.4      0.00      0.00      85.9     0.55      1013.0     1       126         1       120        8.32     269      -56.1
   08/20/2016 05:00      61.1      60.9       82     55.3      0.00      0.00      85.9     0.55      1013.0     1        83         1       134        8.32     269      -56.6
   08/20/2016 04:50      61.0      60.9       82     55.7      0.00      0.00      85.9     0.55      1013.0     1       149         1       143        8.32     269      -56.7
   08/20/2016 04:40      61.3      61.0       82     55.6      0.00      0.00      86.3     0.55      1013.0     1       188         1       204        8.33     269      -58.3
   08/20/2016 04:30      61.4      61.3       81     55.6      0.00      0.00      85.9     0.55      1013.0     1       136         2       148        8.33     269      -59.0
   08/20/2016 04:20      61.5      61.3       81     55.6      0.00      0.00      85.9     0.55      1013.0     2       139         2       130        8.33     269      -59.9
   08/20/2016 04:10      61.8      61.6       81     55.8      0.00      0.00      86.1     0.55      1013.0     1       178         1       164        8.33     269      -59.2
   08/20/2016 04:00      61.9      61.6       82     56.1      0.00      0.00      85.8     0.55      1013.0     1       170         1       163        8.33     269      -59.8
   08/20/2016 03:50      61.9      61.6       80     55.6      0.00      0.00      85.9     0.55      1013.0     1       152         2       159        8.33     269      -61.0
   08/20/2016 03:40      62.2      62.0       80     55.8      0.00      0.00      86.1     0.55      1013.0     1       128         1       195        8.33     268      -61.8
   08/20/2016 03:30      62.4      62.1       80     55.9      0.00      0.00      86.1     0.55      1013.0     2       180         3       183        8.33     268      -62.4
   08/20/2016 03:20      62.4      62.1       79     55.6      0.00      0.00      86.3     0.55      1013.0     2       163         3       164        8.33     268      -62.6
   08/20/2016 03:10      62.6      62.3       79     56.0      0.00      0.00      86.4     0.55      1013.0     1        81         1       113        8.33     268      -62.3
   08/20/2016 03:00      62.6      62.2       79     55.7      0.00      0.00      86.5     0.55      1013.0     1       178         2       148        8.33     268      -62.4
   08/20/2016 02:50      62.8      62.4       79     55.9      0.00      0.00      86.4     0.55      1013.0     1       148         2       168        8.33     268      -62.6
   08/20/2016 02:40      63.1      62.8       79     56.3      0.00      0.00      86.4     0.55      1013.0     1       132         1       140        8.33     268      -63.0
   08/20/2016 02:30      63.1      62.6       77     55.6      0.00      0.00      86.3     0.55      1013.0     0       181         1       190        8.33     268      -63.4
   08/20/2016 02:20      63.4      63.1       78     56.1      0.00      0.00      86.5     0.55      1014.0     1       154         1       154        8.33     268      -63.9
   08/20/2016 02:10      63.7      63.3       77     56.0      0.00      0.00      86.8     0.55      1014.0     1       137         1       150        8.33     268      -64.0
   08/20/2016 02:00      63.8      63.5       76     56.1      0.00      0.00      86.5     0.55      1014.0     1       109         1        97        8.33     268      -64.9
   08/20/2016 01:50      64.3      63.8       75     56.0      0.00      0.00      86.4     0.55      1014.0     1       130         2       136        8.33     268      -66.0
   08/20/2016 01:40      64.6      64.3       74     56.1      0.00      0.00      86.2     0.55      1014.0     2       155         2       156        8.33     268      -66.3
   08/20/2016 01:30      65.1      64.6       73     56.1      0.00      0.00      86.5     0.55      1014.0     1       133         2       147        8.33     268      -67.1
   08/20/2016 01:20      65.5      65.2       73     56.4      0.00      0.00      86.6     0.55      1014.0     1       101         2        77        8.33     268      -67.4
   08/20/2016 01:10      65.7      65.5       72     56.2      0.00      0.00      86.5     0.55      1014.0     1        71         1        35        8.33     267      -67.8
   08/20/2016 01:00      66.1      65.8       71     56.4      0.00      0.00      86.6     0.55      1014.0     1        51         2        25        8.33     267      -68.1
   08/20/2016 00:50      66.4      66.2       71     56.6      0.00      0.00      86.4     0.55      1014.0     1        55         2        69        8.33     267      -68.0
   08/20/2016 00:40      66.8      66.4       70     56.7      0.00      0.00      86.8     0.55      1014.0     2        81         3        93        8.33     267      -67.8
   08/20/2016 00:30      67.2      66.9       69     56.5      0.00      0.00      86.8     0.55      1014.0     2        83         2        68        8.33     267      -68.1
   08/20/2016 00:20      67.5      67.2       68     56.5      0.00      0.00      86.7     0.55      1014.0     2        82         3       100        8.33     267      -68.6
   08/20/2016 00:10      67.7      67.4       68     56.5      0.00      0.00      87.0     0.55      1014.0     2        95         3       108        8.33     267      -68.6
   08/20/2016 00:00      68.0      67.7       66     56.3      0.00      0.00      86.5     0.55      1014.0     2        91         3        91        8.33     267      -69.0
   08/19/2016 23:50      68.5      68.2       65     56.1      0.00      0.00      86.6     0.55      1014.0     2        71         3        86        8.33     267      -69.2
   08/19/2016 23:40      69.1      68.6       63     55.9      0.00      0.00      86.8     0.55      1014.0     1       103         2        81        8.33     267      -70.5
   08/19/2016 23:30      69.3      69.1       62     55.9      0.00      0.00      86.7     0.55      1014.0     2        81         3        55        8.33     267      -71.1
   08/19/2016 23:20      70.1      69.6       60     55.4      0.00      0.00      86.7     0.55      1013.0     3        51         4        72        8.33     266      -72.1
   08/19/2016 23:10      70.4      70.2       58     55.0      0.00      0.00      86.7     0.55      1013.0     2        59         3        84        8.34     267      -73.1
   08/19/2016 23:00      70.9      70.4       58     54.9      0.00      0.00      86.9     0.55      1013.0     1        48         2        80        8.34     266      -73.5
   08/19/2016 22:50      71.5      70.8       56     54.8      0.00      0.00      86.7     0.55      1013.0     2        96         3        69        8.34     266      -74.0
   08/19/2016 22:40      72.4      71.8       54     54.7      0.00      0.00      86.8     0.55      1013.0     2        58         3        69        8.34     266      -74.9
   08/19/2016 22:30      72.9      72.5       52     54.0      0.00      0.00      86.9     0.55      1013.0     2        50         3        71        8.34     266      -75.0
   08/19/2016 22:20      73.8      73.1       49     53.3      0.00      0.00      86.9     0.55      1013.0     2        84         4        81        8.34     266      -75.3
   08/19/2016 22:10      74.5      74.1       48     53.4      0.00      0.00      86.8     0.55      1013.0     2        47         3        35        8.34     266      -75.7
   08/19/2016 22:00      75.6      74.8       49     54.9      0.00      0.00      86.9     0.55      1013.0     1       347         2       251        8.34     265      -75.6
   08/19/2016 21:50      76.1      75.6       48     54.8      0.00      0.00      86.6     0.55      1012.0     2       283         2       262        8.34     265      -76.5
   08/19/2016 21:40      76.7      76.3       46     54.1      0.00      0.00      86.7     0.55      1012.0     2       292         2       304        8.34     265      -77.9
   08/19/2016 21:30      76.9      76.7       45     54.0      0.00      0.00      86.9     0.55      1012.0     2       340         3       350        8.34     265      -78.7
   08/19/2016 21:20      77.4      77.0       44     53.5      0.00      0.00      86.6     0.55      1012.0     2         2         3       232        8.34     265      -79.2
   08/19/2016 21:10      77.9      77.6       43     53.2      0.00      0.00      86.8     0.55      1012.0     2       240         5       243        8.35     265      -80.2
   08/19/2016 21:00      78.3      78.0       41     52.9      0.00      0.00      86.7     0.55      1012.0     2       214         6       224        8.35     265      -81.8
   08/19/2016 20:50      78.9      78.4       41     53.1      0.00      0.00      86.6     0.55      1012.0     4       195         7       176        8.35     265      -83.1
   08/19/2016 20:40      79.9      79.1       41     53.4      0.00      0.00      86.7     0.55      1011.0     5       198         8       185        8.35     264      -83.8
   08/19/2016 20:30      80.2      79.9       39     53.0      0.00      0.00      86.5     0.55      1011.0     5       209         7       189        8.35     265      -84.7
   08/19/2016 20:20      80.7      80.2       38     52.9      0.00      0.00      86.5     0.55      1011.0     3       217         5       199        8.36     265      -85.4
   08/19/2016 20:10      81.5      80.8       39     53.6      0.00      0.00      86.4     0.55      1011.0     3       219         4       209        8.36     265      -86.1
   08/19/2016 20:00      83.1      81.7       37     53.5      0.00      0.00      86.4     0.55      1011.0     4       234         6       246        8.36     264      -85.8
   08/19/2016 19:50      84.0      83.5       28     47.4      0.00      0.00      86.3     0.55      1011.0     3       271         5       252        8.36     264      -86.9
   08/19/2016 19:40      84.3      84.0       28     47.5      0.00      0.00      86.3     0.55      1011.0     2       283         4       276        8.37     264      -87.2
   08/19/2016 19:30      84.7      84.1       29     48.6      0.00      0.00      86.1     0.55      1011.0     3       297         5       287        8.37     264      -84.2
   08/19/2016 19:20      85.5      84.6       31     50.7      0.00      0.00      86.2     0.55      1011.0     4       302         7       309        8.38     264      -79.0
   08/19/2016 19:10      86.1      85.5       32     52.9      0.00      0.00      86.2     0.55      1010.0     5       317         7       299        8.38     264      -70.5
   08/19/2016 19:00      86.9      86.2       32     53.6      0.00      0.00      86.3     0.55      1010.0     5       302         7       295        8.39     264      -55.8
   08/19/2016 18:50      88.7      87.0       32     54.4      0.00      0.00      86.1     0.55      1010.0     5       301         7       303        8.40     264      -36.7
   08/19/2016 18:40      89.6      89.1       31     54.8      0.00      0.00      86.1     0.55      1010.0     4       308         7       306        8.41     264      -16.6
   08/19/2016 18:30      90.1      89.7       30     54.7      0.00      0.00      86.0     0.55      1010.0     5       282         7       302        8.41     264        4.9
   08/19/2016 18:20      92.1      90.3       28     53.6      0.00      0.00      85.8     0.55      1010.0     5       284         7       286        8.42     263       22.4
   08/19/2016 18:10      92.4      91.9       27     52.8      0.00      0.00      85.7     0.55      1010.0     4       262         7       306        8.42     263       45.8
   08/19/2016 18:00      93.4      91.8       26     52.8      0.00      0.00      85.9     0.55      1010.0     7       250        11       240        8.42     263       71.0
   08/19/2016 17:50      94.7      93.2       25     52.9      0.00      0.00      85.7     0.55      1010.0     6       265        10       255        8.43     264       96.0
   08/19/2016 17:40      94.8      94.5       21     48.8      0.00      0.00      85.5     0.55      1010.0     6       255         9       260        8.43     264      118.9
   08/19/2016 17:30      95.2      94.6       17     43.9      0.00      0.00      85.7     0.54      1010.0     5       221         8       197        8.43     264      143.0
   08/19/2016 17:20      95.5      94.8       16     42.6      0.00      0.00      85.4     0.54      1010.0     5       226         8       210        8.44     263      159.4
   08/19/2016 17:10      95.9      95.5       14     38.7      0.00      0.00      85.4     0.54      1010.0     5       235        10       212        8.44     263      177.2
   08/19/2016 17:00      96.8      95.8       13     36.6      0.00      0.00      85.3     0.54      1010.0     6       225         8       232        8.45     263      191.3
   08/19/2016 16:50      97.5      96.4       11     33.8      0.00      0.00      85.4     0.54      1010.0     5       233         8       228        8.45     264      211.0
   08/19/2016 16:40      98.1      97.1       10     32.2      0.00      0.00      85.2     0.54      1010.0     6       253         9       318        8.46     264      238.5
   08/19/2016 16:30      98.0      97.0       10     30.6      0.00      0.00      85.0     0.54      1010.0     6       236         8       225        8.47     264      262.5
   08/19/2016 16:20      98.1      97.2       10     32.0      0.00      0.00      85.3     0.54      1010.0     4       221         6       167        8.47     263      287.3
   08/19/2016 16:10      98.9      98.3        9     28.6      0.00      0.00      85.0     0.54      1010.0     5       194         7       220        8.48     264      309.5
   08/19/2016 16:00      99.0      97.6        8     25.9      0.00      0.00      84.9     0.54      1010.0     5       165        10       158        8.48     265      327.7
   08/19/2016 15:50      98.8      97.9        8     27.0      0.00      0.00      84.8     0.54      1010.0     4       192         7       203        8.49     265      351.5
   08/19/2016 15:40      98.2      97.1        8     26.5      0.00      0.00      84.8     0.54      1010.0     5       169         7       143        8.49     265      371.0
   08/19/2016 15:30      98.9      98.0        8     27.3      0.00      0.00      84.7     0.54      1010.0     4       161         8       124        8.50     265      382.1
   08/19/2016 15:20      98.7      98.1       11     35.5      0.00      0.00      84.7     0.54      1010.0     2       205         5       139        8.50     266      394.2
   08/19/2016 15:10      98.2      97.5       12     36.8      0.00      0.00      84.6     0.54      1011.0     3       344         5       306        8.50     266      407.7
   08/19/2016 15:00      98.6      97.7       13     39.8      0.00      0.00      84.5     0.54      1011.0     4       345         7       359        8.50     267      424.5
   08/19/2016 14:50      98.3      97.6       14     40.1      0.00      0.00      84.4     0.54      1011.0     2        76         3        78        8.51     266      436.2
   08/19/2016 14:40      97.2      96.6       15     41.1      0.00      0.00      84.4     0.54      1011.0     3       321         5       338        8.51     266      450.0
   08/19/2016 14:30      96.6      95.3       15     41.3      0.00      0.00      84.5     0.54      1011.0     2       321         3       284        8.51     266      464.2
   08/19/2016 14:20      95.5      95.0       16     41.6      0.00      0.00      84.4     0.54      1011.0     3       337         5       359        8.51     265      470.8
   08/19/2016 14:10      95.4      93.7       17     42.8      0.00      0.00      84.3     0.54      1011.0     4       344         7         7        8.51     265      481.3
   08/19/2016 14:00      94.6      94.0       17     42.8      0.00      0.00      84.1     0.53      1012.0     3       295         6       317        8.51     266      488.7
   08/19/2016 13:50      95.1      93.9       18     44.1      0.00      0.00      84.2     0.53      1012.0     3         5         5       359        8.52     266      492.2
   08/19/2016 13:40      94.1      93.5       18     44.3      0.00      0.00      84.2     0.53      1012.0     3       358         5       350        8.52     266      500.1
   08/19/2016 13:30      94.0      92.0       19     45.4      0.00      0.00      84.0     0.53      1012.0     4         4         6        16        8.52     266      504.1
   08/19/2016 13:20      92.1      91.4       20     45.7      0.00      0.00      84.1     0.53      1012.0     5       352         7       348        8.52     266      510.1
   08/19/2016 13:10      92.2      91.8       21     46.8      0.00      0.00      83.9     0.53      1012.0     5        17         8       357        8.52     267      512.5
   08/19/2016 13:00      92.0      91.3       22     47.9      0.00      0.00      84.0     0.53      1012.0     4        18         7        69        8.52     268      514.4
   08/19/2016 12:50      91.3      90.3       23     48.5      0.00      0.00      83.9     0.53      1012.0     5         5         7       334        8.52     269      516.8
   08/19/2016 12:40      90.8      89.7       24     49.1      0.00      0.00      83.9     0.53      1013.0     4       357         7       346        8.52     268      517.4
   08/19/2016 12:30      90.4      89.4       25     49.9      0.00      0.00      83.8     0.53      1013.0     4        27         8         8        8.52     269      518.8
   08/19/2016 12:20      90.2      89.6       26     50.0      0.00      0.00      83.9     0.53      1013.0     4        21         6         2        8.52     269      520.4
   08/19/2016 12:10      89.4      88.0       27     50.1      0.00      0.00      83.8     0.53      1013.0     4        48         9        80        8.53     268      518.5
   08/19/2016 12:00      88.9      88.0       27     50.6      0.00      0.00      83.9     0.53      1013.0     3        68         6        79        8.53     268      515.4
   08/19/2016 11:50      88.7      87.6       27     50.0      0.00      0.00      83.7     0.53      1013.0     3        41         5        53        8.53     268      511.3
   08/19/2016 11:40      87.7      87.0       29     50.8      0.00      0.00      84.0     0.53      1013.0     4        41         7        79        8.53     269      505.5
   08/19/2016 11:30      87.1      86.0       29     50.2      0.00      0.00      83.9     0.54      1013.0     3        29         4        61        8.53     269      501.4
   08/19/2016 11:20      86.5      85.9       28     49.7      0.00      0.00      84.1     0.54      1013.0     4        45         7        96        8.53     269      494.6
   08/19/2016 11:10      86.0      85.3       31     51.5      0.00      0.00      83.9     0.54      1013.0     3        45         5        75        8.53     269      487.1
   08/19/2016 11:00      85.6      83.9       33     52.4      0.00      0.00      83.9     0.54      1013.0     3        60         6        81        8.53     269      476.2
   08/19/2016 10:50      83.9      83.2       34     52.3      0.00      0.00      84.0     0.54      1013.0     3        32         5        35        8.53     269      464.4
   08/19/2016 10:40      82.9      81.8       37     53.3      0.00      0.00      84.1     0.54      1013.0     2        14         3        27        8.53     269      454.5
   08/19/2016 10:30      81.8      79.3       38     52.9      0.00      0.00      83.8     0.54      1013.0     3        45         6        75        8.53     269      441.8
   08/19/2016 10:20      80.0      79.3       41     53.9      0.00      0.00      84.0     0.54      1013.0     3        11         4        33        8.53     270      428.5
   08/19/2016 10:10      80.7      78.1       43     54.6      0.00      0.00      84.0     0.54      1013.0     2        61         4        55        8.53     270      414.5
   08/19/2016 10:00      78.8      77.7       44     54.8      0.00      0.00      84.0     0.54      1013.0     2        46         3        13        8.53     270      396.8
   08/19/2016 09:50      77.6      76.0       48     55.5      0.00      0.00      84.1     0.54      1013.0     2         5         3        40        8.53     271      379.9
   08/19/2016 09:40      75.8      74.4       51     55.5      0.00      0.00      84.3     0.54      1013.0     2        15         3       347        8.54     271      362.3
   08/19/2016 09:30      74.7      73.4       53     56.1      0.00      0.00      84.3     0.54      1013.0     2       350         4         3        8.54     271      341.3
   08/19/2016 09:20      73.5      73.0       56     56.5      0.00      0.00      84.2     0.54      1013.0     2       331         3       336        8.54     271      321.8
   08/19/2016 09:10      72.7      71.7       58     56.4      0.00      0.00      84.1     0.54      1013.0     1       331         3       311        8.54     271      299.8
   08/19/2016 09:00      71.7      71.2       59     56.4      0.00      0.00      84.2     0.54      1013.0     1       345         2       357        8.54     271      280.4
   08/19/2016 08:50      70.8      69.2       63     56.7      0.00      0.00      84.4     0.54      1013.0     1       114         2        92        8.54     271      262.0
   08/19/2016 08:40      69.0      67.6       66     56.5      0.00      0.00      84.4     0.55      1013.0     1        33         3        49        8.54     271      240.3
   08/19/2016 08:30      67.5      66.4       69     56.2      0.00      0.00      84.4     0.55      1013.0     1       293         1       348        8.54     271      214.9
   08/19/2016 08:20      66.4      66.1       69     56.0      0.00      0.00      84.4     0.55      1013.0     1       296         2        78        8.55     271      190.0
   08/19/2016 08:10      66.3      65.3       71     56.0      0.00      0.00      84.5     0.55      1013.0     1       187         3        76        8.55     271      139.3
   08/19/2016 08:00      65.3      64.4       72     55.5      0.00      0.00      84.7     0.55      1013.0     1       316         2       203        8.55     270       92.1
   08/19/2016 07:50      64.4      63.5       72     54.9      0.00      0.00      84.6     0.55      1013.0     0       342         1        15        8.55     269      -13.1
   08/19/2016 07:40      63.7      62.7       73     54.4      0.00      0.00      84.8     0.55      1013.0     1       343         1       348        8.55     269      -11.9
   08/19/2016 07:30      62.8      62.0       75     54.2      0.00      0.00      85.0     0.55      1013.0     1       332         1         6        8.55     268       -5.1
   08/19/2016 07:20      62.0      61.3       77     54.4      0.00      0.00      84.9     0.55      1013.0     0       271         1       352        8.55     268      -33.8
   08/19/2016 07:10      61.3      59.9       79     54.1      0.00      0.00      85.0     0.55      1013.0     1       329         2       334        8.55     269      -35.2
   08/19/2016 07:00      59.9      59.0       81     53.7      0.00      0.00      85.0     0.55      1013.0     1       333         2       318        8.55     268      -36.3
   08/19/2016 06:50      58.8      58.1       84     53.4      0.00      0.00      84.9     0.55      1013.0     1       302         2       331        8.55     267      -39.4
   08/19/2016 06:40      58.2      57.9       84     53.1      0.00      0.00      85.0     0.55      1013.0     1       150         2       142        8.55     267      -44.7
   08/19/2016 06:30      58.0      57.7       84     53.0      0.00      0.00      85.0     0.55      1013.0     2       154         2       162        8.55     267      -49.8
   08/19/2016 06:20      58.0      57.6       83     52.7      0.00      0.00      85.4     0.55      1013.0     1       158         2       143        8.55     266      -55.2
   08/19/2016 06:10      58.4      57.9       84     53.1      0.00      0.00      84.9     0.55      1013.0     2       141         3       145        8.55     266      -55.4
   08/19/2016 06:00      58.5      58.3       84     53.6      0.00      0.00      85.1     0.55      1013.0     1       143         2       139        8.56     266      -55.7
   08/19/2016 05:50      58.6      58.4       84     53.8      0.00      0.00      85.4     0.55      1013.0     2       162         2       148        8.56     265      -56.6
   08/19/2016 05:40      59.0      58.4       84     53.9      0.00      0.00      85.3     0.55      1013.0     1       147         2       136        8.56     265      -58.5
   08/19/2016 05:30      59.0      58.6       83     53.6      0.00      0.00      85.3     0.55      1013.0     1       179         2       179        8.56     265      -59.7
   08/19/2016 05:20      59.4      58.9       82     53.7      0.00      0.00      85.0     0.55      1013.0     1       155         2       215        8.56     266      -58.9
   08/19/2016 05:10      59.7      59.4       82     54.0      0.00      0.00      85.2     0.55      1013.0     1       182         2       212        8.56     266      -57.9
   08/19/2016 05:00      59.8      59.2       82     54.1      0.00      0.00      85.3     0.55      1013.0     2       163         3       215        8.56     266      -56.8
   08/19/2016 04:50      59.6      58.8       82     54.0      0.00      0.00      85.4     0.55      1013.0     3       174         3       182        8.56     267      -56.0
   08/19/2016 04:40      58.6      58.4       84     53.7      0.00      0.00      85.5     0.55      1013.0     2       150         3       165        8.56     266      -55.7
   08/19/2016 04:30      58.9      58.7       83     53.7      0.00      0.00      85.5     0.55      1013.0     1       133         2       138        8.56     266      -56.6
   08/19/2016 04:20      59.0      58.8       82     53.4      0.00      0.00      85.6     0.55      1013.0     1       119         2       134        8.56     267      -60.3
   08/19/2016 04:10      59.2      58.8       82     53.4      0.00      0.00      85.4     0.55      1013.0     1       176         2       141        8.56     267      -60.2
   08/19/2016 04:00      59.4      59.2       82     54.0      0.00      0.00      85.6     0.55      1013.0     1       148         2       161        8.56     267      -59.6
   08/19/2016 03:50      59.5      58.8       81     53.4      0.00      0.00      85.7     0.55      1013.0     1       156         2       153        8.56     267      -63.2
   08/19/2016 03:40      59.6      59.1       80     53.4      0.00      0.00      85.5     0.55      1013.0     2       142         2       141        8.56     267      -64.6
   08/19/2016 03:30      59.9      59.7       79     53.4      0.00      0.00      85.5     0.55      1013.0     1       212         2       199        8.56     267      -64.0
   08/19/2016 03:20      59.9      59.6       81     53.9      0.00      0.00      85.8     0.55      1013.0     1       166         1       165        8.56     267      -64.2
   08/19/2016 03:10      60.2      59.8       80     53.7      0.00      0.00      85.8     0.55      1013.0     1       145         2       136        8.56     267      -66.6
   08/19/2016 03:00      60.3      59.8       80     53.7      0.00      0.00      85.9     0.55      1013.0     1       238         1       154        8.56     266      -65.4
   08/19/2016 02:50      60.2      59.9       79     53.5      0.00      0.00      85.9     0.56      1013.0     0        11         1       129        8.56     266      -66.5
   08/19/2016 02:40      60.5      60.3       79     53.8      0.00      0.00      86.0     0.55      1013.0     1       128         2       149        8.56     267      -68.5
   08/19/2016 02:30      61.0      60.6       77     53.5      0.00      0.00      86.0     0.56      1013.0     1       134         2       147        8.56     267      -69.4
   08/19/2016 02:20      61.1      60.7       77     53.9      0.00      0.00      86.2     0.56      1013.0     1       174         2       204        8.56     267      -69.4
   08/19/2016 02:10      61.4      60.9       77     53.9      0.00      0.00      85.8     0.56      1013.0     2       132         2       150        8.57     267      -69.5
   08/19/2016 02:00      61.7      61.3       77     54.1      0.00      0.00      86.2     0.56      1013.0     1       104         1       179        8.57     267      -69.9
   08/19/2016 01:50      62.0      61.7       76     54.2      0.00      0.00      85.9     0.56      1013.0     1       136         2       160        8.57     267      -71.5
   08/19/2016 01:40      62.2      61.9       77     54.7      0.00      0.00      85.8     0.56      1013.0     2       146         2       151        8.57     267      -72.6
   08/19/2016 01:30      62.5      62.1       77     55.0      0.00      0.00      86.1     0.56      1013.0     2       141         2       127        8.57     267      -72.4
   08/19/2016 01:20      62.6      62.1       75     54.3      0.00      0.00      86.3     0.56      1013.0     2       156         2       157        8.57     267      -72.4
   08/19/2016 01:10      63.3      62.8       73     54.4      0.00      0.00      86.2     0.56      1013.0     1       126         2       107        8.57     268      -73.5
   08/19/2016 01:00      63.7      63.3       73     54.8      0.00      0.00      86.1     0.56      1013.0     1       106         1        77        8.57     267      -73.7
   08/19/2016 00:50      64.1      63.9       72     54.8      0.00      0.00      86.2     0.56      1013.0     1       111         1       134        8.57     268      -75.4
   08/19/2016 00:40      64.3      64.0       72     54.9      0.00      0.00      86.1     0.56      1013.0     1        66         3        67        8.57     268      -75.6
   08/19/2016 00:30      64.5      64.1       72     55.0      0.00      0.00      86.2     0.56      1013.0     1        72         2        60        8.57     268      -75.6
   08/19/2016 00:20      65.0      64.5       71     55.2      0.00      0.00      86.1     0.56      1013.0     1        86         1        68        8.57     268      -76.1
   08/19/2016 00:10      65.4      65.1       71     55.6      0.00      0.00      86.0     0.56      1013.0     1        56         2        34        8.57     268      -76.7
   08/19/2016 00:00      65.7      65.3       71     55.8      0.00      0.00      86.1     0.56      1013.0     2        38         2        44        8.57     268      -78.0
   08/18/2016 23:50      66.2      65.8       69     55.6      0.00      0.00      86.3     0.56      1013.0     2        38         2        32        8.58     268      -78.6
   08/18/2016 23:40      66.5      66.3       66     54.9      0.00      0.00      86.4     0.56      1013.0     2        50         2        51        8.57     268      -78.2
   08/18/2016 23:30      67.0      66.6       64     54.2      0.00      0.00      86.4     0.56      1013.0     3        67         4        93        8.58     268      -78.7
   08/18/2016 23:20      67.8      67.2       60     53.3      0.00      0.00      86.4     0.56      1013.0     3        75         4        73        8.58     267      -78.9
   08/18/2016 23:10      68.2      67.9       57     52.4      0.00      0.00      86.3     0.56      1013.0     3        81         5        96        8.58     267      -78.6
   08/18/2016 23:00      68.5      68.2       56     52.0      0.00      0.00      86.3     0.56      1012.0     2        83         3       103        8.58     267      -79.0
   08/18/2016 22:50      68.9      68.6       54     51.4      0.00      0.00      86.7     0.56      1012.0     2        99         3        80        8.58     267      -78.6
   08/18/2016 22:40      69.4      69.0       52     50.7      0.00      0.00      86.3     0.56      1012.0     2       103         2       104        8.58     267      -79.3
   08/18/2016 22:30      69.8      69.3       50     49.9      0.00      0.00      86.5     0.56      1012.0     1        95         2        93        8.58     267      -79.6
   08/18/2016 22:20      70.2      69.8       46     48.6      0.00      0.00      86.6     0.56      1012.0     1        99         3        80        8.58     267      -79.7
   08/18/2016 22:10      70.4      70.2       42     46.3      0.00      0.00      86.4     0.56      1012.0     1        75         2        63        8.59     267      -79.9
   08/18/2016 22:00      71.4      70.4       38     44.2      0.00      0.00      86.3     0.56      1012.0     1        82         2       128        8.59     267      -79.0
   08/18/2016 21:50      71.6      71.0       37     43.9      0.00      0.00      86.4     0.56      1012.0     1       131         2       100        8.59     267      -80.3
   08/18/2016 21:40      71.9      71.5       35     42.9      0.00      0.00      86.3     0.56      1012.0     1       214         2       210        8.60     267      -81.3
   08/18/2016 21:30      73.0      71.6       33     41.8      0.00      0.00      86.4     0.56      1012.0     1       123         1       128        8.60     267      -84.6
   08/18/2016 21:20      73.5      73.0       35     43.8      0.00      0.00      86.3     0.56      1011.0     2       220         3       252        8.61     266      -85.9
   08/18/2016 21:10      74.3      73.3       37     45.9      0.00      0.00      86.3     0.56      1011.0     2       127         3       157        8.61     266      -87.7
   08/18/2016 21:00      74.8      74.4       37     46.2      0.00      0.00      86.3     0.56      1011.0     1        99         2        74        8.61     266      -88.7
   08/18/2016 20:50      75.7      74.8       36     46.3      0.00      0.00      86.3     0.56      1011.0     2       164         3       160        8.62     266      -89.1
   08/18/2016 20:40      76.6      75.8       37     48.1      0.00      0.00      86.4     0.56      1011.0     2       158         2       165        8.62     266      -88.8
   08/18/2016 20:30      77.5      76.8       38     49.6      0.00      0.00      86.2     0.56      1010.0     2       181         4       202        8.62     266      -89.4
   08/18/2016 20:20      79.6      77.8       35     49.0      0.00      0.00      86.2     0.56      1010.0     2       175         4       163        8.62     266      -90.5
   08/18/2016 20:10      80.9      79.7       31     46.9      0.00      0.00      86.2     0.56      1010.0     1        63         2       127        8.62     266      -92.5
   08/18/2016 20:00      81.8      80.9       32     49.0      0.00      0.00      86.1     0.56      1010.0     1       122         2       180        8.63     266      -92.5
   08/18/2016 19:50      83.4      81.9       33     51.0      0.00      0.00      86.1     0.56      1010.0     2       217         5       213        8.63     265      -93.1
   08/18/2016 19:40      84.4      83.5       28     47.4      0.00      0.00      86.0     0.56      1010.0     2       324         3       318        8.63     265      -91.9
   08/18/2016 19:30      85.4      84.6       27     47.0      0.00      0.00      86.2     0.56      1010.0     2       323         4       354        8.64     265      -90.5
   08/18/2016 19:20      86.8      85.7       25     46.2      0.00      0.00      86.0     0.56      1009.0     3       351         5         8        8.64     265      -89.7
   08/18/2016 19:10      88.2      87.1       23     45.5      0.00      0.00      86.1     0.56      1009.0     2       339         3       357        8.64     265      -79.5
   08/18/2016 19:00      88.8      87.8       23     45.3      0.00      0.00      85.9     0.56      1009.0     2       279         3        87        8.65     265      -60.0
   08/18/2016 18:50      90.6      88.8       18     41.0      0.00      0.00      86.0     0.56      1009.0     3       328         6       342        8.66     265      -38.6
   08/18/2016 18:40      90.7      90.0       14     35.2      0.00      0.00      85.9     0.56      1009.0     3       183         4       175        8.67     264      -15.6
   08/18/2016 18:30      91.1      90.8       13     33.3      0.00      0.00      86.0     0.56      1009.0     3       161         5       162        8.67     264        7.6
   08/18/2016 18:20      92.5      90.9        9     25.5      0.00      0.00      85.8     0.56      1009.0     5       132         7       141        8.67     265       30.2
   08/18/2016 18:10      93.3      92.5        7     19.2      0.00      0.00      85.7     0.56      1009.0     3       152         5       165        8.67     265       51.9
   08/18/2016 18:00      93.0      92.7        7     20.6      0.00      0.00      85.7     0.56      1009.0     3       111         5       129        8.68     265       76.7
   08/18/2016 17:50      92.9      91.8        8     21.7      0.00      0.00      85.7     0.56      1009.0     4       148         5       177        8.68     265      101.8
   08/18/2016 17:40      92.5      91.7        9     24.8      0.00      0.00      85.7     0.56      1009.0     5       126         7       133        8.68     265      126.7
   08/18/2016 17:30      93.3      92.7        8     24.4      0.00      0.00      85.5     0.56      1009.0     4       130         8       135        8.69     265      147.9
   08/18/2016 17:20      93.6      92.8        8     23.5      0.00      0.00      85.6     0.56      1009.0     4       110         7       125        8.69     265      168.9
   08/18/2016 17:10      94.0      93.0        8     23.5      0.00      0.00      85.5     0.55      1009.0     4       125         6        70        8.70     264      192.3
   08/18/2016 17:00      92.9      91.9        8     22.6      0.00      0.00      85.2     0.56      1009.0     5       128         7       144        8.71     264      217.3
   08/18/2016 16:50      92.8      92.0        8     23.1      0.00      0.00      85.2     0.55      1009.0     6       114        10       134        8.71     265      239.3
   08/18/2016 16:40      92.1      91.8        8     23.3      0.00      0.00      85.2     0.55      1009.0     6       141         9       140        8.71     265      262.6
   08/18/2016 16:30      92.3      91.7        9     25.5      0.00      0.00      85.1     0.55      1009.0     6       120         9       128        8.72     265      288.8
   08/18/2016 16:20      92.3      91.8        9     26.2      0.00      0.00      85.0     0.55      1010.0     7       127        10       131        8.72     264      310.4
   08/18/2016 16:10      92.0      91.3        9     25.5      0.00      0.00      84.9     0.55      1010.0     6       144         9       156        8.73     264      328.9
   08/18/2016 16:00      92.4      91.8        9     24.9      0.00      0.00      84.8     0.55      1010.0     6       137         9       137        8.73     265      352.1
   08/18/2016 15:50      92.5      91.5        9     24.4      0.00      0.00      84.9     0.55      1010.0     6       158         8       148        8.74     265      372.8
   08/18/2016 15:40      93.4      91.8        9     24.2      0.00      0.00      84.7     0.55      1010.0     8       154        11       160        8.74     264      393.8
   08/18/2016 15:30      92.6      91.8        9     24.6      0.00      0.00      84.7     0.55      1010.0     6       187        10       212        8.75     265      411.3
   08/18/2016 15:20      93.2      92.3        8     24.0      0.00      0.00      84.6     0.55      1010.0     6       193        10       209        8.76     265      426.3
   08/18/2016 15:10      93.1      92.4        8     22.6      0.00      0.00      84.5     0.55      1010.0     7       173        13       157        8.76     265      442.4
   08/18/2016 15:00      93.1      92.0        8     23.4      0.00      0.00      84.6     0.55      1010.0     7       201        10       218        8.77     265      456.2
   08/18/2016 14:50      93.8      91.6        8     23.5      0.00      0.00      84.4     0.55      1010.0     7       200        11       216        8.78     265      469.4
   08/18/2016 14:40      94.6      93.5        7     20.4      0.00      0.00      84.4     0.55      1010.0     6       151        11       165        8.79     266      476.7
   08/18/2016 14:30      94.2      93.5        6     18.6      0.00      0.00      84.3     0.55      1011.0     7       146        10       136        8.79     266      484.5
   08/18/2016 14:20      95.1      94.0        7     21.2      0.00      0.00      84.2     0.55      1011.0     4       127         6        59        8.80     266      490.2
   08/18/2016 14:10      94.9      94.2        7     20.4      0.00      0.00      84.2     0.55      1011.0     6        97         8       132        8.81     266      500.6
   08/18/2016 14:00      94.9      92.4        7     18.6      0.00      0.00      84.2     0.55      1011.0     6        88         9       102        8.81     266      511.1
   08/18/2016 13:50      94.4      92.5        6     17.4      0.00      0.00      84.1     0.55      1011.0     7        99         9        81        8.82     266      515.1
   08/18/2016 13:40      93.8      92.1        7     19.2      0.00      0.00      84.2     0.55      1011.0     6       130         9       146        8.82     266      517.3
   08/18/2016 13:30      93.8      92.3        7     21.3      0.00      0.00      84.1     0.55      1011.0     6       135         8       134        8.83     267      520.9
   08/18/2016 13:20      92.9      91.6       10     27.1      0.00      0.00      84.0     0.55      1011.0     4        83         6       130        8.83     267      523.4
   08/18/2016 13:10      92.5      92.1       16     38.9      0.00      0.00      84.1     0.55      1011.0     3        40         5        39        8.83     268      520.8
   08/18/2016 13:00      92.2      91.2       15     38.5      0.00      0.00      84.0     0.55      1011.0     4        51         7        70        8.83     269      525.8
   08/18/2016 12:50      90.9      89.5       18     41.0      0.00      0.00      84.0     0.55      1012.0     4        50         6        73        8.83     270      529.4
   08/18/2016 12:40      90.1      88.5       20     43.2      0.00      0.00      83.9     0.55      1012.0     5        38         7        77        8.83     269      530.8
   08/18/2016 12:30      89.2      88.4       26     49.4      0.00      0.00      83.9     0.55      1012.0     4        26         8        11        8.83     270      527.3
   08/18/2016 12:20      88.3      87.1       26     49.0      0.00      0.00      83.9     0.55      1012.0     5        35         6        33        8.83     270      529.8
   08/18/2016 12:10      88.9      87.9       24     47.4      0.00      0.00      84.0     0.55      1012.0     4        29         6         9        8.83     269      525.0
   08/18/2016 12:00      88.4      87.9       24     47.1      0.00      0.00      83.9     0.55      1012.0     3        36         5        14        8.84     270      522.2
   08/18/2016 11:50      87.7      86.4       26     47.8      0.00      0.00      84.0     0.55      1012.0     4        49         6        75        8.84     270      518.9
   08/18/2016 11:40      86.6      86.2       27     48.7      0.00      0.00      83.9     0.55      1012.0     4        36         6        62        8.84     270      513.8
   08/18/2016 11:30      86.5      85.5       30     51.0      0.00      0.00      83.9     0.55      1012.0     4        46         7        66        8.84     270      505.9
   08/18/2016 11:20      86.0      85.3       28     49.3      0.00      0.00      84.0     0.55      1012.0     4        31         6        23        8.84     270      497.7
   08/18/2016 11:10      85.4      84.4       27     46.8      0.00      0.00      84.0     0.55      1012.0     3        49         5        85        8.84     270      489.6
   08/18/2016 11:00      84.5      83.1       26     44.8      0.00      0.00      84.0     0.55      1013.0     3        49         5        64        8.84     271      480.7
   08/18/2016 10:50      83.5      82.1       27     45.0      0.00      0.00      84.1     0.55      1013.0     3        43         5        19        8.84     271      468.6
   08/18/2016 10:40      82.5      81.9       27     45.0      0.00      0.00      84.1     0.55      1013.0     3         5         6         1        8.84     275      456.6
   08/18/2016 10:30      82.2      80.3       29     46.2      0.00      0.00      84.1     0.55      1013.0     3        47         5        11        8.84     286      445.7
   08/18/2016 10:20      80.7      79.4       34     49.4      0.00      0.00      84.2     0.55      1013.0     2        69         4        79        8.84     293      432.5
   08/18/2016 10:10      79.7      77.8       38     50.9      0.00      0.00      84.1     0.55      1013.0     2        24         4        68        8.84     298      416.5
   08/18/2016 10:00      77.6      76.8       40     50.9      0.00      0.00      84.6     0.55      1013.0     3        42         4        70        8.84     306      400.4
   08/18/2016 09:50      76.6      76.0       41     50.8      0.00      0.00      84.2     0.55      1013.0     3        49         4        84        8.84     312      383.6
   08/18/2016 09:40      76.3      75.0       41     50.1      0.00      0.00      84.5     0.55      1013.0     3        84         4        60        8.84     320      365.1
   08/18/2016 09:30      74.8      73.3       43     49.9      0.00      0.00      84.7     0.55      1013.0     2        42         4        76        8.84     327      346.1
   08/18/2016 09:20      73.2      72.8       44     49.7      0.00      0.00      84.4     0.55      1013.0     2        23         4       352        8.84     329      326.5
   08/18/2016 09:10      72.8      71.4       45     49.4      0.00      0.00      84.5     0.55      1013.0     3       356         4       349        8.84     334      304.8
   08/18/2016 09:00      71.7      70.6       45     48.9      0.00      0.00      84.5     0.56      1013.0     2         6         3       316        8.85     336      285.9
   08/18/2016 08:50      70.4      68.7       47     48.4      0.00      0.00      84.6     0.56      1013.0     2        13         3       343        8.85     338      268.4
   08/18/2016 08:40      68.4      67.7       50     48.9      0.00      0.00      84.6     0.56      1013.0     2        38         3        19        8.85     341      248.9
   08/18/2016 08:30      67.8      66.9       50     48.3      0.00      0.00      84.8     0.56      1013.0     2        93         2        95        8.85     342      223.7
   08/18/2016 08:20      66.9      65.5       52     47.8      0.00      0.00      84.9     0.56      1013.0     2        86         3        75        8.85     343      192.0
   08/18/2016 08:10      65.6      64.8       56     49.1      0.00      0.00      84.8     0.56      1013.0     1       192         2       352        8.85     342       77.8
   08/18/2016 08:00      64.8      63.8       58     49.0      0.00      0.00      84.8     0.56      1013.0     1       274         1       268        8.86     341       25.4
   08/18/2016 07:50      63.8      62.7       59     48.9      0.00      0.00      85.0     0.56      1013.0     1       215         1       212        8.86     341      -22.2
   08/18/2016 07:40      62.7      61.6       62     49.0      0.00      0.00      85.0     0.56      1013.0     1       346         2       331        8.86     339      -13.1
   08/18/2016 07:30      61.8      59.8       65     49.1      0.00      0.00      85.0     0.56      1012.0     2       350         2       337        8.86     338      -10.9
   08/18/2016 07:20      59.8      58.7       67     48.5      0.00      0.00      85.0     0.56      1012.0     0        85         2       339        8.86     338      -43.5
   08/18/2016 07:10      58.9      58.4       68     48.0      0.00      0.00      84.8     0.56      1012.0     1        50         1        20        8.86     337      -46.2
   08/18/2016 07:00      58.4      56.8       72     48.5      0.00      0.00      85.2     0.56      1012.0     1        34         1       357        8.86     335      -47.8
   08/18/2016 06:50      56.8      55.9       75     48.3      0.00      0.00      85.3     0.56      1012.0     1       226         1       178        8.86     334      -51.0
   08/18/2016 06:40      56.1      55.5       75     48.1      0.00      0.00      85.5     0.56      1012.0     1       146         2       141        8.86     332      -55.8
   08/18/2016 06:30      56.1      55.8       74     47.8      0.00      0.00      85.4     0.56      1012.0     1       131         2       136        8.86     329      -60.9
   08/18/2016 06:20      56.1      55.9       72     46.9      0.00      0.00      85.2     0.56      1012.0     1       130         2       124        8.86     328      -64.2
   08/18/2016 06:10      56.5      56.2       68     46.0      0.00      0.00      85.4     0.56      1012.0     1       133         2       128        8.86     324      -67.0
   08/18/2016 06:00      56.7      56.5       64     44.6      0.00      0.00      85.5     0.56      1012.0     1       144         2       141        8.86     322      -67.3
   08/18/2016 05:50      57.0      56.5       65     45.2      0.00      0.00      85.6     0.56      1012.0     1       134         1       128        8.86     318      -67.2
   08/18/2016 05:40      57.3      57.0       65     45.6      0.00      0.00      85.7     0.56      1012.0     1       132         1       131        8.86     315      -67.7
   08/18/2016 05:30      57.4      57.1       62     44.4      0.00      0.00      85.7     0.57      1011.0     1       159         1       141        8.86     312      -68.5
   08/18/2016 05:20      57.6      57.2       63     45.1      0.00      0.00      85.6     0.57      1011.0     0       236         1       217        8.86     309      -69.1
   08/18/2016 05:10      58.0      57.5       64     45.6      0.00      0.00      85.7     0.57      1011.0     1       145         1       136        8.86     306      -70.0
   08/18/2016 05:00      57.7      57.3       64     45.6      0.00      0.00      85.8     0.57      1011.0     0       220         1       131        8.86     303      -70.0
   08/18/2016 04:50      57.6      57.4       66     46.2      0.00      0.00      86.0     0.57      1011.0     1       157         1       144        8.86     300      -71.0
   08/18/2016 04:40      57.7      57.5       65     46.1      0.00      0.00      85.7     0.57      1011.0     1       141         2       139        8.87     297      -72.0
   08/18/2016 04:30      57.9      57.7       65     46.1      0.00      0.00      85.9     0.57      1011.0     1       161         2       137        8.87     295      -72.5
   08/18/2016 04:20      58.5      57.9       64     46.1      0.00      0.00      86.1     0.57      1011.0     2       139         3       126        8.87     293      -72.9
   08/18/2016 04:10      58.6      58.5       64     46.3      0.00      0.00      86.1     0.57      1011.0     1       162         2       138        8.87     291      -72.6
   08/18/2016 04:00      59.2      58.8       61     45.7      0.00      0.00      86.2     0.57      1011.0     1       153         2       129        8.87     289      -73.5
   08/18/2016 03:50      59.3      58.8       62     46.2      0.00      0.00      86.2     0.57      1011.0     1       174         1       145        8.87     287      -73.3
   08/18/2016 03:40      59.4      58.6       61     45.8      0.00      0.00      86.2     0.57      1011.0     1       157         2       145        8.87     286      -74.2
   08/18/2016 03:30      59.7      59.3       61     46.1      0.00      0.00      86.5     0.57      1011.0     1       148         1       143        8.87     284      -74.0
   08/18/2016 03:20      60.5      59.8       61     46.6      0.00      0.00      86.4     0.57      1011.0     1       136         1       142        8.87     282      -74.6
   08/18/2016 03:10      60.9      60.2       60     46.7      0.00      0.00      86.4     0.57      1011.0     1       137         2       139        8.87     280      -75.0
   08/18/2016 03:00      61.1      60.9       60     47.0      0.00      0.00      86.3     0.57      1011.0     1       174         1       129        8.87     279      -74.7
   08/18/2016 02:50      61.4      61.0       59     46.9      0.00      0.00      86.4     0.57      1011.0     1       148         3       138        8.87     278      -75.1
   08/18/2016 02:40      61.7      61.4       57     46.2      0.00      0.00      86.5     0.57      1011.0     2       153         2       128        8.88     277      -75.2
   08/18/2016 02:30      61.7      61.4       57     46.2      0.00      0.00      86.4     0.57      1011.0     1       187         2       142        8.88     276      -75.5
   08/18/2016 02:20      61.9      61.4       56     45.7      0.00      0.00      86.6     0.57      1011.0     1       177         3       142        8.88     275      -75.1
   08/18/2016 02:10      62.1      61.6       58     46.9      0.00      0.00      86.8     0.57      1011.0     1       133         2       127        8.88     273      -75.5
   08/18/2016 02:00      62.6      62.2       57     46.9      0.00      0.00      86.6     0.57      1011.0     1       130         2       128        8.88     271      -75.9
   08/18/2016 01:50      63.0      62.6       55     46.3      0.00      0.00      86.6     0.57      1011.0     1       202         1       210        8.88     270      -75.4
   08/18/2016 01:40      63.4      63.0       57     48.0      0.00      0.00      86.7     0.57      1011.0     1       112         1       128        8.88     269      -76.6
   08/18/2016 01:30      64.0      63.6       57     48.3      0.00      0.00      86.8     0.57      1011.0     2       138         2       134        8.88     269      -77.0
   08/18/2016 01:20      64.2      64.0       56     48.3      0.00      0.00      86.9     0.57      1011.0     1       164         2       141        8.88     269      -76.5
   08/18/2016 01:10      64.3      64.1       55     47.9      0.00      0.00      86.8     0.57      1011.0     1       146         2       134        8.89     268      -77.1
   08/18/2016 01:00      64.6      64.2       54     47.5      0.00      0.00      86.7     0.57      1011.0     2       156         2       133        8.89     267      -77.4
   08/18/2016 00:50      65.0      64.8       53     47.1      0.00      0.00      87.1     0.57      1011.0     1       163         2       162        8.89     267      -77.3
   08/18/2016 00:40      65.7      65.0       52     47.1      0.00      0.00      86.9     0.57      1011.0     1       115         1       114        8.89     266      -77.5
   08/18/2016 00:30      66.2      65.9       50     46.9      0.00      0.00      87.0     0.57      1011.0     1       173         1       125        8.89     266      -78.3
   08/18/2016 00:20      66.1      65.8       51     47.5      0.00      0.00      86.9     0.57      1011.0     1       168         2       131        8.89     265      -78.4
   08/18/2016 00:10      66.7      66.2       50     47.3      0.00      0.00      86.9     0.57      1011.0     2       134         2       135        8.90     265      -79.7
   08/18/2016 00:00      67.1      66.7       48     46.8      0.00      0.00      87.1     0.57      1011.0     2       179         2       193        8.89     265      -79.1
   08/17/2016 23:50      67.5      67.1       48     47.1      0.00      0.00      87.2     0.57      1011.0     1       135         1       118        8.90     264      -80.3
   08/17/2016 23:40      68.0      67.7       47     47.0      0.00      0.00      87.1     0.57      1011.0     1       119         3       142        8.90     264      -81.8
   08/17/2016 23:30      68.0      67.6       47     46.6      0.00      0.00      87.1     0.57      1011.0     2       185         2       196        8.90     264      -81.0
   08/17/2016 23:20      68.2      67.8       47     47.0      0.00      0.00      87.2     0.57      1011.0     2       143         2       150        8.90     263      -81.6
   08/17/2016 23:10      69.0      68.2       46     46.8      0.00      0.00      87.1     0.57      1010.0     1       133         2       130        8.90     263      -82.7
   08/17/2016 23:00      69.7      68.9       45     47.0      0.00      0.00      87.1     0.57      1010.0     1       145         2       134        8.90     264      -82.7
   08/17/2016 22:50      70.3      69.7       44     46.9      0.00      0.00      87.1     0.57      1010.0     1       149         2       138        8.90     263      -83.6
   08/17/2016 22:40      71.3      70.7       41     46.2      0.00      0.00      87.1     0.57      1010.0     1       151         2       135        8.90     264      -84.2
   08/17/2016 22:30      71.4      71.1       39     45.1      0.00      0.00      87.1     0.57      1010.0     1       178         1       206        8.91     264      -85.0
   08/17/2016 22:20      72.5      71.5       39     45.5      0.00      0.00      87.2     0.57      1010.0     1       154         2       179        8.91     264      -84.8
   08/17/2016 22:10      72.6      72.2       38     45.4      0.00      0.00      87.0     0.57      1010.0     1       156         2       161        8.91     264      -86.2
   08/17/2016 22:00      72.9      72.5       37     45.1      0.00      0.00      87.2     0.57      1010.0     1       152         1       128        8.91     264      -87.0
   08/17/2016 21:50      73.7      72.6       35     44.1      0.00      0.00      87.2     0.58      1010.0     1        83         1        70        8.91     264      -87.2
   08/17/2016 21:40      73.8      73.6       34     43.7      0.00      0.00      87.2     0.58      1010.0     1       105         1       102        8.91     264      -87.8
   08/17/2016 21:30      74.7      73.9       33     43.1      0.00      0.00      87.2     0.58      1010.0     1       118         1       136        8.92     264      -88.5
   08/17/2016 21:20      75.8      74.7       30     41.8      0.00      0.00      87.1     0.58      1010.0     1       141         2       141        8.92     264      -90.0
   08/17/2016 21:10      76.9      76.1       27     39.9      0.00      0.00      87.1     0.58      1010.0     1       154         2       177        8.92     265      -90.7
   08/17/2016 21:00      77.6      77.1       30     43.5      0.00      0.00      87.1     0.58      1010.0     1       202         1       194        8.92     265      -91.6
   08/17/2016 20:50      80.1      77.9       25     40.2      0.00      0.00      87.0     0.58      1010.0     1       167         2       219        8.92     265      -92.6
   08/17/2016 20:40      82.4      80.3       24     41.6      0.00      0.00      87.1     0.58      1009.0     2       232         2       250        8.93     266      -95.4
   08/17/2016 20:30      83.1      82.7       25     43.6      0.00      0.00      87.2     0.58      1009.0     2       278         4       265        8.93     266      -97.3
   08/17/2016 20:20      83.0      82.6       25     43.0      0.00      0.00      87.0     0.58      1009.0     3       249         4       247        8.93     266      -96.2
   08/17/2016 20:10      83.8      82.9       24     42.4      0.00      0.00      87.0     0.58      1009.0     2       245         3       237        8.94     266      -97.2
   08/17/2016 20:00      85.0      84.0       22     41.9      0.00      0.00      86.9     0.58      1009.0     3       245         4       261        8.94     266      -99.5
   08/17/2016 19:50      85.7      85.3       14     31.3      0.00      0.00      87.0     0.58      1009.0     2       219         3       251        8.94     266      -99.3
   08/17/2016 19:40      86.7      85.6       11     24.7      0.00      0.00      87.1     0.58      1009.0     3       194         4       187        8.95     266     -100.4
   08/17/2016 19:30      88.3      87.0       10     24.5      0.00      0.00      87.0     0.58      1009.0     2       206         3       206        8.95     266     -101.0
   08/17/2016 19:20      89.1      88.3        9     23.7      0.00      0.00      86.9     0.58      1009.0     2       215         3       191        8.95     266     -101.6
   08/17/2016 19:10      90.4      89.3        9     23.1      0.00      0.00      86.9     0.58      1009.0     3       180         5       186        8.96     266      -89.1
   08/17/2016 19:00      91.3      90.5        8     22.9      0.00      0.00      86.9     0.58      1009.0     3       174         4       175        8.96     266      -73.7
   08/17/2016 18:50      92.4      91.4        9     24.1      0.00      0.00      86.9     0.58      1009.0     3       166         4       183        8.97     266      -48.5
   08/17/2016 18:40      93.0      92.5        8     24.1      0.00      0.00      86.8     0.58      1009.0     3       163         4       140        8.97     266      -21.6
   08/17/2016 18:30      93.4      93.1        8     23.8      0.00      0.00      86.7     0.58      1009.0     3       163         5       154        8.98     266        3.8
   08/17/2016 18:20      94.5      93.3        8     22.3      0.00      0.00      86.6     0.58      1009.0     5       174         6       176        8.99     265       29.1
   08/17/2016 18:10      94.8      94.4        7     19.5      0.00      0.00      86.6     0.58      1009.0     4       139         7       123        9.00     266       54.1
   08/17/2016 18:00      95.3      94.8        6     16.2      0.00      0.00      86.4     0.58      1009.0     4       142         7       131        9.00     266       77.1
   08/17/2016 17:50      95.1      94.6        6     16.0      0.00      0.00      86.6     0.58      1009.0     5       131         6       127        9.01     266      100.4
   08/17/2016 17:40      95.1      94.8        6     18.5      0.00      0.00      86.6     0.58      1009.0     6       141         8       137        9.01     266      126.4
   08/17/2016 17:30      96.1      95.1        6     18.3      0.00      0.00      86.4     0.58      1009.0     5       152         9       119        9.02     266      150.1
   08/17/2016 17:20      96.0      95.1        6     16.2      0.00      0.00      86.2     0.58      1009.0     6       161         8       153        9.02     265      173.3
   08/17/2016 17:10      96.9      96.3        6     16.9      0.00      0.00      86.3     0.58      1009.0     6       150         9       160        9.03     265      194.0
   08/17/2016 17:00      96.7      95.7        5     15.3      0.00      0.00      86.2     0.58      1009.0     6       157         9       164        9.04     265      217.2
   08/17/2016 16:50      96.4      95.6        5     13.7      0.00      0.00      86.0     0.58      1009.0     5       178         7       166        9.04     265      241.1
   08/17/2016 16:40      96.6      96.0        5     12.5      0.00      0.00      85.9     0.58      1009.0     6       151         9       173        9.05     266      263.8
   08/17/2016 16:30      97.5      96.1        5     13.1      0.00      0.00      85.9     0.58      1009.0     6       165         8       163        9.06     265      286.1
   08/17/2016 16:20      97.4      96.5        4     11.9      0.00      0.00      86.0     0.58      1009.0     6       150         9       149        9.06     265      309.7
   08/17/2016 16:10      96.9      96.1        4     10.7      0.00      0.00      85.8     0.58      1009.0     6       179        10       181        9.07     265      332.6
   08/17/2016 16:00      98.1      96.8        4     10.9      0.00      0.00      85.7     0.58      1009.0     6       175         9       180        9.08     267      352.2
   08/17/2016 15:50      98.5      96.3        4     11.2      0.00      0.00      85.7     0.58      1009.0     6       177         9       164        9.09     267      371.8
   08/17/2016 15:40      97.6      96.9        4     10.9      0.00      0.00      85.6     0.58      1009.0     6       149         9       138        9.09     267      390.5
   08/17/2016 15:30      97.7      96.8        4     10.3      0.00      0.00      85.6     0.58      1009.0     6       140        11       134        9.10     267      411.8
   08/17/2016 15:20      97.5      96.5        4     10.0      0.00      0.00      85.4     0.58      1009.0     6       168        10       172        9.10     267      428.2
   08/17/2016 15:10      97.6      96.4        4      9.3      0.00      0.00      85.6     0.58      1009.0     7       154        11       165        9.10     267      443.4
   08/17/2016 15:00      99.4      96.9        4     11.9      0.00      0.00      85.5     0.58      1010.0     5       151         8       160        9.11     268      453.6
   08/17/2016 14:50      98.1      97.3        5     14.2      0.00      0.00      85.3     0.58      1010.0     6       130         9       143        9.11     269      467.4
   08/17/2016 14:40      98.4      97.5        5     15.4      0.00      0.00      85.4     0.58      1010.0     5       116         9       132        9.11     269      477.8
   08/17/2016 14:30      98.1      96.5        5     15.9      0.00      0.00      85.2     0.58      1010.0     5       114         6       130        9.11     269      487.5
   08/17/2016 14:20      99.2      96.7        5     16.2      0.00      0.00      85.1     0.58      1010.0     6       110        12       133        9.11     268      494.0
   08/17/2016 14:10      99.7      97.4        5     15.9      0.00      0.00      85.1     0.58      1010.0     5       147         9       174        9.11     269      501.8
   08/17/2016 14:00      99.6      98.0        5     16.4      0.00      0.00      85.0     0.58      1010.0     5       114         8        73        9.11     270      506.2
   08/17/2016 13:50      98.5      97.2        5     13.6      0.00      0.00      84.9     0.58      1010.0     4       185         7       126        9.11     270      513.9
   08/17/2016 13:40      98.5      98.0        5     13.4      0.00      0.00      84.9     0.58      1010.0     5       133         7       141        9.11     272      520.8
   08/17/2016 13:30      98.0      96.1        4     12.5      0.00      0.00      85.1     0.58      1010.0     4        98         6       122        9.11     285      528.0
   08/17/2016 13:20      97.5      95.7        5     13.0      0.00      0.00      85.1     0.58      1010.0     5       119         7       139        9.11     316      534.2
   08/17/2016 13:10      97.4      95.9        5     14.7      0.00      0.00      85.0     0.58      1011.0     5       131         8       134        9.11     349      539.0
   08/17/2016 13:00      97.5      96.2        5     15.8      0.00      0.00      84.9     0.58      1011.0     6       128        10       129        9.11     377      542.3
   08/17/2016 12:50      98.3      96.6        6     18.6      0.00      0.00      84.9     0.58      1011.0     5        91         7        73        9.11     392      545.0
   08/17/2016 12:40      98.9      97.1        7     22.0      0.00      0.00      84.9     0.58      1011.0     6        83        10        73        9.11     402      544.0
   08/17/2016 12:30      98.7      97.7        6     19.9      0.00      0.00      84.8     0.58      1011.0     3       108         6        81        9.11     409      540.3
   08/17/2016 12:20      98.2      96.9        7     23.8      0.00      0.00      84.6     0.58      1011.0     4        59         7       108        9.11     415      540.2
   08/17/2016 12:10      97.4      95.8        8     25.2      0.00      0.00      84.8     0.58      1011.0     3        49         5        33        9.11     415      535.7
   08/17/2016 12:00      95.7      94.5       10     29.3      0.00      0.00      84.9     0.58      1011.0     4        51         8        73        9.11     416      534.8
   08/17/2016 11:50      94.8      94.1       12     33.5      0.00      0.00      84.7     0.58      1011.0     3        37         5        35        9.11     417      532.4
   08/17/2016 11:40      94.6      93.8       14     37.8      0.00      0.00      84.8     0.58      1011.0     3        47         5        62        9.11     421      530.5
   08/17/2016 11:30      93.9      92.4       14     37.1      0.00      0.00      84.9     0.58      1011.0     3        37         5        79        9.11     429      526.1
   08/17/2016 11:20      92.6      90.4       15     37.5      0.00      0.00      85.0     0.58      1011.0     3        58         5        79        9.11     433      521.3
   08/17/2016 11:10      90.5      89.7       14     35.2      0.00      0.00      85.1     0.58      1011.0     4         2         7       354        9.10     440      514.9
   08/17/2016 11:00      90.0      89.0       14     33.7      0.00      0.00      84.8     0.58      1011.0     4       357         5       355        9.10     447      509.0
   08/17/2016 10:50      89.6      89.3       15     35.8      0.00      0.00      85.1     0.58      1011.0     3         8         5         4        9.10     465      500.7
   08/17/2016 10:40      89.8      89.1       15     36.0      0.00      0.00      85.2     0.58      1011.0     3        65         5        65        9.10     470      493.5
   08/17/2016 10:30      89.3      87.2       14     33.4      0.00      0.00      85.6     0.57      1011.0     3        55         4        51        9.10     474      486.3
   08/17/2016 10:20      87.7      85.8       15     34.2      0.00      0.00      85.4     0.57      1011.0     4        53         6        73        9.10     470      479.2
   08/17/2016 10:10      86.0      85.2       20     39.8      0.00      0.00      85.7     0.56      1011.0     2        37         3        55        9.10     465      463.3
   08/17/2016 10:00      84.9      83.4       23     41.8      0.00      0.00      85.5     0.54      1011.0     2        21         4        77        9.10     456      429.8
   08/17/2016 09:50      83.1      82.1       25     43.5      0.00      0.00      86.0     0.54      1011.0     2        47         3        56        9.10     460      414.2
   08/17/2016 09:40      81.9      80.2       26     42.6      0.00      0.00      85.8     0.54      1012.0     2        30         3        88        9.10     462      398.3
   08/17/2016 09:30      80.6      79.9       31     46.9      0.00      0.00      85.6     0.54      1011.0     2         1         4         4        9.09     460      381.4
   08/17/2016 09:20      80.0      78.8       35     49.2      0.00      0.00      85.2     0.54      1012.0     2       359         3        78        9.09     466      360.9
   08/17/2016 09:10      78.8      77.5       37     49.6      0.00      0.00      86.0     0.54      1012.0     2        27         3         3        9.09     473      333.6
   08/17/2016 09:00      77.7      75.3       39     49.8      0.00      0.00      86.0     0.51      1012.0     2         2         2        16        8.43     269      297.3
   08/17/2016 08:50      74.9      72.8       45     50.8      0.00      0.00      86.1     0.51      1012.0     2       304         3       326        8.44     269      281.6
   08/17/2016 08:40      72.8      71.8       49     52.1      0.00      0.00      86.3     0.51      1012.0     2       353         3         9        8.44     269      260.4
   08/17/2016 08:30      71.7      70.5       52     52.8      0.00      0.00      86.5     0.51      1012.0     1        13         2        34        8.45     269      231.8
   08/17/2016 08:20      70.5      69.5       57     54.0      0.00      0.00      86.3     0.52      1012.0     1         1         2        21        8.45     269       70.0
   08/17/2016 08:10      69.4      68.5       58     53.8      0.00      0.00      86.4     0.52      1012.0     1       338         2       311        8.45     269       90.4
   08/17/2016 08:00      68.5      66.2       61     53.2      0.00      0.00      86.4     0.52      1012.0     1        29         1        85        8.45     270       -7.1
   08/17/2016 07:50      66.0      64.3       63     52.5      0.00      0.00      86.4     0.52      1012.0     0        94         1       124        8.45     270      -27.8
   08/17/2016 07:40      64.3      63.3       66     52.0      0.00      0.00      86.5     0.52      1012.0     0        60         1        59        8.45     270      -31.4
   08/17/2016 07:30      63.2      61.3       69     51.7      0.00      0.00      86.9     0.52      1012.0     1        37         1        15        8.45     270      -14.0
   08/17/2016 07:20      61.4      60.2       71     51.4      0.00      0.00      86.4     0.52      1012.0     1        39         1        81        8.45     270      -50.4
   08/17/2016 07:10      60.3      59.3       74     51.4      0.00      0.00      86.6     0.52      1012.0     1       347         1       338        8.46     270      -50.8
   08/17/2016 07:00      59.3      58.4       76     51.1      0.00      0.00      86.7     0.52      1011.0     1       167         1       141        8.46     270      -53.1
   08/17/2016 06:50      58.5      57.9       76     50.8      0.00      0.00      86.8     0.52      1011.0     1       135         2       125        8.46     269      -56.2
   08/17/2016 06:40      58.1      57.8       78     51.0      0.00      0.00      86.7     0.52      1011.0     1       167         1       156        8.46     269      -57.9
   08/17/2016 06:30      58.0      57.7       77     50.8      0.00      0.00      86.8     0.52      1011.0     1       151         1       143        8.46     269      -62.0
   08/17/2016 06:20      58.0      57.6       76     50.4      0.00      0.00      86.9     0.52      1011.0     1       150         1       149        8.46     269      -66.5
   08/17/2016 06:10      58.4      58.0       77     50.9      0.00      0.00      87.2     0.52      1011.0     0       105         0       121        8.46     269      -67.1
   08/17/2016 06:00      58.5      58.2       77     51.3      0.00      0.00      86.8     0.52      1011.0     1       134         1       139        8.46     269      -66.8
   08/17/2016 05:50      58.5      58.2       79     52.0      0.00      0.00      87.1     0.52      1011.0     1       178         1       172        8.46     269      -66.7
   08/17/2016 05:40      58.5      58.1       79     51.8      0.00      0.00      87.4     0.52      1011.0     1       134         2       127        8.46     269      -68.1
   08/17/2016 05:30      58.9      58.4       76     51.0      0.00      0.00      87.3     0.52      1011.0     1       138         2       133        8.46     269      -69.1
   08/17/2016 05:20      59.4      59.0       73     50.6      0.00      0.00      87.2     0.52      1011.0     1       155         2       133        8.46     268      -69.6
   08/17/2016 05:10      59.4      59.1       74     50.9      0.00      0.00      87.2     0.52      1011.0     0       201         0       180        8.46     269      -69.2
   08/17/2016 05:00      59.2      59.0       76     51.5      0.00      0.00      87.1     0.52      1011.0     1       177         1       160        8.46     268      -69.8
   08/17/2016 04:50      59.9      59.1       73     51.0      0.00      0.00      87.3     0.52      1011.0     1       159         3       131        8.46     268      -70.5
   08/17/2016 04:40      60.2      59.8       71     50.7      0.00      0.00      87.4     0.52      1011.0     1       162         1       127        8.46     268      -69.5
   08/17/2016 04:30      60.3      60.2       71     51.0      0.00      0.00      87.5     0.52      1011.0     1       148         1       142        8.46     268      -70.0
   08/17/2016 04:20      60.4      60.2       69     50.2      0.00      0.00      87.6     0.52      1011.0     1       194         1       191        8.46     268      -70.6
   08/17/2016 04:10      60.7      60.4       70     50.7      0.00      0.00      87.5     0.52      1011.0     1       162         1       150        8.46     268      -70.0
   08/17/2016 04:00      60.7      60.4       69     50.6      0.00      0.00      87.9     0.52      1011.0     1       168         1       134        8.46     268      -70.6
   08/17/2016 03:50      61.0      60.5       69     50.6      0.00      0.00      88.0     0.52      1011.0     1       203         1       198        8.46     268      -71.1
   08/17/2016 03:40      61.0      60.8       70     51.0      0.00      0.00      87.8     0.52      1011.0     1       151         1       152        8.46     268      -71.2
   08/17/2016 03:30      61.4      61.0       70     51.5      0.00      0.00      87.9     0.52      1011.0     1       143         2       136        8.46     267      -71.3
   08/17/2016 03:20      61.4      61.1       70     51.3      0.00      0.00      88.0     0.52      1011.0     1       140         2       140        8.46     267      -72.4
   08/17/2016 03:10      62.0      61.2       69     51.4      0.00      0.00      87.8     0.52      1011.0     2       144         3       141        8.46     267      -72.3
   08/17/2016 03:00      62.3      62.2       67     51.2      0.00      0.00      87.7     0.52      1011.0     1       142         2       135        8.47     267      -72.0
   08/17/2016 02:50      62.4      62.0       68     51.3      0.00      0.00      88.0     0.52      1011.0     1       145         2       130        8.47     267      -72.3
   08/17/2016 02:40      62.6      62.2       68     51.6      0.00      0.00      87.9     0.52      1011.0     1       186         1       172        8.47     267      -73.0
   08/17/2016 02:30      62.8      62.4       69     52.3      0.00      0.00      88.0     0.52      1011.0     1       149         2       142        8.47     267      -72.4
   08/17/2016 02:20      62.8      62.3       68     52.0      0.00      0.00      88.0     0.52      1011.0     2       141         2       135        8.47     267      -74.1
   08/17/2016 02:10      63.4      63.0       68     52.4      0.00      0.00      87.9     0.52      1011.0     2       144         2       134        8.47     267      -74.2
   08/17/2016 02:00      63.6      63.2       67     52.5      0.00      0.00      88.4     0.52      1011.0     1       184         2       129        8.47     267      -74.3
   08/17/2016 01:50      64.0      63.4       67     52.4      0.00      0.00      88.3     0.52      1011.0     2       144         2       137        8.47     267      -74.3
   08/17/2016 01:40      64.1      63.7       65     51.8      0.00      0.00      88.3     0.52      1011.0     1       185         1       158        8.47     267      -74.3
   08/17/2016 01:30      64.5      63.9       64     51.7      0.00      0.00      88.1     0.52      1011.0     1       143         2       132        8.47     267      -75.0
   08/17/2016 01:20      65.0      64.6       62     51.6      0.00      0.00      88.4     0.52      1011.0     1       160         1       209        8.47     267      -75.4
   08/17/2016 01:10      65.0      64.5       61     51.2      0.00      0.00      88.2     0.52      1011.0     1       206         2       208        8.47     267      -75.8
   08/17/2016 01:00      65.4      64.8       61     51.5      0.00      0.00      88.4     0.52      1011.0     1       143         1       106        8.47     267      -76.0
   08/17/2016 00:50      65.7      65.2       61     51.6      0.00      0.00      88.3     0.52      1011.0     1        21         2       262        8.47     267      -76.8
   08/17/2016 00:40      65.7      65.2       61     51.8      0.00      0.00      88.4     0.52      1011.0     1       156         2       158        8.47     266      -77.3
   08/17/2016 00:30      66.5      65.6       61     52.3      0.00      0.00      88.5     0.52      1011.0     2       133         3       142        8.47     266      -78.9
   08/17/2016 00:20      66.9      66.7       60     52.6      0.00      0.00      88.6     0.52      1012.0     1       149         2       143        8.48     266      -79.3
   08/17/2016 00:10      67.9      67.2       58     52.4      0.00      0.00      88.7     0.52      1011.0     1       146         2       117        8.48     266      -79.8
   08/17/2016 00:00      68.0      67.3       61     53.5      0.00      0.00      88.6     0.52      1011.0     2       203         3       243        8.48     266      -80.2
   08/16/2016 23:50      68.2      67.7       60     53.3      0.00      0.00      88.4     0.52      1011.0     2       131         2       121        8.48     266      -81.6
   08/16/2016 23:40      68.4      68.0       59     53.4      0.00      0.00      88.7     0.52      1011.0     1       201         2       217        8.48     266      -81.8
   08/16/2016 23:30      68.8      68.1       58     53.1      0.00      0.00      88.6     0.52      1011.0     2       149         2       164        8.48     266      -82.4
   08/16/2016 23:20      69.3      68.7       57     53.3      0.00      0.00      88.7     0.52      1011.0     1       192         2       178        8.48     265      -83.0
   08/16/2016 23:10      69.6      69.1       56     53.1      0.00      0.00      88.8     0.52      1011.0     1       145         2       128        8.48     265      -84.2
   08/16/2016 23:00      70.6      69.8       54     53.0      0.00      0.00      88.8     0.52      1011.0     1       189         2       187        8.48     265      -84.6
   08/16/2016 22:50      71.2      70.6       54     53.5      0.00      0.00      88.6     0.52      1011.0     1       144         2       127        8.48     265      -85.9
   08/16/2016 22:40      71.8      71.3       52     53.0      0.00      0.00      88.9     0.52      1011.0     1        99         2       115        8.48     265      -88.1
   08/16/2016 22:30      73.4      72.2       50     53.0      0.00      0.00      88.7     0.52      1011.0     1        96         2        89        8.48     265      -90.0
   08/16/2016 22:20      73.8      73.2       49     53.5      0.00      0.00      88.8     0.52      1011.0     2        83         2       102        8.48     265      -91.6
   08/16/2016 22:10      74.7      74.0       48     53.4      0.00      0.00      88.6     0.52      1011.0     2        73         4        79        8.48     265      -92.8
   08/16/2016 22:00      75.3      74.8       46     53.1      0.00      0.00      88.5     0.52      1011.0     2        48         3        75        8.49     265      -93.1
   08/16/2016 21:50      75.9      75.4       44     52.0      0.00      0.00      88.6     0.52      1011.0     2        48         3        87        8.48     265      -94.0
   08/16/2016 21:40      76.2      75.8       38     48.7      0.00      0.00      88.7     0.52      1011.0     2        48         3        59        8.49     264      -93.1
   08/16/2016 21:30      76.2      75.6       25     37.4      0.00      0.00      88.6     0.52      1011.0     1        80         1       347        8.49     264      -91.1
   08/16/2016 21:20      77.3      76.0       21     34.3      0.00      0.00      88.7     0.52      1011.0     1        64         1        84        8.49     264      -94.9
   08/16/2016 21:10      77.9      77.3       20     33.7      0.00      0.00      88.7     0.52      1010.0     1       187         2       150        8.49     264      -94.9
   08/16/2016 21:00      79.9      78.2       19     33.0      0.00      0.00      88.7     0.52      1010.0     2       161         3       221        8.49     264      -95.8
   08/16/2016 20:50      81.6      79.6       17     31.9      0.00      0.00      88.7     0.52      1010.0     2       205         2       191        8.49     264      -95.7
   08/16/2016 20:40      83.0      81.9       16     31.3      0.00      0.00      88.6     0.52      1010.0     2       224         2       197        8.50     264      -96.4
   08/16/2016 20:30      84.5      83.4       14     29.6      0.00      0.00      88.4     0.52      1010.0     2       214         3       227        8.50     264      -99.2
   08/16/2016 20:20      85.5      84.6       12     27.4      0.00      0.00      88.5     0.52      1010.0     1        10         2       273        8.50     264     -102.5
   08/16/2016 20:10      86.5      85.5       11     26.2      0.00      0.00      88.4     0.52      1010.0     2       209         3       242        8.50     264     -103.7
   08/16/2016 20:00      87.0      86.4       11     26.5      0.00      0.00      88.5     0.52      1009.0     4       232         7       250        8.51     264     -104.0
   08/16/2016 19:50      88.1      87.3       11     27.1      0.00      0.00      88.4     0.52      1009.0     4       230         8       228        8.51     264     -106.7
   08/16/2016 19:40      89.6      88.2       13     32.1      0.00      0.00      88.4     0.52      1009.0     5       231         7       203        8.51     264     -106.5
   08/16/2016 19:30      90.7      89.9       14     34.9      0.00      0.00      88.3     0.52      1009.0     2       275         4       276        8.51     264     -103.9
   08/16/2016 19:20      92.0      90.7       13     33.5      0.00      0.00      88.3     0.52      1009.0     3       304         4       320        8.52     264     -102.8
   08/16/2016 19:10      92.9      92.0       13     33.8      0.00      0.00      88.2     0.52      1009.0     5       276         7       262        8.52     263      -86.0
   08/16/2016 19:00      93.8      92.9       13     35.3      0.00      0.00      88.1     0.52      1009.0     4       275         7       237        8.53     263      -68.3
   08/16/2016 18:50      94.5      93.9       14     37.0      0.00      0.00      88.2     0.52      1008.0     5       286         7       236        8.53     263      -44.0
   08/16/2016 18:40      95.4      94.5       14     38.2      0.00      0.00      88.2     0.52      1008.0     5       280         6       256        8.54     263      -18.7
   08/16/2016 18:30      96.2      95.2       14     38.9      0.00      0.00      88.0     0.52      1008.0     4       296         5       273        8.54     263        4.6
   08/16/2016 18:20      97.1      96.0       13     37.5      0.00      0.00      88.0     0.52      1008.0     4       298         7       311        8.55     263       28.3
   08/16/2016 18:10      97.4      96.9       13     37.3      0.00      0.00      87.8     0.52      1008.0     5       287         8       272        8.56     263       53.2
   08/16/2016 18:00      98.5      97.6       13     39.6      0.00      0.00      87.7     0.52      1009.0     5       297         8       298        8.56     263       78.7
   08/16/2016 17:50      99.1      98.1       12     37.5      0.00      0.00      87.9     0.52      1009.0     6       280         8       287        8.57     263      103.7
   08/16/2016 17:40      99.9      99.2        9     29.3      0.00      0.00      87.6     0.52      1009.0     6       267         8       245        8.58     263      128.0
   08/16/2016 17:30     100.7     100.0        6     19.9      0.00      0.00      87.4     0.51      1009.0     6       245         9       273        8.59     263      147.7
   08/16/2016 17:20     100.7     100.1        5     17.7      0.00      0.00      87.5     0.51      1009.0     6       264        10       246        8.59     263      170.7
   08/16/2016 17:10     101.0     100.5        5     19.4      0.00      0.00      87.3     0.51      1009.0     6       264         9       266        8.60     263      191.7
   08/16/2016 17:00     101.6     100.8        6     22.1      0.00      0.00      87.4     0.51      1009.0     7       273        13       253        8.60     263      215.2
   08/16/2016 16:50     101.6     101.2        6     22.8      0.00      0.00      87.3     0.51      1009.0     7       258        12       257        8.61     263      236.7
   08/16/2016 16:40     102.5     101.6        7     24.8      0.00      0.00      87.1     0.51      1009.0     6       242         9       196        8.62     263      259.7
   08/16/2016 16:30     102.4     101.7        7     26.5      0.00      0.00      87.1     0.51      1009.0     6       246        11       237        8.62     263      281.2
   08/16/2016 16:20     102.7     101.9        7     27.0      0.00      0.00      86.8     0.51      1009.0     5       225         7       212        8.63     263      301.3
   08/16/2016 16:10     103.2     102.4        7     26.8      0.00      0.00      87.0     0.51      1009.0     6       256        12       245        8.63     263      324.4
   08/16/2016 16:00     102.9     101.7        7     27.9      0.00      0.00      86.8     0.51      1009.0     6       266         9       264        8.64     264      344.0
   08/16/2016 15:50     103.1     102.3        8     28.8      0.00      0.00      86.7     0.51      1009.0     6       265        11       230        8.65     264      367.5
   08/16/2016 15:40     102.2     101.4        9     33.1      0.00      0.00      86.7     0.51      1009.0     5       188        10       240        8.65     264      381.7
   08/16/2016 15:30     102.4     101.7       10     34.4      0.00      0.00      86.7     0.51      1009.0     6       242         9       253        8.66     264      402.1
   08/16/2016 15:20     102.2     101.3       10     35.3      0.00      0.00      86.6     0.51      1009.0     5       218         7       226        8.67     265      413.6
   08/16/2016 15:10     102.2     101.5        9     33.6      0.00      0.00      86.6     0.51      1009.0     5       209         8       226        8.67     265      430.7
   08/16/2016 15:00     103.8     102.5        8     29.0      0.00      0.00      86.4     0.51      1009.0     4       240         8       209        8.68     265      438.3
   08/16/2016 14:50     103.1     102.4        7     28.1      0.00      0.00      86.3     0.51      1010.0     5       261        10       256        8.69     266      457.1
   08/16/2016 14:40     103.4     102.7        7     27.8      0.00      0.00      86.3     0.51      1010.0     4       257         6       208        8.69     266      461.5
   08/16/2016 14:30     103.4     101.5        8     31.2      0.00      0.00      86.1     0.51      1010.0     3         3         4       138        8.70     266      472.7
   08/16/2016 14:20     102.1     101.2        9     32.2      0.00      0.00      86.0     0.51      1010.0     4       133         6       140        8.71     265      483.7
   08/16/2016 14:10     102.9     101.7        9     33.2      0.00      0.00      86.1     0.51      1010.0     5        78        10        77        8.71     265      489.5
   08/16/2016 14:00     102.4     101.3        9     32.9      0.00      0.00      85.9     0.51      1010.0     5        56         8        72        8.72     265      496.3
   08/16/2016 13:50     102.7     102.1        9     33.0      0.00      0.00      86.0     0.51      1010.0     4        67         7        75        8.72     266      493.4
   08/16/2016 13:40     102.5     101.3        9     33.0      0.00      0.00      85.9     0.50      1010.0     3        60         6        73        8.72     266      500.7
   08/16/2016 13:30     101.3     100.8       10     33.3      0.00      0.00      85.8     0.50      1010.0     4        52         6        66        8.73     266      505.8
   08/16/2016 13:20     101.7     100.8       10     33.5      0.00      0.00      85.8     0.50      1011.0     4        12         6       333        8.73     266      506.6
   08/16/2016 13:10     101.7      99.8       10     33.7      0.00      0.00      85.9     0.50      1011.0     3        26         6         0        8.73     267      511.4
   08/16/2016 13:00     100.7      99.4       10     34.7      0.00      0.00      85.7     0.50      1011.0     4         7         7       347        8.73     267      514.7
   08/16/2016 12:50      99.4      98.6       11     35.0      0.00      0.00      85.7     0.50      1011.0     3        32         5        23        8.74     268      519.1
   08/16/2016 12:40      98.9      97.8       12     36.9      0.00      0.00      85.7     0.50      1011.0     3         9         4       355        8.74     268      522.0
   08/16/2016 12:30      97.6      96.4       14     39.1      0.00      0.00      85.8     0.50      1011.0     3        31         6       356        8.74     268      518.3
   08/16/2016 12:20      96.6      95.9       16     42.5      0.00      0.00      85.7     0.50      1011.0     3         1         5        19        8.74     268      519.7
   08/16/2016 12:10      96.0      95.2       16     43.0      0.00      0.00      85.8     0.50      1011.0     3       326         5       332        8.74     268      518.6
   08/16/2016 12:00      95.3      94.2       17     43.0      0.00      0.00      85.6     0.50      1011.0     3        29         5         8        8.75     268      514.0
   08/16/2016 11:50      94.9      93.3       17     43.0      0.00      0.00      85.6     0.50      1012.0     2        30         4       350        8.74     267      512.9
   08/16/2016 11:40      94.0      93.0       18     43.3      0.00      0.00      85.7     0.50      1012.0     3         6         5       351        8.74     268      507.2
   08/16/2016 11:30      93.5      92.3       18     43.1      0.00      0.00      85.8     0.50      1012.0     3       341         5       331        8.75     268      504.9
   08/16/2016 11:20      92.3      91.3       19     43.1      0.00      0.00      85.7     0.51      1012.0     2        40         4        31        8.75     269      498.7
   08/16/2016 11:10      91.4      90.7       19     42.8      0.00      0.00      85.7     0.51      1012.0     3        20         5       348        8.75     269      490.1
   08/16/2016 11:00      90.5      89.7       19     42.2      0.00      0.00      85.7     0.51      1012.0     2       340         4        45        8.75     269      482.7
   08/16/2016 10:50      89.6      88.2       20     41.9      0.00      0.00      85.8     0.51      1012.0     3       358         4       351        8.75     269      471.8
   08/16/2016 10:40      88.8      88.0       20     41.8      0.00      0.00      85.8     0.51      1012.0     3        14         4       349        8.75     269      461.3
   08/16/2016 10:30      87.6      86.2       21     42.4      0.00      0.00      85.8     0.51      1012.0     2         1         4       326        8.75     269      449.4
   08/16/2016 10:20      86.5      85.3       22     42.9      0.00      0.00      85.9     0.51      1012.0     3       294         5       314        8.75     269      437.5
   08/16/2016 10:10      85.5      83.6       23     43.4      0.00      0.00      86.0     0.51      1012.0     2        25         4        21        8.76     270      422.6
   08/16/2016 10:00      83.7      82.8       25     43.5      0.00      0.00      86.0     0.51      1012.0     3       351         4       357        8.76     270      405.3
   08/16/2016 09:50      82.9      82.3       24     42.5      0.00      0.00      85.9     0.51      1013.0     2        12         4        13        8.76     270      387.9
   08/16/2016 09:40      82.7      81.9       27     44.7      0.00      0.00      86.1     0.51      1013.0     2        14         3       355        8.76     270      370.2
   08/16/2016 09:30      81.8      80.0       29     45.7      0.00      0.00      86.2     0.51      1013.0     2        53         3        32        8.76     271      352.2
   08/16/2016 09:20      80.2      79.3       31     46.5      0.00      0.00      86.1     0.51      1013.0     2        21         3       356        8.76     271      332.5
   08/16/2016 09:10      79.8      78.6       33     48.2      0.00      0.00      86.3     0.51      1013.0     2        47         2         5        8.77     271      314.6
   08/16/2016 09:00      78.6      76.1       38     49.6      0.00      0.00      86.3     0.51      1013.0     1       103         2        73        8.77     271      296.1
   08/16/2016 08:50      75.8      73.3       43     50.4      0.00      0.00      86.5     0.51      1013.0     1       358         2        11        8.77     272      279.4
   08/16/2016 08:40      73.3      72.4       46     50.6      0.00      0.00      86.4     0.51      1013.0     1       293         2       349        8.77     272      259.6
   08/16/2016 08:30      72.4      71.2       48     50.8      0.00      0.00      86.4     0.52      1013.0     1       154         1       165        8.78     273      213.5
   08/16/2016 08:20      71.4      70.3       45     48.4      0.00      0.00      86.5     0.52      1013.0     1       113         2       175        8.78     275      -42.4
   08/16/2016 08:10      70.2      69.1       49     49.5      0.00      0.00      86.6     0.52      1013.0     1       195         1       105        8.79     276       82.6
   08/16/2016 08:00      69.0      67.7       52     49.9      0.00      0.00      86.7     0.52      1012.0     1       285         1       283        8.79     276       -6.8
   08/16/2016 07:50      67.7      66.5       53     49.3      0.00      0.00      86.8     0.52      1012.0     1       352         1       335        8.79     276      -17.5
   08/16/2016 07:40      66.5      65.2       55     49.3      0.00      0.00      86.7     0.52      1012.0     0       154         1       187        8.79     276      -25.3
   08/16/2016 07:30      65.2      64.0       58     49.4      0.00      0.00      86.9     0.52      1012.0     1        53         1        57        8.79     276      -32.7
   08/16/2016 07:20      64.0      63.2       61     50.1      0.00      0.00      86.9     0.52      1012.0     1        36         1        23        8.79     278      -47.9
   08/16/2016 07:10      63.1      61.3       65     50.3      0.00      0.00      86.8     0.52      1012.0     1         1         2       335        8.79     277      -49.0
   08/16/2016 07:00      61.3      59.9       71     51.1      0.00      0.00      86.9     0.52      1012.0     1       339         1       332        8.79     277      -51.0
   08/16/2016 06:50      60.0      59.8       66     48.4      0.00      0.00      86.8     0.52      1012.0     1       147         2       133        8.79     276      -55.1
   08/16/2016 06:40      60.0      59.4       65     48.0      0.00      0.00      87.1     0.52      1012.0     1       189         2       196        8.79     275      -57.7
   08/16/2016 06:30      59.4      59.2       71     49.9      0.00      0.00      87.1     0.52      1012.0     0       100         1       190        8.79     274      -61.3
   08/16/2016 06:20      59.6      59.3       70     49.6      0.00      0.00      87.2     0.52      1012.0     1       121         2       125        8.79     272      -64.8
   08/16/2016 06:10      60.0      59.6       67     48.9      0.00      0.00      87.3     0.52      1011.0     0        91         1       104        8.79     272      -66.3
   08/16/2016 06:00      60.5      60.2       62     47.3      0.00      0.00      87.4     0.52      1011.0     0       318         1        38        8.79     271      -67.8
   08/16/2016 05:50      60.4      60.0       67     49.0      0.00      0.00      87.4     0.52      1011.0     1       197         2       144        8.79     270      -67.3
   08/16/2016 05:40      60.9      60.3       63     48.1      0.00      0.00      87.4     0.52      1011.0     2       135         2       138        8.79     270      -68.2
   08/16/2016 05:30      61.0      60.4       61     47.3      0.00      0.00      87.5     0.52      1011.0     1       166         1       141        8.80     269      -68.3
   08/16/2016 05:20      61.0      60.5       60     46.7      0.00      0.00      87.5     0.52      1011.0     1       145         1       136        8.79     269      -69.0
   08/16/2016 05:10      60.9      60.8       59     46.6      0.00      0.00      87.6     0.52      1011.0     1       276         1       141        8.80     269      -68.7
   08/16/2016 05:00      61.3      60.8       61     47.3      0.00      0.00      87.7     0.52      1011.0     1       148         2       124        8.80     268      -69.9
   08/16/2016 04:50      61.4      61.0       59     46.6      0.00      0.00      87.5     0.52      1011.0     1       162         3       135        8.80     269      -69.7
   08/16/2016 04:40      62.2      61.6       56     45.9      0.00      0.00      87.9     0.52      1011.0     1       131         1       142        8.80     269      -70.0
   08/16/2016 04:30      62.5      62.2       55     46.2      0.00      0.00      87.7     0.52      1011.0     1       122         1       138        8.80     269      -70.3
   08/16/2016 04:20      63.0      62.4       55     46.1      0.00      0.00      87.6     0.52      1011.0     1       145         2       138        8.80     269      -71.4
   08/16/2016 04:10      62.7      62.5       54     45.7      0.00      0.00      87.9     0.52      1011.0     1       159         3       130        8.80     269      -70.1
   08/16/2016 04:00      63.0      62.6       54     45.9      0.00      0.00      87.8     0.52      1011.0     0       145         1       143        8.80     269      -70.8
   08/16/2016 03:50      63.5      63.1       54     46.4      0.00      0.00      88.0     0.52      1011.0     1       163         2       154        8.80     270      -70.6
   08/16/2016 03:40      63.7      63.3       54     46.4      0.00      0.00      88.1     0.52      1011.0     1       161         1       187        8.80     270      -69.9
   08/16/2016 03:30      64.2      63.6       52     45.9      0.00      0.00      88.1     0.52      1011.0     1       139         2       128        8.80     270      -69.8
   08/16/2016 03:20      64.2      63.8       50     44.9      0.00      0.00      88.2     0.52      1011.0     1       197         1       182        8.80     269      -69.9
   08/16/2016 03:10      64.1      63.7       52     45.8      0.00      0.00      88.3     0.52      1011.0     1       138         1       136        8.80     269      -70.3
   08/16/2016 03:00      64.3      63.9       51     45.8      0.00      0.00      88.4     0.52      1011.0     1       162         2       142        8.80     269      -70.3
   08/16/2016 02:50      64.7      64.4       50     45.4      0.00      0.00      88.6     0.52      1011.0     1       169         2       158        8.80     269      -70.5
   08/16/2016 02:40      64.9      64.5       49     45.2      0.00      0.00      88.4     0.52      1011.0     1       152         1       158        8.80     268      -70.0
   08/16/2016 02:30      65.1      64.9       50     45.7      0.00      0.00      88.4     0.52      1011.0     1        87         2       129        8.80     269      -72.1
   08/16/2016 02:20      65.4      64.9       49     45.3      0.00      0.00      88.5     0.52      1011.0     1       160         3       140        8.80     269      -71.8
   08/16/2016 02:10      65.3      64.8       49     45.2      0.00      0.00      88.7     0.52      1011.0     2       131         2       154        8.80     269      -73.2
   08/16/2016 02:00      66.3      65.4       47     45.2      0.00      0.00      88.6     0.52      1011.0     2       140         3       156        8.81     269      -72.9
   08/16/2016 01:50      66.5      65.9       46     44.8      0.00      0.00      88.7     0.52      1011.0     1       205         2       213        8.81     269      -71.8
   08/16/2016 01:40      67.1      66.0       46     45.0      0.00      0.00      88.5     0.52      1011.0     2       142         2       135        8.81     269      -72.7
   08/16/2016 01:30      67.4      67.1       45     45.4      0.00      0.00      88.6     0.52      1011.0     1       183         1       197        8.81     269      -72.3
   08/16/2016 01:20      67.3      66.8       46     45.7      0.00      0.00      88.5     0.52      1011.0     1       141         1       125        8.81     269      -72.6
   08/16/2016 01:10      67.9      67.4       44     44.9      0.00      0.00      88.7     0.52      1011.0     1       121         1       127        8.81     269      -72.8
   08/16/2016 01:00      68.0      67.7       43     44.7      0.00      0.00      88.9     0.52      1011.0     1       193         2       194        8.81     269      -72.7
   08/16/2016 00:50      68.1      67.7       43     44.4      0.00      0.00      88.8     0.52      1011.0     1       170         1       189        8.81     268      -73.1
   08/16/2016 00:40      68.2      67.7       44     45.0      0.00      0.00      88.9     0.52      1011.0     1       144         2       138        8.81     269      -75.0
   08/16/2016 00:30      68.7      68.2       42     44.1      0.00      0.00      88.8     0.52      1011.0     1       198         2       168        8.81     268      -74.7
   08/16/2016 00:20      68.9      68.4       42     44.8      0.00      0.00      88.9     0.52      1011.0     1       108         1        83        8.81     268      -76.5
   08/16/2016 00:10      69.4      69.1       41     44.8      0.00      0.00      89.0     0.52      1011.0     1       143         2       126        8.81     268      -77.1
   08/16/2016 00:00      70.1      69.4       41     45.0      0.00      0.00      88.9     0.52      1011.0     1        91         2       122        8.82     268      -79.3
   08/15/2016 23:50      70.2      69.6       39     44.1      0.00      0.00      88.9     0.52      1011.0     2       153         3       142        8.81     268      -79.9
   08/15/2016 23:40      70.5      70.3       39     44.0      0.00      0.00      89.0     0.52      1011.0     1       156         2       146        8.82     268      -80.3
   08/15/2016 23:30      71.2      70.7       39     44.7      0.00      0.00      89.1     0.52      1011.0     1       182         2       160        8.82     268      -80.6
   08/15/2016 23:20      71.1      70.8       39     44.6      0.00      0.00      89.0     0.52      1011.0     2       160         3       162        8.82     268      -82.7
   08/15/2016 23:10      72.6      71.3       34     42.5      0.00      0.00      89.1     0.52      1011.0     2       161         4       158        8.82     267      -83.3
   08/15/2016 23:00      73.0      72.7       35     43.3      0.00      0.00      89.1     0.52      1011.0     2       165         2       178        8.82     267      -83.1
   08/15/2016 22:50      74.6      73.1       33     42.8      0.00      0.00      89.1     0.52      1011.0     1       125         1       122        8.82     267      -84.3
   08/15/2016 22:40      75.5      74.7       31     42.4      0.00      0.00      89.2     0.52      1011.0     1       220         2       205        8.82     267      -83.4
   08/15/2016 22:30      76.3      75.5       31     42.6      0.00      0.00      89.1     0.52      1011.0     1       267         2       220        8.82     267      -82.9
   08/15/2016 22:20      78.6      76.6       29     42.8      0.00      0.00      89.2     0.52      1011.0     1        35         1        45        8.83     267      -86.8
   08/15/2016 22:10      79.5      78.9       27     42.6      0.00      0.00      89.2     0.52      1011.0     1       252         2       211        8.83     266      -88.7
   08/15/2016 22:00      79.3      78.6       27     42.5      0.00      0.00      89.1     0.52      1011.0     2       203         4       199        8.83     266      -88.3
   08/15/2016 21:50      78.4      77.6       29     43.1      0.00      0.00      89.1     0.52      1011.0     2       195         3       188        8.83     266      -87.2
   08/15/2016 21:40      79.0      77.7       29     43.3      0.00      0.00      89.3     0.52      1011.0     2       165         3       162        8.83     266      -87.3
   08/15/2016 21:30      79.9      79.1       27     42.6      0.00      0.00      89.2     0.52      1011.0     2       191         3       182        8.83     266      -88.4
   08/15/2016 21:20      80.4      80.0       26     42.3      0.00      0.00      89.2     0.52      1011.0     2       214         3       229        8.84     266      -88.7
   08/15/2016 21:10      81.7      80.0       25     42.1      0.00      0.00      89.1     0.52      1011.0     1       264         3       248        8.84     266      -89.1
   08/15/2016 21:00      82.4      81.9       24     42.2      0.00      0.00      89.1     0.52      1011.0     2       299         2       308        8.84     266      -92.2
   08/15/2016 20:50      83.1      82.4       24     42.3      0.00      0.00      89.2     0.52      1011.0     2       220         2       212        8.84     266      -93.8
   08/15/2016 20:40      83.9      83.5       23     42.3      0.00      0.00      89.2     0.52      1011.0     2       236         5       240        8.84     266      -96.0
   08/15/2016 20:30      84.1      83.6       23     42.4      0.00      0.00      89.0     0.52      1011.0     3       224         4       193        8.84     266      -97.7
   08/15/2016 20:20      84.6      83.9       23     42.6      0.00      0.00      89.2     0.52      1011.0     2       195         4       207        8.85     266      -99.0
   08/15/2016 20:10      85.1      84.6       22     42.0      0.00      0.00      89.1     0.52      1010.0     3       199         4       203        8.85     265     -100.5
   08/15/2016 20:00      86.3      85.3       20     40.4      0.00      0.00      89.1     0.52      1010.0     3       208         5       201        8.85     265     -102.9
   08/15/2016 19:50      87.6      86.5       18     38.9      0.00      0.00      88.8     0.52      1010.0     3       203         4       204        8.85     265     -105.0
   08/15/2016 19:40      88.2      87.7       17     37.5      0.00      0.00      89.0     0.52      1010.0     3       243         5       229        8.86     265     -105.3
   08/15/2016 19:30      89.1      88.2       16     36.3      0.00      0.00      88.9     0.52      1010.0     4       237         6       233        8.86     265     -105.1
   08/15/2016 19:20      90.5      89.1       14     33.5      0.00      0.00      88.9     0.52      1010.0     6       238         7       232        8.87     265     -101.4
   08/15/2016 19:10      92.4      90.8       11     28.6      0.00      0.00      88.9     0.52      1010.0     4       220         5       190        8.87     265      -86.9
   08/15/2016 19:00      92.4      92.1       12     33.0      0.00      0.00      88.8     0.52      1010.0     4       298         6       292        8.88     265      -68.1
   08/15/2016 18:50      92.9      92.3       12     32.8      0.00      0.00      88.8     0.52      1010.0     4       326         6       320        8.88     265      -42.6
   08/15/2016 18:40      93.2      92.9       12     32.3      0.00      0.00      88.7     0.52      1010.0     4       337         6       359        8.89     265      -16.5
   08/15/2016 18:30      93.8      93.1       12     34.1      0.00      0.00      88.6     0.52      1010.0     6       332         9       315        8.89     265        9.4
   08/15/2016 18:20      95.1      93.8       12     34.5      0.00      0.00      88.3     0.52      1009.0     6       331        11       312        8.89     265       32.2
   08/15/2016 18:10      97.1      95.1       12     34.7      0.00      0.00      88.5     0.52      1009.0     5       321        11       322        8.90     265       55.7
   08/15/2016 18:00      99.7      96.9       10     31.5      0.00      0.00      88.5     0.52      1009.0     5       270         8       242        8.90     265       79.6
   08/15/2016 17:50      99.7      99.1        8     26.0      0.00      0.00      88.4     0.52      1009.0     5       266         7       248        8.91     265      105.5
   08/15/2016 17:40     100.3      99.5        6     19.8      0.00      0.00      88.2     0.52      1009.0     6       247         9       254        8.91     264      129.3
   08/15/2016 17:30     101.4     100.3        7     23.3      0.00      0.00      88.3     0.52      1009.0     5       268         7       265        8.92     265      152.0
   08/15/2016 17:20     101.4     100.6        4     13.4      0.00      0.00      88.2     0.52      1009.0     5       245         7       223        8.93     264      174.3
   08/15/2016 17:10     101.8     101.2        5     18.0      0.00      0.00      88.1     0.52      1009.0     7       243        10       266        8.94     263      198.0
   08/15/2016 17:00     102.2     101.6        6     21.4      0.00      0.00      87.9     0.52      1009.0     6       227         9       203        8.94     264      219.5
   08/15/2016 16:50     102.2     101.6        5     20.1      0.00      0.00      88.2     0.52      1009.0     6       214         9       235        8.95     264      246.2
   08/15/2016 16:40     103.1     102.2        5     18.6      0.00      0.00      87.6     0.52      1009.0     7       216        10       206        8.96     265      266.4
   08/15/2016 16:30     103.2     102.6        5     17.7      0.00      0.00      87.7     0.52      1009.0     6       234         9       230        8.97     265      288.0
   08/15/2016 16:20     103.2     102.5        5     19.7      0.00      0.00      87.7     0.52      1009.0     7       236         9       247        8.98     264      312.0
   08/15/2016 16:10     103.4     102.9        5     19.9      0.00      0.00      87.8     0.51      1009.0     7       233         9       218        8.99     264      333.1
   08/15/2016 16:00     103.5     103.0        5     20.7      0.00      0.00      87.7     0.51      1010.0     7       212        10       248        9.00     265      355.1
   08/15/2016 15:50     104.0     103.3        5     19.7      0.00      0.00      87.5     0.51      1010.0     7       214        12       210        9.01     265      376.0
   08/15/2016 15:40     104.0     103.3        6     23.1      0.00      0.00      87.3     0.51      1010.0     5       238        11       198        9.01     265      389.4
   08/15/2016 15:30     104.7     103.8        6     23.1      0.00      0.00      87.3     0.51      1010.0     7       227         9       250        9.01     266      408.0
   08/15/2016 15:20     105.0     103.7        5     21.1      0.00      0.00      87.3     0.51      1010.0     6       238         9       219        9.02     267      422.2
   08/15/2016 15:10     104.7     104.0        5     20.4      0.00      0.00      87.1     0.51      1010.0     6       226         9       235        9.02     267      436.4
   08/15/2016 15:00     105.1     104.4        7     28.5      0.00      0.00      87.1     0.51      1010.0     6       253         9       260        9.02     267      449.5
   08/15/2016 14:50     105.6     104.6       10     37.1      0.00      0.00      87.0     0.51      1010.0     5       238         8       242        9.02     268      463.0
   08/15/2016 14:40     104.7     102.9       13     43.1      0.00      0.00      87.0     0.51      1010.0     3         3         6       350        9.02     268      466.4
   08/15/2016 14:30     103.5     102.1       13     43.0      0.00      0.00      87.0     0.51      1010.0     3        88         6       120        9.02     268      475.0
   08/15/2016 14:20     103.6     101.8       13     43.2      0.00      0.00      86.6     0.51      1010.0     5       120         8       136        9.02     267      483.2
   08/15/2016 14:10     103.3     102.1       13     43.3      0.00      0.00      86.8     0.51      1010.0     5        76         9        83        9.02     267      489.3
   08/15/2016 14:00     103.5     102.2       13     43.1      0.00      0.00      86.7     0.51      1011.0     4        92         6        74        9.02     268      498.9
   08/15/2016 13:50     103.3     101.9       14     44.0      0.00      0.00      86.8     0.51      1011.0     3       124         7       165        9.02     269      506.4
   08/15/2016 13:40     102.2     101.0       15     44.4      0.00      0.00      86.7     0.51      1011.0     4        65        11        90        9.02     269      513.5
   08/15/2016 13:30     102.7     101.5       15     45.4      0.00      0.00      86.6     0.51      1011.0     5        46         7        87        9.02     269      514.5
   08/15/2016 13:20     102.9     101.7       15     46.2      0.00      0.00      86.6     0.51      1011.0     3        49         4        57        9.02     269      515.4
   08/15/2016 13:10     102.6     101.6       15     46.1      0.00      0.00      86.6     0.51      1011.0     3         8         4       359        9.02     270      520.5
   08/15/2016 13:00     101.5      99.4       16     46.1      0.00      0.00      86.6     0.51      1011.0     3        46         4         9        9.02     271      526.2
   08/15/2016 12:50     100.9      99.0       16     46.1      0.00      0.00      86.4     0.51      1011.0     3        67         5        99        9.02     273      529.7
   08/15/2016 12:40     100.3      98.7       17     46.3      0.00      0.00      86.4     0.51      1012.0     5        78         7       100        9.02     277      533.8
   08/15/2016 12:30     100.5      99.1       17     46.9      0.00      0.00      86.3     0.51      1012.0     3         1         5       356        9.02     281      526.0
   08/15/2016 12:20      99.3      98.4       18     48.0      0.00      0.00      86.5     0.51      1012.0     2        17         4        12        9.02     285      525.9
   08/15/2016 12:10      98.6      96.9       18     47.7      0.00      0.00      86.3     0.51      1012.0     3        43         4         3        9.02     288      526.8
   08/15/2016 12:00      98.3      97.1       18     47.7      0.00      0.00      86.4     0.51      1012.0     3        83         6       116        9.02     288      525.8
   08/15/2016 11:50      98.2      96.5       20     49.0      0.00      0.00      86.5     0.51      1012.0     2        17         4         1        9.02     288      521.3
   08/15/2016 11:40      97.2      95.4       21     50.4      0.00      0.00      86.2     0.51      1012.0     3        18         6         2        9.02     287      517.5
   08/15/2016 11:30      95.8      94.9       24     52.7      0.00      0.00      86.5     0.51      1012.0     3        14         6         7        9.02     286      509.0
   08/15/2016 11:20      94.7      93.5       26     54.4      0.00      0.00      86.5     0.51      1012.0     4         2         6       350        9.01     289      503.6
   08/15/2016 11:10      94.0      93.1       27     54.1      0.00      0.00      86.6     0.51      1013.0     3        38         5        84        9.01     294      500.1
   08/15/2016 11:00      93.4      92.2       27     54.2      0.00      0.00      86.5     0.51      1013.0     2         7         4        39        9.01     301      490.2
   08/15/2016 10:50      92.2      90.3       28     53.6      0.00      0.00      86.5     0.51      1013.0     3         1         5       337        9.01     308      478.9
   08/15/2016 10:40      90.8      89.3       29     53.3      0.00      0.00      86.9     0.51      1013.0     4       348         5       342        9.00     309      468.8
   08/15/2016 10:30      89.4      89.0       29     52.5      0.00      0.00      86.9     0.51      1013.0     2         3         4         1        9.00     310      457.4
   08/15/2016 10:20      89.2      88.2       28     50.9      0.00      0.00      86.7     0.51      1013.0     2        42         3        83        9.00     315      446.0
   08/15/2016 10:10      88.4      87.5       27     50.4      0.00      0.00      86.9     0.51      1013.0     3       357         4       357        8.99     326      432.6
   08/15/2016 10:00      87.6      86.2       28     49.9      0.00      0.00      86.6     0.52      1013.0     2        14         4        80        8.99     339      417.6
   08/15/2016 09:50      86.7      86.0       28     49.6      0.00      0.00      86.8     0.52      1013.0     2        22         4        32        8.99     348      402.9
   08/15/2016 09:40      86.2      84.8       29     49.7      0.00      0.00      87.4     0.52      1013.0     2        23         3        12        8.99     353      387.1
   08/15/2016 09:30      85.7      83.4       30     50.3      0.00      0.00      86.7     0.52      1013.0     2        59         3        21        8.98     356      371.4
   08/15/2016 09:20      83.3      82.2       32     49.7      0.00      0.00      87.1     0.52      1013.0     2         3         3       355        8.98     362      353.1
   08/15/2016 09:10      82.5      81.3       33     50.2      0.00      0.00      87.7     0.52      1013.0     2       343         3       305        8.98     375      335.4
   08/15/2016 09:00      81.3      79.9       35     50.2      0.00      0.00      87.1     0.52      1013.0     2       333         4         4        8.98     390      317.7
   08/15/2016 08:50      79.8      78.3       36     50.1      0.00      0.00      87.2     0.51      1013.0     2       327         3       322        8.98     405      283.9
   08/15/2016 08:40      78.1      77.0       38     49.6      0.00      0.00      87.4     0.51      1013.0     2       340         2       338        8.97     268      239.1
   08/15/2016 08:30      76.9      76.0       39     49.8      0.00      0.00      87.5     0.51      1013.0     1       349         2       353        8.97     268      134.5
   08/15/2016 08:20      76.0      75.1       39     49.0      0.00      0.00      87.5     0.51      1013.0     1       338         2         8        8.95     268      -55.9
   08/15/2016 08:10      75.1      73.9       39     47.7      0.00      0.00      87.7     0.51      1013.0     1       341         1       163        7.68     268       12.1
   08/15/2016 08:00      73.8      72.1       40     47.1      0.00      0.00      87.6     0.51      1013.0     0       291         1       264        7.69     268      -23.3
   08/15/2016 07:50      72.1      70.7       42     46.9      0.00      0.00      87.4     0.51      1013.0     1       102         2       122        7.69     268      -12.8
   08/15/2016 07:40      70.6      69.5       43     46.8      0.00      0.00      87.4     0.51      1013.0     1        22         2        30        7.69     267      -17.1
   08/15/2016 07:30      69.4      67.5       46     47.1      0.00      0.00      87.6     0.51      1013.0     1       336         2       355        7.69     267      -34.5
   08/15/2016 07:20      67.5      66.2       48     46.5      0.00      0.00      87.8     0.51      1013.0     1        13         1        93        7.69     267      -44.5
   08/15/2016 07:10      66.4      65.6       49     46.4      0.00      0.00      87.8     0.51      1012.0     1       121         1       117        7.69     267      -45.7
   08/15/2016 07:00      65.8      64.7       48     45.4      0.00      0.00      87.8     0.51      1012.0     1       161         2       134        7.69     267      -49.5
   08/15/2016 06:50      64.7      64.0       50     45.4      0.00      0.00      88.0     0.51      1012.0     1       156         2       128        7.69     267      -52.5
   08/15/2016 06:40      64.4      63.4       51     45.4      0.00      0.00      87.7     0.51      1012.0     1       190         1       129        7.69     267      -54.8
   08/15/2016 06:30      63.8      63.4       51     45.1      0.00      0.00      87.9     0.51      1012.0     0        73         1       126        7.69     267      -58.7
   08/15/2016 06:20      63.8      63.5       51     45.2      0.00      0.00      88.0     0.51      1012.0     1       162         1       302        7.69     267      -61.6
   08/15/2016 06:10      64.5      63.8       51     45.7      0.00      0.00      88.2     0.51      1012.0     1       123         2       129        7.69     267      -64.4
   08/15/2016 06:00      64.7      64.4       50     45.7      0.00      0.00      88.3     0.51      1012.0     1       163         1       183        7.69     267      -65.3
   08/15/2016 05:50      64.8      64.7       51     46.1      0.00      0.00      88.2     0.51      1012.0     1       151         2       141        7.69     267      -66.0
   08/15/2016 05:40      65.2      64.7       51     46.3      0.00      0.00      88.4     0.51      1012.0     1       138         2       129        7.69     267      -66.2
   08/15/2016 05:30      65.5      65.2       52     47.2      0.00      0.00      88.3     0.51      1012.0     0       148         1       128        7.69     267      -65.7
   08/15/2016 05:20      65.7      65.3       52     47.2      0.00      0.00      88.3     0.51      1012.0     1       174         1       172        7.69     267      -66.4
   08/15/2016 05:10      65.7      65.3       54     48.6      0.00      0.00      88.4     0.51      1012.0     1       174         2       160        7.69     267      -67.5
   08/15/2016 05:00      66.5      65.9       50     47.2      0.00      0.00      88.5     0.51      1012.0     1       167         3       154        7.69     267      -67.4
   08/15/2016 04:50      66.8      66.6       49     46.7      0.00      0.00      88.5     0.51      1012.0     1       147         2       133        7.69     267      -67.1
   08/15/2016 04:40      67.3      67.0       48     47.0      0.00      0.00      88.5     0.51      1012.0     1       164         1       136        7.69     266      -67.5
   08/15/2016 04:30      67.3      67.0       48     46.9      0.00      0.00      88.6     0.51      1012.0     1       164         1       155        7.69     266      -67.9
   08/15/2016 04:20      67.3      67.2       47     46.5      0.00      0.00      88.7     0.51      1011.0     1       196         1       144        7.69     266      -68.3
   08/15/2016 04:10      68.1      67.3       44     45.2      0.00      0.00      88.9     0.51      1011.0     1       144         1       133        7.69     266      -68.7
   08/15/2016 04:00      68.2      67.8       42     44.0      0.00      0.00      88.7     0.51      1011.0     1       148         1       149        7.69     266      -68.2
   08/15/2016 03:50      68.3      68.2       40     43.2      0.00      0.00      88.8     0.51      1011.0     1       123         1       141        7.69     266      -68.6
   08/15/2016 03:40      68.8      68.4       39     42.8      0.00      0.00      88.7     0.51      1011.0     1       141         1       136        7.69     266      -69.1
   08/15/2016 03:30      69.5      68.7       38     42.1      0.00      0.00      88.9     0.51      1011.0     1       147         2       157        7.69     266      -68.6
   08/15/2016 03:20      69.7      69.2       36     41.2      0.00      0.00      89.0     0.51      1011.0     1       145         1       134        7.69     266      -68.4
   08/15/2016 03:10      69.7      69.3       34     40.1      0.00      0.00      89.0     0.51      1012.0     2       145         2       146        7.69     266      -69.5
   08/15/2016 03:00      70.2      69.3       33     39.4      0.00      0.00      88.8     0.51      1012.0     1       147         2       140        7.69     266      -70.5
   08/15/2016 02:50      71.1      70.4       32     39.6      0.00      0.00      89.2     0.51      1012.0     1       142         2       137        7.69     266      -71.4
   08/15/2016 02:40      71.5      71.2       30     38.7      0.00      0.00      89.0     0.51      1012.0     2       170         2       175        7.69     266      -71.8
   08/15/2016 02:30      72.4      71.7       29     38.3      0.00      0.00      89.0     0.51      1012.0     1       164         1       176        7.70     266      -72.0
   08/15/2016 02:20      73.3      72.5       28     38.0      0.00      0.00      89.1     0.51      1012.0     1       117         1       172        7.70     265      -71.7
   08/15/2016 02:10      73.2      72.9       28     38.0      0.00      0.00      89.2     0.51      1012.0     1       148         1       178        7.70     265      -70.8
   08/15/2016 02:00      74.4      73.3       27     37.6      0.00      0.00      89.0     0.51      1012.0     1        87         1       141        7.69     265      -70.8
   08/15/2016 01:50      75.5      74.4       26     37.8      0.00      0.00      89.3     0.51      1011.0     1        59         1        52        7.70     265      -70.9
   08/15/2016 01:40      77.5      75.6       24     37.1      0.00      0.00      89.3     0.51      1011.0     1        51         2        32        7.70     265      -70.3
   08/15/2016 01:30      79.2      77.6       21     34.9      0.00      0.00      89.4     0.51      1011.0     2       186         3       179        7.70     265      -68.9
   08/15/2016 01:20      79.3      77.8       20     34.5      0.00      0.00      89.5     0.51      1011.0     3       205         4       211        7.70     265      -68.9
   08/15/2016 01:10      79.3      77.8       23     37.0      0.00      0.00      89.5     0.51      1011.0     1       170         2       205        7.70     265      -69.1
   08/15/2016 01:00      80.9      79.6       20     35.4      0.00      0.00      89.4     0.51      1011.0     2       192         3       196        7.70     265      -70.1
   08/15/2016 00:50      81.3      80.8       19     34.6      0.00      0.00      89.4     0.51      1011.0     3       206         5       205        7.70     264      -71.4
   08/15/2016 00:40      81.9      81.5       18     34.7      0.00      0.00      89.4     0.51      1011.0     3       202         5       204        7.70     264      -72.3
   08/15/2016 00:30      82.0      81.8       18     34.6      0.00      0.00      89.4     0.51      1011.0     4       213         5       229        7.71     264      -72.5
   08/15/2016 00:20      82.4      81.9       18     34.9      0.00      0.00      89.6     0.51      1011.0     4       204         6       218        7.71     264      -71.8
   08/15/2016 00:10      82.7      82.4       18     35.1      0.00      0.00      89.7     0.51      1011.0     4       209         7       206        7.71     264      -72.0
   08/15/2016 00:00      82.7      82.4       18     35.4      0.00      0.00      89.7     0.51      1011.0     4       213         6       211        7.71     264      -72.3
   08/14/2016 23:50      82.7      82.2       19     36.1      0.00      0.00      89.5     0.51      1011.0     3       194         6       186        7.72     264      -72.2
   08/14/2016 23:40      82.5      82.3       19     36.5      0.00      0.00      89.5     0.51      1011.0     2       208         4       201        7.72     264      -72.5
   08/14/2016 23:30      82.6      82.2       20     37.1      0.00      0.00      89.5     0.51      1011.0     3       204         6       212        7.72     264      -72.8
   08/14/2016 23:20      82.3      81.8       21     38.4      0.00      0.00      89.6     0.51      1011.0     3       185         6       208        7.72     264      -73.2
   08/14/2016 23:10      82.4      81.9       22     40.1      0.00      0.00      89.4     0.51      1011.0     3       168         5       155        7.72     264      -73.8
   08/14/2016 23:00      82.6      82.4       23     40.6      0.00      0.00      89.6     0.51      1011.0     4       198         7       208        7.73     264      -73.7
   08/14/2016 22:50      82.5      82.3       23     41.3      0.00      0.00      89.5     0.51      1011.0     4       177         5       205        7.73     264      -73.9
   08/14/2016 22:40      82.4      82.2       24     42.3      0.00      0.00      89.5     0.51      1011.0     3       213         5       218        7.73     264      -74.5
   08/14/2016 22:30      82.5      82.0       25     43.4      0.00      0.00      89.7     0.51      1011.0     3       202         5       217        7.73     264      -75.3
   08/14/2016 22:20      82.4      82.3       27     44.9      0.00      0.00      89.5     0.51      1011.0     3       171         4       170        7.73     264      -76.1
   08/14/2016 22:10      82.5      82.3       28     46.0      0.00      0.00      89.6     0.51      1011.0     3       189         4       194        7.74     264      -76.8
   08/14/2016 22:00      82.8      82.4       29     46.8      0.00      0.00      89.6     0.51      1011.0     4       194         6       175        7.74     264      -77.5
   08/14/2016 21:50      83.3      82.8       28     46.8      0.00      0.00      89.7     0.51      1011.0     3       197         7       210        7.75     264      -78.0
   08/14/2016 21:40      83.6      83.3       28     47.1      0.00      0.00      89.4     0.51      1011.0     5       212         8       237        7.75     264      -77.6
   08/14/2016 21:30      84.1      83.8       28     47.5      0.00      0.00      89.7     0.51      1011.0     4       205         7       217        7.75     264      -77.7
   08/14/2016 21:20      84.5      84.2       28     47.9      0.00      0.00      89.6     0.51      1011.0     5       205         7       210        7.75     264      -77.6
   08/14/2016 21:10      84.8      84.5       28     48.3      0.00      0.00      89.5     0.51      1011.0     3       223         5       205        7.76     264      -77.4
   08/14/2016 21:00      85.1      84.8       28     48.7      0.00      0.00      89.5     0.51      1011.0     3       229         5       241        7.76     264      -77.7
   08/14/2016 20:50      85.5      85.1       28     49.0      0.00      0.00      89.4     0.51      1011.0     4       222         7       196        7.76     264      -78.1
   08/14/2016 20:40      85.7      85.4       28     49.0      0.00      0.00      89.4     0.51      1011.0     6       227        11       228        7.77     264      -78.3
   08/14/2016 20:30      86.2      85.8       28     49.1      0.00      0.00      89.4     0.51      1011.0     6       226         7       232        7.77     264      -79.0
   08/14/2016 20:20      86.6      86.1       28     49.3      0.00      0.00      89.5     0.51      1011.0     5       225         9       228        7.77     264      -80.0
   08/14/2016 20:10      87.5      86.7       27     49.4      0.00      0.00      89.3     0.51      1011.0     4       215         6       216        7.77     264      -81.4
   08/14/2016 20:00      88.1      87.6       26     49.1      0.00      0.00      89.4     0.51      1010.0     5       225         7       217        7.78     264      -81.8
   08/14/2016 19:50      88.5      88.0       26     49.0      0.00      0.00      89.4     0.51      1010.0     5       228         9       242        7.78     264      -81.2
   08/14/2016 19:40      88.9      88.5       26     49.1      0.00      0.00      89.2     0.51      1010.0     5       221         8       223        7.78     264      -79.9
   08/14/2016 19:30      89.6      88.9       26     49.6      0.00      0.00      89.2     0.51      1010.0     4       212         7       196        7.79     264      -78.6
   08/14/2016 19:20      90.8      89.9       25     49.5      0.00      0.00      89.2     0.51      1010.0     4       218         6       194        7.79     264      -12.5
   08/14/2016 19:10      91.9      91.1       23     49.0      0.00      0.00      89.1     0.51      1010.0     4       225         6       204        7.79     264      -47.8
   08/14/2016 19:00      92.8      92.1       23     48.9      0.00      0.00      89.2     0.51      1010.0     5       234         6       260        7.80     264      -36.3
   08/14/2016 18:50      93.1      92.7       22     48.6      0.00      0.00      89.1     0.51      1010.0     6       232         9       235        7.80     263      -12.5
   08/14/2016 18:40      94.3      93.0       22     48.7      0.00      0.00      88.9     0.51      1010.0     6       231         8       224        7.80     263       11.0
   08/14/2016 18:30      95.1      94.3       21     49.2      0.00      0.00      89.1     0.51      1010.0     6       231         8       254        7.81     263       31.6
   08/14/2016 18:20      95.1      94.7       21     48.9      0.00      0.00      89.1     0.51      1010.0     6       239         8       252        7.81     263       53.5
   08/14/2016 18:10      95.4      94.3       21     48.9      0.00      0.00      88.9     0.51      1010.0     7       237        10       239        7.81     263       75.7
   08/14/2016 18:00      95.7      95.1       21     48.8      0.00      0.00      88.7     0.51      1010.0     5       229         8       242        7.82     263       97.2
   08/14/2016 17:50      95.9      95.0       20     48.7      0.00      0.00      88.7     0.51      1010.0     6       247         8       235        7.83     263      119.7
   08/14/2016 17:40      96.0      95.2       20     48.7      0.00      0.00      88.5     0.51      1010.0     7       223        12       234        7.84     263      143.8
   08/14/2016 17:30      97.6      96.6       20     49.4      0.00      0.00      88.5     0.51      1010.0     7       224         8       243        7.85     263      163.6
   08/14/2016 17:20      97.6      96.6       20     49.8      0.00      0.00      88.5     0.51      1010.0     7       230         8       257        7.86     263      187.0
   08/14/2016 17:10      98.6      97.8       20     50.2      0.00      0.00      88.4     0.51      1010.0     6       232        11       212        7.87     263      207.3
   08/14/2016 17:00      98.1      97.1       20     50.1      0.00      0.00      88.3     0.51      1010.0     7       226         9       211        7.88     263      230.2
   08/14/2016 16:50      98.5      97.5       20     50.0      0.00      0.00      88.1     0.50      1010.0     7       223        10       230        7.89     263      251.7
   08/14/2016 16:40      98.9      98.3       20     50.7      0.00      0.00      88.0     0.50      1010.0     7       233         9       248        7.90     264      271.6
   08/14/2016 16:30      98.9      98.3       20     51.2      0.00      0.00      88.0     0.50      1010.0     7       241        11       239        7.91     263      293.8
   08/14/2016 16:20     101.1      98.6       21     52.1      0.00      0.00      87.9     0.50      1010.0     8       240        11       236        7.91     263      313.3
   08/14/2016 16:10     101.2     100.1       21     53.3      0.00      0.00      87.8     0.50      1010.0     6       261         9       232        7.92     263      331.3
   08/14/2016 16:00     100.3      99.5       21     52.5      0.00      0.00      87.8     0.50      1010.0     8       248        13       244        7.92     264      356.7
   08/14/2016 15:50     101.8      99.9       19     51.4      0.00      0.00      87.5     0.50      1010.0     8       227        10       236        7.93     264      374.2
   08/14/2016 15:40     101.7     100.8       19     51.0      0.00      0.00      87.5     0.50      1010.0     9       235        12       255        7.93     264      393.5
   08/14/2016 15:30     102.4     101.3       19     51.9      0.00      0.00      87.4     0.50      1010.0     9       228        16       220        7.94     264      410.1
   08/14/2016 15:20     102.5     101.8       19     52.1      0.00      0.00      87.5     0.50      1010.0    10       226        14       232        7.95     264      426.2
   08/14/2016 15:10     102.8     101.9       18     51.0      0.00      0.00      87.2     0.50      1010.0     8       219        11       210        7.95     265      439.2
   08/14/2016 15:00     103.8     102.5       17     49.7      0.00      0.00      87.2     0.50      1010.0     8       217        10       223        7.96     265      451.3
   08/14/2016 14:50     104.0     102.8       16     48.8      0.00      0.00      87.2     0.50      1010.0     8       224        12       216        7.96     265      461.5
   08/14/2016 14:40     103.6     102.8       16     47.8      0.00      0.00      87.0     0.50      1010.0     8       223        12       210        7.97     265      470.6
   08/14/2016 14:30     104.0     103.5       15     46.3      0.00      0.00      86.9     0.50      1010.0     9       218        14       236        7.97     265      476.7
   08/14/2016 14:20     105.5     104.2       16     49.0      0.00      0.00      87.0     0.50      1010.0     6       232        11       238        7.98     265      482.1
   08/14/2016 14:10     104.4     103.6       16     48.5      0.00      0.00      86.9     0.49      1010.0     7       224        11       214        7.98     265      491.8
   08/14/2016 14:00     104.1     103.4       17     50.0      0.00      0.00      86.9     0.49      1010.0     5       235         7       239        7.99     266      497.2
   08/14/2016 13:50     104.1     103.1       17     50.7      0.00      0.00      86.8     0.49      1010.0     6       241         9       245        7.99     266      502.3
   08/14/2016 13:40     104.7     104.1       17     50.8      0.00      0.00      86.8     0.49      1010.0     5       255         9       211        8.00     266      504.2
   08/14/2016 13:30     104.7     103.8       17     50.8      0.00      0.00      86.6     0.49      1010.0     5       284         8       305        8.00     267      510.4
   08/14/2016 13:20     104.9     103.6       17     51.3      0.00      0.00      86.5     0.49      1010.0     5       304         7       328        8.00     267      513.3
   08/14/2016 13:10     103.9     102.9       18     51.5      0.00      0.00      86.6     0.49      1011.0     6       297         9       263        8.01     268      515.9
   08/14/2016 13:00     103.2     102.3       19     52.8      0.00      0.00      86.4     0.49      1011.0     5       319        11       353        8.01     269      515.9
   08/14/2016 12:50     102.5     100.2       21     54.5      0.00      0.00      86.5     0.49      1011.0     3       347         5         4        8.01     269      517.6
   08/14/2016 12:40     100.8     100.4       22     54.5      0.00      0.00      86.5     0.49      1011.0     3       355         6        34        8.01     269      524.0
   08/14/2016 12:30     101.1     100.3       23     56.1      0.00      0.00      86.5     0.50      1011.0     4       337         5       304        8.02     270      515.7
   08/14/2016 12:20     100.0      98.8       25     57.1      0.00      0.00      86.4     0.50      1011.0     2       131         3        79        8.02     270      514.7
   08/14/2016 12:10      99.1      97.4       26     58.1      0.00      0.00      86.4     0.50      1011.0     3         1         4        11        8.02     270      513.4
   08/14/2016 12:00      97.3      96.5       27     57.6      0.00      0.00      86.5     0.50      1011.0     2        15         3       299        8.02     270      509.5
   08/14/2016 11:50      96.9      94.9       28     57.5      0.00      0.00      86.3     0.50      1011.0     2         5         4       283        8.02     270      507.7
   08/14/2016 11:40      95.2      92.4       30     57.1      0.00      0.00      86.6     0.50      1012.0     2       336         5       315        8.02     270      501.1
   08/14/2016 11:30      92.9      92.5       30     56.9      0.00      0.00      86.4     0.50      1012.0     2       280         5       246        8.02     270      497.0
   08/14/2016 11:20      92.4      90.7       33     58.0      0.00      0.00      86.4     0.50      1012.0     2       329         5       289        8.02     270      487.5
   08/14/2016 11:10      90.3      89.0       35     58.4      0.00      0.00      86.4     0.50      1012.0     1       282         2       228        8.02     271      480.0
   08/14/2016 11:00      89.3      88.6       36     58.8      0.00      0.00      86.3     0.50      1012.0     3       256         4       286        8.02     271      468.5
   08/14/2016 10:50      88.8      87.7       38     59.1      0.00      0.00      86.5     0.50      1013.0     2        66         3        11        8.03     271      456.3
   08/14/2016 10:40      87.9      87.0       39     59.3      0.00      0.00      86.5     0.50      1013.0     2        27         4       329        8.03     271      444.7
   08/14/2016 10:30      87.1      86.4       39     59.1      0.00      0.00      86.2     0.50      1013.0     3       324         5       326        8.03     271      430.9
   08/14/2016 10:20      86.7      85.1       41     59.2      0.00      0.00      86.5     0.50      1013.0     3        17         5       345        8.03     271      417.7
   08/14/2016 10:10      85.5      84.4       43     59.8      0.00      0.00      86.7     0.50      1013.0     2         0         5        12        8.03     272      402.9
   08/14/2016 10:00      85.1      83.7       45     60.7      0.00      0.00      86.6     0.50      1013.0     2        55         3        72        8.03     272      388.9
   08/14/2016 09:50      83.5      82.3       47     60.7      0.00      0.00      86.5     0.50      1013.0     3        10         5       356        8.04     272      371.3
   08/14/2016 09:40      82.2      81.4       48     60.4      0.00      0.00      86.8     0.50      1013.0     3        36         4        70        8.04     272      354.3
   08/14/2016 09:30      81.4      80.7       49     60.3      0.00      0.00      86.7     0.50      1013.0     2        47         5        76        8.04     272      336.7
   08/14/2016 09:20      80.5      79.2       51     60.1      0.00      0.00      86.6     0.50      1013.0     2        23         4         8        8.04     273      317.5
   08/14/2016 09:10      79.4      78.8       52     60.1      0.00      0.00      86.8     0.51      1013.0     3        23         4        30        8.05     273      299.3
   08/14/2016 09:00      79.5      78.3       53     60.4      0.00      0.00      86.5     0.51      1013.0     2        66         3        94        8.05     273      281.7
   08/14/2016 08:50      78.2      76.1       56     60.4      0.00      0.00      87.0     0.51      1013.0     2        64         4        81        8.05     273      267.9
   08/14/2016 08:40      75.8      75.3       60     60.5      0.00      0.00      86.9     0.51      1013.0     2        46         3        59        8.06     273      128.3
   08/14/2016 08:30      75.4      74.6       60     60.4      0.00      0.00      86.8     0.51      1013.0     2        43         4        88        8.06     274       -3.6
   08/14/2016 08:20      74.7      74.2       61     60.1      0.00      0.00      87.0     0.51      1013.0     2        20         3         5        8.07     274      -34.6
   08/14/2016 08:10      74.3      73.3       62     59.8      0.00      0.00      87.0     0.51      1013.0     1       166         2        73        8.07     274      -17.8
   08/14/2016 08:00      73.3      72.3       63     59.6      0.00      0.00      87.4     0.51      1013.0     1       289         1       313        8.07     274      -10.9
   08/14/2016 07:50      72.3      71.8       64     59.4      0.00      0.00      87.3     0.51      1012.0     1       320         3       227        8.07     274       13.9
   08/14/2016 07:40      71.8      71.2       66     59.7      0.00      0.00      87.1     0.51      1012.0     2       206         3       225        8.07     275        4.1
   08/14/2016 07:30      71.3      70.7       68     59.9      0.00      0.00      87.1     0.51      1012.0     2       210         3       222        8.07     275      -22.3
   08/14/2016 07:20      70.7      69.3       70     59.9      0.00      0.00      87.2     0.51      1012.0     2       182         4       200        8.07     275      -28.6
   08/14/2016 07:10      69.3      68.3       73     59.8      0.00      0.00      87.2     0.51      1012.0     1       183         2       162        8.07     273      -30.7
   08/14/2016 07:00      68.2      67.3       75     59.7      0.00      0.00      87.4     0.51      1012.0     2       142         3       138        8.08     273      -34.7
   08/14/2016 06:50      67.3      66.7       77     59.3      0.00      0.00      87.4     0.51      1012.0     2       164         3       140        8.07     271      -37.9
   08/14/2016 06:40      66.7      66.1       77     59.1      0.00      0.00      87.1     0.51      1012.0     2       165         3       146        8.07     271      -41.7
   08/14/2016 06:30      66.3      65.8       78     58.8      0.00      0.00      87.5     0.51      1012.0     2       188         3       168        8.08     270      -46.6
   08/14/2016 06:20      66.0      65.7       77     58.4      0.00      0.00      87.5     0.51      1012.0     3       171         4       141        8.08     270      -50.1
   08/14/2016 06:10      66.3      65.9       77     58.5      0.00      0.00      87.5     0.51      1012.0     2       195         2       172        8.08     270      -51.5
   08/14/2016 06:00      66.5      66.1       76     58.6      0.00      0.00      87.6     0.51      1012.0     2       164         2       138        8.08     270      -52.8
   08/14/2016 05:50      66.6      66.4       76     58.5      0.00      0.00      87.7     0.51      1012.0     1       163         1       183        8.08     269      -52.6
   08/14/2016 05:40      67.1      66.6       74     58.3      0.00      0.00      88.0     0.51      1012.0     1       170         1       118        8.08     269      -52.9
   08/14/2016 05:30      67.3      67.1       74     58.7      0.00      0.00      87.9     0.51      1012.0     1       132         1       117        8.08     269      -53.2
   08/14/2016 05:20      67.4      67.2       73     58.4      0.00      0.00      87.8     0.51      1012.0     1        49         2        26        8.08     269      -53.6
   08/14/2016 05:10      67.6      67.2       74     58.7      0.00      0.00      87.7     0.51      1012.0     1         3         3       336        8.08     268      -53.3
   08/14/2016 05:00      67.4      67.2       73     58.5      0.00      0.00      87.8     0.51      1012.0     1        20         2       332        8.08     268      -53.1
   08/14/2016 04:50      67.6      67.2       73     58.4      0.00      0.00      87.9     0.51      1012.0     0       297         1       317        8.08     268      -53.5
   08/14/2016 04:40      67.8      67.7       72     58.6      0.00      0.00      88.1     0.51      1011.0     1       101         2       127        8.08     268      -54.3
   08/14/2016 04:30      67.9      67.6       73     58.8      0.00      0.00      88.5     0.51      1011.0     2        86         3        86        8.08     268      -54.9
   08/14/2016 04:20      68.0      67.7       72     58.5      0.00      0.00      88.0     0.51      1011.0     1        78         2        68        8.08     268      -54.9
   08/14/2016 04:10      68.2      67.8       71     58.4      0.00      0.00      88.2     0.51      1011.0     1       119         2       100        8.08     268      -54.7
   08/14/2016 04:00      68.8      68.3       70     58.4      0.00      0.00      88.4     0.51      1011.0     1        96         2       127        8.08     269      -54.5
   08/14/2016 03:50      69.2      68.6       70     58.5      0.00      0.00      88.2     0.51      1011.0     1        50         1       109        8.08     269      -54.3
   08/14/2016 03:40      69.2      68.8       70     58.9      0.00      0.00      88.5     0.51      1011.0     1       150         2       201        8.08     269      -54.1
   08/14/2016 03:30      68.8      68.6       70     58.6      0.00      0.00      88.3     0.51      1011.0     2       180         4       144        8.08     269      -54.9
   08/14/2016 03:20      68.9      68.6       70     58.6      0.00      0.00      88.3     0.51      1011.0     2       167         3       142        8.08     269      -55.3
   08/14/2016 03:10      69.0      68.7       70     58.6      0.00      0.00      88.1     0.51      1011.0     1       176         3       157        8.08     269      -55.6
   08/14/2016 03:00      69.1      68.6       70     58.9      0.00      0.00      88.4     0.51      1011.0     1       198         2       180        8.08     269      -55.6
   08/14/2016 02:50      68.9      68.6       71     58.9      0.00      0.00      88.3     0.51      1011.0     3       151         3       162        8.08     270      -57.0
   08/14/2016 02:40      69.3      68.8       70     58.9      0.00      0.00      88.4     0.51      1011.0     2       150         3       152        8.08     270      -57.6
   08/14/2016 02:30      69.3      69.1       69     58.7      0.00      0.00      88.5     0.51      1011.0     2       160         4       174        8.08     270      -57.9
   08/14/2016 02:20      69.7      69.3       68     58.5      0.00      0.00      88.4     0.51      1011.0     1       197         2       187        8.08     269      -57.6
   08/14/2016 02:10      70.3      69.6       68     58.6      0.00      0.00      88.5     0.51      1011.0     2       153         2       155        8.08     270      -58.8
   08/14/2016 02:00      70.8      70.2       67     58.9      0.00      0.00      88.4     0.51      1012.0     1       136         2        87        8.08     270      -59.4
   08/14/2016 01:50      71.4      70.9       66     59.3      0.00      0.00      88.7     0.51      1012.0     1        60         2        38        8.09     270      -60.4
   08/14/2016 01:40      71.6      71.3       66     59.4      0.00      0.00      88.5     0.51      1012.0     1        23         2       347        8.09     270      -60.7
   08/14/2016 01:30      71.5      71.2       66     59.3      0.00      0.00      88.7     0.51      1012.0     1        18         2       349        8.09     270      -61.1
   08/14/2016 01:20      71.9      71.5       65     59.4      0.00      0.00      88.5     0.51      1012.0     1        70         2        37        8.09     270      -61.7
   08/14/2016 01:10      72.4      72.2       64     59.5      0.00      0.00      88.8     0.51      1012.0     1        53         2        18        8.09     270      -62.3
   08/14/2016 01:00      72.8      72.5       64     59.7      0.00      0.00      88.6     0.51      1012.0     2        27         2        50        8.09     270      -62.9
   08/14/2016 00:50      73.0      72.7       63     59.6      0.00      0.00      88.9     0.51      1012.0     2        15         3         2        8.09     270      -63.1
   08/14/2016 00:40      73.2      72.9       63     59.5      0.00      0.00      88.8     0.51      1012.0     2        36         2        38        8.09     270      -63.6
   08/14/2016 00:30      73.2      73.0       63     59.7      0.00      0.00      88.6     0.51      1012.0     2        26         3        36        8.09     270      -63.7
   08/14/2016 00:20      73.6      73.3       62     59.8      0.00      0.00      88.5     0.51      1012.0     2        26         3        28        8.09     270      -63.8
   08/14/2016 00:10      73.7      73.4       63     60.2      0.00      0.00      88.6     0.51      1012.0     2        24         2        10        8.09     270      -64.5
   08/14/2016 00:00      73.7      73.5       63     60.2      0.00      0.00      88.7     0.51      1012.0     1        34         2        31        8.09     270      -64.7
   08/13/2016 23:50      73.8      73.6       63     60.2      0.00      0.00      88.9     0.51      1012.0     2        33         3         1        8.09     270      -65.0
   08/13/2016 23:40      74.2      73.8       62     60.1      0.00      0.00      88.8     0.51      1012.0     2        47         2        37        8.09     270      -65.3
   08/13/2016 23:30      74.5      74.2       61     59.9      0.00      0.00      88.9     0.51      1012.0     1        32         2        30        8.09     270      -65.8
   08/13/2016 23:20      75.1      74.5       60     60.2      0.00      0.00      89.0     0.51      1012.0     2        51         3        77        8.09     270      -66.2
   08/13/2016 23:10      75.8      75.2       59     60.3      0.00      0.00      88.9     0.51      1011.0     2        47         3        67        8.09     269      -66.8
   08/13/2016 23:00      76.6      75.9       58     60.4      0.00      0.00      88.9     0.51      1011.0     2        51         3        75        8.09     269      -66.7
   08/13/2016 22:50      77.4      76.6       56     60.4      0.00      0.00      88.9     0.51      1011.0     2        40         3        63        8.09     269      -66.8
   08/13/2016 22:40      78.2      77.6       54     60.1      0.00      0.00      89.0     0.51      1011.0     2        51         3        94        8.09     269      -67.0
   08/13/2016 22:30      78.4      77.9       49     57.5      0.00      0.00      89.0     0.51      1011.0     1        37         2        43        8.10     268      -66.3
   08/13/2016 22:20      79.0      78.4       46     56.0      0.00      0.00      88.9     0.51      1011.0     1        91         1        96        8.10     268      -66.6
   08/13/2016 22:10      79.8      79.0       45     56.0      0.00      0.00      88.9     0.51      1011.0     1       121         2       131        8.10     268      -67.5
   08/13/2016 22:00      81.0      80.1       43     56.2      0.00      0.00      89.1     0.51      1011.0     1        44         2       312        8.10     268      -68.7
   08/13/2016 21:50      81.3      81.1       42     56.2      0.00      0.00      89.1     0.51      1011.0     1       289         2       256        8.10     268      -69.8
   08/13/2016 21:40      81.4      81.2       42     56.2      0.00      0.00      88.9     0.51      1011.0     3       254         4       255        8.10     268      -70.5
   08/13/2016 21:30      81.4      81.3       42     56.1      0.00      0.00      88.9     0.51      1011.0     2       297         4       286        8.10     268      -71.0
   08/13/2016 21:20      81.9      81.5       41     56.0      0.00      0.00      89.0     0.51      1011.0     2       232         4       251        8.10     268      -71.8
   08/13/2016 21:10      82.3      81.7       41     55.7      0.00      0.00      88.9     0.51      1011.0     2       218         4       213        8.11     267      -72.8
   08/13/2016 21:00      82.5      82.3       40     55.5      0.00      0.00      88.8     0.51      1011.0     2       208         3       183        8.11     267      -73.6
   08/13/2016 20:50      82.9      82.5       39     55.2      0.00      0.00      88.8     0.51      1010.0     3       199         6       210        8.11     267      -74.1
   08/13/2016 20:40      83.6      83.1       37     54.8      0.00      0.00      88.8     0.51      1010.0     5       202         8       201        8.11     267      -75.1
   08/13/2016 20:30      84.3      83.7       36     54.5      0.00      0.00      88.9     0.51      1010.0     4       217         5       205        8.11     267      -76.3
   08/13/2016 20:20      85.0      84.4       35     54.3      0.00      0.00      88.8     0.51      1010.0     3       220         6       226        8.12     267      -77.4
   08/13/2016 20:10      85.8      85.2       34     54.2      0.00      0.00      88.7     0.51      1010.0     3       205         5       198        8.12     267      -78.5
   08/13/2016 20:00      86.4      85.8       33     54.1      0.00      0.00      88.6     0.51      1010.0     3       193         6       210        8.12     267      -79.2
   08/13/2016 19:50      87.3      86.5       32     53.9      0.00      0.00      88.7     0.51      1010.0     3       206         5       217        8.13     267      -78.7
   08/13/2016 19:40      88.2      87.5       31     53.8      0.00      0.00      88.9     0.51      1010.0     3       225         4       255        8.13     267      -76.5
   08/13/2016 19:30      88.9      88.2       30     53.5      0.00      0.00      88.7     0.51      1010.0     4       240         6       239        8.13     266      -73.5
   08/13/2016 19:20      90.1      89.1       29     53.5      0.00      0.00      88.6     0.51      1009.0     5       238         7       243        8.14     266      -65.5
   08/13/2016 19:10      90.7      90.1       29     53.4      0.00      0.00      88.5     0.51      1009.0     4       228         7       242        8.14     266      -52.0
   08/13/2016 19:00      91.6      90.8       28     53.2      0.00      0.00      88.6     0.51      1009.0     4       240         7       250        8.15     266      -31.3
   08/13/2016 18:50      92.8      91.7       27     53.4      0.00      0.00      88.3     0.51      1009.0     6       230         9       260        8.15     266       -9.2
   08/13/2016 18:40      93.8      93.2       26     53.7      0.00      0.00      88.3     0.51      1009.0     5       221         8       216        8.17     266       12.8
   08/13/2016 18:30      94.4      93.8       26     53.6      0.00      0.00      88.4     0.51      1009.0     4       226         6       240        8.18     266       34.6
   08/13/2016 18:20      94.7      94.1       26     53.8      0.00      0.00      88.3     0.51      1009.0     5       210         9       199        8.20     266       56.7
   08/13/2016 18:10      95.1      94.6       25     54.0      0.00      0.00      88.2     0.51      1009.0     6       225         8       255        8.20     266       79.7
   08/13/2016 18:00      95.4      94.9       25     54.0      0.00      0.00      88.2     0.51      1009.0     6       213        10       209        8.21     266      101.5
   08/13/2016 17:50      96.9      95.7       24     53.9      0.00      0.00      88.1     0.51      1009.0     7       220         9       237        8.22     266      123.0
   08/13/2016 17:40      98.7      96.8       23     53.6      0.00      0.00      88.0     0.51      1009.0     6       230         9       229        8.23     266      144.0
   08/13/2016 17:30      98.9      98.3       22     53.1      0.00      0.00      88.0     0.51      1009.0     5       227         9       226        8.23     267      166.0
   08/13/2016 17:20      99.0      98.6       22     52.8      0.00      0.00      87.8     0.51      1010.0     6       216         8       255        8.23     266      187.4
   08/13/2016 17:10     100.1      99.0       21     52.8      0.00      0.00      87.9     0.51      1010.0     7       233         9       234        8.24     266      206.8
   08/13/2016 17:00     100.8      99.6       21     52.8      0.00      0.00      87.8     0.51      1010.0     5       231         9       198        8.24     267      226.1
   08/13/2016 16:50     101.1     100.0       21     52.9      0.00      0.00      87.8     0.51      1010.0     6       245         9       239        8.25     267      246.0
   08/13/2016 16:40     101.4     100.8       20     52.5      0.00      0.00      87.7     0.51      1010.0     6       282        11       320        8.25     268      263.9
   08/13/2016 16:30     101.4     100.9       21     53.5      0.00      0.00      87.5     0.51      1010.0     6       302        11       303        8.26     268      282.3
   08/13/2016 16:20     101.1     100.4       21     53.7      0.00      0.00      87.4     0.51      1010.0     7       318        10       325        8.26     267      302.6
   08/13/2016 16:10     101.1     100.5       21     53.9      0.00      0.00      87.4     0.51      1010.0     6       309         8       306        8.27     267      321.1
   08/13/2016 16:00     101.3     100.8       21     54.0      0.00      0.00      87.3     0.51      1010.0     6       304        11       316        8.28     268      340.1
   08/13/2016 15:50     101.3     100.4       21     53.8      0.00      0.00      87.1     0.51      1010.0     6       299         9       308        8.29     268      358.5
   08/13/2016 15:40     101.5     100.5       21     53.7      0.00      0.00      87.1     0.51      1010.0     5       281         8       297        8.29     268      379.9
   08/13/2016 15:30     101.5     100.3       21     53.4      0.00      0.00      87.0     0.51      1010.0     4       264         7       243        8.30     268      396.5
   08/13/2016 15:20     100.8      99.9       21     53.1      0.00      0.00      87.0     0.50      1010.0     5       259         8       311        8.31     268      414.2
   08/13/2016 15:10      99.8      99.4       21     52.2      0.00      0.00      86.9     0.50      1010.0     7       234         9       207        8.31     269      434.2
   08/13/2016 15:00     100.9     100.4       20     51.8      0.00      0.00      86.8     0.50      1011.0     7       245         9       238        8.32     268      447.2
   08/13/2016 14:50     101.2     100.5       19     51.1      0.00      0.00      86.9     0.50      1011.0     7       228        11       251        8.32     268      461.6
   08/13/2016 14:40     100.6      99.9       19     50.9      0.00      0.00      86.7     0.50      1011.0     6       216        10       202        8.33     269      475.0
   08/13/2016 14:30     100.8     100.2       19     51.0      0.00      0.00      86.6     0.50      1011.0     8       225        11       265        8.33     268      483.1
   08/13/2016 14:20     101.0     100.4       19     50.8      0.00      0.00      86.4     0.50      1011.0     6       215        10       229        8.33     269      492.0
   08/13/2016 14:10     101.5     100.7       19     51.6      0.00      0.00      86.6     0.50      1011.0     6       212         9       198        8.34     269      498.4
   08/13/2016 14:00     101.0     100.2       20     52.5      0.00      0.00      86.5     0.50      1011.0     5       234         8       251        8.34     269      504.9
   08/13/2016 13:50     100.1      99.9       21     52.9      0.00      0.00      86.6     0.50      1011.0     5       197         8       223        8.35     270      510.6
   08/13/2016 13:40     100.0      99.5       22     53.7      0.00      0.00      86.4     0.50      1011.0     6       213         8       248        8.35     270      517.0
   08/13/2016 13:30     101.2     100.1       23     56.6      0.00      0.00      86.6     0.50      1012.0     5       357         9       230        8.35     270      516.0
   08/13/2016 13:20     100.6      98.5       25     57.1      0.00      0.00      86.2     0.50      1012.0     3        55         5         3        8.36     271      520.0
   08/13/2016 13:10      99.1      98.0       26     57.0      0.00      0.00      86.4     0.50      1012.0     3        75         4        66        8.36     272      525.6
   08/13/2016 13:00      98.5      95.2       27     56.8      0.00      0.00      86.4     0.50      1012.0     2        41         4       134        8.36     273      529.4
   08/13/2016 12:50      96.3      94.9       27     56.6      0.00      0.00      86.1     0.50      1012.0     2        99         4       115        8.36     274      533.3
   08/13/2016 12:40      94.9      93.5       29     56.9      0.00      0.00      86.0     0.50      1012.0     2        36         3        47        8.36     275      535.3
   08/13/2016 12:30      94.3      93.2       29     57.0      0.00      0.00      86.3     0.51      1013.0     2       334         5         0        8.36     277      530.1
   08/13/2016 12:20      93.2      91.7       31     57.2      0.00      0.00      86.1     0.51      1013.0     3        26         5        32        8.37     279      529.9
   08/13/2016 12:10      91.8      91.4       32     57.6      0.00      0.00      85.7     0.51      1013.0     3        15         5        26        8.37     285      528.6
   08/13/2016 12:00      92.8      91.7       32     58.1      0.00      0.00      86.0     0.51      1013.0     2        41         4        35        8.37     288      526.6
   08/13/2016 11:50      91.7      89.3       34     58.1      0.00      0.00      86.2     0.51      1013.0     3        75         4        79        8.37     295      526.8
   08/13/2016 11:40      89.7      88.8       35     58.4      0.00      0.00      86.2     0.51      1013.0     3       338         4         1        8.37     302      521.2
   08/13/2016 11:30      88.9      87.4       37     58.5      0.00      0.00      86.3     0.51      1013.0     2        53         4        77        8.37     318      519.3
   08/13/2016 11:20      88.0      86.2       38     58.7      0.00      0.00      86.2     0.51      1014.0     2        36         3        72        8.37     354      517.6
   08/13/2016 11:10      87.2      85.2       40     58.9      0.00      0.00      85.9     0.51      1014.0     3        21         4        46        8.37     391      515.1
   08/13/2016 11:00      85.6      85.1       40     58.5      0.00      0.00      85.3     0.51      1014.0     1        75         3        35        8.37     420      512.4
   08/13/2016 10:50      85.9      85.3       40     58.8      0.00      0.00      86.0     0.49      1014.0     2        39         3        26        8.37     407      453.7
   08/13/2016 10:40      85.9      82.8       42     58.7      0.00      0.00      86.1     0.49      1014.0     2       312         3        28        8.37     269      439.2
   08/13/2016 10:30      82.7      81.9       45     58.9      0.00      0.00      86.0     0.49      1014.0     2       247         3       249        8.37     269      427.6
   08/13/2016 10:20      82.5      81.0       46     59.3      0.00      0.00      86.3     0.49      1014.0     3       328         4       316        8.37     269      410.9
   08/13/2016 10:10      81.2      80.5       48     59.5      0.00      0.00      86.4     0.49      1014.0     3       338         5       339        8.38     269      395.1
   08/13/2016 10:00      80.9      80.2       48     59.1      0.00      0.00      86.1     0.49      1014.0     2       355         4       344        8.38     270      379.9
   08/13/2016 09:50      79.9      78.9       50     59.2      0.00      0.00      86.2     0.49      1014.0     2       353         4       356        8.38     270      363.5
   08/13/2016 09:40      78.7      78.0       52     59.3      0.00      0.00      86.2     0.49      1014.0     2       345         4         6        8.38     270      345.6
   08/13/2016 09:30      77.9      77.3       54     59.5      0.00      0.00      86.5     0.49      1014.0     2        30         3        22        8.38     270      328.7
   08/13/2016 09:20      77.2      76.3       56     59.6      0.00      0.00      86.2     0.49      1014.0     2        15         4        14        8.38     270      312.1
   08/13/2016 09:10      76.5      75.0       57     59.6      0.00      0.00      86.0     0.49      1014.0     2        49         3        93        8.38     270      293.8
   08/13/2016 09:00      75.0      73.6       60     59.5      0.00      0.00      86.1     0.50      1014.0     2        12         3         3        8.39     270      278.4
   08/13/2016 08:50      73.6      71.8       64     59.8      0.00      0.00      86.3     0.50      1014.0     2         0         2        36        8.39     270      268.4
   08/13/2016 08:40      71.7      71.2       66     59.6      0.00      0.00      86.3     0.50      1014.0     2       347         3       343        8.40     270       40.1
   08/13/2016 08:30      71.3      70.5       68     59.8      0.00      0.00      86.5     0.50      1014.0     2       338         3         3        8.41     270      -33.3
   08/13/2016 08:20      70.8      70.4       69     59.8      0.00      0.00      86.8     0.50      1014.0     1        62         2       347        8.41     270      -33.4
   08/13/2016 08:10      70.5      69.9       70     60.0      0.00      0.00      86.7     0.50      1014.0     1        35         2        72        8.41     270      -22.0
   08/13/2016 08:00      69.9      68.8       72     59.8      0.00      0.00      86.6     0.50      1014.0     1        10         2        92        8.42     271       -4.7
   08/13/2016 07:50      68.7      68.2       73     59.5      0.00      0.00      86.7     0.50      1014.0     1         9         2        10        8.42     270       14.4
   08/13/2016 07:40      68.3      67.7       74     59.3      0.00      0.00      86.7     0.50      1014.0     1         7         2         4        8.42     270       -0.4
   08/13/2016 07:30      67.8      67.2       75     59.3      0.00      0.00      86.4     0.50      1014.0     1       105         2       126        8.42     270      -20.5
   08/13/2016 07:20      67.3      66.0       77     59.0      0.00      0.00      86.7     0.50      1014.0     1       117         1        72        8.42     270      -26.5
   08/13/2016 07:10      66.0      65.1       79     58.8      0.00      0.00      86.7     0.50      1014.0     1       121         1       123        8.42     270      -26.0
   08/13/2016 07:00      65.3      64.4       80     58.6      0.00      0.00      86.8     0.50      1014.0     1       148         1       131        8.42     270      -32.3
   08/13/2016 06:50      64.5      63.9       82     58.4      0.00      0.00      86.8     0.50      1014.0     1       125         1       155        8.42     270      -36.0
   08/13/2016 06:40      63.9      63.4       82     58.1      0.00      0.00      86.8     0.50      1014.0     1       187         1       163        8.42     270      -39.7
   08/13/2016 06:30      63.7      63.4       83     58.3      0.00      0.00      86.9     0.50      1014.0     1       198         2       145        8.42     270      -44.6
   08/13/2016 06:20      63.8      63.5       84     58.6      0.00      0.00      86.9     0.50      1014.0     1       150         2       129        8.42     270      -47.5
   08/13/2016 06:10      63.8      63.7       83     58.4      0.00      0.00      87.2     0.50      1014.0     1       146         2       141        8.42     270      -50.4
   08/13/2016 06:00      63.9      63.7       83     58.4      0.00      0.00      87.0     0.50      1014.0     1       187         2       149        8.42     270      -51.4
   08/13/2016 05:50      64.0      63.9       82     58.2      0.00      0.00      86.9     0.50      1014.0     1       164         1       161        8.42     270      -52.2
   08/13/2016 05:40      64.1      63.9       81     58.1      0.00      0.00      87.1     0.50      1014.0     1       150         2       136        8.42     270      -52.8
   08/13/2016 05:30      64.5      64.0       79     57.7      0.00      0.00      87.1     0.50      1014.0     1       118         2       129        8.43     270      -53.0
   08/13/2016 05:20      64.5      64.2       79     57.9      0.00      0.00      87.0     0.50      1014.0     1       197         2       244        8.43     270      -52.5
   08/13/2016 05:10      64.3      63.9       80     57.9      0.00      0.00      87.2     0.50      1014.0     1       191         2       247        8.43     270      -52.6
   08/13/2016 05:00      64.5      64.2       80     58.1      0.00      0.00      87.1     0.50      1014.0     2       148         2       151        8.43     270      -53.3
   08/13/2016 04:50      64.7      64.3       81     58.5      0.00      0.00      87.4     0.50      1014.0     1       174         1       139        8.43     269      -52.7
   08/13/2016 04:40      64.7      64.3       81     58.6      0.00      0.00      87.0     0.50      1014.0     1       179         1       141        8.43     269      -52.9
   08/13/2016 04:30      64.6      64.4       80     58.3      0.00      0.00      87.3     0.50      1014.0     1       172         1       168        8.43     269      -53.7
   08/13/2016 04:20      64.9      64.5       80     58.4      0.00      0.00      87.1     0.50      1014.0     0       136         1       148        8.43     269      -53.5
   08/13/2016 04:10      64.9      64.6       80     58.3      0.00      0.00      87.6     0.50      1014.0     1       123         1       144        8.43     269      -54.0
   08/13/2016 04:00      65.1      64.9       79     58.4      0.00      0.00      87.3     0.50      1014.0     1       109         1       107        8.43     269      -54.3
   08/13/2016 03:50      65.2      65.0       79     58.3      0.00      0.00      87.3     0.50      1014.0     1       134         1       123        8.43     269      -54.5
   08/13/2016 03:40      65.3      65.1       79     58.5      0.00      0.00      87.6     0.50      1014.0     1       148         2       134        8.43     269      -54.7
   08/13/2016 03:30      65.8      65.2       77     58.1      0.00      0.00      87.6     0.50      1014.0     1       130         1       115        8.43     269      -54.8
   08/13/2016 03:20      65.8      65.5       78     58.6      0.00      0.00      87.3     0.50      1014.0     1       178         1       193        8.43     269      -54.5
   08/13/2016 03:10      65.8      65.6       78     58.6      0.00      0.00      87.4     0.50      1014.0     2       155         3       146        8.43     269      -55.2
   08/13/2016 03:00      65.9      65.4       79     58.9      0.00      0.00      87.6     0.50      1014.0     2       156         3       169        8.43     269      -55.5
   08/13/2016 02:50      65.9      65.7       77     58.5      0.00      0.00      87.9     0.50      1014.0     1       168         2       155        8.43     269      -55.7
   08/13/2016 02:40      66.3      66.1       77     58.9      0.00      0.00      87.7     0.50      1014.0     1       189         1       150        8.43     269      -55.9
   08/13/2016 02:30      66.5      66.3       77     58.9      0.00      0.00      87.7     0.50      1014.0     1       192         2       197        8.43     269      -56.0
   08/13/2016 02:20      66.5      66.1       77     58.8      0.00      0.00      87.6     0.50      1014.0     1       187         2       211        8.43     269      -56.4
   08/13/2016 02:10      66.5      66.3       76     58.5      0.00      0.00      87.4     0.50      1014.0     1       149         1       134        8.43     269      -56.8
   08/13/2016 02:00      66.7      66.4       75     58.6      0.00      0.00      87.5     0.50      1014.0     1       130         1       115        8.43     269      -56.9
   08/13/2016 01:50      66.9      66.7       75     58.6      0.00      0.00      87.9     0.50      1014.0     1       128         1       126        8.43     268      -57.7
   08/13/2016 01:40      67.4      67.0       74     58.8      0.00      0.00      87.7     0.50      1014.0     1       140         1       172        8.43     268      -58.2
   08/13/2016 01:30      67.8      67.4       74     58.9      0.00      0.00      87.8     0.50      1014.0     1       116         2       118        8.43     268      -59.0
   08/13/2016 01:20      67.9      67.7       74     59.2      0.00      0.00      87.9     0.50      1015.0     1        50         1        53        8.43     268      -58.8
   08/13/2016 01:10      68.0      67.8       73     59.1      0.00      0.00      88.0     0.50      1015.0     1        76         1        55        8.43     268      -58.8
   08/13/2016 01:00      68.1      67.9       73     59.0      0.00      0.00      87.6     0.50      1015.0     1       101         2       115        8.43     268      -59.2
   08/13/2016 00:50      68.6      68.1       72     59.0      0.00      0.00      87.8     0.50      1015.0     1       102         2        78        8.44     268      -59.3
   08/13/2016 00:40      68.6      68.4       72     59.1      0.00      0.00      87.7     0.50      1015.0     2        37         2        41        8.44     268      -59.2
   08/13/2016 00:30      68.8      68.5       71     59.0      0.00      0.00      87.9     0.50      1015.0     2        62         3        70        8.44     268      -59.8
   08/13/2016 00:20      68.9      68.7       71     59.0      0.00      0.00      88.1     0.50      1015.0     2        49         2        55        8.44     268      -60.1
   08/13/2016 00:10      69.0      68.7       71     59.0      0.00      0.00      88.3     0.50      1015.0     2        53         3        37        8.44     268      -60.5
   08/13/2016 00:00      69.2      68.9       71     59.1      0.00      0.00      88.1     0.50      1014.0     2        53         3        56        8.44     268      -61.6
   08/12/2016 23:50      69.3      69.1       70     59.1      0.00      0.00      87.8     0.50      1014.0     2        44         3        40        8.44     268      -62.1
   08/12/2016 23:40      69.7      69.4       70     59.2      0.00      0.00      88.0     0.50      1014.0     2        51         3        35        8.44     267      -62.5
   08/12/2016 23:30      69.8      69.6       70     59.5      0.00      0.00      87.6     0.50      1014.0     2        45         4        69        8.45     267      -62.8
   08/12/2016 23:20      70.1      69.7       70     59.6      0.00      0.00      88.3     0.50      1014.0     2        47         3        36        8.45     267      -63.0
   08/12/2016 23:10      70.3      69.9       69     59.7      0.00      0.00      88.1     0.50      1014.0     2        49         3        40        8.45     267      -62.8
   08/12/2016 23:00      70.9      70.4       68     59.6      0.00      0.00      87.9     0.50      1014.0     3        46         4        73        8.46     267      -63.4
   08/12/2016 22:50      71.3      70.9       67     59.7      0.00      0.00      87.9     0.50      1014.0     2        48         4        63        8.46     267      -64.3
   08/12/2016 22:40      71.9      71.3       66     59.6      0.00      0.00      88.0     0.50      1014.0     2        52         4        69        8.46     267      -64.7
   08/12/2016 22:30      72.5      72.2       64     59.6      0.00      0.00      88.1     0.50      1014.0     2        37         3        55        8.46     267      -65.1
   08/12/2016 22:20      72.8      72.7       63     59.4      0.00      0.00      87.9     0.50      1014.0     2        37         3        29        8.46     266      -65.4
   08/12/2016 22:10      73.5      73.0       62     59.5      0.00      0.00      88.0     0.50      1014.0     2        63         3        88        8.47     266      -65.4
   08/12/2016 22:00      74.3      73.6       60     59.1      0.00      0.00      87.9     0.50      1014.0     2        56         5        70        8.47     266      -66.3
   08/12/2016 21:50      75.6      74.4       58     59.2      0.00      0.00      87.9     0.50      1014.0     3        62         6        72        8.47     266      -67.1
   08/12/2016 21:40      76.3      75.7       57     59.4      0.00      0.00      87.8     0.50      1014.0     2        46         3        32        8.47     266      -68.6
   08/12/2016 21:30      76.9      76.3       55     59.3      0.00      0.00      87.9     0.50      1014.0     2        59         3        55        8.47     266      -69.5
   08/12/2016 21:20      78.4      77.1       53     59.4      0.00      0.00      88.1     0.50      1013.0     2        60         4        99        8.47     266      -70.5
   08/12/2016 21:10      80.2      78.6       46     56.7      0.00      0.00      87.9     0.50      1013.0     2        37         3       351        8.48     265      -71.7
   08/12/2016 21:00      80.7      80.3       29     45.2      0.00      0.00      87.8     0.50      1013.0     2       316         3       252        8.48     265      -72.4
   08/12/2016 20:50      81.1      80.7       25     41.8      0.00      0.00      87.9     0.50      1013.0     1       256         3       227        8.48     265      -74.0
   08/12/2016 20:40      81.9      81.0       23     40.1      0.00      0.00      87.9     0.50      1013.0     1       221         2       235        8.48     265      -75.4
   08/12/2016 20:30      82.6      81.8       24     42.3      0.00      0.00      87.9     0.50      1013.0     2       233         4       260        8.49     265      -76.1
   08/12/2016 20:20      83.2      82.7       22     40.5      0.00      0.00      88.0     0.50      1013.0     3       259         4       280        8.49     265      -76.6
   08/12/2016 20:10      84.0      83.4       20     37.8      0.00      0.00      87.7     0.50      1013.0     3       236         4       237        8.49     265      -77.6
   08/12/2016 20:00      84.7      84.1       18     36.5      0.00      0.00      87.7     0.50      1012.0     3       239         4       224        8.49     265      -78.3
   08/12/2016 19:50      85.5      84.8       18     37.0      0.00      0.00      87.7     0.50      1012.0     3       238         4       230        8.49     265      -78.2
   08/12/2016 19:40      86.1      85.5       18     38.1      0.00      0.00      87.8     0.50      1012.0     4       231         6       231        8.50     265      -75.4
   08/12/2016 19:30      86.7      86.1       20     40.8      0.00      0.00      87.7     0.50      1012.0     4       255         5       251        8.50     265      -72.0
   08/12/2016 19:20      87.7      86.9       20     42.0      0.00      0.00      87.6     0.50      1012.0     4       262         8       247        8.50     265      -63.6
   08/12/2016 19:10      88.5      88.0       22     44.2      0.00      0.00      87.6     0.50      1012.0     5       253         7       246        8.51     265      -49.2
   08/12/2016 19:00      89.4      88.4       23     46.6      0.00      0.00      87.4     0.50      1012.0     6       260         8       260        8.51     265      -27.8
   08/12/2016 18:50      89.6      89.4       23     46.4      0.00      0.00      87.5     0.50      1012.0     4       290         6       293        8.51     265       -6.7
   08/12/2016 18:40      90.6      89.7       23     47.2      0.00      0.00      87.3     0.50      1012.0     6       307        10       304        8.51     265       15.6
   08/12/2016 18:30      91.4      90.8       23     48.0      0.00      0.00      87.4     0.50      1012.0     5       306         7       315        8.52     265       36.2
   08/12/2016 18:20      91.7      90.8       23     48.1      0.00      0.00      87.4     0.50      1012.0     6       305         8       322        8.52     265       57.1
   08/12/2016 18:10      92.9      91.8       22     47.7      0.00      0.00      87.2     0.50      1012.0     4       299         8       294        8.52     265       78.2
   08/12/2016 18:00      92.3      91.8       22     47.5      0.00      0.00      87.2     0.50      1012.0     5       288         9       303        8.52     265      100.9
   08/12/2016 17:50      93.1      92.4       22     47.9      0.00      0.00      87.2     0.50      1012.0     6       311         9       308        8.53     265      121.3
   08/12/2016 17:40      93.8      92.7       21     47.2      0.00      0.00      87.0     0.50      1012.0     5       311         8       296        8.53     265      142.1
   08/12/2016 17:30      94.0      93.2       19     45.9      0.00      0.00      87.1     0.50      1012.0     5       299         8       290        8.53     265      163.0
   08/12/2016 17:20      93.4      92.9       20     46.0      0.00      0.00      86.9     0.50      1012.0     6       320        10       329        8.53     265      184.6
   08/12/2016 17:10      93.8      93.1       20     46.4      0.00      0.00      86.8     0.50      1012.0     5       308         8       315        8.53     265      206.1
   08/12/2016 17:00      93.9      93.4       20     46.7      0.00      0.00      86.7     0.50      1012.0     6       311        10       311        8.54     265      228.8
   08/12/2016 16:50      94.2      93.7       21     48.0      0.00      0.00      86.7     0.50      1012.0     4       308         7       311        8.54     265      250.6
   08/12/2016 16:40      94.3      93.7       24     51.2      0.00      0.00      86.5     0.50      1012.0     6       297         9       311        8.54     266      270.5
   08/12/2016 16:30      93.8      93.0       26     53.7      0.00      0.00      86.5     0.50      1012.0     6       312        10       330        8.54     265      291.8
   08/12/2016 16:20      93.6      92.9       28     55.0      0.00      0.00      86.4     0.50      1012.0     5       301         7       320        8.59     265      312.9
   08/12/2016 16:10      94.4      93.6       28     55.9      0.00      0.00      86.3     0.49      1012.0     7       322         8       300        8.60     265      330.8
   08/12/2016 16:00      95.2      94.3       28     56.5      0.00      0.00      86.3     0.49      1013.0     7       321        10       330        8.60     266      347.6
   08/12/2016 15:50      95.1      94.4       28     56.6      0.00      0.00      86.2     0.49      1013.0     6       307         8       338        8.61     266      364.8
   08/12/2016 15:40      95.1      94.1       29     57.5      0.00      0.00      86.1     0.49      1013.0     7       302         9       271        8.61     266      382.1
   08/12/2016 15:30      95.5      94.8       29     58.3      0.00      0.00      86.1     0.49      1013.0     5       288         7       317        8.61     266      397.0
   08/12/2016 15:20      95.4      93.5       30     58.5      0.00      0.00      86.0     0.49      1013.0     5       313         6       304        8.62     267      414.4
   08/12/2016 15:10      94.8      93.6       31     59.0      0.00      0.00      86.0     0.49      1013.0     7       292         9       276        8.62     267      431.1
   08/12/2016 15:00      95.4      94.2       32     60.0      0.00      0.00      85.9     0.49      1013.0     8       303        11       312        8.62     267      442.8
   08/12/2016 14:50      96.8      94.7       31     60.1      0.00      0.00      85.8     0.49      1013.0     5       308         9       311        8.62     267      449.9
   08/12/2016 14:40      95.5      94.6       31     59.3      0.00      0.00      85.8     0.49      1013.0     3       276         5       217        8.62     267      461.6
   08/12/2016 14:30      95.7      94.6       29     58.3      0.00      0.00      85.7     0.49      1014.0     5       254         8       260        8.63     267      474.6
   08/12/2016 14:20      94.7      93.5       29     56.9      0.00      0.00      85.7     0.49      1014.0     3       213         6       297        8.63     267      480.9
   08/12/2016 14:10      94.4      93.7       29     56.6      0.00      0.00      85.5     0.49      1014.0     3       152         4       176        8.63     267      490.5
   08/12/2016 14:00      94.6      93.6       28     56.2      0.00      0.00      85.5     0.49      1014.0     3       295         6       261        8.63     267      496.5
   08/12/2016 13:50      93.2      91.9       29     55.5      0.00      0.00      85.5     0.49      1014.0     2        53         3        74        8.63     267      505.1
   08/12/2016 13:40      93.5      91.7       29     55.6      0.00      0.00      85.4     0.49      1014.0     4       335         7       358        8.63     267      509.0
   08/12/2016 13:30      91.9      91.0       29     55.2      0.00      0.00      85.4     0.48      1015.0     3       360         4       344        8.63     268      515.1
   08/12/2016 13:20      91.4      90.5       30     55.0      0.00      0.00      85.4     0.48      1015.0     2       166         6         8        8.64     268      518.3
   08/12/2016 13:10      91.0      90.2       30     54.7      0.00      0.00      85.4     0.49      1015.0     2        46         3        45        8.64     268      521.1
   08/12/2016 13:00      90.3      89.7       31     55.0      0.00      0.00      85.3     0.49      1015.0     3        33         4        86        8.64     269      524.1
   08/12/2016 12:50      89.6      88.0       32     55.4      0.00      0.00      85.2     0.48      1015.0     2        57         3       347        8.64     269      528.0
   08/12/2016 12:40      89.6      88.2       33     55.9      0.00      0.00      85.3     0.49      1015.0     3       346         7         5        8.64     269      530.3
   08/12/2016 12:30      89.6      86.4       34     56.5      0.00      0.00      85.3     0.49      1016.0     2       302         6       345        8.64     270      523.8
   08/12/2016 12:20      86.3      85.9       37     57.0      0.00      0.00      85.3     0.49      1016.0     2        45         3       107        8.64     270      522.9
   08/12/2016 12:10      87.2      84.3       38     57.7      0.00      0.00      85.4     0.49      1016.0     2        42         5        26        8.64     269      520.1
   08/12/2016 12:00      84.9      83.7       41     57.8      0.00      0.00      85.0     0.49      1016.0     3        97         5       345        8.64     269      516.5
   08/12/2016 11:50      84.8      83.8       42     58.6      0.00      0.00      85.2     0.49      1016.0     3        17         6       315        8.64     269      510.3
   08/12/2016 11:40      83.7      82.0       45     58.9      0.00      0.00      85.2     0.49      1016.0     3       333         5       322        8.64     270      504.1
   08/12/2016 11:30      82.1      81.4       46     58.9      0.00      0.00      85.2     0.49      1016.0     3       340         5        20        8.64     270      495.9
   08/12/2016 11:20      82.6      81.5       46     59.3      0.00      0.00      85.4     0.49      1016.0     3         8         5       338        8.64     270      488.5
   08/12/2016 11:10      81.7      79.9       47     59.0      0.00      0.00      85.4     0.49      1016.0     3        24         4        53        8.64     271      478.3
   08/12/2016 11:00      80.4      79.8       48     58.8      0.00      0.00      85.4     0.49      1017.0     3         9         4        65        8.65     271      466.4
   08/12/2016 10:50      79.9      79.3       49     58.9      0.00      0.00      85.3     0.49      1017.0     3        47         5        55        8.65     271      455.2
   08/12/2016 10:40      79.6      78.5       50     59.0      0.00      0.00      85.3     0.49      1017.0     3       345         4        27        8.65     270      441.1
   08/12/2016 10:30      79.5      78.0       51     59.1      0.00      0.00      85.3     0.49      1017.0     3       346         5       309        8.65     270      427.9
   08/12/2016 10:20      78.0      76.6       53     58.8      0.00      0.00      85.5     0.49      1017.0     2       327         3       332        8.65     270      415.1
   08/12/2016 10:10      76.9      75.6       54     58.6      0.00      0.00      85.4     0.49      1017.0     2       337         4        28        8.65     271      398.3
   08/12/2016 10:00      75.7      75.1       56     58.7      0.00      0.00      85.4     0.49      1017.0     2       345         4       356        8.65     272      382.1
   08/12/2016 09:50      75.2      74.2       57     58.5      0.00      0.00      85.6     0.49      1017.0     3       334         4       329        8.65     272      365.9
   08/12/2016 09:40      74.4      73.7       59     59.0      0.00      0.00      85.7     0.50      1017.0     3        28         4         6        8.65     272      349.9
   08/12/2016 09:30      73.9      72.3       62     59.4      0.00      0.00      85.8     0.50      1017.0     3       330         4       356        8.65     272      332.4
   08/12/2016 09:20      72.7      71.8       64     59.3      0.00      0.00      85.7     0.50      1017.0     2       342         5       318        8.65     272      312.4
   08/12/2016 09:10      71.8      70.9       66     59.2      0.00      0.00      85.7     0.50      1017.0     2       296         4       330        8.65     272      296.5
   08/12/2016 09:00      71.0      70.2       67     59.0      0.00      0.00      85.9     0.50      1017.0     2         6         3       354        8.66     272      278.9
   08/12/2016 08:50      70.0      68.8       70     58.8      0.00      0.00      85.7     0.50      1017.0     2       348         3       332        8.66     272      270.7
   08/12/2016 08:40      69.0      67.8       71     58.7      0.00      0.00      85.7     0.50      1017.0     2        20         3        72        8.66     272       61.8
   08/12/2016 08:30      68.1      67.7       73     58.7      0.00      0.00      85.7     0.50      1017.0     2         4         3        88        8.66     272      -23.9
   08/12/2016 08:20      68.0      67.7       73     58.7      0.00      0.00      85.8     0.50      1017.0     2        69         3        87        8.66     272      -25.3
   08/12/2016 08:10      68.0      67.6       73     58.9      0.00      0.00      85.9     0.50      1017.0     2        75         3        55        8.66     272      -15.9
   08/12/2016 08:00      67.7      66.5       76     59.2      0.00      0.00      85.8     0.50      1017.0     2        97         4       142        8.66     272       13.6
   08/12/2016 07:50      66.4      65.9       78     59.3      0.00      0.00      85.7     0.50      1017.0     2        26         3        18        8.66     272       16.1
   08/12/2016 07:40      66.0      65.5       79     59.1      0.00      0.00      85.9     0.50      1017.0     2        30         4        34        8.67     272        0.3
   08/12/2016 07:30      65.5      65.0       80     58.9      0.00      0.00      85.8     0.50      1017.0     1        26         3       358        8.67     272      -17.6
   08/12/2016 07:20      65.1      63.9       80     58.3      0.00      0.00      86.0     0.50      1017.0     2       358         3         9        8.67     273      -22.2
   08/12/2016 07:10      63.9      63.2       82     58.0      0.00      0.00      86.1     0.50      1017.0     0       279         1       192        8.67     273      -18.9
   08/12/2016 07:00      63.3      62.4       84     57.9      0.00      0.00      85.7     0.50      1017.0     0       286         1       325        8.67     272      -27.3
   08/12/2016 06:50      62.4      61.7       84     57.3      0.00      0.00      86.0     0.50      1016.0     1       154         1       163        8.67     272      -31.5
   08/12/2016 06:40      61.9      61.3       84     56.8      0.00      0.00      86.1     0.50      1016.0     1       156         2       161        8.67     272      -38.0
   08/12/2016 06:30      61.4      61.3       85     56.7      0.00      0.00      86.5     0.50      1016.0     2       164         2       155        8.67     272      -42.1
   08/12/2016 06:20      61.5      61.3       86     57.2      0.00      0.00      86.1     0.50      1016.0     1       168         2       124        8.67     272      -42.5
   08/12/2016 06:10      61.4      61.2       86     57.1      0.00      0.00      86.1     0.50      1016.0     1       165         1       132        8.67     271      -44.8
   08/12/2016 06:00      61.6      61.3       86     57.0      0.00      0.00      85.8     0.50      1016.0     1       137         2       172        8.67     271      -46.3
   08/12/2016 05:50      61.6      61.3       85     57.0      0.00      0.00      86.2     0.50      1016.0     1       174         1       166        8.67     271      -46.0
   08/12/2016 05:40      62.0      61.6       87     57.7      0.00      0.00      86.4     0.50      1016.0     1       145         2       126        8.67     271      -44.3
   08/12/2016 05:30      61.9      61.6       86     57.5      0.00      0.00      86.3     0.50      1016.0     1       147         1       143        8.67     271      -45.9
   08/12/2016 05:20      61.9      61.7       86     57.4      0.00      0.00      86.3     0.50      1016.0     1       187         1       142        8.67     271      -46.3
   08/12/2016 05:10      62.1      61.9       86     57.7      0.00      0.00      86.5     0.50      1016.0     1       155         1       170        8.68     271      -45.7
   08/12/2016 05:00      62.2      62.0       86     57.9      0.00      0.00      86.5     0.50      1016.0     1       162         1       150        8.68     271      -46.2
   08/12/2016 04:50      62.1      62.0       86     57.8      0.00      0.00      86.4     0.50      1016.0     1       181         1       139        8.68     271      -47.6
   08/12/2016 04:40      62.2      62.0       86     57.8      0.00      0.00      86.4     0.50      1016.0     1       188         1       174        8.68     270      -49.4
   08/12/2016 04:30      62.4      62.3       85     57.9      0.00      0.00      86.5     0.50      1016.0     1       156         2       140        8.68     270      -50.8
   08/12/2016 04:20      62.5      62.3       85     57.8      0.00      0.00      86.5     0.50      1016.0     1       122         2       126        8.68     271      -53.1
   08/12/2016 04:10      62.6      62.3       85     57.7      0.00      0.00      86.6     0.50      1016.0     1       134         2       133        8.68     271      -53.6
   08/12/2016 04:00      62.7      62.5       85     58.1      0.00      0.00      86.7     0.50      1016.0     2       176         2       187        8.68     271      -52.7
   08/12/2016 03:50      62.9      62.5       85     58.1      0.00      0.00      86.9     0.50      1016.0     1       170         2       188        8.68     271      -53.2
   08/12/2016 03:40      63.0      62.8       84     58.0      0.00      0.00      86.7     0.50      1016.0     2       143         2       168        8.68     271      -54.5
   08/12/2016 03:30      63.2      63.0       84     58.1      0.00      0.00      86.6     0.50      1016.0     2       171         2       172        8.68     271      -54.4
   08/12/2016 03:20      63.3      62.8       83     57.9      0.00      0.00      87.0     0.50      1016.0     2       153         2       166        8.68     271      -55.3
   08/12/2016 03:10      63.4      63.2       84     58.5      0.00      0.00      86.8     0.50      1016.0     1       172         2       173        8.68     271      -54.4
   08/12/2016 03:00      63.5      63.3       83     58.2      0.00      0.00      86.8     0.50      1016.0     1       141         1       177        8.68     271      -55.6
   08/12/2016 02:50      63.7      63.4       82     58.0      0.00      0.00      86.9     0.50      1016.0     1       126         2       128        8.68     271      -56.7
   08/12/2016 02:40      63.8      63.6       81     57.9      0.00      0.00      87.0     0.50      1016.0     1       118         1       124        8.68     271      -57.0
   08/12/2016 02:30      63.9      63.7       81     57.8      0.00      0.00      86.9     0.50      1016.0     1        98         1        99        8.68     271      -57.6
   08/12/2016 02:20      64.3      63.8       80     57.9      0.00      0.00      86.8     0.50      1016.0     1        99         2        75        8.68     270      -57.7
   08/12/2016 02:10      64.6      64.3       79     57.7      0.00      0.00      87.0     0.50      1016.0     1        97         1        80        8.68     271      -58.7
   08/12/2016 02:00      65.1      64.8       80     58.6      0.00      0.00      87.0     0.50      1016.0     1       111         2        67        8.68     271      -59.5
   08/12/2016 01:50      65.2      64.9       80     58.7      0.00      0.00      87.2     0.50      1016.0     1        86         2        71        8.68     270      -60.3
   08/12/2016 01:40      65.3      65.1       79     58.7      0.00      0.00      87.2     0.50      1016.0     1       121         2       114        8.68     270      -60.8
   08/12/2016 01:30      65.5      65.3       79     58.7      0.00      0.00      87.4     0.50      1016.0     2        89         3        73        8.68     270      -60.4
   08/12/2016 01:20      65.9      65.6       78     58.6      0.00      0.00      87.1     0.51      1016.0     2        84         2        75        8.69     270      -61.0
   08/12/2016 01:10      66.1      65.7       77     58.6      0.00      0.00      87.1     0.51      1016.0     1        71         2        76        8.69     270      -61.5
   08/12/2016 01:00      66.3      66.2       76     58.5      0.00      0.00      87.4     0.51      1016.0     2        59         3        71        8.69     270      -62.1
   08/12/2016 00:50      66.4      66.2       75     58.2      0.00      0.00      87.3     0.51      1016.0     1        70         2       104        8.69     270      -62.8
   08/12/2016 00:40      66.5      66.2       75     58.2      0.00      0.00      87.6     0.50      1016.0     1        63         3        69        8.69     270      -63.3
   08/12/2016 00:30      66.6      66.3       75     58.3      0.00      0.00      87.3     0.51      1016.0     1        60         3        79        8.69     270      -64.6
   08/12/2016 00:20      66.9      66.4       75     58.4      0.00      0.00      87.5     0.50      1016.0     2        82         2        77        8.69     269      -64.9
   08/12/2016 00:10      67.1      66.9       74     58.3      0.00      0.00      87.5     0.50      1016.0     1        54         3        68        8.69     269      -65.5
   08/12/2016 00:00      67.2      67.0       73     58.1      0.00      0.00      87.6     0.50      1016.0     1        67         2        64        8.69     269      -65.7
   08/11/2016 23:50      67.4      67.1       72     58.0      0.00      0.00      87.5     0.50      1016.0     2        92         3        82        8.69     269      -65.8
   08/11/2016 23:40      67.7      67.4       71     57.9      0.00      0.00      87.2     0.50      1016.0     2       105         2       108        8.69     269      -66.6
   08/11/2016 23:30      68.0      67.8       70     57.8      0.00      0.00      87.0     0.51      1016.0     2       109         2        82        8.69     269      -66.9
   08/11/2016 23:20      68.5      68.1       69     57.9      0.00      0.00      87.2     0.51      1016.0     2        94         2        72        8.69     269      -67.7
   08/11/2016 23:10      68.8      68.6       69     57.9      0.00      0.00      87.5     0.50      1016.0     1        80         2        77        8.69     269      -68.2
   08/11/2016 23:00      69.1      68.7       68     57.9      0.00      0.00      87.3     0.51      1016.0     1        56         2        57        8.69     269      -69.0
   08/11/2016 22:50      69.6      69.2       67     58.0      0.00      0.00      87.6     0.51      1016.0     1        66         2        59        8.69     269      -70.2
   08/11/2016 22:40      69.8      69.6       66     58.0      0.00      0.00      87.1     0.51      1016.0     1        57         2        72        8.70     269      -70.8
   08/11/2016 22:30      70.3      69.9       65     57.8      0.00      0.00      87.4     0.51      1016.0     1       124         2       156        8.70     269      -71.3
   08/11/2016 22:20      70.9      70.4       65     58.4      0.00      0.00      87.5     0.50      1016.0     1       189         2       142        8.70     268      -71.5
   08/11/2016 22:10      71.1      70.9       65     58.8      0.00      0.00      87.6     0.50      1016.0     1        10         1       112        8.70     268      -71.7
   08/11/2016 22:00      71.3      71.0       65     58.7      0.00      0.00      87.4     0.50      1016.0     2       173         4       206        8.70     268      -71.7
   08/11/2016 21:50      71.3      71.3       64     58.7      0.00      0.00      87.4     0.50      1016.0     3       197         5       199        8.70     268      -72.0
   08/11/2016 21:40      71.9      71.5       64     58.7      0.00      0.00      87.3     0.50      1015.0     3       205         5       191        8.70     268      -72.8
   08/11/2016 21:30      72.3      71.9       63     58.9      0.00      0.00      87.4     0.50      1015.0     2       194         4       176        8.71     268      -73.8
   08/11/2016 21:20      72.6      72.2       62     58.7      0.00      0.00      87.5     0.50      1015.0     3       214         4       209        8.71     267      -74.9
   08/11/2016 21:10      73.2      72.6       61     58.7      0.00      0.00      87.3     0.50      1015.0     4       234         5       252        8.71     267      -75.5
   08/11/2016 21:00      73.8      73.3       60     58.7      0.00      0.00      87.3     0.50      1015.0     3       234         4       209        8.71     267      -76.3
   08/11/2016 20:50      74.3      73.8       57     57.9      0.00      0.00      87.5     0.50      1015.0     3       221         6       214        8.71     267      -78.2
   08/11/2016 20:40      74.7      74.3       54     56.8      0.00      0.00      87.3     0.50      1015.0     3       200         4       191        8.72     267      -79.7
   08/11/2016 20:30      75.5      74.8       51     56.1      0.00      0.00      87.1     0.50      1014.0     3       183         4       207        8.72     267      -81.0
   08/11/2016 20:20      76.1      75.7       53     57.8      0.00      0.00      87.1     0.50      1014.0     2       195         3       188        8.72     266      -81.9
   08/11/2016 20:10      76.9      76.3       53     58.0      0.00      0.00      87.3     0.50      1014.0     3       213         5       218        8.73     266      -82.9
   08/11/2016 20:00      77.8      77.1       50     57.6      0.00      0.00      87.0     0.50      1014.0     4       221         6       239        8.73     266      -84.2
   08/11/2016 19:50      78.8      77.9       49     57.6      0.00      0.00      87.1     0.50      1014.0     3       218         5       216        8.74     266      -83.6
   08/11/2016 19:40      79.6      78.8       48     57.6      0.00      0.00      87.0     0.50      1014.0     4       242         6       248        8.74     266      -81.9
   08/11/2016 19:30      80.5      79.8       46     57.6      0.00      0.00      87.0     0.50      1014.0     5       241         7       232        8.75     266      -79.9
   08/11/2016 19:20      81.6      80.8       44     57.5      0.00      0.00      87.1     0.50      1013.0     4       225         5       197        8.75     266      -70.3
   08/11/2016 19:10      82.8      81.9       42     56.9      0.00      0.00      87.1     0.50      1013.0     4       229         6       211        8.76     266      -54.6
   08/11/2016 19:00      83.7      83.1       39     56.0      0.00      0.00      87.1     0.50      1013.0     5       220         7       257        8.76     266      -36.0
   08/11/2016 18:50      86.7      84.2       35     55.1      0.00      0.00      87.1     0.50      1013.0     4       234         6       191        8.76     266      -13.8
   08/11/2016 18:40      87.7      87.2       20     40.4      0.00      0.00      86.9     0.50      1013.0     3       221         7       277        8.77     266        1.1
   08/11/2016 18:30      87.7      87.1       17     36.5      0.00      0.00      86.8     0.50      1013.0     2       163         4       141        8.77     266       24.0
   08/11/2016 18:20      87.9      87.4       17     37.9      0.00      0.00      86.8     0.50      1013.0     3       133         5       111        8.77     266       48.7
   08/11/2016 18:10      87.9      87.6       18     39.2      0.00      0.00      86.8     0.50      1013.0     3       135         4       126        8.78     266       74.3
   08/11/2016 18:00      87.7      87.2       19     39.7      0.00      0.00      86.6     0.50      1013.0     3       136         5       146        8.78     266       97.7
   08/11/2016 17:50      88.6      87.6       19     40.3      0.00      0.00      86.7     0.50      1013.0     4       178         8       191        8.79     266      119.5
   08/11/2016 17:40      88.2      87.7       19     40.7      0.00      0.00      86.6     0.50      1013.0     3       175         6       183        8.79     266      142.5
   08/11/2016 17:30      89.0      87.7       18     40.1      0.00      0.00      86.5     0.50      1013.0     4       134         7       124        8.80     266      167.1
   08/11/2016 17:20      89.9      88.8       18     40.2      0.00      0.00      86.5     0.50      1013.0     5       133         8       125        8.80     266      186.2
   08/11/2016 17:10      89.7      88.4       19     41.4      0.00      0.00      86.4     0.50      1013.0     4       101         5       139        8.81     266      207.6
   08/11/2016 17:00      90.1      89.6       19     42.5      0.00      0.00      86.1     0.50      1013.0     4       118         6        96        8.81     266      227.5
   08/11/2016 16:50      89.6      89.1       20     43.5      0.00      0.00      86.2     0.50      1013.0     4        97         7        82        8.82     267      248.5
   08/11/2016 16:40      89.6      88.8       21     44.4      0.00      0.00      86.3     0.50      1014.0     3        77         5        68        8.82     267      270.7
   08/11/2016 16:30      90.2      89.6       20     43.5      0.00      0.00      86.1     0.50      1014.0     4        78         9        73        8.82     266      289.9
   08/11/2016 16:20      90.2      89.2       18     40.4      0.00      0.00      86.0     0.50      1014.0     2       257         4       115        8.83     266      311.6
   08/11/2016 16:10      90.5      89.2       16     38.2      0.00      0.00      86.1     0.50      1014.0     5       170         7       117        8.83     266      332.0
   08/11/2016 16:00      91.2      89.7       14     35.3      0.00      0.00      86.0     0.50      1014.0     3       140         6        80        8.84     266      349.6
   08/11/2016 15:50      89.4      88.1       14     33.0      0.00      0.00      85.9     0.50      1014.0     6       196         9       210        8.84     266      374.0
   08/11/2016 15:40      90.3      89.6       15     37.0      0.00      0.00      85.9     0.50      1014.0     4       141         7       187        8.84     267      387.6
   08/11/2016 15:30      90.6      89.7       16     38.0      0.00      0.00      85.7     0.50      1014.0     5       152         8       134        8.85     267      404.0
   08/11/2016 15:20      90.5      89.3       15     36.2      0.00      0.00      85.7     0.50      1014.0     4       119         6        99        8.85     267      419.1
   08/11/2016 15:10      91.8      89.5       14     35.4      0.00      0.00      85.6     0.50      1014.0     5       116         8       124        8.86     268      432.4
   08/11/2016 15:00      91.8      90.8       13     33.6      0.00      0.00      85.5     0.50      1014.0     4        89         8        74        8.86     268      447.2
   08/11/2016 14:50      91.1      89.2       12     30.2      0.00      0.00      85.4     0.50      1014.0     4        86         6        92        8.87     268      462.3
   08/11/2016 14:40      91.0      90.2        9     24.2      0.00      0.00      85.4     0.49      1015.0     6        88         8       109        8.88     268      471.1
   08/11/2016 14:30      90.8      89.7        9     24.6      0.00      0.00      85.6     0.49      1015.0     6        83         8       100        8.88     268      480.0
   08/11/2016 14:20      90.2      89.3       17     38.7      0.00      0.00      85.3     0.49      1015.0     4        77         6        74        8.89     268      497.7
   08/11/2016 14:10      90.4      89.3       21     44.9      0.00      0.00      85.4     0.49      1015.0     4        72         6       110        8.89     268      508.2
   08/11/2016 14:00      89.7      87.6       25     48.5      0.00      0.00      85.2     0.49      1015.0     4        52         6        66        8.89     268      510.6
   08/11/2016 13:50      88.8      87.4       27     49.8      0.00      0.00      85.1     0.49      1015.0     4        82         8        81        8.90     268      520.7
   08/11/2016 13:40      89.1      87.2       28     51.1      0.00      0.00      85.1     0.49      1015.0     4        43         7       355        8.90     268      523.5
   08/11/2016 13:30      87.2      86.0       30     51.4      0.00      0.00      85.1     0.49      1015.0     4        31         8         6        8.90     269      527.7
   08/11/2016 13:20      87.1      86.5       31     52.9      0.00      0.00      85.1     0.49      1015.0     4        34         7        18        8.90     269      529.4
   08/11/2016 13:10      86.8      85.7       31     52.3      0.00      0.00      85.0     0.49      1015.0     4        66         7        55        8.90     269      538.4
   08/11/2016 13:00      86.1      85.2       34     53.9      0.00      0.00      85.1     0.49      1015.0     5         5         7       358        8.90     270      534.5
   08/11/2016 12:50      84.9      83.9       36     55.0      0.00      0.00      85.0     0.49      1016.0     4        26         9       341        8.90     270      539.2
   08/11/2016 12:40      85.2      83.9       37     55.3      0.00      0.00      84.9     0.49      1016.0     4        39         6        75        8.90     271      544.5
   08/11/2016 12:30      83.8      81.8       39     55.5      0.00      0.00      84.8     0.49      1016.0     4         1         6         6        8.90     271      535.6
   08/11/2016 12:20      82.9      81.8       41     55.9      0.00      0.00      85.0     0.49      1016.0     5        87         7       172        8.91     271      535.9
   08/11/2016 12:10      83.6      82.1       40     56.0      0.00      0.00      85.0     0.49      1016.0     3        79         6        87        8.91     270      530.1
   08/11/2016 12:00      82.0      80.4       41     55.5      0.00      0.00      85.0     0.49      1016.0     3         5         5       329        8.91     271      523.1
   08/11/2016 11:50      81.4      80.4       42     55.8      0.00      0.00      85.0     0.49      1016.0     3       151         4        82        8.91     271      516.4
   08/11/2016 11:40      81.7      79.7       43     56.1      0.00      0.00      84.8     0.49      1016.0     3        54         4        63        8.91     271      510.5
   08/11/2016 11:30      80.8      79.3       44     56.1      0.00      0.00      84.8     0.49      1016.0     3        71         6        79        8.91     272      504.6
   08/11/2016 11:20      80.4      79.5       44     56.0      0.00      0.00      84.9     0.49      1016.0     3        49         5        83        8.91     272      493.6
   08/11/2016 11:10      80.1      78.2       45     55.6      0.00      0.00      84.9     0.49      1016.0     4       321         6       320        8.91     272      482.8
   08/11/2016 11:00      78.8      78.2       46     56.1      0.00      0.00      84.9     0.49      1016.0     3       348         5         8        8.91     273      471.4
   08/11/2016 10:50      78.4      76.2       50     56.7      0.00      0.00      85.0     0.49      1016.0     2       353         4        13        8.91     273      457.7
   08/11/2016 10:40      76.2      75.3       53     57.3      0.00      0.00      85.3     0.49      1016.0     3        17         5        16        8.91     283      445.7
   08/11/2016 10:30      75.8      74.5       54     57.4      0.00      0.00      85.2     0.50      1016.0     2       210         4       156        8.91     293      427.6
   08/11/2016 10:20      75.9      74.1       54     57.3      0.00      0.00      84.9     0.50      1017.0     2        33         3        99        8.91     300      410.0
   08/11/2016 10:10      74.4      73.7       56     57.2      0.00      0.00      85.2     0.50      1016.0     2        18         4         5        8.92     305      396.8
   08/11/2016 10:00      74.0      73.5       57     57.5      0.00      0.00      85.1     0.50      1017.0     2        64         4       102        8.92     308      383.9
   08/11/2016 09:50      73.5      71.4       60     57.8      0.00      0.00      85.2     0.50      1017.0     2       178         5       102        8.92     311      367.4
   08/11/2016 09:40      71.8      71.6       61     57.6      0.00      0.00      85.3     0.50      1017.0     3       277         5       136        8.92     313      347.0
   08/11/2016 09:30      72.5      71.5       61     57.8      0.00      0.00      85.5     0.50      1017.0     3       100         5       129        8.92     315      328.9
   08/11/2016 09:20      71.7      70.2       63     57.8      0.00      0.00      85.6     0.50      1017.0     2        69         4        82        8.92     317      304.1
   08/11/2016 09:10      70.2      69.7       65     57.6      0.00      0.00      85.2     0.50      1017.0     3       143         5       146        8.92     319      289.8
   08/11/2016 09:00      70.1      69.1       65     57.6      0.00      0.00      85.3     0.50      1017.0     2        43         3       123        8.92     320      268.1
   08/11/2016 08:50      70.1      68.4       67     57.5      0.00      0.00      85.3     0.50      1017.0     3        84         5        75        8.92     320      243.4
   08/11/2016 08:40      68.6      68.3       68     57.5      0.00      0.00      85.6     0.50      1016.0     3        99         6       120        8.92     320       83.7
   08/11/2016 08:30      68.5      67.4       69     57.7      0.00      0.00      85.9     0.50      1016.0     2        93         3        55        8.92     321       14.4
   08/11/2016 08:20      67.5      66.5       72     57.6      0.00      0.00      85.3     0.50      1016.0     2       113         3       135        8.92     321       12.1
   08/11/2016 08:10      66.6      66.2       73     57.5      0.00      0.00      84.9     0.50      1016.0     2       162         3       170        8.92     322       20.6
   08/11/2016 08:00      66.7      66.2       73     57.6      0.00      0.00      85.2     0.50      1016.0     3       107         5       118        8.92     319       26.6
   08/11/2016 07:50      66.7      66.3       73     57.5      0.00      0.00      85.1     0.50      1016.0     3       151         5       143        8.92     323       26.9
   08/11/2016 07:40      66.8      66.5       72     57.5      0.00      0.00      85.2     0.50      1016.0     2       137         4       160        8.92     321       15.1
   08/11/2016 07:30      66.6      66.1       73     57.6      0.00      0.00      85.3     0.50      1016.0     2        83         3        80        8.92     321       -5.5
   08/11/2016 07:20      66.2      65.7       74     57.5      0.00      0.00      85.6     0.50      1016.0     1       344         2       320        8.92     320       -0.1
   08/11/2016 07:10      65.8      65.6       75     57.7      0.00      0.00      85.8     0.51      1016.0     1        35         3        11        8.92     321        5.8
   08/11/2016 07:00      65.7      65.4       76     57.6      0.00      0.00      85.7     0.51      1016.0     1        37         3        24        8.92     320       -4.6
   08/11/2016 06:50      65.5      65.2       76     57.5      0.00      0.00      85.8     0.51      1015.0     1       118         2        96        8.92     318      -15.9
   08/11/2016 06:40      65.6      65.1       75     57.3      0.00      0.00      86.2     0.51      1015.0     1        66         2        29        8.92     317      -24.3
   08/11/2016 06:30      65.2      65.0       75     57.2      0.00      0.00      85.9     0.51      1015.0     1        42         2        25        8.92     315      -26.6
   08/11/2016 06:20      65.2      64.8       76     57.1      0.00      0.00      86.1     0.51      1015.0     2        17         3        25        8.92     313      -38.8
   08/11/2016 06:10      65.0      64.6       77     57.5      0.00      0.00      85.7     0.51      1015.0     1        42         2        23        8.92     314      -36.4
   08/11/2016 06:00      64.6      64.3       78     57.5      0.00      0.00      85.7     0.51      1015.0     1       168         1       121        8.92     316      -25.2
   08/11/2016 05:50      64.6      64.4       78     57.6      0.00      0.00      86.2     0.51      1015.0     1       185         1       167        8.92     314      -29.0
   08/11/2016 05:40      64.8      64.5       79     57.9      0.00      0.00      85.9     0.51      1015.0     1       109         2       108        8.92     312      -40.1
   08/11/2016 05:30      64.9      64.6       79     58.0      0.00      0.00      85.8     0.51      1015.0     1       139         1       134        8.92     313      -40.9
   08/11/2016 05:20      64.9      64.8       79     58.2      0.00      0.00      86.2     0.51      1015.0     1        23         1        32        8.92     315      -30.2
   08/11/2016 05:10      65.0      64.7       79     58.2      0.00      0.00      85.7     0.51      1015.0     1        60         1       298        8.92     316      -29.1
   08/11/2016 05:00      64.8      64.5       79     58.1      0.00      0.00      86.1     0.51      1015.0     1         6         1       327        8.92     317      -22.6
   08/11/2016 04:50      64.6      64.4       79     58.0      0.00      0.00      86.0     0.51      1015.0     1        98         2       145        8.92     318      -18.1
   08/11/2016 04:40      64.5      64.3       79     57.9      0.00      0.00      86.4     0.51      1015.0     1       145         2       111        8.92     318      -15.4
   08/11/2016 04:30      64.5      64.2       79     57.8      0.00      0.00      86.3     0.51      1015.0     1        11         1        18        8.92     318      -14.8
   08/11/2016 04:20      64.3      64.0       79     57.7      0.00      0.00      85.8     0.51      1015.0     1        33         2        11        8.92     318      -14.5
   08/11/2016 04:10      64.0      63.8       79     57.3      0.00      0.00      86.1     0.51      1015.0     1        90         2       130        8.92     320      -14.3
   08/11/2016 04:00      63.8      63.3       79     57.0      0.00      0.00      86.4     0.51      1015.0     1       108         2        84        8.92     320      -13.4
   08/11/2016 03:50      63.6      63.0       79     56.6      0.00      0.00      86.5     0.51      1015.0     1        98         3       163        8.92     320      -13.4
   08/11/2016 03:40      63.0      62.0       80     56.2      0.00      0.00      86.4     0.51      1015.0     2       167         2       168        8.92     321      -14.3
   08/11/2016 03:30      61.9      60.8       81     55.5      0.00      0.00      86.2     0.51      1015.0     1       184         2       196        8.93     321      -14.3
   08/11/2016 03:20      60.9      59.9       83     55.2      0.00      0.00      86.5     0.51      1015.0     1       179         1       177        8.93     320      -14.7
   08/11/2016 03:10      60.0      59.4       85     55.2      0.00      0.00      86.4     0.51      1015.0     1       188         2       181        8.93     318      -16.5
   08/11/2016 03:00      59.7      59.4       85     55.0      0.00      0.00      86.9     0.51      1015.0     1       163         2       152        8.93     315      -40.9
   08/11/2016 02:50      59.9      59.5       85     55.1      0.00      0.00      86.6     0.51      1015.0     0       185         1       165        8.93     311      -50.0
   08/11/2016 02:40      60.2      59.7       85     55.4      0.00      0.00      86.5     0.51      1015.0     1       120         1       127        8.93     308      -49.4
   08/11/2016 02:30      60.4      60.2       86     56.0      0.00      0.00      86.7     0.51      1015.0     1       139         1       159        8.93     306      -49.8
   08/11/2016 02:20      60.5      60.1       86     56.1      0.00      0.00      86.6     0.51      1015.0     2       161         2       172        8.93     304      -52.0
   08/11/2016 02:10      60.4      60.0       85     55.8      0.00      0.00      86.9     0.51      1015.0     2       143         2       140        8.93     303      -54.5
   08/11/2016 02:00      60.6      60.1       86     56.1      0.00      0.00      87.0     0.51      1015.0     1       149         1       145        8.93     300      -55.2
   08/11/2016 01:50      60.5      60.2       84     55.6      0.00      0.00      86.9     0.51      1015.0     1       138         2       136        8.93     298      -56.8
   08/11/2016 01:40      61.3      60.5       84     55.9      0.00      0.00      86.8     0.51      1015.0     1       115         1       103        8.93     295      -55.2
   08/11/2016 01:30      61.3      60.9       85     56.6      0.00      0.00      86.8     0.51      1015.0     1        50         1        29        8.93     293      -55.6
   08/11/2016 01:20      61.4      61.0       83     56.0      0.00      0.00      86.4     0.51      1015.0     0        74         1        63        8.93     290      -59.5
   08/11/2016 01:10      61.5      61.3       84     56.5      0.00      0.00      87.1     0.51      1015.0     0       104         1       127        8.94     288      -61.5
   08/11/2016 01:00      61.4      61.3       82     55.9      0.00      0.00      87.2     0.51      1015.0     0        66         1       131        8.94     286      -64.3
   08/11/2016 00:50      62.0      61.5       81     55.6      0.00      0.00      87.4     0.51      1015.0     1        95         1       113        8.94     284      -67.7
   08/11/2016 00:40      62.0      61.7       81     55.9      0.00      0.00      87.1     0.51      1015.0     1       130         2       127        8.94     282      -68.9
   08/11/2016 00:30      61.9      61.7       80     55.5      0.00      0.00      86.7     0.51      1015.0     1       112         2       117        8.94     280      -71.2
   08/11/2016 00:20      62.8      62.0       79     55.7      0.00      0.00      87.1     0.51      1015.0     2       111         2       131        8.94     278      -72.5
   08/11/2016 00:10      63.2      62.8       81     57.0      0.00      0.00      87.3     0.51      1015.0     1       108         1       123        8.94     277      -71.2
   08/11/2016 00:00      64.2      63.4       79     57.1      0.00      0.00      87.3     0.51      1015.0     1        75         1        59        8.94     274      -73.5
   08/10/2016 23:50      64.5      64.2       79     57.8      0.00      0.00      87.0     0.51      1015.0     2        85         2       103        8.94     274      -76.1
   08/10/2016 23:40      65.0      64.6       78     58.0      0.00      0.00      87.4     0.51      1014.0     1        70         3        71        8.94     273      -77.0
   08/10/2016 23:30      65.2      64.9       78     57.9      0.00      0.00      87.1     0.51      1014.0     1        43         2        19        8.94     272      -77.1
   08/10/2016 23:20      65.5      65.1       77     57.8      0.00      0.00      87.2     0.51      1014.0     1        83         2        74        8.94     271      -76.7
   08/10/2016 23:10      65.8      65.5       76     57.8      0.00      0.00      87.7     0.51      1014.0     1        69         2        73        8.94     271      -76.5
   08/10/2016 23:00      66.2      65.8       74     57.6      0.00      0.00      87.4     0.51      1014.0     1        82         2        89        8.95     271      -76.2
   08/10/2016 22:50      66.5      66.2       74     57.7      0.00      0.00      87.4     0.51      1014.0     2        68         3        82        8.95     271      -76.5
   08/10/2016 22:40      66.9      66.5       72     57.5      0.00      0.00      87.4     0.51      1014.0     1        72         2        55        8.95     271      -76.4
   08/10/2016 22:30      66.8      66.6       70     56.7      0.00      0.00      87.4     0.51      1014.0     2        70         3        71        8.95     271      -75.9
   08/10/2016 22:20      67.2      66.8       65     55.0      0.00      0.00      87.4     0.51      1014.0     1        99         2        47        8.95     270      -76.4
   08/10/2016 22:10      67.2      66.8       61     53.1      0.00      0.00      87.4     0.51      1014.0     0       109         1        74        8.95     269      -76.6
   08/10/2016 22:00      67.7      67.1       58     52.0      0.00      0.00      87.6     0.51      1014.0     1       120         1       105        8.95     269      -78.5
   08/10/2016 21:50      67.8      67.7       57     52.0      0.00      0.00      87.3     0.51      1014.0     1       123         1       145        8.95     268      -79.2
   08/10/2016 21:40      68.5      67.6       54     50.7      0.00      0.00      87.4     0.51      1013.0     1       101         1       109        8.96     268      -82.0
   08/10/2016 21:30      69.2      68.4       53     50.9      0.00      0.00      87.5     0.51      1013.0     1       122         1       103        8.96     267      -83.4
   08/10/2016 21:20      69.9      69.3       51     50.9      0.00      0.00      87.6     0.51      1013.0     1        88         2        93        8.96     267      -86.0
   08/10/2016 21:10      70.4      70.0       50     50.9      0.00      0.00      87.3     0.51      1013.0     2       107         2       111        8.96     268      -88.5
   08/10/2016 21:00      71.0      70.4       50     51.0      0.00      0.00      87.3     0.51      1013.0     2       149         3       146        8.96     269      -90.4
   08/10/2016 20:50      71.4      71.2       49     51.0      0.00      0.00      87.5     0.51      1013.0     3       155         3       168        8.96     269      -92.7
   08/10/2016 20:40      72.2      71.6       47     50.4      0.00      0.00      87.5     0.51      1012.0     3       160         4       162        8.97     269      -93.8
   08/10/2016 20:30      72.8      72.2       46     50.3      0.00      0.00      87.3     0.51      1012.0     2       177         3       161        8.97     269      -95.0
   08/10/2016 20:20      73.4      72.8       44     50.2      0.00      0.00      87.5     0.51      1012.0     2       175         4       162        8.97     269      -97.0
   08/10/2016 20:10      74.3      73.7       42     49.2      0.00      0.00      87.4     0.51      1012.0     2       174         3       159        8.97     268      -96.4
   08/10/2016 20:00      75.5      74.6       38     47.4      0.00      0.00      87.3     0.51      1012.0     3       158         4       166        8.98     268      -96.9
   08/10/2016 19:50      76.4      75.7       35     46.3      0.00      0.00      87.3     0.51      1012.0     4       159         6       162        8.98     268      -97.0
   08/10/2016 19:40      77.0      76.4       34     46.3      0.00      0.00      87.2     0.51      1012.0     4       157         6       155        8.99     268      -96.5
   08/10/2016 19:30      78.2      77.3       34     47.0      0.00      0.00      87.4     0.51      1012.0     4       162         7       158        9.00     268      -94.1
   08/10/2016 19:20      80.0      78.4       32     46.8      0.00      0.00      87.2     0.51      1011.0     4       155         5       157        9.00     268      -83.7
   08/10/2016 19:10      81.3      80.4       25     41.5      0.00      0.00      87.3     0.51      1011.0     2       117         4       150        9.00     268      -67.2
   08/10/2016 19:00      81.5      81.3       21     38.1      0.00      0.00      87.2     0.51      1011.0     3        91         3       124        9.01     268      -44.2
   08/10/2016 18:50      82.1      81.4       18     33.9      0.00      0.00      87.1     0.51      1011.0     5       124         6       131        9.01     268      -18.2
   08/10/2016 18:40      82.9      82.2       15     30.9      0.00      0.00      87.2     0.51      1011.0     4       100         7       100        9.02     268        5.2
   08/10/2016 18:30      82.9      82.7       17     33.4      0.00      0.00      87.1     0.51      1011.0     4        96         6       113        9.02     268       30.0
   08/10/2016 18:20      83.9      83.2       17     34.2      0.00      0.00      87.1     0.51      1011.0     6        72         7        63        9.03     268       53.4
   08/10/2016 18:10      84.8      83.8       17     34.7      0.00      0.00      87.1     0.51      1011.0     5        97         8        98        9.04     268       78.2
   08/10/2016 18:00      85.2      84.9       12     26.5      0.00      0.00      87.0     0.51      1011.0     5       107         7        76        9.04     268      100.3
   08/10/2016 17:50      85.8      85.0       11     25.4      0.00      0.00      87.0     0.51      1011.0     5       101         7       118        9.05     268      124.9
   08/10/2016 17:40      87.5      86.0       10     23.7      0.00      0.00      86.8     0.51      1011.0     4        98         7       124        9.06     268      143.3
   08/10/2016 17:30      87.4      86.6        9     22.0      0.00      0.00      86.8     0.51      1011.0     5       121         7       106        9.06     268      163.0
   08/10/2016 17:20      88.4      86.7       10     24.3      0.00      0.00      86.8     0.51      1011.0     6       115         7       140        9.07     267      182.2
   08/10/2016 17:10      87.9      87.6       11     25.8      0.00      0.00      86.8     0.51      1011.0     5       107         7        79        9.07     267      206.5
   08/10/2016 17:00      88.7      87.6       11     26.7      0.00      0.00      86.6     0.51      1011.0     5        95         7       121        9.08     268      228.6
   08/10/2016 16:50      88.5      87.7       13     31.1      0.00      0.00      86.6     0.51      1011.0     5        94         9       116        9.08     268      249.7
   08/10/2016 16:40      89.6      87.8       13     30.8      0.00      0.00      86.5     0.51      1011.0     5        93         7       110        9.09     268      270.4
   08/10/2016 16:30      89.4      88.9       12     31.0      0.00      0.00      86.6     0.51      1011.0     4        76         8        89        9.09     268      288.2
   08/10/2016 16:20      89.1      88.2       14     33.1      0.00      0.00      86.4     0.50      1011.0     4        71        11       132        9.10     268      309.9
   08/10/2016 16:10      89.8      88.5       14     33.9      0.00      0.00      86.5     0.50      1011.0     6        93         9        84        9.10     268      330.9
   08/10/2016 16:00      89.2      87.9       16     36.7      0.00      0.00      86.3     0.50      1011.0     4        89         6        57        9.10     268      347.5
   08/10/2016 15:50      88.5      87.1       15     34.1      0.00      0.00      86.2     0.50      1011.0     5       138         7        96        9.10     268      367.8
   08/10/2016 15:40      88.5      87.7       15     34.6      0.00      0.00      86.2     0.50      1011.0     6       123         7       127        9.11     268      387.1
   08/10/2016 15:30      89.0      87.4       16     36.0      0.00      0.00      86.2     0.50      1011.0     4       101         9       131        9.11     269      405.5
   08/10/2016 15:20      89.0      87.7       16     36.5      0.00      0.00      86.1     0.50      1011.0     5       114         8       143        9.11     269      421.3
   08/10/2016 15:10      89.1      88.4       17     38.2      0.00      0.00      85.9     0.50      1011.0     5       113         7        79        9.11     269      439.5
   08/10/2016 15:00      89.5      88.6       16     37.8      0.00      0.00      86.1     0.50      1011.0     4       126         7       180        9.11     269      454.2
   08/10/2016 14:50      89.9      88.6       16     36.9      0.00      0.00      86.0     0.50      1012.0     4       140         7        65        9.11     270      468.8
   08/10/2016 14:40      89.8      88.3       15     34.5      0.00      0.00      85.8     0.50      1012.0     3       109         5        70        9.11     270      479.1
   08/10/2016 14:30      88.8      87.6       14     33.1      0.00      0.00      86.1     0.50      1012.0     5       148         9       131        9.11     270      494.8
   08/10/2016 14:20      89.7      88.3       13     31.0      0.00      0.00      85.7     0.50      1012.0     6       115         9       104        9.11     270      502.0
   08/10/2016 14:10      89.7      89.1        9     24.0      0.00      0.00      85.8     0.50      1012.0     5       104         8       149        9.11     270      504.1
   08/10/2016 14:00      89.3      87.7       20     41.7      0.00      0.00      85.8     0.50      1012.0     4        62        11        89        9.11     270      512.4
   08/10/2016 13:50      88.7      87.7       25     48.0      0.00      0.00      85.6     0.50      1012.0     4        44         7        56        9.11     271      522.5
   08/10/2016 13:40      88.1      87.1       25     48.0      0.00      0.00      85.4     0.50      1012.0     3        64         5        80        9.11     271      527.4
   08/10/2016 13:30      87.5      86.3       27     49.4      0.00      0.00      85.5     0.50      1012.0     3        28         5        15        9.11     271      530.0
   08/10/2016 13:20      85.7      84.8       28     48.9      0.00      0.00      85.5     0.50      1012.0     2       316         4       148        9.11     272      536.8
   08/10/2016 13:10      86.5      85.4       29     49.4      0.00      0.00      85.8     0.50      1012.0     4       118         7       123        9.11     273      539.5
   08/10/2016 13:00      86.7      84.4       31     51.2      0.00      0.00      85.7     0.50      1013.0     3        41         5         9        9.11     274      534.9
   08/10/2016 12:50      84.9      83.8       33     52.1      0.00      0.00      85.7     0.50      1013.0     4        35         8       356        9.11     275      541.2
   08/10/2016 12:40      84.4      83.5       35     53.4      0.00      0.00      85.7     0.50      1013.0     3        23         5         6        9.11     277      545.5
   08/10/2016 12:30      83.9      82.6       36     53.7      0.00      0.00      85.5     0.50      1013.0     4        44         7        59        9.11     278      542.0
   08/10/2016 12:20      83.4      82.0       40     55.7      0.00      0.00      85.7     0.50      1013.0     3       354         7       345        9.11     279      531.5
   08/10/2016 12:10      81.9      80.4       44     57.3      0.00      0.00      85.9     0.50      1013.0     4        14         8       356        9.11     280      534.2
   08/10/2016 12:00      80.8      79.5       46     57.6      0.00      0.00      85.6     0.50      1013.0     4        19         5         4        9.11     280      526.5
   08/10/2016 11:50      79.8      78.6       48     57.9      0.00      0.00      85.4     0.50      1013.0     4        13         6       354        9.11     283      520.0
   08/10/2016 11:40      79.2      78.2       49     57.7      0.00      0.00      85.6     0.50      1014.0     3         3         5        22        9.11     286      513.0
   08/10/2016 11:30      79.5      77.7       49     57.9      0.00      0.00      85.5     0.50      1014.0     4        12         6        10        9.11     291      509.6
   08/10/2016 11:20      77.3      76.3       52     57.7      0.00      0.00      85.7     0.50      1014.0     2        42         5         9        9.11     300      498.4
   08/10/2016 11:10      76.5      75.8       53     57.9      0.00      0.00      85.9     0.50      1014.0     3        12         6        31        9.11     311      487.8
   08/10/2016 11:00      76.2      74.8       54     58.0      0.00      0.00      85.5     0.50      1014.0     3        10         5       353        9.11     331      476.9
   08/10/2016 10:50      75.2      74.1       56     57.9      0.00      0.00      85.6     0.50      1014.0     3         1         5        21        9.11     332      461.9
   08/10/2016 10:40      74.1      72.9       58     57.8      0.00      0.00      86.0     0.50      1014.0     4         5         6       336        9.11     357      448.1
   08/10/2016 10:30      73.0      71.8       60     57.8      0.00      0.00      85.7     0.50      1014.0     3        42         5       353        9.11     365      436.2
   08/10/2016 10:20      72.0      71.5       61     57.8      0.00      0.00      85.9     0.51      1014.0     3        45         4        25        9.11     368      424.8
   08/10/2016 10:10      72.0      70.7       62     57.9      0.00      0.00      85.6     0.51      1014.0     3        29         6       359        9.11     377      407.8
   08/10/2016 10:00      71.2      69.6       64     57.8      0.00      0.00      86.0     0.51      1014.0     4       331         6       315        9.11     381      388.6
   08/10/2016 09:50      70.3      69.6       65     57.6      0.00      0.00      85.7     0.51      1014.0     2         2         4        78        9.10     384      332.7
   08/10/2016 09:40      70.1      69.2       65     57.6      0.00      0.00      86.3     0.51      1014.0     3        31         4        22        9.10     384      361.2
   08/10/2016 09:30      69.2      68.4       67     57.3      0.00      0.00      85.9     0.51      1014.0     3        12         5         5        9.10     390      306.8
   08/10/2016 09:20      68.3      67.2       70     57.2      0.00      0.00      86.0     0.51      1014.0     3         1         5       338        9.10     375      250.4
   08/10/2016 09:10      66.8      66.5       71     57.1      0.00      0.00      85.9     0.51      1014.0     3        35         5        21        9.04     382      133.0
   08/10/2016 09:00      67.0      66.3       71     57.1      0.00      0.00      85.7     0.51      1014.0     2        64         3       128        8.52     270       67.6
   08/10/2016 08:50      66.6      66.1       73     57.3      0.00      0.00      85.8     0.51      1014.0     3        17         4         5        8.52     270      127.8
   08/10/2016 08:40      65.7      64.7       75     57.2      0.00      0.00      86.2     0.51      1014.0     2       211         3       343        8.52     270      150.9
   08/10/2016 08:30      64.6      64.2       78     57.4      0.00      0.00      86.2     0.51      1014.0     2       145         4       100        8.52     270       83.4
   08/10/2016 08:20      64.4      63.8       79     57.6      0.00      0.00      86.1     0.51      1014.0     3       101         5        91        8.52     270       86.1
   08/10/2016 08:10      64.0      63.6       80     57.5      0.00      0.00      85.8     0.51      1014.0     3       142         5       145        8.52     270       66.6
   08/10/2016 08:00      64.2      63.7       80     57.6      0.00      0.00      86.4     0.51      1013.0     4       145         5       122        8.52     270       53.8
   08/10/2016 07:50      64.6      64.3       79     57.8      0.00      0.00      86.2     0.51      1013.0     2       156         3       129        8.52     270       55.1
   08/10/2016 07:40      64.7      63.9       80     57.9      0.00      0.00      85.9     0.51      1013.0     1       180         2       170        8.52     270       47.4
   08/10/2016 07:30      63.9      63.8       81     57.8      0.00      0.00      86.6     0.51      1013.0     2       356         2         0        8.52     270       23.8
   08/10/2016 07:20      63.9      63.3       82     57.9      0.00      0.00      86.2     0.51      1013.0     1        32         2       338        8.52     270       -1.6
   08/10/2016 07:10      63.4      63.1       82     57.8      0.00      0.00      86.4     0.51      1013.0     1       236         2       138        8.52     270       -7.2
   08/10/2016 07:00      63.3      62.9       84     58.1      0.00      0.00      86.4     0.51      1013.0     2       160         2       173        8.52     270       -7.9
   08/10/2016 06:50      63.1      62.9       84     58.3      0.00      0.00      86.9     0.51      1013.0     2       199         3       210        8.52     270      -10.3
   08/10/2016 06:40      63.3      62.7       85     58.4      0.00      0.00      86.5     0.51      1013.0     2       250         2       256        8.52     270      -10.6
   08/10/2016 06:30      62.7      62.5       86     58.4      0.00      0.00      86.7     0.51      1013.0     1       223         2       227        8.52     270      -14.3
   08/10/2016 06:20      62.5      62.2       87     58.5      0.00      0.00      86.4     0.51      1013.0     1       246         3       285        8.52     270      -14.2
   08/10/2016 06:10      62.4      62.1       88     58.5      0.00      0.00      86.9     0.51      1013.0     1       218         2       255        8.52     270      -15.0
   08/10/2016 06:00      62.2      61.8       89     58.6      0.00      0.00      87.1     0.51      1012.0     1       242         2       250        8.52     270      -13.8
   08/10/2016 05:50      61.9      61.7       89     58.6      0.00      0.00      86.8     0.51      1012.0     1       198         2       153        8.52     270      -12.6
   08/10/2016 05:40      61.9      61.6       90     58.6      0.00      0.00      87.2     0.51      1012.0     1       170         2       214        8.52     270      -11.3
   08/10/2016 05:30      61.6      61.4       90     58.4      0.00      0.00      86.7     0.51      1012.0     2       225         2       203        8.52     270       -9.9
   08/10/2016 05:20      61.5      60.8       87     57.3      0.00      0.00      87.1     0.51      1012.0     2       163         3       152        8.52     270      -10.4
   08/10/2016 05:10      60.8      59.6       87     56.3      0.00      0.00      87.2     0.51      1012.0     1       200         2       240        8.52     270       -8.7
   08/10/2016 05:00      59.6      58.8       88     55.9      0.00      0.00      87.1     0.51      1012.0     2       165         2       160        8.52     270       -9.2
   08/10/2016 04:50      59.0      58.5       90     55.7      0.00      0.00      87.1     0.51      1012.0     2       153         3       138        8.52     270      -21.9
   08/10/2016 04:40      59.1      58.5       90     55.7      0.00      0.00      87.1     0.51      1012.0     1       152         1       166        8.52     270      -32.6
   08/10/2016 04:30      58.8      58.6       89     55.5      0.00      0.00      87.1     0.51      1012.0     1       170         1       160        8.52     270      -35.7
   08/10/2016 04:20      59.3      59.0       88     55.6      0.00      0.00      87.2     0.51      1012.0     1       110         1        75        8.52     269      -37.0
   08/10/2016 04:10      59.5      59.3       89     56.1      0.00      0.00      87.0     0.51      1012.0     1       208         1       248        8.52     269      -36.8
   08/10/2016 04:00      59.9      59.5       88     56.2      0.00      0.00      87.5     0.51      1012.0     1       171         2       151        8.52     269      -38.5
   08/10/2016 03:50      60.0      59.7       89     56.7      0.00      0.00      87.2     0.51      1012.0     1       174         2       183        8.52     269      -39.9
   08/10/2016 03:40      59.9      59.6       88     56.2      0.00      0.00      87.2     0.51      1012.0     2       147         3       153        8.52     269      -43.2
   08/10/2016 03:30      60.2      59.9       88     56.5      0.00      0.00      87.5     0.51      1012.0     2       143         3       144        8.52     269      -42.7
   08/10/2016 03:20      60.3      60.3       89     57.0      0.00      0.00      87.3     0.51      1012.0     1       172         1       126        8.52     269      -43.9
   08/10/2016 03:10      60.5      60.2       87     56.5      0.00      0.00      87.4     0.51      1012.0     1       154         1       135        8.52     269      -48.4
   08/10/2016 03:00      60.5      60.2       87     56.4      0.00      0.00      87.2     0.51      1012.0     1       198         2       161        8.52     269      -51.4
   08/10/2016 02:50      60.8      60.4       86     56.3      0.00      0.00      87.4     0.51      1012.0     2       140         2       148        8.52     269      -54.3
   08/10/2016 02:40      61.1      60.9       86     56.8      0.00      0.00      87.9     0.51      1012.0     1       157         2       126        8.52     269      -54.0
   08/10/2016 02:30      61.4      61.3       86     57.1      0.00      0.00      87.5     0.51      1012.0     1       208         1       148        8.52     269      -55.6
   08/10/2016 02:20      61.6      61.3       85     56.7      0.00      0.00      87.7     0.51      1012.0     1       121         1       149        8.52     269      -60.4
   08/10/2016 02:10      61.5      61.4       85     56.9      0.00      0.00      87.8     0.51      1012.0     0       140         1        83        8.52     269      -64.0
   08/10/2016 02:00      61.9      61.6       85     57.2      0.00      0.00      87.5     0.51      1012.0     0        76         1       126        8.52     269      -64.3
   08/10/2016 01:50      62.2      61.4       83     56.5      0.00      0.00      87.6     0.52      1012.0     0       206         1       104        8.52     269      -67.3
   08/10/2016 01:40      62.9      62.2       81     56.9      0.00      0.00      87.7     0.51      1012.0     1       123         1       128        8.52     269      -68.2
   08/10/2016 01:30      63.5      63.2       81     57.5      0.00      0.00      87.7     0.51      1012.0     1       101         2        80        8.52     269      -67.8
   08/10/2016 01:20      63.7      63.4       80     57.4      0.00      0.00      87.7     0.51      1012.0     2        58         3        63        8.52     268      -67.9
   08/10/2016 01:10      63.7      63.5       80     57.2      0.00      0.00      87.9     0.51      1012.0     1        74         2        99        8.52     269      -68.6
   08/10/2016 01:00      63.9      63.6       80     57.4      0.00      0.00      87.7     0.52      1012.0     1        95         2        90        8.52     268      -67.9
   08/10/2016 00:50      64.3      63.7       78     57.1      0.00      0.00      88.0     0.51      1012.0     1        78         1       116        8.52     268      -68.7
   08/10/2016 00:40      64.3      64.2       78     57.4      0.00      0.00      88.0     0.51      1012.0     1        63         1        74        8.52     268      -68.2
   08/10/2016 00:30      64.5      64.2       78     57.2      0.00      0.00      88.2     0.51      1012.0     1        97         2        77        8.52     268      -68.3
   08/10/2016 00:20      64.6      64.3       77     57.0      0.00      0.00      88.1     0.51      1012.0     1       116         2        99        8.52     268      -70.0
   08/10/2016 00:10      64.9      64.5       75     56.8      0.00      0.00      87.8     0.51      1012.0     1       103         2       127        8.52     268      -71.0
   08/10/2016 00:00      65.5      65.2       74     56.9      0.00      0.00      87.9     0.51      1012.0     1       110         2        86        8.52     268      -72.3
   08/09/2016 23:50      66.1      65.6       73     57.0      0.00      0.00      87.9     0.51      1012.0     1        94         2        66        8.52     268      -73.0
   08/09/2016 23:40      66.5      66.1       73     57.2      0.00      0.00      88.0     0.51      1012.0     1        81         1       103        8.52     268      -73.6
   08/09/2016 23:30      67.2      66.6       71     57.4      0.00      0.00      88.5     0.52      1012.0     1        61         2        44        8.60     267      -74.5
   08/09/2016 23:20      67.4      67.0       71     57.5      0.00      0.00      88.1     0.51      1012.0     1        11         2         9        8.60     267      -74.7
   08/09/2016 23:10      67.8      67.5       69     57.3      0.00      0.00      88.1     0.51      1012.0     1        60         2        53        8.60     267      -75.5
   08/09/2016 23:00      67.9      67.6       69     57.1      0.00      0.00      88.3     0.51      1012.0     1        37         2        25        8.61     267      -75.5
   08/09/2016 22:50      67.8      67.6       70     57.8      0.00      0.00      88.4     0.52      1011.0     2        77         3        74        8.61     267      -75.2
   08/09/2016 22:40      68.4      67.7       69     57.6      0.00      0.00      88.3     0.52      1011.0     1       103         2       108        8.61     267      -75.5
   08/09/2016 22:30      69.1      68.6       69     58.4      0.00      0.00      88.2     0.51      1011.0     0       120         1        65        8.61     267      -75.9
   08/09/2016 22:20      69.2      69.1       69     58.6      0.00      0.00      88.3     0.51      1011.0     1        65         1        69        8.61     267      -77.5
   08/09/2016 22:10      69.6      69.2       68     58.4      0.00      0.00      88.3     0.51      1011.0     1       196         2       203        8.61     267      -78.2
   08/09/2016 22:00      69.8      69.6       67     58.4      0.00      0.00      88.4     0.51      1011.0     1       211         2       179        8.61     267      -78.8
   08/09/2016 21:50      70.2      69.8       67     58.6      0.00      0.00      88.3     0.51      1011.0     2       211         3       195        8.61     267      -78.9
   08/09/2016 21:40      70.6      70.2       66     58.5      0.00      0.00      88.2     0.52      1011.0     2       208         4       208        8.61     267      -78.7
   08/09/2016 21:30      70.9      70.6       65     58.5      0.00      0.00      88.3     0.51      1011.0     2       225         3       205        8.62     266      -79.5
   08/09/2016 21:20      71.7      71.1       64     58.5      0.00      0.00      88.6     0.51      1011.0     3       227         4       252        8.62     266      -80.3
   08/09/2016 21:10      72.1      71.8       63     58.6      0.00      0.00      88.2     0.51      1011.0     4       238         5       246        8.62     266      -80.4
   08/09/2016 21:00      72.6      72.2       62     58.6      0.00      0.00      88.1     0.51      1010.0     4       237         5       248        8.62     266      -81.4
   08/09/2016 20:50      73.0      72.7       61     58.7      0.00      0.00      88.1     0.51      1010.0     4       235         6       258        8.62     266      -81.8
   08/09/2016 20:40      73.8      73.1       60     58.7      0.00      0.00      88.2     0.51      1010.0     4       215         6       211        8.62     266      -81.9
   08/09/2016 20:30      74.4      73.8       59     58.7      0.00      0.00      88.2     0.51      1010.0     4       231         7       236        8.62     265      -81.7
   08/09/2016 20:20      74.9      74.5       54     56.8      0.00      0.00      88.2     0.51      1010.0     3       214         6       224        8.62     265      -82.9
   08/09/2016 20:10      75.4      74.8       49     54.5      0.00      0.00      88.1     0.51      1010.0     3       176         5       183        8.62     265      -83.7
   08/09/2016 20:00      76.0      75.5       44     52.3      0.00      0.00      88.2     0.51      1010.0     3       175         5       185        8.62     265      -84.7
   08/09/2016 19:50      76.7      76.2       40     50.6      0.00      0.00      87.9     0.51      1010.0     3       166         4       154        8.63     265      -83.9
   08/09/2016 19:40      77.3      76.8       38     49.2      0.00      0.00      88.0     0.51      1010.0     4       165         6       168        8.63     265      -80.0
   08/09/2016 19:30      78.0      77.3       38     49.8      0.00      0.00      87.9     0.51      1010.0     4       168         6       146        8.63     264      -76.7
   08/09/2016 19:20      78.6      78.3       38     51.1      0.00      0.00      88.1     0.51      1010.0     4       167         7       154        8.63     265      -67.8
   08/09/2016 19:10      79.5      78.9       38     51.4      0.00      0.00      87.8     0.51      1009.0     4       161         5       144        8.63     264      -47.9
   08/09/2016 19:00      79.9      79.6       37     51.0      0.00      0.00      88.0     0.51      1009.0     4       164         5       167        8.64     264      -28.3
   08/09/2016 18:50      80.2      79.5       37     50.9      0.00      0.00      87.9     0.51      1009.0     5       165         8       176        8.64     264       -5.4
   08/09/2016 18:40      81.0      80.4       36     51.3      0.00      0.00      87.7     0.51      1009.0     5       165         7       170        8.65     264       15.6
   08/09/2016 18:30      81.4      80.8       37     52.6      0.00      0.00      87.7     0.51      1009.0     7       147         8       143        8.65     265       38.0
   08/09/2016 18:20      82.4      81.5       37     52.9      0.00      0.00      87.7     0.51      1009.0     7       154         9       159        8.65     264       60.8
   08/09/2016 18:10      84.2      82.6       35     52.8      0.00      0.00      87.6     0.51      1009.0     7       150        10       153        8.66     265       82.6
   08/09/2016 18:00      85.7      84.5       35     54.0      0.00      0.00      87.6     0.51      1009.0     6       181         7       140        8.67     265      101.8
   08/09/2016 17:50      86.9      85.5       31     51.9      0.00      0.00      87.6     0.51      1009.0     4       185         5       199        8.67     265      123.2
   08/09/2016 17:40      88.0      87.1       27     49.2      0.00      0.00      87.7     0.51      1009.0     3       188         5       160        8.67     265      143.0
   08/09/2016 17:30      87.6      86.3       27     48.9      0.00      0.00      87.5     0.51      1009.0     2        17         4       142        8.68     265      164.4
   08/09/2016 17:20      87.1      86.5       27     49.0      0.00      0.00      87.4     0.51      1009.0     3       147         5       186        8.68     265      191.5
   08/09/2016 17:10      86.9      86.5       28     49.6      0.00      0.00      87.5     0.51      1009.0     4       146         5       174        8.68     265      214.7
   08/09/2016 17:00      86.5      86.0       28     49.7      0.00      0.00      87.4     0.51      1009.0     4       148         8       187        8.69     265      236.5
   08/09/2016 16:50      87.1      86.0       28     49.8      0.00      0.00      87.4     0.51      1009.0     4       108         7       128        8.69     266      258.3
   08/09/2016 16:40      86.8      85.7       29     50.2      0.00      0.00      87.3     0.51      1009.0     3       126         7       131        8.69     266      277.4
   08/09/2016 16:30      86.8      86.0       28     49.5      0.00      0.00      87.3     0.51      1009.0     4       139         6       163        8.69     266      293.9
   08/09/2016 16:20      87.9      86.0       28     49.5      0.00      0.00      87.1     0.51      1009.0     4       142         7       138        8.70     266      314.0
   08/09/2016 16:10      87.8      86.7       27     48.9      0.00      0.00      87.0     0.51      1009.0     3        62         5        99        8.70     266      331.2
   08/09/2016 16:00      87.7      86.2       28     50.1      0.00      0.00      86.9     0.51      1009.0     4       123         6       154        8.70     266      353.5
   08/09/2016 15:50      86.1      85.6       29     50.1      0.00      0.00      86.7     0.51      1010.0     3       116         5       138        8.71     266      373.8
   08/09/2016 15:40      87.9      86.4       29     51.0      0.00      0.00      86.9     0.51      1010.0     4       146         7       187        8.71     266      391.8
   08/09/2016 15:30      86.8      85.9       30     51.3      0.00      0.00      86.6     0.51      1010.0     3       229         6        98        8.71     266      408.2
   08/09/2016 15:20      86.6      86.0       31     52.3      0.00      0.00      86.6     0.51      1010.0     4       169         8       164        8.72     266      421.1
   08/09/2016 15:10      87.0      85.7       32     53.1      0.00      0.00      86.6     0.51      1010.0     4       122         6       140        8.72     266      439.1
   08/09/2016 15:00      86.6      85.6       33     53.8      0.00      0.00      86.7     0.51      1010.0     4       168         8       168        8.73     266      453.1
   08/09/2016 14:50      87.1      85.7       33     54.2      0.00      0.00      86.4     0.51      1010.0     5       139        13        20        8.73     267      463.0
   08/09/2016 14:40      86.8      85.7       35     55.0      0.00      0.00      86.5     0.51      1010.0     4        27         7        65        8.73     268      473.4
   08/09/2016 14:30      86.0      85.5       37     56.8      0.00      0.00      86.3     0.50      1010.0     5        53         7        73        8.74     267      486.7
   08/09/2016 14:20      87.1      86.0       38     57.6      0.00      0.00      86.5     0.50      1010.0     4        47         6        37        8.74     267      497.5
   08/09/2016 14:10      86.5      86.0       39     58.2      0.00      0.00      86.6     0.50      1010.0     4        77         9        97        8.74     267      505.5
   08/09/2016 14:00      86.8      85.6       39     58.4      0.00      0.00      86.3     0.50      1010.0     4        27         9       353        8.75     268      504.9
   08/09/2016 13:50      86.0      85.4       39     58.3      0.00      0.00      86.2     0.50      1010.0     5        28         9       349        8.75     268      511.8
   08/09/2016 13:40      86.0      85.5       39     57.9      0.00      0.00      86.1     0.50      1011.0     4         5         5        20        8.75     267      515.5
   08/09/2016 13:30      85.6      83.9       41     58.0      0.00      0.00      86.6     0.50      1011.0     4        57         8         3        8.75     268      519.6
   08/09/2016 13:20      84.8      83.0       42     58.3      0.00      0.00      86.3     0.50      1011.0     3        66         5        70        8.75     268      532.6
   08/09/2016 13:10      83.3      82.4       43     58.2      0.00      0.00      86.2     0.50      1011.0     4       346         6       348        8.76     268      528.7
   08/09/2016 13:00      83.6      81.9       44     58.3      0.00      0.00      86.1     0.50      1011.0     5         2         8       358        8.76     268      530.8
   08/09/2016 12:50      82.7      81.3       45     58.3      0.00      0.00      86.2     0.50      1011.0     2        50         5        70        8.76     268      539.5
   08/09/2016 12:40      82.4      80.8       45     58.4      0.00      0.00      86.1     0.50      1011.0     3        74         8        73        8.76     268      543.1
   08/09/2016 12:30      81.0      79.3       47     58.2      0.00      0.00      86.3     0.50      1011.0     4        74         6        87        8.77     269      535.8
   08/09/2016 12:20      81.8      80.4       46     58.5      0.00      0.00      86.2     0.50      1011.0     3        20         4        22        8.77     269      528.9
   08/09/2016 12:10      81.3      80.2       47     58.8      0.00      0.00      86.3     0.50      1011.0     3       335         6        18        8.77     268      525.0
   08/09/2016 12:00      80.1      77.3       50     58.8      0.00      0.00      86.1     0.50      1012.0     2       293         4       244        8.77     268      519.1
   08/09/2016 11:50      78.2      77.0       53     58.9      0.00      0.00      86.2     0.50      1012.0     3       272         5       290        8.77     268      512.8
   08/09/2016 11:40      79.3      77.6       51     59.3      0.00      0.00      86.2     0.50      1012.0     3        44         6        41        8.77     269      507.9
   08/09/2016 11:30      78.3      75.9       54     59.0      0.00      0.00      86.1     0.50      1012.0     2       148         4       123        8.77     269      501.9
   08/09/2016 11:20      76.5      75.4       56     59.0      0.00      0.00      86.2     0.50      1012.0     3       267         5       260        8.77     270      491.6
   08/09/2016 11:10      75.9      74.8       57     59.0      0.00      0.00      86.1     0.50      1012.0     3         6         5       352        8.77     270      476.4
   08/09/2016 11:00      76.5      75.8       55     59.1      0.00      0.00      86.4     0.50      1012.0     5        30         6        25        8.78     270      459.8
   08/09/2016 10:50      76.3      74.4       57     59.0      0.00      0.00      85.9     0.51      1012.0     3        69         5        58        8.78     270      451.6
   08/09/2016 10:40      75.0      73.7       58     58.8      0.00      0.00      86.4     0.51      1012.0     3         6         5        18        8.78     270      443.2
   08/09/2016 10:30      75.0      73.9       58     58.6      0.00      0.00      86.2     0.51      1012.0     3        35         6        73        8.78     270      429.5
   08/09/2016 10:20      74.4      73.4       59     58.6      0.00      0.00      86.2     0.51      1012.0     3        58         5        56        8.78     270      406.7
   08/09/2016 10:10      74.4      72.8       59     58.6      0.00      0.00      86.5     0.51      1012.0     4        42         7        86        8.78     270      403.0
   08/09/2016 10:00      73.0      70.9       62     58.3      0.00      0.00      86.2     0.51      1012.0     2       140         4       167        8.78     270      412.8
   08/09/2016 09:50      71.1      70.2       64     58.1      0.00      0.00      86.6     0.51      1012.0     3       153         5       133        8.78     271      322.3
   08/09/2016 09:40      71.3      70.8       63     58.1      0.00      0.00      86.5     0.51      1012.0     3       108         5       116        8.78     270      233.6
   08/09/2016 09:30      71.0      70.6       64     58.0      0.00      0.00      86.1     0.51      1012.0     3        18         5        62        8.78     271      307.7
   08/09/2016 09:20      70.5      69.7       66     58.0      0.00      0.00      86.6     0.51      1012.0     3        27         4        61        8.79     271      275.7
   08/09/2016 09:10      69.6      69.2       67     57.8      0.00      0.00      86.6     0.51      1012.0     2        40         3       101        8.79     271      196.6
   08/09/2016 09:00      69.5      68.5       67     57.7      0.00      0.00      86.6     0.51      1012.0     3        54         4        86        8.79     271      159.7
   08/09/2016 08:50      68.8      67.4       69     57.5      0.00      0.00      87.0     0.51      1012.0     2       113         3       100        8.79     271      133.9
   08/09/2016 08:40      67.8      67.2       70     57.4      0.00      0.00      86.1     0.51      1012.0     1        49         3        83        8.79     271      116.0
   08/09/2016 08:30      67.2      66.4       72     57.3      0.00      0.00      86.4     0.51      1012.0     2        98         5       123        8.79     271       97.4
   08/09/2016 08:20      66.8      66.2       73     57.5      0.00      0.00      86.4     0.51      1012.0     4       141         6       132        8.79     271       86.1
   08/09/2016 08:10      66.9      66.2       74     57.7      0.00      0.00      86.9     0.51      1012.0     2       133         4       122        8.79     271       79.2
   08/09/2016 08:00      66.4      66.2       74     57.7      0.00      0.00      86.8     0.51      1012.0     3       129         4       127        8.79     271       55.4
   08/09/2016 07:50      66.4      65.8       74     57.7      0.00      0.00      86.8     0.51      1011.0     2       188         3       184        8.79     271       44.1
   08/09/2016 07:40      66.0      65.3       75     57.7      0.00      0.00      87.0     0.51      1011.0     2       200         3       229        8.79     271       36.9
   08/09/2016 07:30      65.7      65.3       76     57.7      0.00      0.00      86.7     0.51      1011.0     2       183         4       184        8.79     271       26.6
   08/09/2016 07:20      65.7      65.5       76     57.8      0.00      0.00      87.0     0.52      1011.0     2       154         4       178        8.79     271       16.0
   08/09/2016 07:10      65.8      65.5       76     57.8      0.00      0.00      86.6     0.52      1011.0     2       143         4       144        8.79     271        9.0
   08/09/2016 07:00      65.8      65.5       76     57.9      0.00      0.00      86.8     0.52      1011.0     2       124         4       131        8.79     271       -0.9
   08/09/2016 06:50      65.7      65.5       76     57.8      0.00      0.00      86.7     0.52      1011.0     3       140         4       158        8.80     271       -8.8
   08/09/2016 06:40      65.7      65.3       76     57.9      0.00      0.00      87.4     0.52      1011.0     2       148         6       133        8.80     271      -12.8
   08/09/2016 06:30      65.8      65.6       76     58.0      0.00      0.00      87.2     0.52      1011.0     3       161         4       192        8.80     271      -18.6
   08/09/2016 06:20      66.0      65.7       76     58.1      0.00      0.00      87.2     0.52      1011.0     2       142         4       127        8.80     271      -22.1
   08/09/2016 06:10      66.0      65.8       76     58.1      0.00      0.00      86.9     0.52      1011.0     2       143         4       163        8.80     271      -20.9
   08/09/2016 06:00      66.1      65.8       76     58.1      0.00      0.00      87.0     0.52      1011.0     1       145         3       120        8.80     271      -21.6
   08/09/2016 05:50      66.1      66.0       76     58.4      0.00      0.00      86.9     0.52      1010.0     3       110         5       106        8.80     271      -21.3
   08/09/2016 05:40      66.1      65.8       76     58.4      0.00      0.00      87.2     0.52      1010.0     2       113         3       158        8.80     271      -19.9
   08/09/2016 05:30      66.1      65.9       77     58.4      0.00      0.00      87.3     0.52      1010.0     3       135         4       152        8.80     271      -20.9
   08/09/2016 05:20      66.2      66.0       77     58.5      0.00      0.00      87.3     0.52      1010.0     3       135         4       106        8.80     271      -21.2
   08/09/2016 05:10      66.1      66.0       77     58.6      0.00      0.00      87.5     0.52      1010.0     2        85         3        69        8.80     271      -21.7
   08/09/2016 05:00      66.3      66.0       77     58.6      0.00      0.00      87.3     0.52      1010.0     1        92         2       135        8.80     271      -21.5
   08/09/2016 04:50      66.3      66.0       77     58.6      0.00      0.00      87.5     0.52      1010.0     1        76         3        97        8.80     271      -22.0
   08/09/2016 04:40      66.4      66.2       76     58.6      0.00      0.00      87.4     0.52      1010.0     2        30         3        18        8.80     271      -20.8
   08/09/2016 04:30      66.4      66.2       76     58.7      0.00      0.00      88.0     0.52      1010.0     2        13         3        11        8.80     271      -19.5
   08/09/2016 04:20      66.4      66.2       77     58.7      0.00      0.00      87.1     0.52      1010.0     1        16         2       340        8.80     271      -19.6
   08/09/2016 04:10      66.2      65.8       77     58.6      0.00      0.00      87.5     0.52      1010.0     1       303         3       315        8.80     271      -19.7
   08/09/2016 04:00      66.1      65.8       77     58.6      0.00      0.00      87.6     0.52      1010.0     3       347         5        22        8.80     271      -19.3
   08/09/2016 03:50      66.1      65.8       77     58.8      0.00      0.00      87.4     0.52      1010.0     2        81         4        82        8.80     271      -19.4
   08/09/2016 03:40      66.2      66.0       78     58.9      0.00      0.00      87.5     0.52      1010.0     2       106         4        88        8.80     271      -18.6
   08/09/2016 03:30      66.1      65.9       78     58.9      0.00      0.00      87.6     0.52      1011.0     1       107         2        52        8.80     271      -18.5
   08/09/2016 03:20      66.1      65.7       79     59.1      0.00      0.00      87.6     0.52      1011.0     2        44         4        77        8.80     271      -18.4
   08/09/2016 03:10      65.7      65.5       80     59.4      0.00      0.00      87.4     0.52      1011.0     2        98         4       138        8.80     271      -17.9
   08/09/2016 03:00      65.5      65.2       81     59.3      0.00      0.00      87.9     0.52      1011.0     1       334         2         1        8.80     271      -18.3
   08/09/2016 02:50      65.5      65.1       81     59.3      0.00      0.00      87.5     0.52      1011.0     1       148         3       138        8.80     271      -18.2
   08/09/2016 02:40      65.2      64.9       81     59.2      0.00      0.00      87.8     0.52      1011.0     2       183         3       197        8.80     271      -18.4
   08/09/2016 02:30      65.3      65.1       81     59.3      0.00      0.00      87.6     0.52      1011.0     2       175         3       199        8.80     271      -18.3
   08/09/2016 02:20      65.2      64.9       81     59.2      0.00      0.00      87.9     0.52      1011.0     1       194         2       180        8.81     271      -18.7
   08/09/2016 02:10      65.1      64.9       81     59.2      0.00      0.00      87.9     0.52      1011.0     1       149         2       151        8.81     271      -18.5
   08/09/2016 02:00      65.0      64.7       82     59.3      0.00      0.00      87.7     0.52      1011.0     2       116         4       164        8.81     271      -18.3
   08/09/2016 01:50      65.0      64.7       83     59.4      0.00      0.00      88.0     0.52      1011.0     3       131         5       130        8.81     271      -17.8
   08/09/2016 01:40      65.0      64.9       83     59.6      0.00      0.00      88.2     0.52      1011.0     3        94         5        87        8.81     271      -17.9
   08/09/2016 01:30      65.0      64.5       83     59.7      0.00      0.00      87.8     0.52      1011.0     2        94         3        73        8.81     271      -17.7
   08/09/2016 01:20      64.9      64.5       84     59.7      0.00      0.00      88.1     0.52      1011.0     4       141         5       152        8.81     270      -17.5
   08/09/2016 01:10      65.1      64.8       83     59.7      0.00      0.00      88.0     0.52      1011.0     3       122         4        98        8.81     270      -17.7
   08/09/2016 01:00      65.1      64.8       83     59.6      0.00      0.00      87.7     0.52      1011.0     3       114         5       125        8.82     270      -17.8
   08/09/2016 00:50      65.2      64.5       83     59.4      0.00      0.00      88.3     0.52      1011.0     1       129         3        80        8.82     271      -18.1
   08/09/2016 00:40      64.8      64.3       83     59.1      0.00      0.00      88.0     0.52      1011.0     2       140         3       129        8.82     270      -17.7
   08/09/2016 00:30      64.4      64.1       83     58.8      0.00      0.00      88.1     0.52      1011.0     3       170         3       162        8.82     270      -17.4
   08/09/2016 00:20      64.3      64.1       82     58.8      0.00      0.00      88.0     0.52      1011.0     2       189         2       187        8.82     270      -17.5
   08/09/2016 00:10      64.4      64.2       82     58.8      0.00      0.00      87.9     0.52      1011.0     1       162         2       183        8.82     271      -22.9
   08/09/2016 00:00      64.6      64.3       82     58.9      0.00      0.00      88.1     0.52      1011.0     2       126         2       126        8.82     270      -50.5
   08/08/2016 23:50      65.1      64.6       82     59.2      0.00      0.00      88.3     0.52      1011.0     2       132         3       136        8.83     269      -67.7
   08/08/2016 23:40      65.5      65.2       81     59.5      0.00      0.00      88.2     0.52      1011.0     2        65         4        80        8.83     270      -69.2
   08/08/2016 23:30      65.7      65.5       81     59.6      0.00      0.00      87.9     0.52      1011.0     1        57         2        72        8.83     270      -70.7
   08/08/2016 23:20      65.8      65.6       81     59.8      0.00      0.00      88.0     0.52      1011.0     1        49         2        69        8.83     270      -71.4
   08/08/2016 23:10      65.9      65.7       81     59.8      0.00      0.00      88.1     0.52      1010.0     1        57         2        71        8.83     270      -71.9
   08/08/2016 23:00      66.2      65.9       81     59.9      0.00      0.00      88.6     0.52      1010.0     1        67         2        63        8.83     270      -72.3
   08/08/2016 22:50      66.4      66.1       80     59.9      0.00      0.00      88.3     0.52      1010.0     1        83         2       104        8.83     270      -73.3
   08/08/2016 22:40      66.7      66.5       79     60.0      0.00      0.00      88.3     0.52      1010.0     1        73         2        73        8.83     269      -73.8
   08/08/2016 22:30      67.0      66.7       79     60.0      0.00      0.00      88.7     0.52      1010.0     1        46         2        72        8.83     269      -74.4
   08/08/2016 22:20      67.4      67.0       78     60.0      0.00      0.00      88.5     0.52      1010.0     1        67         2        33        8.84     269      -74.7
   08/08/2016 22:10      67.8      67.6       77     60.1      0.00      0.00      88.3     0.52      1010.0     2        44         3        41        8.84     269      -75.4
   08/08/2016 22:00      68.1      67.6       76     60.1      0.00      0.00      88.7     0.52      1010.0     1        46         2        33        8.84     269      -76.1
   08/08/2016 21:50      68.4      68.1       76     60.2      0.00      0.00      88.7     0.52      1010.0     1        65         2        57        8.84     269      -76.8
   08/08/2016 21:40      68.9      68.4       75     60.3      0.00      0.00      88.0     0.52      1010.0     2        97         3       124        8.84     269      -77.1
   08/08/2016 21:30      69.7      69.2       73     60.4      0.00      0.00      88.3     0.52      1010.0     2        82         3        85        8.84     269      -78.7
   08/08/2016 21:20      70.1      69.6       72     60.5      0.00      0.00      88.3     0.52      1010.0     2        43         2        34        8.84     269      -80.1
   08/08/2016 21:10      70.5      70.3       69     59.8      0.00      0.00      88.4     0.52      1010.0     1        74         3        90        8.85     268      -81.5
   08/08/2016 21:00      71.6      70.5       67     59.6      0.00      0.00      88.4     0.52      1009.0     2       156         3       174        8.85     268      -81.9
   08/08/2016 20:50      72.2      71.6       65     59.6      0.00      0.00      88.3     0.52      1009.0     1       176         2       229        8.85     268      -82.9
   08/08/2016 20:40      73.1      72.2       64     60.0      0.00      0.00      88.3     0.52      1009.0     2       129         3       172        8.85     268      -82.7
   08/08/2016 20:30      73.8      73.1       63     60.1      0.00      0.00      88.2     0.52      1009.0     2        67         3        61        8.85     268      -83.8
   08/08/2016 20:20      74.5      73.8       61     60.0      0.00      0.00      88.0     0.52      1009.0     2        84         4       105        8.85     267      -84.5
   08/08/2016 20:10      74.7      74.3       60     60.0      0.00      0.00      88.1     0.52      1009.0     1        38         3        79        8.85     267      -86.3
   08/08/2016 20:00      75.1      74.8       59     59.9      0.00      0.00      88.3     0.52      1009.0     1       108         2       306        8.85     267      -86.3
   08/08/2016 19:50      75.8      75.2       59     60.0      0.00      0.00      88.1     0.52      1009.0     2       159         3       176        8.86     267      -84.7
   08/08/2016 19:40      76.5      75.8       58     60.2      0.00      0.00      88.1     0.52      1009.0     2       120         3       155        8.86     267      -81.6
   08/08/2016 19:30      77.4      76.4       56     60.2      0.00      0.00      87.9     0.52      1008.0     3       155         4       167        8.87     266      -77.1
   08/08/2016 19:20      78.2      77.5       55     60.4      0.00      0.00      87.9     0.52      1008.0     3       161         5       155        8.87     266      -65.5
   08/08/2016 19:10      78.6      78.4       54     60.4      0.00      0.00      87.9     0.52      1008.0     3       151         5       149        8.88     266      -46.2
   08/08/2016 19:00      79.3      78.5       53     60.5      0.00      0.00      87.7     0.52      1008.0     4       149         5       150        8.88     266      -25.9
   08/08/2016 18:50      80.1      79.3       52     60.5      0.00      0.00      87.8     0.52      1008.0     4       156         6       144        8.89     266       -4.0
   08/08/2016 18:40      81.4      80.4       50     60.5      0.00      0.00      87.9     0.52      1008.0     5       167         6       189        8.89     266       17.2
   08/08/2016 18:30      81.8      81.4       49     60.4      0.00      0.00      87.7     0.52      1008.0     4       183         7       132        8.90     266       39.8
   08/08/2016 18:20      82.6      82.0       48     60.4      0.00      0.00      87.7     0.52      1008.0     3       158         7       174        8.90     266       61.4
   08/08/2016 18:10      82.9      82.0       47     60.4      0.00      0.00      87.8     0.51      1008.0     4       161         6       149        8.90     266       84.1
   08/08/2016 18:00      83.4      82.8       47     60.5      0.00      0.00      87.7     0.51      1008.0     4       158         5       164        8.91     266      107.7
   08/08/2016 17:50      83.5      82.9       46     60.6      0.00      0.00      87.7     0.51      1008.0     5       160         7       163        8.91     266      132.4
   08/08/2016 17:40      84.3      83.2       46     60.7      0.00      0.00      87.5     0.51      1008.0     6       176         8       188        8.91     266      155.8
   08/08/2016 17:30      84.6      83.7       45     60.7      0.00      0.00      87.5     0.51      1008.0     6       166         7       159        8.92     266      177.7
   08/08/2016 17:20      85.0      84.3       45     60.7      0.00      0.00      87.5     0.51      1008.0     6       164         8       168        8.92     266      198.6
   08/08/2016 17:10      85.4      84.5       44     60.7      0.00      0.00      87.1     0.51      1008.0     6       156         9       172        8.93     266      219.3
   08/08/2016 17:00      87.8      85.2       43     60.9      0.00      0.00      87.2     0.51      1008.0     5       185         8       133        8.93     266      236.4
   08/08/2016 16:50      88.8      87.3       41     61.0      0.00      0.00      87.3     0.51      1008.0     4       358         9       327        8.94     267      253.6
   08/08/2016 16:40      88.2      87.1       41     60.9      0.00      0.00      87.2     0.51      1008.0     3       132         5       118        8.94     267      275.7
   08/08/2016 16:30      88.6      87.2       41     61.1      0.00      0.00      87.1     0.51      1008.0     3        68         8        68        8.95     267      296.9
   08/08/2016 16:20      88.6      88.0       40     61.0      0.00      0.00      87.2     0.51      1008.0     4        37         6        10        8.95     267      314.4
   08/08/2016 16:10      89.2      88.4       40     61.0      0.00      0.00      87.1     0.51      1008.0     4        59         8        73        8.95     267      335.4
   08/08/2016 16:00      89.5      88.7       39     61.1      0.00      0.00      86.7     0.51      1008.0     4        77         6        98        8.96     267      353.3
   08/08/2016 15:50      89.3      88.5       40     61.2      0.00      0.00      86.8     0.51      1008.0     4        40         7        83        8.96     268      371.2
   08/08/2016 15:40      89.2      88.6       40     61.2      0.00      0.00      86.7     0.51      1008.0     4        49         6        88        8.96     267      384.1
   08/08/2016 15:30      88.9      88.3       40     61.2      0.00      0.00      86.6     0.51      1008.0     3        54         4        32        8.97     268      403.2
   08/08/2016 15:20      89.4      88.0       40     61.3      0.00      0.00      86.8     0.51      1008.0     3        51         5        65        8.97     268      419.7
   08/08/2016 15:10      88.6      87.7       41     61.1      0.00      0.00      86.6     0.51      1008.0     4        74         7       112        8.97     268      436.4
   08/08/2016 15:00      88.7      87.9       40     61.2      0.00      0.00      86.5     0.51      1009.0     4        29         6       338        8.98     268      448.1
   08/08/2016 14:50      88.8      88.0       40     61.3      0.00      0.00      86.5     0.51      1009.0     4        47         7         9        8.98     268      462.9
   08/08/2016 14:40      87.9      86.7       42     61.3      0.00      0.00      86.3     0.51      1009.0     4        43         7        73        8.98     269      476.7
   08/08/2016 14:30      88.0      87.0       42     61.2      0.00      0.00      86.4     0.51      1009.0     3        69         4        59        8.99     269      488.4
   08/08/2016 14:20      87.4      86.5       42     61.2      0.00      0.00      86.2     0.51      1009.0     4        34         6        11        8.99     268      494.9
   08/08/2016 14:10      86.6      86.1       43     61.0      0.00      0.00      86.2     0.51      1009.0     4        70         7        90        8.99     268      504.9
   08/08/2016 14:00      87.4      86.3       42     61.0      0.00      0.00      86.2     0.51      1009.0     4        60         9        77        8.99     269      510.7
   08/08/2016 13:50      87.6      86.6       42     60.8      0.00      0.00      86.4     0.51      1009.0     5        27         6       357        9.00     269      516.8
   08/08/2016 13:40      86.5      85.1       43     60.7      0.00      0.00      86.2     0.51      1009.0     4        69         8        66        9.00     269      526.4
   08/08/2016 13:30      86.0      85.3       43     60.7      0.00      0.00      86.4     0.50      1009.0     4        68         7        90        9.00     269      528.2
   08/08/2016 13:20      86.3      85.6       43     60.5      0.00      0.00      86.0     0.50      1009.0     4        28         7        73        9.00     270      529.5
   08/08/2016 13:10      85.8      84.8       43     60.4      0.00      0.00      85.9     0.50      1009.0     5         8         7         1        9.00     270      532.6
   08/08/2016 13:00      85.9      85.1       43     60.4      0.00      0.00      86.0     0.50      1009.0     4        13         7         8        9.01     270      533.5
   08/08/2016 12:50      84.9      84.2       45     60.5      0.00      0.00      86.1     0.50      1010.0     4        19         6        19        9.00     270      536.7
   08/08/2016 12:40      84.2      83.5       45     60.4      0.00      0.00      86.0     0.50      1010.0     3        43         5        53        9.00     270      540.4
   08/08/2016 12:30      84.0      83.0       46     60.5      0.00      0.00      86.0     0.50      1010.0     4        21         7       346        9.01     271      536.0
   08/08/2016 12:20      83.0      82.1       47     60.5      0.00      0.00      85.8     0.50      1010.0     3        54         5        73        9.01     271      532.3
   08/08/2016 12:10      83.2      81.5       47     60.2      0.00      0.00      85.8     0.51      1010.0     2        49         4        84        9.01     271      528.1
   08/08/2016 12:00      81.5      80.4       50     60.6      0.00      0.00      85.9     0.51      1010.0     4        29         7         6        9.01     271      523.8
   08/08/2016 11:50      80.8      79.9       51     60.8      0.00      0.00      85.9     0.51      1010.0     4        26         5        96        9.01     271      516.0
   08/08/2016 11:40      80.4      79.0       52     60.7      0.00      0.00      85.9     0.51      1010.0     3        43         5        78        9.01     272      509.3
   08/08/2016 11:30      80.1      78.5       53     60.8      0.00      0.00      86.1     0.51      1010.0     3        33         5        32        9.01     272      502.4
   08/08/2016 11:20      79.3      77.8       55     60.9      0.00      0.00      85.8     0.51      1010.0     2        38         4         6        9.01     272      496.4
   08/08/2016 11:10      78.2      77.3       55     60.5      0.00      0.00      85.7     0.51      1010.0     3        84         4       116        9.01     272      483.9
   08/08/2016 11:00      78.1      76.0       57     60.6      0.00      0.00      85.7     0.51      1010.0     4        34         6        30        9.01     274      473.4
   08/08/2016 10:50      75.8      75.3       59     60.3      0.00      0.00      85.9     0.51      1010.0     3        86         5       109        9.01     286      460.2
   08/08/2016 10:40      75.3      74.8       60     60.5      0.00      0.00      86.0     0.51      1010.0     2       257         4        30        9.01     298      447.3
   08/08/2016 10:30      75.0      73.8       61     60.3      0.00      0.00      86.0     0.51      1011.0     2        12         5        22        9.01     308      428.1
   08/08/2016 10:20      73.8      73.5       63     60.4      0.00      0.00      86.3     0.51      1010.0     3        32         6        83        9.01     315      414.8
   08/08/2016 10:10      73.5      72.2       65     60.4      0.00      0.00      86.1     0.51      1010.0     2        11         4        52        9.01     320      399.7
   08/08/2016 10:00      72.6      72.2       66     60.4      0.00      0.00      86.1     0.51      1010.0     3        28         5        70        9.01     323      372.6
   08/08/2016 09:50      72.6      70.3       68     60.3      0.00      0.00      85.9     0.51      1010.0     3        87         4        78        9.01     325      366.2
   08/08/2016 09:40      71.4      70.5       68     60.2      0.00      0.00      86.2     0.51      1010.0     3        94         5        84        9.01     327      345.6
   08/08/2016 09:30      71.3      70.8       69     60.3      0.00      0.00      86.2     0.51      1010.0     4        78         7        79        9.02     328      342.1
   08/08/2016 09:20      70.9      69.0       72     60.1      0.00      0.00      86.3     0.51      1010.0     4       140         7       171        9.02     331      387.0
   08/08/2016 09:10      69.0      67.9       75     60.1      0.00      0.00      86.5     0.52      1010.0     3       140         6       171        9.02     335      295.0
   08/08/2016 09:00      69.2      67.9       74     60.0      0.00      0.00      86.0     0.52      1010.0     3       161         5       183        9.02     338      171.8
   08/08/2016 08:50      68.9      68.2       74     60.0      0.00      0.00      86.2     0.52      1010.0     1        30         3       127        9.03     342      130.4
   08/08/2016 08:40      68.4      67.5       76     60.0      0.00      0.00      86.7     0.52      1010.0     1       123         2       104        9.02     344      123.7
   08/08/2016 08:30      67.4      66.8       78     59.9      0.00      0.00      86.4     0.52      1010.0     1       191         3       226        9.02     347      120.2
   08/08/2016 08:20      67.0      66.6       78     59.8      0.00      0.00      86.7     0.52      1010.0     2       323         3       317        9.02     350      105.0
   08/08/2016 08:10      66.9      66.1       79     59.9      0.00      0.00      86.3     0.52      1010.0     2       360         3       319        9.03     352       80.9
   08/08/2016 08:00      66.4      66.0       80     59.9      0.00      0.00      85.8     0.52      1010.0     2       327         3       354        9.03     353       61.9
   08/08/2016 07:50      66.1      65.5       81     59.8      0.00      0.00      86.6     0.52      1010.0     1        87         2        97        9.03     354       46.5
   08/08/2016 07:40      65.6      65.2       82     59.8      0.00      0.00      87.0     0.52      1010.0     2        87         3        79        9.03     354       38.6
   08/08/2016 07:30      65.5      65.2       82     59.8      0.00      0.00      86.3     0.52      1010.0     2        96         3        77        9.03     354       29.5
   08/08/2016 07:20      65.5      65.2       82     59.8      0.00      0.00      86.8     0.52      1010.0     1       136         3       108        9.03     353       20.6
   08/08/2016 07:10      65.2      64.9       83     59.8      0.00      0.00      86.6     0.52      1010.0     1       124         2       158        9.03     354       11.0
   08/08/2016 07:00      65.1      64.8       84     59.8      0.00      0.00      86.4     0.52      1010.0     1       124         2       199        9.03     354        3.5
   08/08/2016 06:50      64.9      64.5       84     59.7      0.00      0.00      86.4     0.52      1010.0     2       138         3       143        9.03     353       -3.3
   08/08/2016 06:40      64.9      64.6       84     59.7      0.00      0.00      86.7     0.52      1010.0     2       124         3       109        9.03     353       -7.9
   08/08/2016 06:30      64.9      64.5       84     59.6      0.00      0.00      86.9     0.52      1010.0     1       155         2       146        9.03     352      -11.6
   08/08/2016 06:20      64.7      64.3       84     59.5      0.00      0.00      86.8     0.52      1010.0     1        26         2        82        9.03     351      -14.0
   08/08/2016 06:10      64.7      64.3       83     59.4      0.00      0.00      86.9     0.52      1010.0     1       101         3        64        9.03     352      -15.4
   08/08/2016 06:00      64.9      64.6       83     59.5      0.00      0.00      86.8     0.52      1010.0     2        29         3         4        9.03     351      -16.1
   08/08/2016 05:50      64.9      64.7       83     59.5      0.00      0.00      87.1     0.52      1010.0     2        30         4        41        9.03     350      -16.0
   08/08/2016 05:40      64.9      64.7       84     59.7      0.00      0.00      86.4     0.52      1010.0     1        50         3        60        9.03     351      -15.8
   08/08/2016 05:30      64.9      64.4       84     59.8      0.00      0.00      86.8     0.52      1010.0     1        29         1        12        9.03     351      -15.9
   08/08/2016 05:20      64.5      64.3       85     59.6      0.00      0.00      87.1     0.52      1010.0     1       268         2       157        9.03     352      -15.7
   08/08/2016 05:10      64.5      64.3       85     59.7      0.00      0.00      87.5     0.52      1010.0     1        28         2        80        9.03     351      -15.7
   08/08/2016 05:00      64.8      64.3       85     59.7      0.00      0.00      86.8     0.52      1010.0     2        87         4       105        9.03     352      -15.6
   08/08/2016 04:50      65.0      64.5       85     60.0      0.00      0.00      86.9     0.52      1010.0     2        41         3        91        9.03     352      -15.4
   08/08/2016 04:40      64.5      64.3       85     59.8      0.00      0.00      87.2     0.52      1009.0     1        20         2        33        9.03     354      -15.6
   08/08/2016 04:30      64.3      64.2       86     59.9      0.00      0.00      87.1     0.52      1009.0     3       121         4        61        9.03     355      -15.3
   08/08/2016 04:20      64.4      64.2       86     59.9      0.00      0.00      87.9     0.52      1009.0     2        85         3        71        9.03     355      -15.7
   08/08/2016 04:10      64.3      64.2       86     59.9      0.00      0.00      87.4     0.52      1009.0     1        15         1        63        9.03     354      -15.4
   08/08/2016 04:00      64.5      64.3       86     60.0      0.00      0.00      87.4     0.52      1010.0     2        65         4        83        9.03     355      -15.8
   08/08/2016 03:50      64.5      64.2       86     60.0      0.00      0.00      87.6     0.52      1010.0     2       106         4        74        9.03     356      -16.6
   08/08/2016 03:40      64.3      64.0       85     59.5      0.00      0.00      88.2     0.52      1010.0     2       103         3        86        9.03     357      -17.6
   08/08/2016 03:30      64.0      63.6       85     59.1      0.00      0.00      87.7     0.52      1010.0     1       123         1        72        9.03     356      -17.2
   08/08/2016 03:20      63.7      63.3       84     58.6      0.00      0.00      87.9     0.52      1010.0     1       174         1       180        9.04     357      -17.9
   08/08/2016 03:10      63.4      62.8       85     58.4      0.00      0.00      87.9     0.52      1010.0     1       182         2       170        9.04     357      -17.4
   08/08/2016 03:00      62.8      62.4       85     58.2      0.00      0.00      87.4     0.52      1010.0     1       180         1       207        9.04     358      -16.8
   08/08/2016 02:50      62.5      61.7       86     57.8      0.00      0.00      87.5     0.52      1010.0     1       191         1       168        9.04     358      -15.9
   08/08/2016 02:40      61.7      61.1       88     57.7      0.00      0.00      87.3     0.52      1010.0     0       125         1       149        9.04     356      -13.2
   08/08/2016 02:30      61.3      61.0       88     57.6      0.00      0.00      87.7     0.52      1010.0     1       161         1       154        9.04     353      -17.1
   08/08/2016 02:20      61.1      61.0       89     57.7      0.00      0.00      87.7     0.52      1010.0     2       158         3       167        9.04     350      -35.0
   08/08/2016 02:10      61.5      61.0       89     57.8      0.00      0.00      87.8     0.52      1010.0     1       132         2       140        9.04     347      -41.8
   08/08/2016 02:00      62.0      61.4       88     58.1      0.00      0.00      88.1     0.52      1010.0     1       120         1       107        9.04     343      -43.9
   08/08/2016 01:50      62.9      62.2       87     58.7      0.00      0.00      87.8     0.52      1010.0     1       113         1        86        9.04     338      -43.9
   08/08/2016 01:40      63.0      62.8       87     59.1      0.00      0.00      87.8     0.52      1010.0     1        81         2        78        9.04     332      -46.1
   08/08/2016 01:30      63.4      62.9       86     59.1      0.00      0.00      87.9     0.52      1010.0     1        99         1        71        9.04     329      -47.3
   08/08/2016 01:20      63.9      63.4       86     59.5      0.00      0.00      87.7     0.52      1010.0     1        88         2        88        9.04     324      -48.0
   08/08/2016 01:10      64.0      63.8       86     59.6      0.00      0.00      88.2     0.52      1010.0     1        75         2        49        9.04     320      -48.6
   08/08/2016 01:00      64.3      64.0       86     59.7      0.00      0.00      87.9     0.52      1010.0     2        61         4        84        9.05     317      -50.9
   08/08/2016 00:50      64.5      64.3       85     59.8      0.00      0.00      88.3     0.52      1010.0     1        50         2        34        9.05     314      -52.3
   08/08/2016 00:40      64.4      63.9       86     59.9      0.00      0.00      88.0     0.52      1010.0     2        47         2        36        9.05     311      -54.0
   08/08/2016 00:30      64.1      63.8       86     59.8      0.00      0.00      88.0     0.52      1010.0     1        76         2        49        9.05     308      -56.6
   08/08/2016 00:20      64.3      64.0       87     60.0      0.00      0.00      88.1     0.52      1010.0     1        66         1       102        9.05     305      -59.3
   08/08/2016 00:10      64.4      64.2       86     60.1      0.00      0.00      87.9     0.52      1010.0     1        84         2        77        9.05     301      -60.8
   08/08/2016 00:00      64.8      64.5       86     60.4      0.00      0.00      88.2     0.52      1010.0     1        79         2        74        9.05     298      -63.0
   08/07/2016 23:50      65.0      64.8       86     60.5      0.00      0.00      88.1     0.52      1010.0     1        75         1        54        9.05     295      -66.2
   08/07/2016 23:40      65.0      64.8       86     60.5      0.00      0.00      87.9     0.52      1010.0     1       102         2        94        9.05     292      -70.3
   08/07/2016 23:30      65.3      65.0       85     60.6      0.00      0.00      88.1     0.52      1009.0     1        90         2        82        9.05     290      -72.8
   08/07/2016 23:20      65.5      65.2       84     60.5      0.00      0.00      88.4     0.52      1009.0     1        86         2        75        9.05     287      -74.4
   08/07/2016 23:10      65.7      65.5       83     60.4      0.00      0.00      88.6     0.52      1009.0     2        79         3        88        9.06     285      -76.0
   08/07/2016 23:00      66.3      66.0       82     60.4      0.00      0.00      88.2     0.52      1009.0     1        77         2       104        9.06     283      -76.9
   08/07/2016 22:50      66.7      66.3       81     60.5      0.00      0.00      88.2     0.52      1009.0     2        68         3        91        9.06     281      -76.4
   08/07/2016 22:40      67.1      66.7       80     60.5      0.00      0.00      88.8     0.52      1009.0     2        64         3        62        9.06     280      -76.7
   08/07/2016 22:30      67.4      67.2       79     60.5      0.00      0.00      88.6     0.52      1009.0     1        43         3         1        9.06     278      -77.1
   08/07/2016 22:20      67.6      67.3       78     60.6      0.00      0.00      88.3     0.52      1009.0     2        47         3        39        9.06     277      -77.6
   08/07/2016 22:10      68.0      67.6       78     60.5      0.00      0.00      88.4     0.52      1009.0     2        26         2        18        9.06     275      -77.8
   08/07/2016 22:00      68.3      67.9       77     60.5      0.00      0.00      88.5     0.52      1009.0     3        38         4        25        9.07     273      -78.4
   08/07/2016 21:50      68.6      68.4       76     60.6      0.00      0.00      88.4     0.52      1009.0     2        44         4        39        9.07     272      -78.8
   08/07/2016 21:40      68.9      68.6       75     60.7      0.00      0.00      88.4     0.52      1009.0     2        66         4        72        9.07     272      -79.0
   08/07/2016 21:30      69.6      69.0       74     60.7      0.00      0.00      88.7     0.52      1009.0     3        63         5        80        9.07     271      -79.7
   08/07/2016 21:20      70.2      69.8       72     60.7      0.00      0.00      88.5     0.52      1009.0     3        43         4        48        9.08     269      -81.7
   08/07/2016 21:10      70.5      70.2       71     60.6      0.00      0.00      88.7     0.52      1009.0     3        46         4        36        9.08     269      -82.6
   08/07/2016 21:00      71.3      70.5       70     60.5      0.00      0.00      88.3     0.52      1009.0     3        59         5        73        9.08     268      -82.4
   08/07/2016 20:50      71.7      71.4       68     60.4      0.00      0.00      88.2     0.52      1009.0     3        56         5        88        9.08     268      -83.8
   08/07/2016 20:40      72.3      71.7       67     60.4      0.00      0.00      88.5     0.52      1008.0     2        32         3        31        9.08     266      -84.9
   08/07/2016 20:30      72.7      72.3       65     60.3      0.00      0.00      88.6     0.52      1008.0     2        45         4        55        9.09     266      -86.1
   08/07/2016 20:20      73.4      72.7       64     60.4      0.00      0.00      88.3     0.52      1008.0     3        40         4        60        9.09     266      -87.0
   08/07/2016 20:10      74.3      73.5       63     60.4      0.00      0.00      88.1     0.52      1008.0     3        57         5        76        9.09     266      -88.3
   08/07/2016 20:00      75.3      74.4       61     60.5      0.00      0.00      88.3     0.52      1008.0     3        39         5        11        9.10     266      -88.3
   08/07/2016 19:50      75.8      75.6       59     60.5      0.00      0.00      88.3     0.52      1008.0     3        46         4        62        9.10     266      -86.7
   08/07/2016 19:40      76.9      76.0       58     60.4      0.00      0.00      88.2     0.52      1008.0     3        60         6        85        9.10     268      -83.5
   08/07/2016 19:30      77.9      77.1       56     60.5      0.00      0.00      88.4     0.52      1008.0     3        53         5        67        9.10     268      -80.5
   08/07/2016 19:20      79.8      78.2       53     60.5      0.00      0.00      88.4     0.52      1008.0     3        35         4        20        9.11     268      -65.1
   08/07/2016 19:10      81.4      80.1       50     60.6      0.00      0.00      88.2     0.52      1008.0     3        42         3        15        9.11     269      -47.2
   08/07/2016 19:00      82.4      81.4       48     60.4      0.00      0.00      88.0     0.52      1008.0     3        47         4        71        9.11     269      -26.1
   08/07/2016 18:50      82.6      82.3       47     60.5      0.00      0.00      88.4     0.52      1007.0     2        37         4        16        9.11     269       -4.5
   08/07/2016 18:40      83.4      82.6       47     60.6      0.00      0.00      88.1     0.52      1007.0     3        48         7        61        9.12     268       16.2
   08/07/2016 18:30      84.5      83.8       46     60.9      0.00      0.00      88.1     0.52      1007.0     3        44         6        37        9.11     269       36.4
   08/07/2016 18:20      85.2      84.6       44     60.7      0.00      0.00      88.2     0.52      1007.0     3        29         5        38        9.11     268       58.0
   08/07/2016 18:10      86.6      85.4       43     60.8      0.00      0.00      87.9     0.52      1007.0     3        46         4        76        9.11     269       80.8
   08/07/2016 18:00      86.9      86.6       41     60.4      0.00      0.00      87.8     0.52      1007.0     3        53         6        71        9.11     269      105.9
   08/07/2016 17:50      88.6      86.9       40     60.5      0.00      0.00      88.0     0.52      1007.0     3        28         5        30        9.11     269      128.3
   08/07/2016 17:40      90.2      88.9       32     55.9      0.00      0.00      87.7     0.52      1007.0     4       346         7       331        9.11     268      152.0
   08/07/2016 17:30      90.6      90.2       27     51.8      0.00      0.00      87.9     0.52      1007.0     5       350         7        22        9.11     268      173.1
   08/07/2016 17:20      91.2      90.6       27     52.2      0.00      0.00      87.8     0.52      1007.0     6       341         8       348        9.11     268      194.1
   08/07/2016 17:10      91.1      90.1       32     56.3      0.00      0.00      87.7     0.52      1007.0     4       347         7       322        9.12     268      216.3
   08/07/2016 17:00      90.3      89.4       38     60.5      0.00      0.00      87.6     0.52      1007.0     3        33         4        22        9.11     268      240.5
   08/07/2016 16:50      91.1      90.2       36     60.0      0.00      0.00      87.4     0.52      1007.0     4         7         6       359        9.12     269      261.0
   08/07/2016 16:40      91.2      89.7       37     60.4      0.00      0.00      87.4     0.52      1007.0     3        31         5       346        9.11     269      280.7
   08/07/2016 16:30      90.1      89.5       38     60.4      0.00      0.00      87.4     0.52      1007.0     3        56         5        50        9.11     269      301.5
   08/07/2016 16:20      90.6      90.1       37     60.8      0.00      0.00      87.4     0.52      1008.0     4        49         6        60        9.12     269      321.4
   08/07/2016 16:10      90.5      89.8       38     60.8      0.00      0.00      87.4     0.52      1008.0     3        27         4        38        9.12     268      337.3
   08/07/2016 16:00      89.9      89.5       39     61.1      0.00      0.00      87.3     0.52      1008.0     3        40         4        35        9.12     269      359.7
   08/07/2016 15:50      90.4      89.1       39     61.3      0.00      0.00      87.2     0.52      1008.0     3        43         6        35        9.12     269      376.0
   08/07/2016 15:40      90.5      89.8       39     61.5      0.00      0.00      87.0     0.52      1008.0     5        36         7        57        9.12     269      393.6
   08/07/2016 15:30      91.2      89.8       39     61.8      0.00      0.00      86.7     0.51      1008.0     4        44         5        40        9.12     269      408.8
   08/07/2016 15:20      91.5      89.1       39     61.8      0.00      0.00      86.9     0.51      1008.0     4        26         6        22        9.12     269      424.9
   08/07/2016 15:10      91.4      90.3       38     61.8      0.00      0.00      87.0     0.51      1008.0     5        37         7        67        9.12     269      438.7
   08/07/2016 15:00      91.2      90.4       38     61.7      0.00      0.00      86.9     0.51      1008.0     4        43         7        36        9.12     269      447.5
   08/07/2016 14:50      91.0      90.1       38     61.5      0.00      0.00      86.8     0.51      1008.0     5        61         7        86        9.12     270      461.7
   08/07/2016 14:40      91.9      91.4       37     61.3      0.00      0.00      86.5     0.51      1008.0     4        67         5       110        9.12     270      473.6
   08/07/2016 14:30      91.9      90.7       37     61.3      0.00      0.00      86.7     0.51      1008.0     3        39         7        74        9.12     270      485.3
   08/07/2016 14:20      91.1      90.6       37     60.9      0.00      0.00      86.7     0.51      1008.0     3        56         5        24        9.12     270      495.3
   08/07/2016 14:10      91.4      90.6       37     60.9      0.00      0.00      86.5     0.51      1008.0     4        54         7        81        9.12     270      501.1
   08/07/2016 14:00      92.0      90.4       37     60.9      0.00      0.00      86.5     0.51      1008.0     3        49         5        58        9.12     271      506.4
   08/07/2016 13:50      90.7      88.9       38     60.7      0.00      0.00      86.4     0.51      1008.0     3        57         5       106        9.12     271      520.2
   08/07/2016 13:40      89.7      88.8       38     60.6      0.00      0.00      86.5     0.51      1008.0     4        79         7        91        9.12     270      525.9
   08/07/2016 13:30      89.8      89.1       38     60.4      0.00      0.00      86.5     0.51      1008.0     3        58         4       107        9.12     271      529.3
   08/07/2016 13:20      89.7      88.8       38     60.2      0.00      0.00      86.3     0.51      1009.0     3        46         6        33        9.12     272      533.6
   08/07/2016 13:10      88.8      87.6       39     59.9      0.00      0.00      86.1     0.51      1009.0     2         9         7        29        9.12     273      538.0
   08/07/2016 13:00      88.8      87.1       40     60.3      0.00      0.00      86.4     0.51      1009.0     4        72         9        80        9.12     276      539.5
   08/07/2016 12:50      89.0      88.0       38     59.9      0.00      0.00      86.2     0.51      1009.0     4        38         8        78        9.12     286      536.1
   08/07/2016 12:40      88.2      86.5       38     58.9      0.00      0.00      86.3     0.51      1009.0     3        55         4        37        9.12     298      539.2
   08/07/2016 12:30      87.4      86.6       39     58.9      0.00      0.00      86.2     0.51      1009.0     3        34         6        24        9.12     311      534.6
   08/07/2016 12:20      87.6      86.0       40     59.4      0.00      0.00      86.0     0.51      1009.0     3         1         6         5        9.12     325      532.0
   08/07/2016 12:10      86.8      84.3       41     59.4      0.00      0.00      86.4     0.51      1009.0     3        36         5        74        9.12     331      529.7
   08/07/2016 12:00      84.9      84.0       42     59.2      0.00      0.00      86.1     0.51      1009.0     3         4         4        13        9.11     335      526.7
   08/07/2016 11:50      84.9      84.1       43     59.8      0.00      0.00      86.3     0.51      1009.0     3       353         5        25        9.11     339      522.7
   08/07/2016 11:40      84.2      81.3       46     59.8      0.00      0.00      86.2     0.51      1009.0     2        29         4        15        9.11     343      515.8
   08/07/2016 11:30      81.2      80.4       48     59.5      0.00      0.00      86.2     0.51      1010.0     3        10         5         0        9.12     346      511.1
   08/07/2016 11:20      80.2      79.8       50     59.5      0.00      0.00      86.0     0.51      1010.0     2        18         3         3        9.12     349      500.0
   08/07/2016 11:10      79.9      78.3       51     59.8      0.00      0.00      86.3     0.51      1010.0     3       309         4       323        9.12     354      492.1
   08/07/2016 11:00      78.8      77.9       53     59.7      0.00      0.00      86.1     0.51      1010.0     2       357         4       336        9.12     364      480.2
   08/07/2016 10:50      78.1      76.8       55     59.9      0.00      0.00      86.3     0.51      1010.0     3       318         4       318        9.11     370      467.3
   08/07/2016 10:40      77.3      75.2       57     59.9      0.00      0.00      86.1     0.52      1010.0     3       329         5       322        9.11     382      458.3
   08/07/2016 10:30      75.8      74.9       59     59.9      0.00      0.00      86.7     0.52      1010.0     3         4         5       341        9.11     392      444.3
   08/07/2016 10:20      74.6      73.8       61     59.8      0.00      0.00      86.4     0.52      1010.0     3        50         3        85        9.11     401      428.4
   08/07/2016 10:10      73.9      72.5       63     59.8      0.00      0.00      86.9     0.52      1010.0     2        25         4         9        9.11     406      413.0
   08/07/2016 10:00      73.4      72.2       63     59.7      0.00      0.00      86.2     0.52      1010.0     2        58         3        33        9.11     409      397.0
   08/07/2016 09:50      72.8      71.8       64     59.7      0.00      0.00      86.9     0.52      1010.0     2         8         3        43        9.11     410      383.2
   08/07/2016 09:40      72.0      69.7       67     59.5      0.00      0.00      86.8     0.52      1010.0     2       336         2       353        9.11     409      364.8
   08/07/2016 09:30      69.5      68.7       71     59.3      0.00      0.00      86.5     0.52      1010.0     2       253         4       222        9.11     407      345.6
   08/07/2016 09:20      68.6      67.9       73     59.3      0.00      0.00      86.2     0.52      1010.0     2       276         4       228        9.11     406      321.9
   08/07/2016 09:10      68.4      67.4       73     59.3      0.00      0.00      86.8     0.52      1010.0     2       300         4       265        9.11     405      312.8
   08/07/2016 09:00      67.4      66.1       77     59.2      0.00      0.00      86.4     0.52      1010.0     1       335         3       340        9.11     392      338.2
   08/07/2016 08:50      66.1      65.3       80     59.2      0.00      0.00      86.8     0.52      1011.0     2       341         3       353        8.23     269      120.3
   08/07/2016 08:40      65.3      64.9       81     59.2      0.00      0.00      86.4     0.52      1011.0     2       281         4       358        8.23     269      121.3
   08/07/2016 08:30      65.5      64.7       82     59.3      0.00      0.00      86.6     0.52      1011.0     2       359         3       315        8.24     269       92.6
   08/07/2016 08:20      64.7      64.1       83     59.2      0.00      0.00      86.9     0.52      1011.0     2       347         3        33        8.24     269       87.7
   08/07/2016 08:10      64.2      63.3       85     59.1      0.00      0.00      86.5     0.52      1011.0     1       204         3       220        8.24     269       69.1
   08/07/2016 08:00      63.5      63.3       86     59.0      0.00      0.00      86.8     0.52      1010.0     2       249         2       244        8.24     269       52.1
   08/07/2016 07:50      63.5      62.9       87     59.1      0.00      0.00      87.0     0.52      1010.0     2       319         3       317        8.24     269       40.6
   08/07/2016 07:40      62.9      62.4       88     59.0      0.00      0.00      87.1     0.52      1010.0     1       213         2       320        8.24     269       31.4
   08/07/2016 07:30      62.6      62.2       88     58.9      0.00      0.00      87.2     0.52      1011.0     2       166         3       203        8.24     269       24.0
   08/07/2016 07:20      63.0      62.6       87     58.8      0.00      0.00      86.7     0.52      1011.0     2       150         3       161        8.24     269       11.8
   08/07/2016 07:10      62.8      62.6       87     58.8      0.00      0.00      86.6     0.52      1011.0     1        58         2        65        8.24     269        4.8
   08/07/2016 07:00      62.7      62.4       88     58.8      0.00      0.00      87.5     0.52      1010.0     1        85         2       120        8.24     269       -0.8
   08/07/2016 06:50      62.6      62.3       88     58.8      0.00      0.00      87.1     0.52      1010.0     2        88         3       127        8.24     269       -4.6
   08/07/2016 06:40      62.5      62.2       88     58.9      0.00      0.00      87.5     0.52      1010.0     2        75         3        57        8.24     269       -9.3
   08/07/2016 06:30      62.2      61.8       89     58.8      0.00      0.00      87.3     0.52      1010.0     1       182         1       177        8.24     269      -12.2
   08/07/2016 06:20      62.0      61.7       90     58.8      0.00      0.00      86.9     0.52      1010.0     2       164         3       159        8.24     268      -14.2
   08/07/2016 06:10      62.0      61.8       89     58.7      0.00      0.00      87.2     0.52      1010.0     2       160         4       142        8.24     269      -15.1
   08/07/2016 06:00      62.2      62.0       89     58.8      0.00      0.00      87.5     0.52      1010.0     2       142         3       163        8.24     269      -15.8
   08/07/2016 05:50      62.3      61.9       89     58.7      0.00      0.00      87.5     0.52      1010.0     2       168         3        94        8.25     269      -16.2
   08/07/2016 05:40      62.3      62.1       88     58.8      0.00      0.00      87.1     0.52      1010.0     2       127         3       131        8.25     268      -16.3
   08/07/2016 05:30      62.4      62.2       88     58.7      0.00      0.00      87.6     0.52      1010.0     1        55         2        67        8.25     269      -16.7
   08/07/2016 05:20      62.6      62.2       88     58.7      0.00      0.00      87.5     0.52      1010.0     2       103         3       126        8.25     268      -16.6
   08/07/2016 05:10      62.4      62.2       88     58.7      0.00      0.00      87.8     0.52      1010.0     1        82         3        68        8.25     269      -16.4
   08/07/2016 05:00      62.6      62.3       88     58.7      0.00      0.00      87.6     0.52      1010.0     2        87         2        90        8.25     268      -16.8
   08/07/2016 04:50      62.6      62.4       88     58.8      0.00      0.00      87.6     0.52      1010.0     1         9         2        22        8.25     268      -16.7
   08/07/2016 04:40      62.8      62.6       87     58.8      0.00      0.00      87.6     0.52      1010.0     2        50         3        74        8.25     269      -17.2
   08/07/2016 04:30      62.9      62.7       87     58.8      0.00      0.00      87.7     0.52      1010.0     2        28         3        23        8.25     268      -17.5
   08/07/2016 04:20      63.0      62.4       87     58.7      0.00      0.00      87.9     0.52      1010.0     2        39         3        73        8.25     268      -17.1
   08/07/2016 04:20      63.0      62.4       87     58.7      0.00      0.00      87.9     0.52      1010.0     2        39         3        73        8.25     268      -17.1
   08/07/2016 04:10      62.6      62.3       87     58.6      0.00      0.00      88.1     0.52      1010.0     3       131         3       181        8.25     268      -16.9
   08/07/2016 04:00      62.5      62.2       88     58.6      0.00      0.00      87.5     0.52      1010.0     2       123         4        97        8.25     268      -16.6
   08/07/2016 03:50      62.5      62.3       87     58.6      0.00      0.00      87.7     0.52      1010.0     2       116         3       130        8.25     268      -17.3
   08/07/2016 03:40      62.4      62.3       87     58.4      0.00      0.00      87.6     0.52      1010.0     2       129         3       118        8.25     268      -17.8
   08/07/2016 03:30      62.6      62.5       86     58.3      0.00      0.00      87.3     0.52      1010.0     2       141         4       126        8.25     268      -18.2
   08/07/2016 03:20      62.9      62.7       86     58.6      0.00      0.00      88.3     0.52      1010.0     2        65         3        88        8.25     268      -20.4
   08/07/2016 03:10      62.9      62.5       87     58.8      0.00      0.00      87.7     0.52      1010.0     2        51         5        80        8.25     268      -21.5
   08/07/2016 03:00      63.2      62.7       87     59.1      0.00      0.00      87.9     0.52      1010.0     3       103         5        98        8.26     268      -17.8
   08/07/2016 02:50      63.5      63.4       86     59.3      0.00      0.00      87.7     0.52      1010.0     3       100         4        74        8.26     268      -17.0
   08/07/2016 02:40      63.5      63.2       87     59.4      0.00      0.00      87.6     0.53      1010.0     2        60         3        78        8.26     268      -17.1
   08/07/2016 02:30      63.5      63.2       87     59.4      0.00      0.00      88.0     0.52      1010.0     3        93         6       127        8.26     268      -16.9
   08/07/2016 02:20      63.4      63.0       87     59.5      0.00      0.00      88.4     0.53      1010.0     3        87         4        98        8.26     268      -17.7
   08/07/2016 02:10      63.3      63.0       87     59.4      0.00      0.00      88.2     0.53      1011.0     2        85         4        82        8.26     268      -18.7
   08/07/2016 02:00      63.5      63.2       87     59.4      0.00      0.00      88.0     0.53      1011.0     2        62         3        45        8.26     268      -21.1
   08/07/2016 01:50      63.5      63.1       88     59.5      0.00      0.00      88.2     0.53      1011.0     2        62         3        86        8.26     268      -20.1
   08/07/2016 01:40      63.4      63.2       87     59.4      0.00      0.00      87.9     0.53      1011.0     2        33         4        64        8.26     268      -17.7
   08/07/2016 01:30      63.5      63.4       87     59.4      0.00      0.00      88.0     0.53      1011.0     2        28         3        41        8.27     268      -23.8
   08/07/2016 01:20      63.8      63.5       86     59.4      0.00      0.00      88.3     0.53      1011.0     2        47         3        67        8.27     268      -37.4
   08/07/2016 01:10      63.9      63.5       86     59.4      0.00      0.00      88.1     0.53      1011.0     2        49         3        47        8.27     267      -36.5
   08/07/2016 01:00      63.8      63.7       85     59.3      0.00      0.00      88.6     0.53      1011.0     2        50         3        66        8.27     267      -57.7
   08/07/2016 00:50      64.3      64.0       85     59.4      0.00      0.00      88.1     0.53      1011.0     1        70         2       352        8.28     267      -68.7
   08/07/2016 00:40      64.6      64.2       84     59.4      0.00      0.00      87.9     0.53      1011.0     2        81         3        77        8.28     267      -69.0
   08/07/2016 00:30      64.8      64.5       84     59.6      0.00      0.00      88.4     0.53      1011.0     1        54         2        14        8.29     267      -69.9
   08/07/2016 00:20      64.9      64.8       83     59.7      0.00      0.00      88.5     0.53      1011.0     1        55         2        56        8.29     267      -70.6
   08/07/2016 00:10      65.0      64.8       83     59.7      0.00      0.00      88.5     0.53      1011.0     2        72         4        83        8.29     267      -71.1
   08/07/2016 00:00      65.2      65.0       83     59.7      0.00      0.00      88.2     0.53      1011.0     3        81         4        85        8.30     267      -71.1
   08/06/2016 23:50      65.4      65.2       82     59.6      0.00      0.00      88.7     0.53      1011.0     2        91         3        75        8.30     267      -71.7
   08/06/2016 23:40      65.8      65.4       81     59.6      0.00      0.00      88.5     0.53      1011.0     2        93         3       100        8.30     267      -72.0
   08/06/2016 23:30      66.1      65.7       79     59.5      0.00      0.00      88.7     0.53      1010.0     2        80         3        88        8.30     267      -72.3
   08/06/2016 23:20      66.5      66.1       79     59.5      0.00      0.00      88.3     0.53      1010.0     1        58         3        84        8.31     267      -73.0
   08/06/2016 23:10      66.6      66.3       78     59.4      0.00      0.00      88.7     0.53      1010.0     2        74         3        78        8.31     267      -73.1
   08/06/2016 23:00      67.0      66.7       77     59.4      0.00      0.00      88.7     0.53      1010.0     2        92         3        97        8.31     267      -73.0
   08/06/2016 22:50      67.5      67.2       75     59.3      0.00      0.00      88.4     0.53      1010.0     2        81         2       108        8.31     267      -74.1
   08/06/2016 22:40      67.9      67.6       74     59.3      0.00      0.00      88.6     0.53      1010.0     2        80         3        82        8.31     267      -74.4
   08/06/2016 22:30      68.4      68.1       73     59.2      0.00      0.00      88.3     0.53      1010.0     2        65         4       103        8.32     266      -75.3
   08/06/2016 22:20      68.9      68.6       71     59.1      0.00      0.00      88.6     0.53      1010.0     2        67         3        82        8.32     266      -76.2
   08/06/2016 22:10      69.2      68.9       71     59.2      0.00      0.00      88.5     0.53      1010.0     1        47         2        90        8.32     266      -77.4
   08/06/2016 22:00      69.3      69.1       70     59.1      0.00      0.00      88.6     0.53      1010.0     2        41         3        78        8.32     266      -78.4
   08/06/2016 21:50      69.7      69.4       70     59.2      0.00      0.00      88.8     0.53      1010.0     2        62         3        87        8.32     266      -79.2
   08/06/2016 21:40      70.1      69.8       69     59.3      0.00      0.00      88.4     0.53      1010.0     2        54         3        59        8.32     266      -80.4
   08/06/2016 21:30      70.8      70.2       68     59.4      0.00      0.00      88.6     0.53      1010.0     2        64         3        69        8.32     266      -80.9
   08/06/2016 21:20      71.3      71.0       67     59.5      0.00      0.00      88.3     0.53      1009.0     2        26         3        45        8.32     266      -81.5
   08/06/2016 21:10      71.6      71.3       66     59.5      0.00      0.00      88.6     0.53      1009.0     2        50         3        72        8.32     265      -82.3
   08/06/2016 21:00      72.2      71.6       65     59.6      0.00      0.00      88.5     0.53      1009.0     2        95         3        66        8.32     265      -82.6
   08/06/2016 20:50      73.0      72.2       64     59.5      0.00      0.00      88.6     0.53      1009.0     2        88         4       103        8.33     265      -83.9
   08/06/2016 20:40      73.6      73.0       62     59.5      0.00      0.00      88.7     0.52      1009.0     2        72         2        72        8.33     265      -84.8
   08/06/2016 20:30      74.4      73.8       61     59.6      0.00      0.00      88.5     0.52      1009.0     2        56         3        54        8.33     265      -86.1
   08/06/2016 20:20      75.2      74.4       59     59.6      0.00      0.00      88.6     0.53      1009.0     2        56         3        86        8.33     265      -87.3
   08/06/2016 20:10      77.1      75.3       54     58.6      0.00      0.00      88.3     0.53      1008.0     2        43         4        74        8.33     265      -88.4
   08/06/2016 20:00      78.4      77.2       49     56.8      0.00      0.00      88.4     0.52      1008.0     2       235         3       263        8.33     264      -88.4
   08/06/2016 19:50      79.5      78.5       47     56.8      0.00      0.00      88.5     0.52      1008.0     2       232         3       218        8.33     265      -87.4
   08/06/2016 19:40      80.2      79.6       45     56.6      0.00      0.00      88.4     0.52      1008.0     2       258         4       244        8.33     264      -83.7
   08/06/2016 19:30      81.5      80.4       44     56.7      0.00      0.00      88.3     0.52      1008.0     2       251         5       245        8.33     264      -80.9
   08/06/2016 19:20      81.9      81.4       41     55.9      0.00      0.00      88.4     0.52      1008.0     3       306         5       323        8.34     264      -62.9
   08/06/2016 19:10      82.4      81.9       40     55.8      0.00      0.00      88.3     0.52      1008.0     4       324         6       328        8.34     264      -45.1
   08/06/2016 19:00      83.2      82.5       40     55.8      0.00      0.00      88.2     0.52      1008.0     4       324         7       324        8.34     264      -23.9
   08/06/2016 18:50      84.0      82.9       39     55.8      0.00      0.00      88.1     0.52      1008.0     6       318         8       316        8.34     264        0.2
   08/06/2016 18:40      85.0      84.1       38     55.9      0.00      0.00      88.0     0.52      1008.0     5       320         7       312        8.35     264       21.6
   08/06/2016 18:30      85.4      84.9       37     55.9      0.00      0.00      87.9     0.52      1008.0     5       323         8       338        8.36     264       42.0
   08/06/2016 18:20      86.3      85.6       36     56.0      0.00      0.00      87.9     0.52      1008.0     6       307         9       276        8.36     265       62.8
   08/06/2016 18:10      86.2      85.7       36     56.0      0.00      0.00      88.0     0.52      1008.0     4       299         6       302        8.37     264       87.2
   08/06/2016 18:00      87.1      86.1       36     56.3      0.00      0.00      87.9     0.52      1008.0     5       313        10       300        8.38     265      109.9
   08/06/2016 17:50      87.8      87.2       35     56.8      0.00      0.00      87.8     0.52      1008.0     6       321        10       333        8.38     265      132.3
   08/06/2016 17:40      88.5      87.5       35     57.3      0.00      0.00      87.9     0.52      1008.0     5       334         7       325        8.38     265      155.1
   08/06/2016 17:30      89.6      88.3       36     58.3      0.00      0.00      87.5     0.52      1008.0     5       330         8       321        8.39     265      176.3
   08/06/2016 17:20      89.8      89.2       38     60.2      0.00      0.00      87.6     0.52      1008.0     3       348         7         5        8.39     264      199.0
   08/06/2016 17:10      89.9      88.3       38     60.2      0.00      0.00      87.6     0.52      1008.0     3         0         4         9        8.39     264      220.4
   08/06/2016 17:00      90.0      89.4       38     60.5      0.00      0.00      87.6     0.52      1008.0     4        37         7        69        8.40     265      242.9
   08/06/2016 16:50      89.7      89.2       38     60.5      0.00      0.00      87.4     0.52      1008.0     4        40         5        58        8.40     265      262.9
   08/06/2016 16:40      89.7      88.6       38     60.4      0.00      0.00      87.3     0.52      1008.0     4        43         6        71        8.41     265      280.0
   08/06/2016 16:30      91.0      89.6       37     60.5      0.00      0.00      87.2     0.52      1008.0     4        24         6       345        8.41     265      301.9
   08/06/2016 16:20      90.5      90.0       37     60.4      0.00      0.00      87.1     0.52      1008.0     4        30         7         3        8.41     265      321.0
   08/06/2016 16:10      90.6      89.8       37     60.5      0.00      0.00      87.1     0.52      1008.0     5        36         6        18        8.42     265      339.0
   08/06/2016 16:00      90.9      89.7       37     60.7      0.00      0.00      87.0     0.52      1008.0     4        27         6        36        8.42     265      359.0
   08/06/2016 15:50      90.6      89.7       38     60.7      0.00      0.00      87.0     0.52      1008.0     4        44         6        83        8.42     265      375.8
   08/06/2016 15:40      90.4      89.7       38     60.9      0.00      0.00      86.9     0.52      1008.0     3        44         5        55        8.43     265      391.8
   08/06/2016 15:30      90.6      90.0       38     61.1      0.00      0.00      86.9     0.52      1008.0     3        40         5        57        8.43     265      407.1
   08/06/2016 15:20      91.7      90.6       37     61.0      0.00      0.00      86.9     0.52      1008.0     4        43         7        75        8.43     265      418.8
   08/06/2016 15:10      91.2      89.8       37     60.9      0.00      0.00      86.8     0.52      1008.0     3        52         5        72        8.43     265      435.8
   08/06/2016 15:00      90.3      89.4       38     60.8      0.00      0.00      86.7     0.52      1008.0     3        55         5        34        8.43     265      451.3
   08/06/2016 14:50      91.0      90.0       37     61.0      0.00      0.00      86.8     0.52      1009.0     4        65         6        80        8.44     266      460.3
   08/06/2016 14:40      90.9      90.3       37     60.7      0.00      0.00      86.4     0.52      1009.0     4        35         6        64        8.44     266      469.6
   08/06/2016 14:30      91.0      89.5       37     60.6      0.00      0.00      86.5     0.51      1009.0     4        20         6         3        8.44     266      481.3
   08/06/2016 14:20      90.1      88.6       38     60.4      0.00      0.00      86.5     0.51      1009.0     4        51         8        25        8.44     266      493.4
   08/06/2016 14:10      89.0      88.2       39     60.4      0.00      0.00      86.4     0.51      1009.0     3        73         6       124        8.45     266      502.4
   08/06/2016 14:00      88.8      88.0       39     60.2      0.00      0.00      86.3     0.51      1009.0     3        51         4        17        8.45     266      508.1
   08/06/2016 13:50      89.0      87.6       38     59.4      0.00      0.00      86.5     0.51      1009.0     3       264         5       263        8.45     266      516.7
   08/06/2016 13:40      89.0      87.3       38     59.5      0.00      0.00      86.2     0.51      1009.0     3       305         5       259        8.45     266      521.4
   08/06/2016 13:30      88.8      86.2       39     59.6      0.00      0.00      86.3     0.51      1009.0     2       331         3         9        8.45     266      528.3
   08/06/2016 13:20      87.6      85.9       41     60.2      0.00      0.00      86.2     0.51      1010.0     3       344         5       309        8.45     267      532.5
   08/06/2016 13:10      86.8      84.6       42     59.9      0.00      0.00      86.2     0.51      1010.0     3        60         6        90        8.45     266      536.9
   08/06/2016 13:00      85.2      84.0       43     60.0      0.00      0.00      86.2     0.51      1010.0     3       120         5       158        8.46     266      538.8
   08/06/2016 12:50      84.9      83.6       44     60.2      0.00      0.00      86.0     0.51      1010.0     4       110         5        67        8.46     266      540.2
   08/06/2016 12:40      85.6      82.6       45     60.6      0.00      0.00      86.4     0.51      1010.0     2        55         6        70        8.46     266      539.1
   08/06/2016 12:30      82.9      81.6       47     60.0      0.00      0.00      86.2     0.51      1010.0     3       227         6       213        8.46     267      539.3
   08/06/2016 12:20      83.3      82.0       47     60.3      0.00      0.00      86.2     0.51      1010.0     3        94         5       131        8.46     267      535.7
   08/06/2016 12:10      83.0      81.8       48     60.6      0.00      0.00      86.0     0.51      1010.0     3        19         4         2        8.46     267      529.6
   08/06/2016 12:00      82.3      80.8       49     60.8      0.00      0.00      86.0     0.51      1011.0     3         2         6       310        8.46     267      524.5
   08/06/2016 11:50      82.1      80.7       49     60.8      0.00      0.00      85.9     0.51      1011.0     2        72         3        67        8.46     267      517.8
   08/06/2016 11:40      81.6      80.8       50     60.8      0.00      0.00      86.2     0.51      1011.0     3        48         4        89        8.46     267      512.4
   08/06/2016 11:30      80.5      79.1       52     60.8      0.00      0.00      85.9     0.51      1011.0     3         2         6       354        8.47     268      504.2
   08/06/2016 11:20      80.3      78.7       53     60.7      0.00      0.00      86.1     0.51      1011.0     3         5         5       344        8.47     268      495.3
   08/06/2016 11:10      79.0      78.0       54     60.5      0.00      0.00      86.3     0.51      1011.0     3       351         6       357        8.47     268      483.4
   08/06/2016 11:00      78.8      76.2       56     60.3      0.00      0.00      86.2     0.51      1011.0     2       343         4       341        8.47     269      473.4
   08/06/2016 10:50      76.8      75.9       57     60.0      0.00      0.00      86.1     0.52      1011.0     2        86         4        56        8.47     268      461.3
   08/06/2016 10:40      76.3      74.5       58     60.0      0.00      0.00      86.0     0.52      1011.0     3       320         4       322        8.47     268      450.0
   08/06/2016 10:30      75.2      74.1       59     59.6      0.00      0.00      86.1     0.52      1011.0     3       330         4       358        8.47     268      434.6
   08/06/2016 10:20      73.9      73.3       61     59.4      0.00      0.00      86.1     0.52      1012.0     3         8         4         5        8.47     268      417.6
   08/06/2016 10:10      74.0      73.7       61     59.5      0.00      0.00      86.2     0.52      1012.0     3        17         4        36        8.47     268      402.2
   08/06/2016 10:00      74.0      71.5       63     59.4      0.00      0.00      86.3     0.52      1012.0     2       286         3         0        8.47     268      388.6
   08/06/2016 09:50      72.2      71.2       65     59.2      0.00      0.00      86.2     0.52      1012.0     3       167         4        57        8.47     268      369.0
   08/06/2016 09:40      72.1      70.8       65     59.2      0.00      0.00      86.4     0.52      1012.0     2        38         3        33        8.47     268      345.3
   08/06/2016 09:30      70.5      69.6       68     59.1      0.00      0.00      86.3     0.52      1012.0     2       225         4        32        8.47     269      329.1
   08/06/2016 09:20      70.2      69.7       68     59.0      0.00      0.00      86.3     0.52      1012.0     2       179         3       200        8.47     269      308.2
   08/06/2016 09:10      70.4      69.2       68     59.1      0.00      0.00      86.4     0.52      1012.0     2        59         4        55        8.48     269      267.8
   08/06/2016 09:00      69.2      68.6       71     58.9      0.00      0.00      86.6     0.52      1012.0     2       218         3       133        8.48     269      287.2
   08/06/2016 08:50      68.7      67.3       72     58.9      0.00      0.00      86.6     0.52      1012.0     2        25         3        80        8.48     269      224.0
   08/06/2016 08:40      67.3      66.8       75     58.8      0.00      0.00      86.5     0.52      1012.0     2       346         4       344        8.48     269      194.4
   08/06/2016 08:30      66.8      66.4       76     58.7      0.00      0.00      86.3     0.52      1012.0     3         0         5       349        8.48     269      113.6
   08/06/2016 08:20      66.8      66.5       76     58.7      0.00      0.00      86.7     0.53      1012.0     3        19         3       344        8.48     269      106.6
   08/06/2016 08:10      66.9      66.3       76     58.8      0.00      0.00      86.1     0.53      1012.0     2        35         2        48        8.48     269       86.2
   08/06/2016 08:00      66.6      66.2       77     58.8      0.00      0.00      86.6     0.53      1012.0     2        60         4        36        8.48     269       76.1
   08/06/2016 07:50      66.3      66.1       77     58.9      0.00      0.00      86.6     0.53      1012.0     2        44         4        77        8.48     269       57.9
   08/06/2016 07:40      66.1      65.4       79     58.9      0.00      0.00      87.1     0.53      1012.0     2        13         2        69        8.48     269       41.3
   08/06/2016 07:30      65.5      65.2       80     58.9      0.00      0.00      87.3     0.53      1012.0     2        54         3         0        8.48     269       33.3
   08/06/2016 07:20      65.6      65.1       80     59.0      0.00      0.00      86.5     0.53      1012.0     2        27         4        20        8.48     269       27.7
   08/06/2016 07:10      65.2      64.9       81     59.0      0.00      0.00      86.9     0.53      1012.0     2        38         3        23        8.48     269       18.0
   08/06/2016 07:00      65.0      64.6       81     59.0      0.00      0.00      87.3     0.53      1012.0     2         7         3       340        8.48     269        9.3
   08/06/2016 06:50      64.9      64.4       82     59.0      0.00      0.00      86.8     0.53      1012.0     1        22         2        17        8.48     269        1.4
   08/06/2016 06:40      64.6      64.2       84     59.3      0.00      0.00      86.9     0.53      1012.0     2        93         4       122        8.48     269       -5.2
   08/06/2016 06:30      64.3      63.9       84     59.2      0.00      0.00      86.7     0.53      1012.0     2       108         3       155        8.48     269       -9.7
   08/06/2016 06:20      64.2      64.0       84     59.1      0.00      0.00      86.9     0.53      1012.0     2       130         3       125        8.48     269      -12.2
   08/06/2016 06:10      64.3      63.7       83     58.5      0.00      0.00      86.7     0.53      1012.0     2        83         3       147        8.48     269      -13.0
   08/06/2016 06:00      63.8      63.6       82     58.0      0.00      0.00      87.3     0.53      1012.0     1        95         2       102        8.48     269      -13.8
   08/06/2016 05:50      63.7      63.4       81     57.7      0.00      0.00      86.8     0.53      1011.0     1       137         1       150        8.49     269      -14.2
   08/06/2016 05:40      63.6      63.2       81     57.4      0.00      0.00      87.2     0.53      1011.0     1       179         1       210        8.49     269      -14.3
   08/06/2016 05:30      63.2      62.8       81     57.1      0.00      0.00      86.8     0.53      1011.0     1        70         1        25        8.49     269      -14.7
   08/06/2016 05:20      63.0      62.4       82     57.1      0.00      0.00      87.4     0.53      1011.0     1       345         2       307        8.49     269      -15.5
   08/06/2016 05:10      62.5      61.9       83     56.9      0.00      0.00      87.3     0.53      1011.0     1       296         1       318        8.49     269      -16.2
   08/06/2016 05:00      61.9      61.1       84     56.7      0.00      0.00      87.6     0.53      1011.0     1       197         2       146        8.49     269      -16.9
   08/06/2016 04:50      61.1      60.3       84     56.0      0.00      0.00      87.5     0.53      1011.0     1       229         2       238        8.49     269      -18.6
   08/06/2016 04:40      60.5      60.1       85     55.9      0.00      0.00      87.4     0.53      1011.0     1       260         1       267        8.49     269      -34.3
   08/06/2016 04:30      60.5      60.1       85     55.7      0.00      0.00      87.5     0.53      1011.0     0       164         1       221        8.49     269      -48.5
   08/06/2016 04:20      60.8      60.4       84     55.8      0.00      0.00      87.8     0.53      1011.0     1       211         1       188        8.49     269      -50.9
   08/06/2016 04:10      60.8      60.5       86     56.3      0.00      0.00      87.4     0.53      1011.0     2       175         3       165        8.50     269      -49.9
   08/06/2016 04:00      60.9      60.4       87     56.9      0.00      0.00      87.7     0.53      1011.0     2       153         3       162        8.50     269      -39.4
   08/06/2016 03:50      61.3      61.0       88     57.6      0.00      0.00      87.2     0.53      1011.0     1       170         1       151        8.50     269      -46.9
   08/06/2016 03:40      61.5      61.3       87     57.6      0.00      0.00      87.6     0.53      1011.0     1       130         1       107        8.50     268      -51.5
   08/06/2016 03:30      62.2      61.5       86     57.7      0.00      0.00      87.7     0.53      1011.0     1       112         2       126        8.50     268      -54.3
   08/06/2016 03:20      62.5      62.3       86     58.2      0.00      0.00      87.6     0.53      1011.0     1        70         2        80        8.50     268      -56.4
   08/06/2016 03:10      62.8      62.5       86     58.4      0.00      0.00      87.9     0.53      1011.0     1        86         2       100        8.50     268      -59.0
   08/06/2016 03:00      63.2      62.8       85     58.4      0.00      0.00      88.2     0.53      1011.0     1        76         2       111        8.50     268      -61.0
   08/06/2016 02:50      63.3      63.0       85     58.6      0.00      0.00      88.0     0.53      1011.0     1        47         3        80        8.50     268      -62.0
   08/06/2016 02:40      63.3      63.1       85     58.7      0.00      0.00      87.8     0.53      1011.0     1        85         3        76        8.50     268      -62.7
   08/06/2016 02:30      63.5      63.3       85     58.7      0.00      0.00      87.9     0.53      1011.0     1        84         2        79        8.50     268      -63.0
   08/06/2016 02:20      63.8      63.5       84     58.8      0.00      0.00      88.6     0.53      1011.0     1        67         3        57        8.50     268      -63.5
   08/06/2016 02:10      63.8      63.7       84     58.9      0.00      0.00      88.2     0.53      1011.0     2        58         3        68        8.50     268      -64.5
   08/06/2016 02:00      64.0      63.7       84     58.9      0.00      0.00      87.9     0.53      1011.0     1        50         3        28        8.51     268      -65.3
   08/06/2016 01:50      64.3      63.9       84     59.0      0.00      0.00      88.2     0.53      1011.0     1        69         3        61        8.51     268      -66.1
   08/06/2016 01:40      64.5      64.2       83     59.1      0.00      0.00      88.2     0.53      1011.0     2        53         3        73        8.51     268      -67.0
   08/06/2016 01:30      64.5      64.3       83     59.1      0.00      0.00      88.5     0.53      1011.0     2        53         2        47        8.51     268      -67.0
   08/06/2016 01:20      65.0      64.6       82     59.1      0.00      0.00      88.2     0.53      1011.0     2        61         3        90        8.51     267      -67.0
   08/06/2016 01:10      65.4      64.9       80     58.9      0.00      0.00      88.0     0.53      1011.0     3        65         5        83        8.51     267      -67.1
   08/06/2016 01:00      65.5      65.3       79     58.8      0.00      0.00      88.4     0.53      1011.0     2        37         3        29        8.51     267      -67.6
   08/06/2016 00:50      65.9      65.7       78     58.7      0.00      0.00      88.5     0.53      1011.0     2        57         4        73        8.51     267      -67.7
   08/06/2016 00:40      66.3      65.9       77     58.6      0.00      0.00      88.3     0.53      1011.0     2        61         5        73        8.51     267      -68.4
   08/06/2016 00:30      66.6      66.2       76     58.5      0.00      0.00      88.2     0.53      1011.0     2        59         4        61        8.51     267      -68.5
   08/06/2016 00:20      67.0      66.6       74     58.5      0.00      0.00      88.2     0.53      1011.0     2        58         4        73        8.51     267      -69.7
   08/06/2016 00:10      67.2      67.0       74     58.4      0.00      0.00      88.4     0.53      1011.0     2        46         3        86        8.51     267      -69.9
   08/06/2016 00:00      67.5      67.2       73     58.3      0.00      0.00      88.5     0.53      1011.0     2        40         3        32        8.51     267      -70.5
   08/05/2016 23:50      67.7      67.5       72     58.1      0.00      0.00      88.7     0.53      1011.0     2        47         3        79        8.51     267      -71.1
   08/05/2016 23:40      67.8      67.7       71     58.1      0.00      0.00      88.8     0.53      1011.0     2        49         2        79        8.51     267      -71.5
   08/05/2016 23:30      68.1      67.7       71     58.1      0.00      0.00      88.2     0.53      1011.0     2        63         3        80        8.52     267      -71.7
   08/05/2016 23:20      68.4      68.1       71     58.6      0.00      0.00      88.4     0.53      1011.0     1        71         2        69        8.52     267      -72.3
   08/05/2016 23:10      68.7      68.4       72     59.1      0.00      0.00      88.4     0.53      1011.0     1        85         2        80        8.52     267      -72.2
   08/05/2016 23:00      69.1      68.7       71     59.2      0.00      0.00      88.3     0.53      1011.0     1        92         2        77        8.52     266      -72.8
   08/05/2016 22:50      69.2      69.1       71     59.3      0.00      0.00      88.6     0.53      1011.0     2        99         3        98        8.52     266      -72.5
   08/05/2016 22:40      69.7      69.3       70     59.2      0.00      0.00      88.4     0.53      1011.0     2       106         2       113        8.52     266      -72.8
   08/05/2016 22:30      70.2      69.7       69     59.3      0.00      0.00      88.7     0.53      1011.0     1       106         2       116        8.52     266      -73.3
   08/05/2016 22:20      70.7      70.2       68     59.1      0.00      0.00      88.5     0.53      1011.0     1        91         2        78        8.52     266      -73.8
   08/05/2016 22:10      71.3      70.7       66     59.1      0.00      0.00      88.4     0.53      1011.0     2        75         2        84        8.52     266      -74.3
   08/05/2016 22:00      71.7      71.2       59     56.2      0.00      0.00      88.5     0.53      1011.0     1       127         2       244        8.52     266      -75.2
   08/05/2016 21:50      71.9      71.7       56     55.2      0.00      0.00      88.4     0.53      1011.0     2       232         3       258        8.52     266      -76.4
   08/05/2016 21:40      72.0      71.8       55     55.1      0.00      0.00      88.6     0.53      1011.0     2       214         3       233        8.52     266      -77.4
   08/05/2016 21:30      72.2      72.0       55     55.1      0.00      0.00      88.5     0.53      1011.0     1        76         2        75        8.52     265      -78.3
   08/05/2016 21:20      72.6      72.1       54     55.1      0.00      0.00      88.5     0.53      1010.0     3       208         3       165        8.52     265      -79.0
   08/05/2016 21:10      73.1      72.7       53     55.0      0.00      0.00      88.5     0.53      1010.0     2       215         3       217        8.52     265      -79.8
   08/05/2016 21:00      73.5      73.2       53     55.1      0.00      0.00      88.5     0.53      1010.0     4       210         5       212        8.52     265      -80.6
   08/05/2016 20:50      73.9      73.4       52     55.2      0.00      0.00      88.2     0.53      1010.0     2       219         4       237        8.52     265      -82.1
   08/05/2016 20:40      74.4      73.9       51     55.2      0.00      0.00      88.3     0.53      1010.0     3       229         4       207        8.53     265      -82.6
   08/05/2016 20:30      75.7      74.6       50     55.1      0.00      0.00      88.8     0.53      1010.0     5       234         6       240        8.60     265      -83.2
   08/05/2016 20:20      76.8      76.0       47     54.9      0.00      0.00      88.2     0.53      1010.0     4       234         5       233        8.60     265      -84.1
   08/05/2016 20:10      77.7      76.9       45     54.1      0.00      0.00      88.5     0.53      1010.0     3       240         5       238        8.60     265      -85.5
   08/05/2016 20:00      78.0      77.7       43     53.6      0.00      0.00      88.1     0.53      1010.0     2       307         5       310        8.61     265      -85.6
   08/05/2016 19:50      79.3      78.1       41     53.3      0.00      0.00      88.3     0.53      1010.0     4       297         6       290        8.61     265      -83.1
   08/05/2016 19:40      79.7      79.3       40     53.2      0.00      0.00      88.3     0.53      1009.0     3       275         7       239        8.61     264      -79.7
   08/05/2016 19:30      80.5      79.8       40     53.4      0.00      0.00      88.3     0.53      1009.0     3       307         5       303        8.62     264      -76.7
   08/05/2016 19:20      81.5      80.5       39     53.8      0.00      0.00      88.1     0.53      1009.0     4       293         6       295        8.62     265      -58.1
   08/05/2016 19:10      81.9      81.6       38     54.1      0.00      0.00      88.1     0.53      1009.0     4       287         5       309        8.62     264      -40.2
   08/05/2016 19:00      82.1      81.8       39     54.4      0.00      0.00      88.0     0.53      1009.0     4       286         6       298        8.63     265      -20.4
   08/05/2016 18:50      82.4      81.9       39     54.7      0.00      0.00      88.2     0.53      1009.0     4       305         7       299        8.63     264        0.8
   08/05/2016 18:40      83.7      82.6       38     55.0      0.00      0.00      88.1     0.53      1009.0     5       307         7       294        8.64     264       19.1
   08/05/2016 18:30      84.0      83.5       38     55.1      0.00      0.00      88.0     0.53      1009.0     5       307         8       316        8.64     265       39.1
   08/05/2016 18:20      84.9      83.7       37     55.4      0.00      0.00      87.9     0.53      1009.0     6       317         7       343        8.64     264       61.9
   08/05/2016 18:10      85.4      84.7       37     55.7      0.00      0.00      87.8     0.53      1009.0     5       330        11       315        8.65     265       84.8
   08/05/2016 18:00      86.2      85.6       36     56.1      0.00      0.00      87.9     0.53      1009.0     6       319        10       311        8.65     265      109.3
   08/05/2016 17:50      86.5      85.8       36     56.5      0.00      0.00      87.6     0.53      1009.0     6       329         8       335        8.66     265      132.3
   08/05/2016 17:40      87.7      86.3       35     56.6      0.00      0.00      87.7     0.53      1009.0     6       327         9       319        8.66     265      154.8
   08/05/2016 17:30      88.8      87.5       35     56.9      0.00      0.00      87.8     0.53      1009.0     5       338         9       356        8.66     265      176.8
   08/05/2016 17:20      88.9      88.1       35     57.7      0.00      0.00      87.7     0.52      1009.0     4       313         7       287        8.67     264      199.7
   08/05/2016 17:10      89.0      88.2       36     57.9      0.00      0.00      87.5     0.52      1009.0     6       311         9       343        8.67     264      220.4
   08/05/2016 17:00      89.0      88.4       36     58.2      0.00      0.00      87.5     0.52      1009.0     5       317         8       328        8.67     265      244.1
   08/05/2016 16:50      89.8      89.0       35     58.5      0.00      0.00      87.3     0.52      1009.0     4       308         7       294        8.68     265      266.0
   08/05/2016 16:40      89.8      88.9       36     58.9      0.00      0.00      87.3     0.52      1009.0     5       306         8       328        8.68     265      287.0
   08/05/2016 16:30      89.4      88.0       41     62.0      0.00      0.00      87.2     0.52      1009.0     4       344         7       299        8.68     265      306.0
   08/05/2016 16:20      90.0      88.6       41     62.8      0.00      0.00      87.3     0.52      1009.0     6       359         9       349        8.68     265      322.4
   08/05/2016 16:10      90.5      89.4       39     61.6      0.00      0.00      87.2     0.52      1009.0     4       312         8       334        8.68     265      340.3
   08/05/2016 16:00      90.6      89.6       40     62.4      0.00      0.00      86.9     0.52      1009.0     3        43         5       355        8.68     265      357.5
   08/05/2016 15:50      90.7      89.2       41     62.9      0.00      0.00      87.1     0.52      1009.0     4        38         6         5        8.69     265      376.0
   08/05/2016 15:40      90.1      89.4       41     62.9      0.00      0.00      86.9     0.52      1009.0     4        35         7        17        8.69     265      390.0
   08/05/2016 15:30      89.9      89.2       41     63.0      0.00      0.00      86.9     0.52      1009.0     3        39         6        28        8.69     266      407.6
   08/05/2016 15:20      89.7      88.4       42     62.8      0.00      0.00      86.9     0.52      1009.0     4        46         5        42        8.69     265      425.3
   08/05/2016 15:10      89.6      88.4       41     62.5      0.00      0.00      86.7     0.52      1009.0     4        56         7        68        8.69     266      438.4
   08/05/2016 15:00      89.8      87.9       41     62.3      0.00      0.00      86.5     0.52      1010.0     3        23         6        85        8.69     266      452.0
   08/05/2016 14:50      89.2      88.2       41     62.1      0.00      0.00      86.6     0.52      1010.0     4        51         5        80        8.69     266      462.1
   08/05/2016 14:40      90.4      88.1       40     61.8      0.00      0.00      86.7     0.52      1010.0     4        56        10        74        8.69     266      473.3
   08/05/2016 14:30      90.2      88.8       39     61.6      0.00      0.00      86.6     0.52      1010.0     4        27         9       358        8.70     267      476.9
   08/05/2016 14:20      89.2      88.3       39     60.8      0.00      0.00      86.4     0.52      1010.0     3        81         7        56        8.70     266      489.8
   08/05/2016 14:10      89.4      87.9       40     60.9      0.00      0.00      86.4     0.52      1010.0     3        96         6        77        8.70     267      499.5
   08/05/2016 14:00      89.0      87.8       40     61.1      0.00      0.00      86.3     0.52      1010.0     5        12         8         8        8.70     267      503.4
   08/05/2016 13:50      89.9      88.7       39     60.9      0.00      0.00      86.2     0.52      1010.0     4        17         6        10        8.70     267      509.1
   08/05/2016 13:40      89.4      88.1       33     56.0      0.00      0.00      86.2     0.52      1010.0     4       341         5       341        8.70     266      513.8
   08/05/2016 13:30      88.2      87.6       34     56.1      0.00      0.00      86.2     0.51      1011.0     4        12         5        15        8.70     267      517.9
   08/05/2016 13:20      88.3      87.0       35     57.0      0.00      0.00      86.1     0.51      1011.0     3        31         5       353        8.70     267      526.4
   08/05/2016 13:10      87.6      86.6       37     57.6      0.00      0.00      86.0     0.51      1011.0     3       358         5       300        8.70     267      529.8
   08/05/2016 13:00      86.8      85.6       38     57.8      0.00      0.00      86.1     0.51      1011.0     2       310         4       322        8.70     267      525.4
   08/05/2016 12:50      86.2      85.0       40     58.4      0.00      0.00      86.2     0.51      1011.0     3       322         5       356        8.70     267      530.3
   08/05/2016 12:40      86.5      85.3       41     59.1      0.00      0.00      86.0     0.52      1011.0     3         2         6         1        8.70     267      531.7
   08/05/2016 12:30      85.6      84.0       43     59.7      0.00      0.00      86.0     0.52      1011.0     2        51         4        63        8.70     268      531.3
   08/05/2016 12:20      84.3      82.5       45     59.8      0.00      0.00      86.1     0.52      1011.0     3        80         3       148        8.70     268      528.0
   08/05/2016 12:10      83.3      82.7       46     60.0      0.00      0.00      86.4     0.52      1012.0     2        44         3        73        8.70     267      523.4
   08/05/2016 12:00      83.6      81.9       46     60.2      0.00      0.00      86.2     0.52      1012.0     2        43         4        58        8.70     267      520.0
   08/05/2016 11:50      82.0      79.3       50     59.9      0.00      0.00      85.9     0.52      1012.0     2       264         4       245        8.70     267      514.7
   08/05/2016 11:40      81.0      79.0       51     59.9      0.00      0.00      86.1     0.52      1012.0     3       250         5       292        8.70     267      509.1
   08/05/2016 11:30      80.4      78.7       52     59.8      0.00      0.00      86.3     0.52      1012.0     2       310         4       307        8.70     268      498.5
   08/05/2016 11:20      78.4      76.8       55     59.7      0.00      0.00      86.3     0.52      1012.0     3       242         4       201        8.70     268      492.3
   08/05/2016 11:10      77.9      76.7       55     59.7      0.00      0.00      85.8     0.52      1012.0     3       307         5       323        8.70     268      480.7
   08/05/2016 11:00      78.1      76.5       55     59.7      0.00      0.00      86.0     0.52      1012.0     3       307         6       277        8.70     269      470.0
   08/05/2016 10:50      76.7      75.3       57     59.5      0.00      0.00      86.2     0.52      1012.0     2       234         4       244        8.71     269      456.5
   08/05/2016 10:40      75.9      74.6       58     59.4      0.00      0.00      86.1     0.52      1012.0     3       329         4       336        8.70     269      443.8
   08/05/2016 10:30      74.3      73.7       60     59.4      0.00      0.00      86.5     0.52      1012.0     3       349         5       344        8.71     268      427.5
   08/05/2016 10:20      73.4      72.9       62     59.3      0.00      0.00      86.3     0.52      1012.0     3        12         6       347        8.71     269      413.7
   08/05/2016 10:10      74.4      72.5       62     59.4      0.00      0.00      86.3     0.52      1013.0     2       154         4       136        8.71     269      400.3
   08/05/2016 10:00      72.5      71.7       64     59.3      0.00      0.00      86.2     0.52      1013.0     2       125         2       161        8.71     269      376.2
   08/05/2016 09:50      71.6      70.1       67     59.4      0.00      0.00      86.5     0.52      1013.0     2         5         4       340        8.71     269      357.9
   08/05/2016 09:40      70.3      68.4       71     59.5      0.00      0.00      86.2     0.53      1012.0     3       301         4       351        8.71     269      343.8
   08/05/2016 09:30      68.7      67.8       73     59.3      0.00      0.00      86.7     0.53      1013.0     3       188         4       194        8.71     269      306.8
   08/05/2016 09:20      68.7      68.0       73     59.4      0.00      0.00      86.5     0.53      1013.0     2       263         4       281        8.71     269      234.9
   08/05/2016 09:10      68.3      67.4       74     59.3      0.00      0.00      86.0     0.53      1013.0     2       183         3       229        8.71     269      194.9
   08/05/2016 09:00      67.7      66.9       76     59.4      0.00      0.00      86.5     0.53      1013.0     2       113         4       139        8.71     269      203.9
   08/05/2016 08:50      67.0      66.6       77     59.4      0.00      0.00      86.3     0.53      1013.0     2       244         3       287        8.71     270      106.7
   08/05/2016 08:40      66.6      66.3       78     59.4      0.00      0.00      86.3     0.53      1013.0     2       326         3       352        8.73     270       81.4
   08/05/2016 08:30      66.8      66.5       78     59.4      0.00      0.00      86.6     0.53      1013.0     2        46         3        27        8.73     270       75.8
   08/05/2016 08:20      66.7      66.2       79     59.7      0.00      0.00      86.3     0.53      1013.0     1        37         3        27        8.73     270       57.6
   08/05/2016 08:10      66.4      65.7       80     59.7      0.00      0.00      85.9     0.53      1013.0     2        23         4       354        8.73     270       45.0
   08/05/2016 08:00      65.8      65.7       81     59.7      0.00      0.00      87.0     0.53      1012.0     2        24         3       353        8.73     270       34.4
   08/05/2016 07:50      65.7      65.4       81     59.6      0.00      0.00      86.7     0.53      1012.0     1        36         2        22        8.73     270       32.1
   08/05/2016 07:40      65.6      65.2       82     59.6      0.00      0.00      87.2     0.53      1012.0     2        23         3        75        8.73     270       24.5
   08/05/2016 07:30      65.2      64.8       82     59.5      0.00      0.00      86.9     0.53      1012.0     1        69         2        17        8.73     270       18.6
   08/05/2016 07:20      65.0      64.8       83     59.5      0.00      0.00      86.7     0.53      1012.0     2       136         3       121        8.73     270       10.0
   08/05/2016 07:10      64.8      64.5       83     59.4      0.00      0.00      87.0     0.53      1012.0     1        95         2        89        8.73     270        8.1
   08/05/2016 07:00      64.5      63.9       83     58.9      0.00      0.00      87.0     0.53      1012.0     1       129         3       158        8.73     270        3.6
   08/05/2016 06:50      64.0      63.6       83     58.6      0.00      0.00      87.1     0.53      1012.0     1       182         2       206        8.73     270       -1.4
   08/05/2016 06:40      63.8      63.1       83     58.2      0.00      0.00      87.2     0.53      1012.0     1       184         2       190        8.73     270       -3.6
   08/05/2016 06:30      63.2      62.1       83     57.3      0.00      0.00      87.0     0.53      1012.0     1       191         2       201        8.73     270       -6.1
   08/05/2016 06:20      62.2      61.3       85     57.0      0.00      0.00      87.5     0.53      1012.0     1       188         1       216        8.73     270       -9.4
   08/05/2016 06:10      61.4      61.0       85     56.7      0.00      0.00      87.0     0.53      1012.0     1       174         1       170        8.74     270      -26.7
   08/05/2016 06:00      61.3      61.0       85     56.5      0.00      0.00      87.5     0.53      1012.0     1       143         1       173        8.74     269      -51.7
   08/05/2016 05:50      61.3      61.1       83     56.1      0.00      0.00      87.5     0.53      1012.0     0       119         1       138        8.74     269      -55.0
   08/05/2016 05:40      61.6      61.3       83     56.2      0.00      0.00      87.4     0.53      1012.0     1       125         2       150        8.74     269      -55.7
   08/05/2016 05:30      61.7      61.5       82     56.1      0.00      0.00      87.3     0.53      1012.0     1       141         1       160        8.74     269      -54.9
   08/05/2016 05:20      62.0      61.7       81     56.1      0.00      0.00      87.4     0.53      1011.0     1       135         1       178        8.74     269      -55.1
   08/05/2016 05:10      62.4      61.9       81     56.1      0.00      0.00      87.7     0.53      1011.0     1       135         1       140        8.74     269      -54.9
   08/05/2016 05:00      62.2      62.0       80     56.0      0.00      0.00      87.6     0.53      1011.0     1       117         1       140        8.74     269      -54.9
   08/05/2016 04:50      62.6      62.1       79     55.9      0.00      0.00      87.7     0.53      1011.0     1       151         2       179        8.74     270      -54.9
   08/05/2016 04:40      62.8      62.4       79     56.2      0.00      0.00      87.6     0.53      1011.0     1       140         2       171        8.74     269      -55.0
   08/05/2016 04:30      62.8      62.4       80     56.4      0.00      0.00      87.9     0.53      1011.0     1       133         2       180        8.74     269      -55.4
   08/05/2016 04:20      62.6      62.4       81     56.5      0.00      0.00      87.5     0.53      1011.0     1       133         2       163        8.74     269      -56.0
   08/05/2016 04:10      62.6      62.5       80     56.4      0.00      0.00      87.9     0.53      1011.0     2       140         2       142        8.74     269      -56.7
   08/05/2016 04:00      63.0      62.5       80     56.4      0.00      0.00      88.1     0.53      1011.0     1       160         1       158        8.74     269      -56.8
   08/05/2016 03:50      63.3      63.1       80     56.9      0.00      0.00      87.9     0.53      1011.0     1       160         2       199        8.74     269      -56.8
   08/05/2016 03:40      63.1      62.8       81     57.1      0.00      0.00      87.9     0.53      1011.0     1       175         1       198        8.74     269      -57.2
   08/05/2016 03:30      63.0      62.8       81     57.1      0.00      0.00      88.0     0.53      1011.0     1       147         1       176        8.74     269      -57.9
   08/05/2016 03:20      63.3      62.9       80     56.9      0.00      0.00      88.1     0.53      1011.0     1       123         1       117        8.74     269      -59.5
   08/05/2016 03:10      63.6      63.3       81     57.4      0.00      0.00      87.7     0.53      1011.0     0       115         1       140        8.74     269      -59.4
   08/05/2016 03:00      63.6      63.3       80     57.1      0.00      0.00      88.2     0.53      1011.0     1       162         2       175        8.74     269      -60.2
   08/05/2016 02:50      63.8      63.5       80     57.2      0.00      0.00      88.2     0.53      1011.0     1       146         1       143        8.74     269      -60.6
   08/05/2016 02:40      63.9      63.6       79     57.2      0.00      0.00      88.0     0.53      1011.0     1       150         1       129        8.74     269      -60.7
   08/05/2016 02:30      64.2      63.8       80     57.7      0.00      0.00      87.9     0.53      1011.0     0       163         1       145        8.74     269      -60.9
   08/05/2016 02:20      64.2      63.9       78     57.2      0.00      0.00      87.8     0.53      1011.0     1       114         1       136        8.75     269      -63.1
   08/05/2016 02:10      64.6      64.2       78     57.4      0.00      0.00      88.3     0.53      1011.0     1       145         2       131        8.75     269      -63.4
   08/05/2016 02:00      64.6      64.5       77     57.3      0.00      0.00      88.3     0.53      1011.0     1       128         1       129        8.75     269      -64.4
   08/05/2016 01:50      64.9      64.5       78     57.6      0.00      0.00      88.4     0.53      1011.0     1       131         1       104        8.75     269      -64.9
   08/05/2016 01:40      64.9      64.6       76     57.2      0.00      0.00      88.1     0.53      1011.0     1       121         2       125        8.75     269      -65.8
   08/05/2016 01:30      65.2      64.9       76     57.4      0.00      0.00      88.5     0.53      1011.0     1       131         1       124        8.75     269      -65.9
   08/05/2016 01:20      65.5      65.2       77     57.9      0.00      0.00      88.2     0.53      1011.0     1        70         1        78        8.75     269      -65.8
   08/05/2016 01:10      65.6      65.4       76     57.6      0.00      0.00      88.3     0.53      1011.0     1       115         2       163        8.75     268      -67.4
   08/05/2016 01:00      66.4      65.8       74     57.5      0.00      0.00      88.5     0.53      1011.0     1       130         1       122        8.75     268      -68.6
   08/05/2016 00:50      66.7      66.4       74     58.0      0.00      0.00      88.6     0.53      1011.0     1       126         1       128        8.75     268      -69.3
   08/05/2016 00:40      67.2      66.6       73     58.1      0.00      0.00      88.4     0.53      1011.0     1       107         2       124        8.75     268      -70.1
   08/05/2016 00:30      67.4      67.0       73     58.4      0.00      0.00      88.6     0.53      1011.0     2        41         2        34        8.75     268      -71.0
   08/05/2016 00:20      67.3      67.0       73     58.4      0.00      0.00      88.9     0.53      1011.0     1        56         2        79        8.75     268      -70.4
   08/05/2016 00:10      67.7      67.2       72     58.2      0.00      0.00      88.5     0.53      1012.0     1        91         2       104        8.75     268      -70.4
   08/05/2016 00:00      68.0      67.7       71     57.9      0.00      0.00      88.4     0.53      1012.0     2        74         3        75        8.75     268      -70.1
   08/04/2016 23:50      68.2      68.0       70     58.0      0.00      0.00      88.6     0.53      1012.0     1        55         2        46        8.75     268      -69.0
   08/04/2016 23:40      68.5      68.1       70     58.1      0.00      0.00      88.6     0.53      1011.0     1        59         2        67        8.76     268      -68.6
   08/04/2016 23:30      68.7      68.1       69     58.0      0.00      0.00      88.6     0.53      1012.0     2        65         4        63        8.76     268      -68.0
   08/04/2016 23:20      68.9      68.6       68     57.9      0.00      0.00      88.5     0.53      1011.0     2        43         3        25        8.76     268      -69.0
   08/04/2016 23:10      69.1      68.7       68     57.9      0.00      0.00      88.5     0.53      1011.0     2        45         3        29        8.76     268      -69.0
   08/04/2016 23:00      69.2      69.0       67     57.8      0.00      0.00      88.7     0.53      1011.0     2        61         3        80        8.76     267      -68.5
   08/04/2016 22:50      69.5      69.3       66     57.6      0.00      0.00      88.8     0.53      1011.0     2        62         3        81        8.76     267      -68.9
   08/04/2016 22:40      69.7      69.4       66     57.7      0.00      0.00      88.7     0.53      1012.0     2        52         2        63        8.76     267      -69.4
   08/04/2016 22:30      69.8      69.6       66     58.1      0.00      0.00      88.6     0.53      1012.0     2        63         3        78        8.76     267      -69.8
   08/04/2016 22:20      70.2      69.9       66     58.2      0.00      0.00      88.7     0.53      1012.0     2        78         3        36        8.77     267      -70.6
   08/04/2016 22:10      70.6      70.4       66     58.5      0.00      0.00      88.9     0.53      1011.0     2        67         2        65        8.77     267      -71.5
   08/04/2016 22:00      71.2      70.7       65     58.5      0.00      0.00      88.9     0.53      1011.0     2        35         2        30        8.77     267      -72.2
   08/04/2016 21:50      71.2      70.9       64     58.4      0.00      0.00      88.8     0.53      1011.0     1        32         2        52        8.77     267      -72.9
   08/04/2016 21:40      71.4      71.0       64     58.3      0.00      0.00      88.5     0.53      1011.0     2        63         2        91        8.77     267      -73.9
   08/04/2016 21:30      71.9      71.5       63     58.4      0.00      0.00      88.8     0.53      1011.0     2        61         5        73        8.78     267      -75.0
   08/04/2016 21:20      72.3      71.9       62     58.5      0.00      0.00      88.7     0.53      1011.0     2        69         4        88        8.78     266      -76.0
   08/04/2016 21:10      73.3      72.6       60     58.3      0.00      0.00      88.8     0.53      1011.0     3        59         4        78        8.78     266      -77.6
   08/04/2016 21:00      74.3      73.3       58     57.8      0.00      0.00      88.4     0.53      1011.0     2        51         3        58        8.78     266      -79.0
   08/04/2016 20:50      75.1      74.4       55     57.5      0.00      0.00      88.8     0.53      1011.0     2        37         4        58        8.78     266      -80.8
   08/04/2016 20:40      76.0      75.4       53     57.7      0.00      0.00      88.6     0.53      1010.0     2        21         4         5        8.79     266      -82.1
   08/04/2016 20:30      77.4      76.2       52     57.9      0.00      0.00      88.7     0.53      1010.0     1        28         3         4        8.79     266      -83.0
   08/04/2016 20:20      77.8      77.3       47     55.9      0.00      0.00      88.4     0.53      1010.0     3       325         4       225        8.79     266      -83.5
   08/04/2016 20:10      78.7      77.9       44     54.6      0.00      0.00      88.6     0.53      1010.0     3       161         4       157        8.80     266      -84.2
   08/04/2016 20:00      79.8      78.9       46     56.7      0.00      0.00      88.5     0.53      1010.0     2        44         2        26        8.80     266      -84.6
   08/04/2016 19:50      80.9      80.2       43     56.0      0.00      0.00      88.5     0.53      1010.0     2        38         2        10        8.80     266      -83.1
   08/04/2016 19:40      81.7      81.0       41     55.7      0.00      0.00      88.5     0.53      1010.0     1        56         2        57        8.81     266      -80.0
   08/04/2016 19:30      82.9      81.9       40     55.8      0.00      0.00      88.4     0.53      1009.0     2        31         4        33        8.81     266      -75.1
   08/04/2016 19:20      84.4      83.2       39     56.0      0.00      0.00      88.3     0.53      1009.0     3        45         3        50        8.81     266      -57.8
   08/04/2016 19:10      86.0      84.6       38     56.5      0.00      0.00      88.4     0.53      1009.0     2        39         3        47        8.81     266      -41.1
   08/04/2016 19:00      87.6      86.2       37     57.1      0.00      0.00      88.3     0.53      1009.0     2        28         3         7        8.82     266      -21.6
   08/04/2016 18:50      88.7      87.8       35     57.6      0.00      0.00      88.3     0.53      1009.0     2        12         4         8        8.82     265       -2.0
   08/04/2016 18:40      89.5      88.8       33     56.7      0.00      0.00      88.1     0.53      1009.0     3        31         5       359        8.82     265       17.6
   08/04/2016 18:30      90.5      89.7       30     54.2      0.00      0.00      88.1     0.53      1009.0     3       335         5        11        8.83     265       37.8
   08/04/2016 18:20      90.8      90.2       29     53.6      0.00      0.00      88.0     0.53      1009.0     3       326         6       343        8.83     265       58.5
   08/04/2016 18:10      91.2      90.8       28     53.5      0.00      0.00      88.1     0.53      1009.0     5       331         7       320        8.83     265       80.6
   08/04/2016 18:00      91.6      90.9       28     53.3      0.00      0.00      87.9     0.53      1009.0     5       317         7       303        8.84     266      101.6
   08/04/2016 17:50      92.1      91.2       27     53.2      0.00      0.00      87.9     0.53      1009.0     3       313         5       302        8.84     265      125.9
   08/04/2016 17:40      91.4      90.9       27     52.8      0.00      0.00      87.9     0.53      1009.0     5       300         6       315        8.84     265      148.4
   08/04/2016 17:30      92.0      91.4       27     52.8      0.00      0.00      87.8     0.53      1009.0     4       316         6       320        8.85     265      171.3
   08/04/2016 17:20      92.0      90.8       27     53.1      0.00      0.00      87.7     0.53      1009.0     5       305         9       302        8.85     265      194.5
   08/04/2016 17:10      91.7      90.6       28     53.8      0.00      0.00      87.6     0.53      1009.0     6       308        10       293        8.86     265      219.6
   08/04/2016 17:00      91.8      91.3       29     54.6      0.00      0.00      87.5     0.53      1009.0     6       305         8       292        8.86     265      239.8
   08/04/2016 16:50      91.7      91.1       30     55.4      0.00      0.00      87.5     0.53      1009.0     6       309         9       310        8.87     265      261.9
   08/04/2016 16:40      92.0      91.2       30     55.5      0.00      0.00      87.4     0.53      1009.0     6       312         9       276        8.87     265      280.1
   08/04/2016 16:30      92.6      91.8       30     56.5      0.00      0.00      87.4     0.53      1009.0     6       279         8       305        8.87     265      300.1
   08/04/2016 16:20      92.9      92.1       30     57.0      0.00      0.00      87.3     0.53      1009.0     5       302         9       241        8.88     265      318.8
   08/04/2016 16:10      92.9      91.5       31     57.1      0.00      0.00      87.2     0.53      1009.0     5       313         8       268        8.89     265      337.7
   08/04/2016 16:00      92.0      91.4       31     57.3      0.00      0.00      87.1     0.53      1009.0     6       298         8       283        8.89     265      358.2
   08/04/2016 15:50      92.0      90.9       33     58.5      0.00      0.00      87.2     0.53      1009.0     6       288         8       307        8.89     265      375.1
   08/04/2016 15:40      91.8      90.4       35     59.5      0.00      0.00      86.9     0.53      1009.0     6       281         9       260        8.90     265      391.9
   08/04/2016 15:30      92.3      90.3       35     60.0      0.00      0.00      86.9     0.52      1009.0     7       288         8       255        8.90     266      407.2
   08/04/2016 15:20      92.3      90.9       36     60.6      0.00      0.00      86.8     0.52      1009.0     6       305        11       317        8.90     266      421.5
   08/04/2016 15:10      93.6      91.6       35     60.7      0.00      0.00      86.9     0.52      1010.0     5       306        13       330        8.91     266      432.7
   08/04/2016 15:00      94.0      93.1       33     60.5      0.00      0.00      86.8     0.52      1010.0     5       310         9       306        8.91     266      442.8
   08/04/2016 14:50      95.8      93.6       28     56.5      0.00      0.00      86.6     0.52      1010.0     4       285         9       265        8.92     267      447.3
   08/04/2016 14:40      95.1      94.1       24     52.4      0.00      0.00      86.7     0.52      1010.0     2        18         5       317        8.92     267      458.6
   08/04/2016 14:30      94.6      92.8       24     52.1      0.00      0.00      86.6     0.52      1010.0     2        72         4        74        8.92     267      469.1
   08/04/2016 14:20      93.9      92.5       24     51.4      0.00      0.00      86.5     0.52      1010.0     3       266         5       334        8.92     267      479.5
   08/04/2016 14:10      92.9      91.9       25     51.0      0.00      0.00      86.5     0.52      1010.0     2       251         5       293        8.93     267      488.5
   08/04/2016 14:00      92.8      91.1       25     51.3      0.00      0.00      86.4     0.52      1010.0     4       288         7       295        8.93     267      497.2
   08/04/2016 13:50      91.9      90.6       25     51.2      0.00      0.00      86.1     0.52      1011.0     2       349         4       318        8.94     267      503.0
   08/04/2016 13:40      91.7      90.8       26     51.7      0.00      0.00      86.4     0.52      1011.0     4       352         5       335        8.94     268      509.7
   08/04/2016 13:30      91.2      89.9       28     53.2      0.00      0.00      86.2     0.52      1011.0     3        42         5        69        8.94     268      515.1
   08/04/2016 13:20      91.8      90.1       30     55.1      0.00      0.00      86.2     0.52      1011.0     3        59         6        71        8.95     268      516.7
   08/04/2016 13:10      90.6      88.8       31     55.2      0.00      0.00      86.1     0.52      1011.0     2       306         3       334        8.95     268      521.4
   08/04/2016 13:00      89.1      88.4       33     56.3      0.00      0.00      86.2     0.52      1011.0     3        51         5       108        8.95     268      524.3
   08/04/2016 12:50      88.8      87.3       35     57.0      0.00      0.00      86.2     0.52      1011.0     5       342         6       347        8.95     268      523.8
   08/04/2016 12:40      87.1      86.6       38     58.0      0.00      0.00      86.1     0.52      1012.0     2       335         4       238        8.95     268      527.0
   08/04/2016 12:30      87.4      86.4       38     58.3      0.00      0.00      86.1     0.52      1012.0     4       292         6       271        8.95     269      525.6
   08/04/2016 12:20      86.8      85.6       39     58.5      0.00      0.00      86.2     0.52      1012.0     2         4         4       346        8.95     269      520.4
   08/04/2016 12:10      86.0      84.5       41     58.8      0.00      0.00      85.9     0.52      1012.0     3       265         7       343        8.96     268      520.4
   08/04/2016 12:00      86.1      85.0       41     59.0      0.00      0.00      85.9     0.52      1012.0     3        49         5        81        8.96     268      514.4
   08/04/2016 11:50      85.3      83.8       43     59.6      0.00      0.00      86.1     0.52      1012.0     2         3         4        73        8.96     269      507.9
   08/04/2016 11:40      85.2      82.9       44     59.5      0.00      0.00      86.2     0.52      1012.0     3        33         5        58        8.96     269      501.4
   08/04/2016 11:30      84.1      82.5       44     59.1      0.00      0.00      86.1     0.52      1012.0     3        46         4        68        8.96     269      494.1
   08/04/2016 11:20      83.5      82.8       44     59.1      0.00      0.00      86.0     0.52      1013.0     3        24         5       359        8.96     269      483.3
   08/04/2016 11:10      82.8      80.7       46     59.1      0.00      0.00      86.4     0.52      1013.0     3         5         5         7        8.96     270      475.9
   08/04/2016 11:00      80.4      79.9       48     58.9      0.00      0.00      86.3     0.52      1013.0     3       353         5        23        8.96     270      464.6
   08/04/2016 10:50      79.9      78.7       50     59.1      0.00      0.00      85.9     0.52      1013.0     3       317         5       335        8.96     270      451.6
   08/04/2016 10:40      79.2      78.4       51     59.1      0.00      0.00      86.2     0.53      1013.0     2        91         4       126        8.96     270      440.3
   08/04/2016 10:30      79.5      78.2       51     59.3      0.00      0.00      86.4     0.53      1013.0     3       359         4       359        8.96     270      427.1
   08/04/2016 10:20      78.1      77.4       52     58.8      0.00      0.00      86.2     0.53      1013.0     2        35         3        83        8.96     270      413.0
   08/04/2016 10:10      77.5      76.2       53     58.5      0.00      0.00      86.1     0.53      1013.0     2        22         3        89        8.96     271      399.4
   08/04/2016 10:00      76.8      76.0       54     58.7      0.00      0.00      86.1     0.53      1013.0     2       104         4       131        8.96     271      383.8
   08/04/2016 09:50      76.7      74.9       56     58.9      0.00      0.00      86.7     0.53      1013.0     1        95         2       109        8.96     271      359.5
   08/04/2016 09:40      75.4      74.0       58     59.0      0.00      0.00      85.9     0.53      1013.0     2        68         3       218        8.96     271      339.1
   08/04/2016 09:30      74.2      73.6       60     59.3      0.00      0.00      86.3     0.53      1013.0     2        32         4        93        8.96     271      328.8
   08/04/2016 09:20      73.5      71.8       63     59.3      0.00      0.00      86.5     0.53      1013.0     2       315         4        54        8.96     272      311.3
   08/04/2016 09:10      72.3      70.9       65     59.2      0.00      0.00      87.0     0.53      1014.0     2         6         3        55        8.96     271      294.5
   08/04/2016 09:00      71.2      70.6       66     59.0      0.00      0.00      86.4     0.53      1014.0     2        26         4        86        8.96     271      278.8
   08/04/2016 08:50      70.5      69.6       67     58.5      0.00      0.00      86.3     0.53      1014.0     3        98         5        84        8.96     271      284.3
   08/04/2016 08:40      69.7      68.7       70     59.0      0.00      0.00      86.7     0.53      1014.0     2        52         3        16        8.96     271      138.2
   08/04/2016 08:30      68.7      68.1       72     59.1      0.00      0.00      86.2     0.53      1014.0     2       352         3       347        8.96     271       12.1
   08/04/2016 08:20      68.3      67.8       74     59.2      0.00      0.00      86.5     0.53      1014.0     2         9         4        35        8.96     271      -10.8
   08/04/2016 08:10      68.4      68.1       73     59.4      0.00      0.00      86.5     0.53      1014.0     2        75         3        77        8.96     271       -3.7
   08/04/2016 08:00      68.4      67.4       75     59.7      0.00      0.00      86.7     0.53      1014.0     2       105         3        97        8.96     271       78.4
   08/04/2016 07:50      67.7      67.2       76     59.7      0.00      0.00      87.2     0.53      1014.0     2        61         3        93        8.96     271       36.4
   08/04/2016 07:40      67.3      66.8       78     59.8      0.00      0.00      86.6     0.53      1014.0     2        34         3        55        8.96     271       38.4
   08/04/2016 07:30      67.2      66.7       78     59.8      0.00      0.00      86.5     0.53      1014.0     3        22         4        37        8.96     271       28.6
   08/04/2016 07:20      66.8      66.3       80     60.3      0.00      0.00      87.0     0.53      1014.0     2        26         5       358        8.96     271       22.3
   08/04/2016 07:10      66.4      66.1       82     60.6      0.00      0.00      86.5     0.54      1014.0     2        32         5        89        8.96     271       -0.5
   08/04/2016 07:00      66.2      66.0       84     61.0      0.00      0.00      86.6     0.54      1014.0     2        64         4        80        8.96     271        0.5
   08/04/2016 06:50      66.0      65.7       85     61.2      0.00      0.00      86.7     0.54      1014.0     2        71         3        63        8.96     271       -6.7
   08/04/2016 06:40      65.8      65.5       86     61.2      0.00      0.00      86.9     0.54      1014.0     3       132         4       133        8.96     271       -9.7
   08/04/2016 06:30      65.8      65.5       85     61.1      0.00      0.00      87.1     0.54      1013.0     3       124         5        96        8.96     271      -11.0
   08/04/2016 06:20      66.0      65.6       85     61.1      0.00      0.00      87.5     0.54      1013.0     3       134         4       127        8.96     271      -11.9
   08/04/2016 06:10      66.1      65.8       85     61.2      0.00      0.00      87.4     0.54      1013.0     1       144         3       130        8.97     271      -12.7
   08/04/2016 06:00      66.1      65.8       85     61.2      0.00      0.00      87.2     0.54      1013.0     2        72         4        77        8.97     271      -12.7
   08/04/2016 05:50      66.0      65.8       85     61.2      0.00      0.00      87.0     0.54      1013.0     2        30         3       355        8.97     271      -12.8
   08/04/2016 05:40      66.1      65.8       84     61.1      0.00      0.00      87.9     0.54      1013.0     2        41         3        29        8.97     271      -12.6
   08/04/2016 05:30      66.0      65.7       85     61.0      0.00      0.00      87.5     0.54      1013.0     1        86         3        73        8.97     271      -12.3
   08/04/2016 05:20      65.7      65.3       85     61.0      0.00      0.00      87.3     0.54      1013.0     2        57         4        22        8.97     271      -12.5
   08/04/2016 05:10      65.4      64.9       86     60.8      0.00      0.00      87.2     0.54      1013.0     3        79         4        88        8.97     270      -13.5
   08/04/2016 05:00      65.0      64.2       87     60.6      0.00      0.00      87.6     0.54      1013.0     2        46         2        47        8.97     268      -27.9
   08/04/2016 04:50      64.3      63.8       88     60.2      0.00      0.00      87.4     0.54      1013.0     1        62         2        31        8.97     266      -48.5
   08/04/2016 04:40      63.8      63.4       86     59.1      0.00      0.00      87.5     0.54      1013.0     1        59         2        54        8.97     265      -57.3
   08/04/2016 04:30      64.0      63.5       85     59.1      0.00      0.00      87.8     0.54      1013.0     1       109         1       105        8.97     265      -58.8
   08/04/2016 04:20      64.3      64.2       85     59.6      0.00      0.00      87.8     0.54      1013.0     1        87         2        71        8.97     265      -59.0
   08/04/2016 04:10      64.6      64.3       85     59.7      0.00      0.00      87.4     0.54      1013.0     1        73         2        75        8.97     265      -59.6
   08/04/2016 04:00      64.8      64.5       84     59.8      0.00      0.00      87.2     0.54      1013.0     1        99         2       127        8.97     266      -59.8
   08/04/2016 03:50      65.2      64.8       85     60.2      0.00      0.00      87.6     0.54      1013.0     1       113         2       125        8.97     266      -59.9
   08/04/2016 03:40      65.4      65.2       85     60.8      0.00      0.00      87.6     0.54      1013.0     2        98         2        83        8.97     268      -59.4
   08/04/2016 03:30      65.6      65.2       85     60.8      0.00      0.00      87.9     0.54      1013.0     2        77         3        73        8.97     268      -58.1
   08/04/2016 03:20      65.6      65.4       85     60.9      0.00      0.00      87.7     0.54      1013.0     2       114         2       128        8.97     269      -51.2
   08/04/2016 03:10      65.5      64.9       85     60.4      0.00      0.00      88.0     0.54      1013.0     1       121         2       117        8.97     269      -38.7
   08/04/2016 03:00      64.9      64.4       83     59.3      0.00      0.00      88.1     0.54      1013.0     1       100         2        77        8.97     268      -48.7
   08/04/2016 02:50      64.5      64.4       82     58.8      0.00      0.00      87.7     0.54      1013.0     0       127         1       130        8.97     267      -55.8
   08/04/2016 02:40      64.9      64.6       82     59.1      0.00      0.00      87.8     0.54      1013.0     1       183         1       193        8.98     267      -57.5
   08/04/2016 02:30      65.1      64.8       81     59.0      0.00      0.00      87.6     0.54      1013.0     1       150         1       159        8.98     267      -60.2
   08/04/2016 02:20      65.6      65.2       81     59.3      0.00      0.00      88.2     0.54      1013.0     2       122         2       130        8.98     268      -61.9
   08/04/2016 02:10      66.3      65.7       81     59.9      0.00      0.00      88.0     0.54      1013.0     1       157         2       166        8.98     269      -62.0
   08/04/2016 02:00      66.5      66.3       82     60.8      0.00      0.00      88.0     0.54      1013.0     1        88         2       100        8.98     269      -61.4
   08/04/2016 01:50      66.6      66.5       81     60.6      0.00      0.00      88.3     0.54      1013.0     1        66         2        23        8.98     269      -61.8
   08/04/2016 01:40      66.9      66.6       81     60.7      0.00      0.00      88.1     0.54      1013.0     1        97         1       102        8.98     269      -62.3
   08/04/2016 01:30      67.2      66.9       81     60.9      0.00      0.00      88.0     0.54      1013.0     1        74         1       104        8.98     269      -62.8
   08/04/2016 01:20      67.3      67.0       80     60.7      0.00      0.00      88.2     0.54      1013.0     1       109         2       101        8.98     269      -63.0
   08/04/2016 01:10      67.4      67.2       79     60.7      0.00      0.00      88.2     0.54      1013.0     1        90         2        73        8.99     269      -62.5
   08/04/2016 01:00      67.5      67.3       79     60.6      0.00      0.00      88.4     0.54      1013.0     2        75         4        81        8.99     269      -62.5
   08/04/2016 00:50      67.8      67.5       78     60.5      0.00      0.00      88.2     0.54      1013.0     2        80         3       112        8.99     269      -63.0
   08/04/2016 00:40      68.0      67.8       77     60.4      0.00      0.00      88.2     0.54      1013.0     2        51         2        46        8.99     270      -63.9
   08/04/2016 00:30      68.2      68.0       76     60.4      0.00      0.00      88.6     0.54      1013.0     2        49         3        38        8.99     269      -64.7
   08/04/2016 00:20      68.4      68.1       76     60.2      0.00      0.00      88.7     0.54      1014.0     2        72         3        82        8.99     269      -65.3
   08/04/2016 00:10      68.8      68.4       75     60.2      0.00      0.00      88.4     0.54      1014.0     1        50         3        64        8.99     269      -66.4
   08/04/2016 00:00      68.9      68.6       74     60.1      0.00      0.00      88.2     0.54      1014.0     2        38         2        52        8.99     269      -67.4
   08/03/2016 23:50      69.1      68.6       73     59.9      0.00      0.00      88.3     0.54      1014.0     2        73         3        63        9.00     269      -68.8
   08/03/2016 23:40      69.6      69.2       72     59.8      0.00      0.00      88.4     0.54      1014.0     1        58         2        80        9.00     269      -69.5
   08/03/2016 23:30      69.9      69.6       70     59.6      0.00      0.00      88.4     0.54      1014.0     1        41         2        45        9.00     269      -70.1
   08/03/2016 23:20      70.0      69.7       69     59.1      0.00      0.00      88.5     0.54      1014.0     1        45         3        33        9.00     269      -68.8
   08/03/2016 23:10      70.4      70.1       68     59.2      0.00      0.00      88.5     0.54      1014.0     1        51         2       127        9.00     269      -67.6
   08/03/2016 23:00      70.9      70.4       67     59.4      0.00      0.00      88.2     0.54      1014.0     2        37         3        44        9.01     269      -67.0
   08/03/2016 22:50      71.0      70.6       67     59.4      0.00      0.00      88.7     0.54      1014.0     1        58         1        40        9.01     269      -68.7
   08/03/2016 22:40      71.2      70.9       67     59.6      0.00      0.00      88.7     0.54      1014.0     1        98         2        85        9.01     269      -69.2
   08/03/2016 22:30      71.5      71.2       66     59.6      0.00      0.00      88.4     0.54      1014.0     2        73         3        95        9.01     268      -69.7
   08/03/2016 22:20      71.9      71.4       64     58.9      0.00      0.00      88.4     0.54      1014.0     2        75         3        82        9.02     268      -70.4
   08/03/2016 22:10      72.1      71.8       63     58.8      0.00      0.00      88.7     0.54      1014.0     1        73         1        89        9.02     268      -72.0
   08/03/2016 22:00      72.4      72.1       63     59.0      0.00      0.00      88.4     0.54      1014.0     1        72         1        69        9.02     268      -72.8
   08/03/2016 21:50      72.8      72.4       62     58.9      0.00      0.00      88.3     0.54      1014.0     1        58         1        99        9.02     268      -73.2
   08/03/2016 21:40      73.4      72.8       61     58.9      0.00      0.00      88.3     0.54      1013.0     1        43         1        37        9.02     267      -73.8
   08/03/2016 21:30      73.6      73.2       60     58.8      0.00      0.00      88.5     0.54      1013.0     1        32         2        78        9.02     268      -75.5
   08/03/2016 21:20      74.4      73.6       59     58.7      0.00      0.00      88.5     0.54      1013.0     2        53         3        38        9.02     267      -76.3
   08/03/2016 21:10      75.5      74.8       55     58.0      0.00      0.00      88.3     0.54      1013.0     2        44         2        33        9.03     267      -76.2
   08/03/2016 21:00      76.8      75.7       48     55.3      0.00      0.00      88.4     0.54      1013.0     2        45         3        30        9.03     267      -74.6
   08/03/2016 20:50      76.9      76.7       45     53.6      0.00      0.00      88.5     0.54      1013.0     1       126         2        58        9.03     266      -73.8
   08/03/2016 20:40      77.2      76.9       45     54.0      0.00      0.00      88.7     0.54      1013.0     2       190         3       201        9.03     266      -74.0
   08/03/2016 20:30      77.5      77.3       45     54.2      0.00      0.00      88.2     0.54      1012.0     3       169         4       173        9.03     266      -74.5
   08/03/2016 20:20      78.0      77.6       45     54.7      0.00      0.00      88.2     0.54      1012.0     3       164         5       158        9.04     266      -75.5
   08/03/2016 20:10      78.6      78.0       46     55.7      0.00      0.00      88.4     0.54      1012.0     3       168         3       172        9.04     266      -76.7
   08/03/2016 20:00      79.4      78.8       46     56.3      0.00      0.00      88.3     0.54      1012.0     3       158         4       158        9.04     266      -76.5
   08/03/2016 19:50      80.2      79.5       45     56.8      0.00      0.00      88.2     0.54      1012.0     2       167         4       158        9.05     266      -74.5
   08/03/2016 19:40      81.4      80.2       44     56.8      0.00      0.00      88.2     0.54      1012.0     3       166         5       170        9.05     266      -71.6
   08/03/2016 19:30      81.9      81.4       43     56.9      0.00      0.00      88.3     0.54      1012.0     3       184         4       206        9.05     266      -66.0
   08/03/2016 19:20      83.2      81.9       40     55.8      0.00      0.00      88.2     0.54      1012.0     4       190         6       202        9.06     265      -52.0
   08/03/2016 19:10      84.5      83.1       39     55.9      0.00      0.00      88.1     0.54      1012.0     4       219         7       182        9.06     265      -35.0
   08/03/2016 19:00      84.9      84.1       33     51.9      0.00      0.00      88.2     0.54      1012.0     3       226         4       257        9.07     265      -16.7
   08/03/2016 18:50      86.0      85.1       29     49.5      0.00      0.00      88.0     0.54      1012.0     4       205         6       227        9.07     265        4.1
   08/03/2016 18:40      85.9      85.5       28     48.7      0.00      0.00      88.0     0.54      1012.0     4       193         5       150        9.07     265       23.9
   08/03/2016 18:30      86.5      86.1       24     45.5      0.00      0.00      88.1     0.54      1011.0     5       172         7       169        9.08     265       44.9
   08/03/2016 18:20      87.0      86.3       23     44.6      0.00      0.00      88.0     0.54      1011.0     5       178         7       214        9.08     265       68.3
   08/03/2016 18:10      87.9      87.0       23     44.5      0.00      0.00      87.8     0.54      1011.0     5       167         7       193        9.09     265       90.3
   08/03/2016 18:00      88.3      87.6       26     48.5      0.00      0.00      87.7     0.54      1011.0     5       165         7       171        9.10     266      112.2
   08/03/2016 17:50      88.7      87.7       28     51.1      0.00      0.00      87.8     0.54      1011.0     5       154         7       139        9.10     266      136.3
   08/03/2016 17:40      89.1      88.0       29     52.0      0.00      0.00      87.6     0.54      1012.0     5       191         7       180        9.10     266      159.9
   08/03/2016 17:30      88.8      88.0       29     52.5      0.00      0.00      87.7     0.54      1012.0     5       188         7       185        9.10     265      183.1
   08/03/2016 17:20      89.1      88.2       29     52.6      0.00      0.00      87.6     0.53      1012.0     5       184         6       151        9.11     265      204.7
   08/03/2016 17:10      88.8      87.8       28     51.3      0.00      0.00      87.6     0.53      1012.0     6       167         8       170        9.10     266      226.6
   08/03/2016 17:00      89.8      87.8       27     50.7      0.00      0.00      87.5     0.53      1012.0     5       167         8       169        9.11     265      245.2
   08/03/2016 16:50      89.8      89.0       25     48.7      0.00      0.00      87.4     0.53      1012.0     5       168         8       134        9.11     266      265.2
   08/03/2016 16:40      90.1      89.3       23     47.0      0.00      0.00      87.5     0.53      1012.0     6       166        10       176        9.10     266      283.7
   08/03/2016 16:30      90.4      89.7       22     46.7      0.00      0.00      87.4     0.53      1012.0     6       174         8       185        9.10     266      303.1
   08/03/2016 16:20      92.5      90.2       22     47.1      0.00      0.00      87.3     0.53      1012.0     4       191         8       192        9.10     266      316.6
   08/03/2016 16:10      93.8      92.9       18     43.1      0.00      0.00      87.2     0.53      1012.0     3        91         5       138        9.10     267      328.2
   08/03/2016 16:00      93.4      91.9       18     42.9      0.00      0.00      87.2     0.53      1012.0     3        73         5       136        9.10     268      348.6
   08/03/2016 15:50      93.2      92.2       18     43.4      0.00      0.00      87.2     0.53      1012.0     3        86         5       135        9.10     267      369.4
   08/03/2016 15:40      93.4      92.7       19     44.1      0.00      0.00      87.1     0.53      1012.0     3        77         5       115        9.10     268      383.1
   08/03/2016 15:30      93.5      92.3       18     43.6      0.00      0.00      87.0     0.53      1012.0     3       101         7        95        9.10     268      401.1
   08/03/2016 15:20      93.4      91.4       19     44.4      0.00      0.00      86.9     0.53      1012.0     4        61         7        86        9.11     268      416.9
   08/03/2016 15:10      92.9      92.3       19     44.0      0.00      0.00      86.7     0.53      1012.0     5        75         6        86        9.11     268      431.5
   08/03/2016 15:00      93.2      92.0       20     46.3      0.00      0.00      86.7     0.53      1012.0     5        55         6        38        9.11     268      444.2
   08/03/2016 14:50      92.8      92.0       21     47.3      0.00      0.00      86.8     0.53      1013.0     4        41         6        77        9.11     269      456.9
   08/03/2016 14:40      93.0      91.3       21     46.2      0.00      0.00      86.7     0.53      1013.0     5        56         9        79        9.11     270      470.1
   08/03/2016 14:30      93.2      92.2       21     46.5      0.00      0.00      86.6     0.53      1013.0     3        51         6        69        9.11     270      478.4
   08/03/2016 14:20      93.1      91.6       22     47.4      0.00      0.00      86.5     0.53      1013.0     4        27         6        31        9.11     270      486.5
   08/03/2016 14:10      92.1      91.8       22     47.8      0.00      0.00      86.5     0.53      1013.0     4        48         7        35        9.11     270      495.9
   08/03/2016 14:00      92.0      91.1       24     49.1      0.00      0.00      86.6     0.53      1013.0     4        35         6        37        9.11     271      504.5
   08/03/2016 13:50      91.8      90.8       24     49.8      0.00      0.00      86.5     0.53      1013.0     4        32         7        22        9.11     271      510.4
   08/03/2016 13:40      91.6      90.5       25     50.4      0.00      0.00      86.3     0.53      1013.0     4        21         5        57        9.11     271      517.3
   08/03/2016 13:30      90.7      89.0       29     52.8      0.00      0.00      86.3     0.53      1014.0     4        23         7         1        9.11     271      523.0
   08/03/2016 13:20      89.0      88.2       36     58.3      0.00      0.00      86.3     0.53      1014.0     4        26         5       352        9.11     272      527.1
   08/03/2016 13:10      88.9      87.8       37     58.9      0.00      0.00      86.1     0.53      1014.0     4         5         7       348        9.11     274      527.5
   08/03/2016 13:00      88.4      87.2       39     59.5      0.00      0.00      86.3     0.53      1014.0     3        21         4        19        9.11     277      531.7
   08/03/2016 12:50      88.2      86.6       39     59.5      0.00      0.00      86.0     0.53      1014.0     3        40         6        36        9.11     280      534.8
   08/03/2016 12:40      86.7      84.8       41     59.5      0.00      0.00      86.5     0.53      1014.0     3        24         6        88        9.11     280      535.6
   08/03/2016 12:30      86.6      85.2       41     59.5      0.00      0.00      86.1     0.53      1014.0     5         3         7       359        9.11     282      531.7
   08/03/2016 12:20      86.7      85.7       40     59.3      0.00      0.00      85.9     0.53      1014.0     3        49         5        63        9.11     284      530.1
   08/03/2016 12:10      86.3      85.2       41     59.5      0.00      0.00      86.2     0.53      1014.0     4        44         6        30        9.11     288      526.8
   08/03/2016 12:00      85.5      84.4       42     59.7      0.00      0.00      86.1     0.53      1015.0     4        36         7        56        9.11     290      522.2
   08/03/2016 11:50      85.0      84.3       43     59.9      0.00      0.00      86.2     0.53      1015.0     4        31         6        10        9.11     288      515.3
   08/03/2016 11:40      84.6      84.2       44     60.2      0.00      0.00      86.4     0.53      1015.0     4        46         7         4        9.11     291      509.4
   08/03/2016 11:30      84.1      82.5       47     60.4      0.00      0.00      86.5     0.53      1015.0     4        12         7       355        9.11     295      501.7
   08/03/2016 11:20      82.5      82.0       48     60.5      0.00      0.00      86.5     0.53      1015.0     4        31         5        67        9.11     298      492.6
   08/03/2016 11:10      82.5      81.9       49     61.1      0.00      0.00      86.2     0.53      1015.0     4        12         6       325        9.10     304      482.4
   08/03/2016 11:00      82.0      81.0       50     61.1      0.00      0.00      86.2     0.53      1015.0     2        46         4        30        9.11     311      471.7
   08/03/2016 10:50      80.9      79.5       52     61.2      0.00      0.00      86.2     0.53      1015.0     2        20         4        44        9.11     316      462.7
   08/03/2016 10:40      80.7      79.7       52     61.3      0.00      0.00      86.3     0.53      1015.0     4       346         5       318        9.11     315      451.1
   08/03/2016 10:30      79.9      78.7       54     61.4      0.00      0.00      86.5     0.53      1015.0     3        32         7       344        9.10     330      437.2
   08/03/2016 10:20      78.7      77.5       55     61.0      0.00      0.00      86.5     0.53      1015.0     3        27         4        70        9.10     348      421.9
   08/03/2016 10:10      77.9      76.3       57     61.0      0.00      0.00      86.6     0.53      1015.0     3         6         6       354        9.10     354      408.3
   08/03/2016 10:00      76.7      75.6       59     60.8      0.00      0.00      86.6     0.54      1015.0     2        32         3        27        9.10     354      393.4
   08/03/2016 09:50      76.0      75.3       60     60.8      0.00      0.00      86.5     0.54      1015.0     2        28         3        16        9.10     355      378.5
   08/03/2016 09:40      75.9      74.4       61     61.0      0.00      0.00      86.9     0.54      1015.0     3        18         5        83        9.10     354      361.4
   08/03/2016 09:30      74.4      73.5       64     61.0      0.00      0.00      86.7     0.54      1015.0     2        51         5       100        9.10     352      342.9
   08/03/2016 09:20      74.3      73.3       64     60.9      0.00      0.00      86.5     0.54      1015.0     2         8         4        25        9.10     353      328.6
   08/03/2016 09:10      74.4      72.5       65     60.9      0.00      0.00      86.9     0.54      1015.0     1         6         3         6        9.10     357      310.8
   08/03/2016 09:00      72.3      71.3       68     60.6      0.00      0.00      86.2     0.54      1016.0     2        21         4         6        8.69     270      286.9
   08/03/2016 08:50      71.1      69.5       72     60.6      0.00      0.00      86.6     0.54      1016.0     2        99         5        74        8.69     270      285.1
   08/03/2016 08:40      69.5      69.1       74     60.5      0.00      0.00      86.6     0.54      1016.0     1       287         3       127        8.69     270      181.8
   08/03/2016 08:30      69.4      68.9       74     60.5      0.00      0.00      87.0     0.54      1016.0     2        99         3        81        8.69     270       41.7
   08/03/2016 08:20      69.1      68.8       74     60.6      0.00      0.00      86.9     0.54      1016.0     2        97         5       137        8.70     270        3.8
   08/03/2016 08:10      68.6      67.7       77     60.5      0.00      0.00      86.8     0.54      1016.0     3       133         5       132        8.70     270       -1.5
   08/03/2016 08:00      68.2      67.8       77     60.4      0.00      0.00      86.6     0.54      1016.0     3       114         4       135        8.70     270       29.1
   08/03/2016 07:50      67.8      67.2       78     60.4      0.00      0.00      86.9     0.54      1016.0     1       115         2        90        8.70     270       -5.6
   08/03/2016 07:40      67.3      66.7       79     60.2      0.00      0.00      87.0     0.54      1016.0     2        69         3       136        8.70     270      -10.4
   08/03/2016 07:30      67.0      66.6       79     60.1      0.00      0.00      87.1     0.54      1016.0     2        92         3        76        8.70     270      -16.4
   08/03/2016 07:20      66.8      66.5       80     60.1      0.00      0.00      87.2     0.54      1016.0     2        18         3       357        8.70     270      -18.8
   08/03/2016 07:10      66.7      66.2       80     60.1      0.00      0.00      87.3     0.54      1016.0     2        40         3        55        8.70     270      -23.7
   08/03/2016 07:00      66.3      66.1       81     60.0      0.00      0.00      86.9     0.54      1015.0     2        47         2        66        8.70     270      -29.2
   08/03/2016 06:50      66.3      65.6       81     60.0      0.00      0.00      87.1     0.54      1015.0     2        35         2        69        8.70     270      -33.9
   08/03/2016 06:40      65.9      65.6       82     60.0      0.00      0.00      87.1     0.54      1015.0     1        46         2        85        8.70     270      -38.7
   08/03/2016 06:30      65.9      65.4       82     60.0      0.00      0.00      87.6     0.54      1015.0     2        24         3         5        8.70     270      -41.5
   08/03/2016 06:20      65.4      65.1       83     60.0      0.00      0.00      87.3     0.54      1015.0     2        61         3        85        8.71     270      -43.4
   08/03/2016 06:10      65.4      64.3       84     60.0      0.00      0.00      87.6     0.54      1015.0     3        94         3        75        8.71     270      -35.4
   08/03/2016 06:00      64.4      63.4       84     58.8      0.00      0.00      87.4     0.54      1015.0     2       109         4        93        8.70     270      -30.3
   08/03/2016 05:50      63.5      63.3       83     58.3      0.00      0.00      87.5     0.54      1015.0     1       102         1       113        8.71     270      -46.5
   08/03/2016 05:40      63.5      63.4       84     58.5      0.00      0.00      87.7     0.54      1015.0     1       135         2       130        8.71     269      -53.4
   08/03/2016 05:30      63.6      63.4       83     58.3      0.00      0.00      87.5     0.54      1015.0     1       140         1       128        8.71     269      -51.6
   08/03/2016 05:20      63.8      63.5       83     58.5      0.00      0.00      87.8     0.54      1015.0     1       120         1       116        8.71     269      -47.0
   08/03/2016 05:10      64.0      63.9       84     58.8      0.00      0.00      87.7     0.54      1015.0     1       155         1       162        8.71     269      -52.6
   08/03/2016 05:00      64.5      63.9       82     58.7      0.00      0.00      87.5     0.54      1015.0     1       130         2       157        8.71     269      -53.9
   08/03/2016 04:50      65.1      64.7       82     59.2      0.00      0.00      87.5     0.54      1015.0     1        68         1        66        8.71     269      -55.0
   08/03/2016 04:40      65.3      65.1       82     59.6      0.00      0.00      88.2     0.54      1015.0     1        90         2        80        8.71     269      -55.7
   08/03/2016 04:30      65.4      65.2       82     59.5      0.00      0.00      87.9     0.54      1015.0     2        89         3        73        8.71     269      -55.7
   08/03/2016 04:20      65.4      65.3       81     59.3      0.00      0.00      87.8     0.54      1015.0     1        85         2        57        8.71     269      -56.1
   08/03/2016 04:10      65.4      65.2       81     59.3      0.00      0.00      87.9     0.54      1015.0     1       107         2       140        8.71     269      -55.9
   08/03/2016 04:00      65.4      64.9       80     58.9      0.00      0.00      88.1     0.54      1015.0     2       109         3       104        8.71     269      -55.4
   08/03/2016 03:50      65.0      64.5       80     58.4      0.00      0.00      87.7     0.54      1015.0     1       106         2       111        8.71     269      -55.5
   08/03/2016 03:40      64.8      64.5       79     58.1      0.00      0.00      87.9     0.54      1015.0     1       120         1       119        8.71     269      -55.8
   08/03/2016 03:30      64.9      64.8       80     58.6      0.00      0.00      87.8     0.54      1015.0     1       119         2       138        8.71     269      -56.4
   08/03/2016 03:20      65.2      64.9       78     58.0      0.00      0.00      87.9     0.54      1015.0     1       107         1       130        8.71     269      -57.5
   08/03/2016 03:10      65.7      65.2       76     57.7      0.00      0.00      88.0     0.54      1015.0     1       105         1       101        8.71     269      -58.2
   08/03/2016 03:00      65.9      65.6       77     58.4      0.00      0.00      87.9     0.54      1015.0     1       110         1        80        8.71     269      -57.7
   08/03/2016 02:50      66.0      65.6       76     58.1      0.00      0.00      88.4     0.54      1015.0     1       108         1        73        8.71     269      -59.1
   08/03/2016 02:40      66.3      66.1       76     58.5      0.00      0.00      88.3     0.54      1015.0     0       105         1        91        8.72     269      -59.6
   08/03/2016 02:30      66.4      66.3       76     58.6      0.00      0.00      88.2     0.54      1015.0     1        70         2        80        8.72     269      -60.4
   08/03/2016 02:20      66.5      66.3       76     58.7      0.00      0.00      87.8     0.54      1015.0     1        82         2        75        8.72     269      -60.7
   08/03/2016 02:10      66.6      66.4       76     58.6      0.00      0.00      88.2     0.55      1015.0     1        81         2        82        8.72     269      -61.4
   08/03/2016 02:00      66.8      66.6       75     58.5      0.00      0.00      88.4     0.54      1015.0     1        70         2        75        8.72     269      -61.8
   08/03/2016 01:50      66.9      66.7       75     58.5      0.00      0.00      88.6     0.54      1015.0     2        90         2        67        8.72     268      -62.3
   08/03/2016 01:40      67.0      66.8       74     58.5      0.00      0.00      88.4     0.54      1015.0     2        76         2        78        8.72     269      -62.7
   08/03/2016 01:30      67.2      66.9       74     58.6      0.00      0.00      88.1     0.55      1016.0     1        71         2        64        8.72     268      -63.0
   08/03/2016 01:20      67.4      67.0       74     58.7      0.00      0.00      88.2     0.55      1016.0     1        62         2        74        8.72     268      -62.6
   08/03/2016 01:10      67.3      67.0       74     58.8      0.00      0.00      88.3     0.55      1016.0     1        75         1        98        8.72     268      -62.4
   08/03/2016 01:00      67.4      67.2       74     58.9      0.00      0.00      88.6     0.55      1016.0     0       122         1        59        8.72     268      -63.0
   08/03/2016 00:50      67.4      67.2       74     58.8      0.00      0.00      88.5     0.55      1016.0     1       101         1        69        8.72     268      -63.2
   08/03/2016 00:40      67.5      67.3       74     58.8      0.00      0.00      88.6     0.55      1016.0     1        79         4        77        8.72     268      -63.1
   08/03/2016 00:30      67.8      67.4       74     58.8      0.00      0.00      88.5     0.55      1016.0     2        69         3        75        8.72     268      -63.4
   08/03/2016 00:20      67.8      67.5       73     58.6      0.00      0.00      88.5     0.54      1016.0     2        92         3        77        8.73     268      -63.5
   08/03/2016 00:10      68.0      67.6       72     58.3      0.00      0.00      88.5     0.55      1016.0     3        86         5        91        8.73     268      -64.2
   08/03/2016 00:00      68.3      68.0       70     58.0      0.00      0.00      88.5     0.55      1016.0     2        70         3        68        8.73     267      -64.5
   08/02/2016 23:50      68.4      68.1       69     57.7      0.00      0.00      88.8     0.55      1016.0     2        82         4       101        8.73     267      -65.1
   08/02/2016 23:40      68.3      68.0       71     58.4      0.00      0.00      88.7     0.55      1016.0     2        68         3        76        8.73     267      -65.9
   08/02/2016 23:30      68.3      68.1       71     58.6      0.00      0.00      89.1     0.55      1016.0     2        72         4        75        8.73     267      -66.5
   08/02/2016 23:20      68.7      68.4       71     58.9      0.00      0.00      88.7     0.55      1016.0     2        61         4        70        8.73     267      -66.7
   08/02/2016 23:10      69.1      68.6       70     58.8      0.00      0.00      88.6     0.55      1016.0     3        57         4        76        8.73     267      -67.7
   08/02/2016 23:00      69.7      69.1       68     58.5      0.00      0.00      88.5     0.55      1016.0     2        41         4        35        8.73     267      -68.7
   08/02/2016 22:50      70.3      69.8       65     57.9      0.00      0.00      88.7     0.55      1016.0     2        29         3        28        8.73     267      -68.8
   08/02/2016 22:40      70.6      70.4       63     57.1      0.00      0.00      88.6     0.55      1016.0     2        43         3        33        8.74     267      -70.0
   08/02/2016 22:30      71.5      70.8       61     57.0      0.00      0.00      88.7     0.55      1016.0     2        64         5       107        8.74     267      -70.0
   08/02/2016 22:20      71.8      71.6       59     56.5      0.00      0.00      89.0     0.55      1015.0     2        33         3        23        8.74     267      -70.1
   08/02/2016 22:10      72.5      71.8       56     55.7      0.00      0.00      88.6     0.55      1015.0     2        43         3        17        8.74     267      -69.3
   08/02/2016 22:00      72.7      72.3       54     55.0      0.00      0.00      88.6     0.55      1015.0     1        46         2        96        8.74     266      -68.3
   08/02/2016 21:50      73.5      72.8       52     54.4      0.00      0.00      88.7     0.55      1015.0     2        49         3        90        8.74     266      -68.5
   08/02/2016 21:40      73.8      73.6       52     55.0      0.00      0.00      88.7     0.55      1015.0     2        38         3        80        8.74     266      -68.6
   08/02/2016 21:30      74.3      73.8       53     55.7      0.00      0.00      88.8     0.55      1015.0     2        68         2        73        8.75     266      -68.6
   08/02/2016 21:20      75.3      74.4       51     55.7      0.00      0.00      88.7     0.55      1015.0     2        55         3        72        8.75     266      -69.7
   08/02/2016 21:10      75.6      75.3       50     55.3      0.00      0.00      88.5     0.55      1014.0     2        55         3        55        8.75     266      -70.6
   08/02/2016 21:00      76.3      75.7       49     55.5      0.00      0.00      88.6     0.55      1014.0     2        47         2        66        8.75     266      -71.8
   08/02/2016 20:50      77.9      76.6       48     55.8      0.00      0.00      88.8     0.55      1014.0     2        53         3        46        8.75     265      -72.5
   08/02/2016 20:40      78.3      78.0       50     58.0      0.00      0.00      88.7     0.55      1014.0     1        53         3       349        8.75     266      -72.8
   08/02/2016 20:30      78.8      78.3       52     59.3      0.00      0.00      88.7     0.55      1014.0     2       198         4       203        8.75     265      -72.9
   08/02/2016 20:20      79.0      78.8       51     59.1      0.00      0.00      88.6     0.55      1014.0     2       223         4       241        8.76     265      -73.0
   08/02/2016 20:10      79.6      79.2       50     59.2      0.00      0.00      88.4     0.55      1014.0     4       234         5       242        8.76     265      -72.7
   08/02/2016 20:00      80.0      79.5       49     59.1      0.00      0.00      88.6     0.55      1013.0     3       235         5       215        8.76     265      -71.6
   08/02/2016 19:50      80.5      80.0       48     58.9      0.00      0.00      88.5     0.55      1013.0     4       221         5       245        8.77     265      -69.1
   08/02/2016 19:40      81.5      80.8       46     58.7      0.00      0.00      88.5     0.54      1013.0     3       216         6       234        8.77     265      -65.7
   08/02/2016 19:30      82.6      81.6       45     58.7      0.00      0.00      88.6     0.54      1013.0     4       228         6       236        8.77     265      -59.2
   08/02/2016 19:20      83.3      82.5       44     58.8      0.00      0.00      88.0     0.54      1013.0     4       250         6       237        8.78     265      -43.0
   08/02/2016 19:10      83.8      83.2       43     58.9      0.00      0.00      88.4     0.54      1013.0     4       260         6       231        8.78     265      -26.8
   08/02/2016 19:00      84.6      83.7       43     59.0      0.00      0.00      88.1     0.54      1012.0     4       249         6       239        8.79     265       -8.1
   08/02/2016 18:50      85.1      84.5       42     58.9      0.00      0.00      88.2     0.54      1012.0     5       255         7       276        8.79     265       11.4
   08/02/2016 18:40      85.6      84.6       42     59.1      0.00      0.00      88.1     0.54      1012.0     5       265         8       247        8.79     265       30.3
   08/02/2016 18:30      86.0      85.6       41     59.4      0.00      0.00      88.0     0.54      1012.0     5       299         7       323        8.80     265       49.2
   08/02/2016 18:20      86.6      86.2       40     59.6      0.00      0.00      88.1     0.54      1012.0     4       291         6       296        8.80     265       70.6
   08/02/2016 18:10      87.9      86.8       39     59.7      0.00      0.00      88.0     0.54      1012.0     4       300         6       288        8.80     265       91.1
   08/02/2016 18:00      87.8      87.4       39     59.7      0.00      0.00      88.1     0.54      1012.0     5       267         6       273        8.81     265      115.1
   08/02/2016 17:50      88.2      87.1       39     59.9      0.00      0.00      88.0     0.54      1012.0     5       280         8       277        8.81     265      136.8
   08/02/2016 17:40      88.0      87.6       39     60.1      0.00      0.00      87.9     0.54      1012.0     6       312         9       293        8.81     265      158.6
   08/02/2016 17:30      89.5      87.7       39     60.1      0.00      0.00      87.7     0.54      1012.0     8       300        11       298        8.82     264      180.6
   08/02/2016 17:20      90.4      89.6       37     60.3      0.00      0.00      87.7     0.54      1012.0     5       303        10       316        8.82     265      201.2
   08/02/2016 17:10      91.9      90.8       35     59.8      0.00      0.00      87.7     0.54      1012.0     5       298         6       309        8.82     265      220.9
   08/02/2016 17:00      92.9      92.0       34     59.6      0.00      0.00      87.6     0.54      1012.0     6       314         9       337        8.83     265      242.2
   08/02/2016 16:50      93.7      93.1       24     51.1      0.00      0.00      87.6     0.54      1012.0     3       324         7       272        8.83     265      259.4
   08/02/2016 16:40      92.9      91.8       23     48.4      0.00      0.00      87.6     0.54      1012.0     3       160         5       186        8.83     265      282.8
   08/02/2016 16:30      92.1      91.1       23     48.6      0.00      0.00      87.4     0.54      1012.0     4       216         8       212        8.84     264      303.8
   08/02/2016 16:20      92.3      91.6       23     48.8      0.00      0.00      87.4     0.54      1012.0     5       218         6       196        8.84     264      322.2
   08/02/2016 16:10      92.1      91.2       23     48.5      0.00      0.00      87.2     0.54      1012.0     5       190         6       168        8.85     264      340.3
   08/02/2016 16:00      93.3      91.3       22     47.9      0.00      0.00      87.4     0.54      1012.0     5       178         8       161        8.85     264      354.6
   08/02/2016 15:50      93.8      91.0       20     45.0      0.00      0.00      87.2     0.54      1012.0     3       236         4       288        8.86     265      369.4
   08/02/2016 15:40      92.6      91.5       19     44.6      0.00      0.00      87.3     0.54      1012.0     4       155         6       188        8.86     265      388.0
   08/02/2016 15:30      92.0      91.0       19     43.9      0.00      0.00      87.1     0.54      1013.0     4        99         7       109        8.87     265      405.4
   08/02/2016 15:20      93.2      90.9       19     43.3      0.00      0.00      87.2     0.54      1013.0     5       123         7       104        8.87     266      418.9
   08/02/2016 15:10      93.2      92.2       17     41.3      0.00      0.00      87.1     0.54      1013.0     4        66         6        58        8.88     266      430.0
   08/02/2016 15:00      92.5      91.7       18     42.3      0.00      0.00      86.9     0.54      1013.0     5        62         8        78        8.88     265      444.6
   08/02/2016 14:50      92.6      92.0       19     44.0      0.00      0.00      86.9     0.54      1013.0     4        85         6        79        8.89     266      457.6
   08/02/2016 14:40      93.4      92.4       19     44.5      0.00      0.00      86.9     0.54      1013.0     4        62         8        64        8.89     266      465.7
   08/02/2016 14:30      93.4      91.9       19     44.0      0.00      0.00      86.8     0.54      1013.0     4        42         5        35        8.89     268      473.2
   08/02/2016 14:20      94.0      92.6       18     43.3      0.00      0.00      86.8     0.54      1014.0     4        47         5        46        8.90     268      482.8
   08/02/2016 14:10      93.7      91.6       18     42.8      0.00      0.00      86.7     0.54      1014.0     4        58         8        84        8.90     268      491.4
   08/02/2016 14:00      92.1      91.1       19     42.7      0.00      0.00      86.8     0.54      1014.0     3        40         4        40        8.90     268      500.1
   08/02/2016 13:50      92.2      91.1       19     43.2      0.00      0.00      86.4     0.53      1014.0     4        57         6         9        8.90     268      507.3
   08/02/2016 13:40      91.5      90.7       24     48.7      0.00      0.00      86.5     0.53      1014.0     3        35         4        42        8.91     268      513.4
   08/02/2016 13:30      90.8      89.4       25     50.1      0.00      0.00      86.5     0.53      1014.0     4        25         7       340        8.91     268      518.3
   08/02/2016 13:20      90.9      89.4       24     48.5      0.00      0.00      86.6     0.53      1014.0     4        24         6        32        8.91     268      520.4
   08/02/2016 13:10      90.2      88.9       24     47.6      0.00      0.00      86.4     0.53      1014.0     4         1         6        17        8.91     268      523.9
   08/02/2016 13:00      89.2      88.3       27     50.4      0.00      0.00      86.3     0.53      1015.0     4        21         5        24        8.91     268      527.6
   08/02/2016 12:50      88.9      86.3       32     53.6      0.00      0.00      86.3     0.53      1015.0     4        63         6        60        8.91     268      531.5
   08/02/2016 12:40      87.7      86.4       35     55.7      0.00      0.00      86.3     0.53      1015.0     4        88         6        80        8.91     268      532.6
   08/02/2016 12:30      86.8      86.1       36     56.5      0.00      0.00      86.4     0.53      1015.0     3        80         6       120        8.91     269      530.8
   08/02/2016 12:20      86.8      85.0       42     59.9      0.00      0.00      86.2     0.53      1015.0     4        21         7        81        8.92     269      526.5
   08/02/2016 12:10      85.0      84.2       44     60.2      0.00      0.00      86.5     0.54      1015.0     4       357         7       344        8.92     269      524.4
   08/02/2016 12:00      84.5      83.5       45     60.4      0.00      0.00      86.4     0.54      1015.0     3        43         5        34        8.92     269      521.1
   08/02/2016 11:50      84.0      83.4       46     60.9      0.00      0.00      86.4     0.54      1015.0     3        24         6         5        8.92     270      514.6
   08/02/2016 11:40      83.6      81.8       48     61.2      0.00      0.00      86.5     0.54      1016.0     4        18         6        20        8.92     270      508.1
   08/02/2016 11:30      82.7      81.6       49     61.2      0.00      0.00      86.9     0.54      1016.0     3        30         6        83        8.92     270      500.8
   08/02/2016 11:20      81.1      80.2       50     60.5      0.00      0.00      86.5     0.54      1016.0     4         7         6       344        8.92     270      491.2
   08/02/2016 11:10      79.9      79.5       51     60.1      0.00      0.00      86.2     0.54      1016.0     3        18         4        90        8.92     270      482.0
   08/02/2016 11:00      80.1      79.2       51     60.0      0.00      0.00      86.5     0.54      1016.0     3        15         5         7        8.92     271      471.4
   08/02/2016 10:50      79.4      78.1       53     60.3      0.00      0.00      86.6     0.54      1016.0     2        94         4       176        8.92     270      461.1
   08/02/2016 10:40      78.9      77.4       54     60.3      0.00      0.00      86.5     0.54      1016.0     3        58         4         1        8.92     270      449.3
   08/02/2016 10:30      77.3      76.3       56     59.9      0.00      0.00      86.4     0.54      1016.0     2        91         4         5        8.92     271      435.4
   08/02/2016 10:20      76.8      75.2       58     60.3      0.00      0.00      86.1     0.54      1016.0     2       354         4        15        8.92     272      418.5
   08/02/2016 10:10      75.4      74.3       61     60.5      0.00      0.00      86.5     0.54      1016.0     2         6         4        58        8.92     272      403.3
   08/02/2016 10:00      74.6      73.5       64     60.8      0.00      0.00      86.8     0.54      1016.0     2       331         4       308        8.92     272      388.2
   08/02/2016 09:50      73.4      72.2       66     61.0      0.00      0.00      86.7     0.54      1016.0     3        33         4        77        8.92     273      371.8
   08/02/2016 09:40      72.1      70.8       69     61.1      0.00      0.00      86.6     0.54      1016.0     4         3         6       347        8.92     274      350.5
   08/02/2016 09:30      71.3      70.8       71     61.2      0.00      0.00      86.7     0.55      1016.0     3        22         5       341        8.92     274      332.6
   08/02/2016 09:20      71.2      70.1       72     61.0      0.00      0.00      87.1     0.55      1016.0     2        43         5        29        8.92     275      316.0
   08/02/2016 09:10      70.4      69.2       74     61.1      0.00      0.00      86.8     0.55      1016.0     3        39         5        77        8.92     276      297.2
   08/02/2016 09:00      69.1      68.4       76     60.8      0.00      0.00      86.5     0.55      1016.0     4         9         6         3        8.92     277      286.8
   08/02/2016 08:50      68.7      67.4       78     60.9      0.00      0.00      87.1     0.55      1016.0     2        25         4        26        8.92     278      207.4
   08/02/2016 08:40      67.8      67.4       79     60.8      0.00      0.00      86.9     0.55      1016.0     2        23         5        15        8.92     279      150.0
   08/02/2016 08:30      67.5      66.9       80     60.8      0.00      0.00      87.2     0.55      1016.0     2        40         5       350        8.92     280       96.7
   08/02/2016 08:20      67.3      66.7       81     60.9      0.00      0.00      86.9     0.55      1016.0     3        33         4        67        8.93     281       76.3
   08/02/2016 08:10      66.9      66.6       81     60.9      0.00      0.00      86.8     0.55      1016.0     3        36         4        55        8.92     282       52.7
   08/02/2016 08:00      66.7      66.5       82     60.8      0.00      0.00      86.6     0.55      1016.0     3        42         5        56        8.93     282       33.8
   08/02/2016 07:50      67.0      66.7       81     60.9      0.00      0.00      86.6     0.55      1016.0     3        36         4        73        8.93     280       12.4
   08/02/2016 07:40      67.1      66.4       80     60.2      0.00      0.00      86.8     0.55      1016.0     2        34         4        20        8.93     280        4.0
   08/02/2016 07:30      66.5      66.0       80     59.7      0.00      0.00      86.9     0.55      1016.0     2        40         3        31        8.93     280        4.0
   08/02/2016 07:20      66.1      65.5       80     59.5      0.00      0.00      87.4     0.55      1016.0     2        61         5        77        8.93     281       -0.4
   08/02/2016 07:10      65.7      65.1       82     59.6      0.00      0.00      87.0     0.55      1016.0     2        70         3        81        8.93     279      -20.3
   08/02/2016 07:00      65.3      64.7       83     59.7      0.00      0.00      87.5     0.55      1016.0     2        83         2        83        8.94     278      -26.3
   08/02/2016 06:50      64.8      64.2       84     59.6      0.00      0.00      87.8     0.55      1016.0     1        75         2        86        8.94     278      -28.3
   08/02/2016 06:40      64.2      63.2       85     59.0      0.00      0.00      87.9     0.55      1016.0     1        98         2       129        8.94     278      -34.8
   08/02/2016 06:30      63.4      63.0       84     58.1      0.00      0.00      87.6     0.55      1016.0     1        89         1       103        8.94     277      -42.1
   08/02/2016 06:20      63.1      62.7       84     58.1      0.00      0.00      87.1     0.55      1016.0     1       120         1       125        8.94     276      -47.2
   08/02/2016 06:10      63.0      62.6       83     57.5      0.00      0.00      87.7     0.55      1016.0     1       112         1       121        8.94     275      -52.5
   08/02/2016 06:00      62.7      62.5       82     57.2      0.00      0.00      87.4     0.55      1016.0     1       114         2       128        8.94     275      -54.4
   08/02/2016 05:50      63.0      62.5       82     57.2      0.00      0.00      87.8     0.55      1016.0     1       118         1       132        8.94     274      -55.3
   08/02/2016 05:40      63.1      62.8       82     57.4      0.00      0.00      87.6     0.55      1015.0     1       165         1       134        8.94     273      -56.1
   08/02/2016 05:30      63.1      62.6       82     57.3      0.00      0.00      87.4     0.55      1015.0     1       150         1       168        8.94     272      -55.9
   08/02/2016 05:20      63.1      62.8       81     57.1      0.00      0.00      87.7     0.55      1015.0     1       127         1       123        8.94     271      -56.3
   08/02/2016 05:10      63.4      63.0       81     57.3      0.00      0.00      88.1     0.55      1015.0     0       101         1       141        8.94     271      -56.7
   08/02/2016 05:00      63.4      63.3       81     57.4      0.00      0.00      87.7     0.55      1015.0     0       139         1       167        8.94     270      -57.3
   08/02/2016 04:50      63.7      63.4       80     57.3      0.00      0.00      88.1     0.55      1015.0     0       167         0       163        8.94     269      -57.1
   08/02/2016 04:40      63.9      63.5       80     57.4      0.00      0.00      87.8     0.55      1015.0     1       195         1       180        8.94     269      -57.3
   08/02/2016 04:30      64.1      63.8       80     57.6      0.00      0.00      88.3     0.55      1015.0     1       141         2       113        8.94     268      -58.1
   08/02/2016 04:20      64.4      64.1       79     57.6      0.00      0.00      87.9     0.55      1015.0     1       119         2       122        8.94     267      -59.1
   08/02/2016 04:10      64.5      64.3       79     57.5      0.00      0.00      87.7     0.55      1015.0     1       116         2       134        8.94     267      -59.7
   08/02/2016 04:00      64.6      64.4       78     57.4      0.00      0.00      88.2     0.55      1015.0     2       125         2       127        8.94     266      -60.4
   08/02/2016 03:50      64.9      64.5       77     57.3      0.00      0.00      88.4     0.56      1015.0     2       143         2       154        8.94     266      -60.1
   08/02/2016 03:40      65.1      64.9       77     57.6      0.00      0.00      88.1     0.56      1015.0     2       128         2       110        8.94     265      -59.9
   08/02/2016 03:30      65.0      64.9       77     57.5      0.00      0.00      88.3     0.56      1015.0     2       112         3       101        8.94     265      -59.5
   08/02/2016 03:20      65.4      65.1       76     57.4      0.00      0.00      88.2     0.56      1015.0     2       121         2       123        8.94     265      -59.7
   08/02/2016 03:10      65.6      65.4       76     57.6      0.00      0.00      88.2     0.56      1015.0     1       103         2       108        8.94     264      -60.3
   08/02/2016 03:00      65.6      65.4       76     57.7      0.00      0.00      88.0     0.56      1015.0     2       108         2        92        8.94     264      -60.4
   08/02/2016 02:50      65.5      65.2       76     57.6      0.00      0.00      88.4     0.56      1015.0     2       115         3       121        8.95     264      -60.8
   08/02/2016 02:40      65.5      65.2       74     56.7      0.00      0.00      88.5     0.56      1015.0     1       101         2        87        8.95     263      -60.8
   08/02/2016 02:30      65.7      65.5       73     56.9      0.00      0.00      88.6     0.56      1015.0     1        90         1        88        8.95     263      -60.7
   08/02/2016 02:20      66.2      65.7       73     57.0      0.00      0.00      88.7     0.56      1015.0     1        97         2       105        8.95     262      -61.6
   08/02/2016 02:10      66.3      66.1       72     57.1      0.00      0.00      88.4     0.56      1015.0     1        82         1        90        8.95     262      -62.1
   08/02/2016 02:00      66.5      66.2       72     57.0      0.00      0.00      88.7     0.56      1015.0     1       106         2       115        8.95     263      -62.3
   08/02/2016 01:50      67.1      66.6       71     57.1      0.00      0.00      88.6     0.56      1015.0     1        78         1        38        8.95     263      -63.1
   08/02/2016 01:40      67.2      66.9       71     57.2      0.00      0.00      88.9     0.56      1015.0     2        39         2        38        8.95     263      -63.2
   08/02/2016 01:30      67.2      66.9       71     57.3      0.00      0.00      89.1     0.56      1016.0     1        60         2        49        8.95     263      -63.4
   08/02/2016 01:20      67.3      67.1       71     57.7      0.00      0.00      88.7     0.56      1016.0     2        61         3        68        8.95     263      -64.4
   08/02/2016 01:10      67.5      67.1       72     57.8      0.00      0.00      88.7     0.56      1016.0     2        75         3        86        8.95     264      -65.5
   08/02/2016 01:00      67.6      67.3       71     57.8      0.00      0.00      88.9     0.56      1016.0     2        45         4        81        8.95     264      -66.1
   08/02/2016 00:50      67.7      67.6       71     57.9      0.00      0.00      88.7     0.56      1016.0     2        44         3        44        8.96     264      -66.1
   08/02/2016 00:40      67.9      67.7       69     57.2      0.00      0.00      88.8     0.56      1016.0     2        57         3        81        8.96     264      -65.7
   08/02/2016 00:30      68.2      67.8       68     57.3      0.00      0.00      88.6     0.56      1016.0     2        41         2        51        8.96     264      -66.8
   08/02/2016 00:20      68.4      68.1       67     57.0      0.00      0.00      89.1     0.56      1016.0     2        43         3        75        8.96     265      -67.7
   08/02/2016 00:10      68.4      68.1       67     56.9      0.00      0.00      89.0     0.56      1016.0     2        47         2        58        8.96     265      -66.8
   08/02/2016 00:00      68.4      68.1       69     58.0      0.00      0.00      88.9     0.56      1016.0     2        73         3        65        8.96     266      -67.0
   08/01/2016 23:50      69.1      68.4       70     58.7      0.00      0.00      88.9     0.56      1016.0     2        87         3        65        8.96     267      -67.0
   08/01/2016 23:40      69.5      69.2       67     58.1      0.00      0.00      89.1     0.56      1016.0     2        68         3        82        8.96     267      -66.9
   08/01/2016 23:30      69.7      69.5       66     57.9      0.00      0.00      89.0     0.56      1016.0     2        58         3        71        8.96     267      -67.1
   08/01/2016 23:20      69.8      69.6       67     58.2      0.00      0.00      89.3     0.56      1015.0     2        74         4        80        8.97     267      -66.6
   08/01/2016 23:10      70.1      69.8       67     58.4      0.00      0.00      89.1     0.56      1015.0     2        78         3        92        8.97     267      -66.3
   08/01/2016 23:00      70.3      70.1       67     58.9      0.00      0.00      89.1     0.56      1015.0     1        84         2        34        8.97     267      -66.8
   08/01/2016 22:50      70.6      70.2       67     58.8      0.00      0.00      88.6     0.56      1015.0     2        78         3        66        8.97     268      -66.7
   08/01/2016 22:40      71.0      70.7       65     58.7      0.00      0.00      88.9     0.56      1015.0     2        72         4        44        8.97     268      -66.8
   08/01/2016 22:30      71.8      71.3       64     58.8      0.00      0.00      89.0     0.56      1015.0     2        61         5        81        8.97     268      -67.0
   08/01/2016 22:20      72.5      71.8       62     58.6      0.00      0.00      89.3     0.56      1015.0     2        61         4        69        8.97     268      -67.2
   08/01/2016 22:10      72.8      72.6       62     58.8      0.00      0.00      89.2     0.56      1015.0     2        42         2        25        8.97     268      -68.0
   08/01/2016 22:00      73.9      72.9       60     58.9      0.00      0.00      89.2     0.56      1015.0     2        82         4        72        8.98     268      -68.3
   08/01/2016 21:50      74.2      73.6       59     58.8      0.00      0.00      89.2     0.56      1015.0     2        44         3        88        8.98     268      -68.6
   08/01/2016 21:40      75.0      74.2       57     58.2      0.00      0.00      89.3     0.56      1015.0     2        67         3        61        8.98     268      -68.9
   08/01/2016 21:30      75.8      75.2       53     56.9      0.00      0.00      89.1     0.56      1014.0     2        81         3        82        8.98     268      -69.4
   08/01/2016 21:20      76.2      75.8       51     56.5      0.00      0.00      88.9     0.56      1014.0     1       252         2       258        8.99     268      -69.6
   08/01/2016 21:10      76.4      76.2       50     56.6      0.00      0.00      89.0     0.56      1014.0     1       273         3       248        8.99     268      -70.5
   08/01/2016 21:00      77.1      76.6       50     56.9      0.00      0.00      89.0     0.56      1014.0     1       195         3       239        8.99     268      -71.4
   08/01/2016 20:50      77.4      77.3       50     57.1      0.00      0.00      88.8     0.56      1014.0     1       214         2       237        8.99     268      -71.6
   08/01/2016 20:40      78.3      77.5       49     57.2      0.00      0.00      88.9     0.56      1014.0     3       215         5       212        8.99     268      -71.7
   08/01/2016 20:30      79.3      78.5       46     56.7      0.00      0.00      89.0     0.56      1014.0     2       242         3       193        9.00     268      -72.5
   08/01/2016 20:20      79.5      79.3       44     55.3      0.00      0.00      88.8     0.56      1013.0     3       292         5       306        9.01     268      -73.2
   08/01/2016 20:10      79.7      79.5       43     55.2      0.00      0.00      89.0     0.56      1013.0     3       308         5       306        9.01     268      -73.7
   08/01/2016 20:00      80.3      79.7       43     55.8      0.00      0.00      88.9     0.56      1013.0     4       289         6       295        9.02     267      -72.3
   08/01/2016 19:50      80.9      80.4       44     56.5      0.00      0.00      88.7     0.56      1013.0     4       302         6       306        9.03     267      -69.8
   08/01/2016 19:40      81.5      80.9       44     56.9      0.00      0.00      88.8     0.56      1013.0     3       317         6       307        9.03     267      -66.0
   08/01/2016 19:30      82.4      81.6       43     57.4      0.00      0.00      88.5     0.56      1013.0     4       310         6       319        9.03     267      -57.9
   08/01/2016 19:20      82.8      82.4       43     57.5      0.00      0.00      88.5     0.56      1013.0     4       282         5       290        9.04     267      -42.2
   08/01/2016 19:10      82.9      82.5       42     57.5      0.00      0.00      88.7     0.56      1013.0     5       312         8       307        9.04     267      -25.5
   08/01/2016 19:00      83.5      82.5       42     57.2      0.00      0.00      88.6     0.56      1013.0     5       283         8       300        9.04     266       -6.6
   08/01/2016 18:50      84.9      83.6       40     57.4      0.00      0.00      88.6     0.56      1012.0     5       294         7       305        9.04     266       11.7
   08/01/2016 18:40      85.3      85.0       39     57.4      0.00      0.00      88.7     0.56      1012.0     5       312         6       314        9.05     267       30.8
   08/01/2016 18:30      85.6      84.9       39     57.4      0.00      0.00      88.4     0.56      1012.0     6       307         8       285        9.05     266       51.4
   08/01/2016 18:20      86.6      85.6       38     57.8      0.00      0.00      88.5     0.56      1012.0     6       304         9       305        9.06     266       73.9
   08/01/2016 18:10      87.3      86.5       38     57.9      0.00      0.00      88.4     0.56      1012.0     6       319        11       320        9.06     266       95.4
   08/01/2016 18:00      87.7      87.3       37     57.8      0.00      0.00      88.5     0.56      1012.0     6       303         8       327        9.06     266      118.4
   08/01/2016 17:50      89.6      88.0       35     58.0      0.00      0.00      88.3     0.56      1012.0     6       299         9       298        9.07     266      140.2
   08/01/2016 17:40      89.6      88.5       35     57.7      0.00      0.00      88.3     0.56      1012.0     6       297         9       293        9.07     266      164.3
   08/01/2016 17:30      88.9      88.6       31     54.0      0.00      0.00      88.2     0.56      1012.0     5       195         8       146        9.07     265      188.3
   08/01/2016 17:20      89.8      89.2       30     53.6      0.00      0.00      88.1     0.56      1012.0     7       162         9       172        9.08     265      211.3
   08/01/2016 17:10      90.3      89.7       30     54.1      0.00      0.00      88.1     0.56      1012.0     6       160         9       165        9.08     265      231.3
   08/01/2016 17:00      90.5      89.7       30     54.1      0.00      0.00      87.9     0.56      1012.0     6       159        10       138        9.09     266      251.9
   08/01/2016 16:50      90.6      89.8       30     54.7      0.00      0.00      87.9     0.56      1012.0     5       182         8       210        9.09     266      273.7
   08/01/2016 16:40      90.9      90.2       29     54.4      0.00      0.00      87.9     0.56      1012.0     5       195         7       239        9.09     266      295.2
   08/01/2016 16:30      90.8      89.8       29     53.9      0.00      0.00      87.7     0.56      1012.0     6       173         9       177        9.09     266      314.0
   08/01/2016 16:20      90.9      90.4       29     54.2      0.00      0.00      87.8     0.56      1012.0     7       158        10       132        9.09     266      331.6
   08/01/2016 16:10      91.0      90.2       29     54.2      0.00      0.00      87.7     0.56      1012.0     6       164         8       143        9.09     265      350.5
   08/01/2016 16:00      91.2      90.1       29     54.1      0.00      0.00      87.7     0.56      1012.0     7       164        11       174        9.09     266      368.8
   08/01/2016 15:50      91.6      90.8       28     53.9      0.00      0.00      87.5     0.56      1012.0     7       189        11       159        9.09     266      384.7
   08/01/2016 15:40      92.2      91.3       27     53.4      0.00      0.00      87.4     0.56      1012.0     5       191         8       192        9.09     267      397.8
   08/01/2016 15:30      92.0      90.7       27     52.7      0.00      0.00      87.4     0.56      1012.0     5       210         7       200        9.09     267      413.4
   08/01/2016 15:20      92.0      91.5       26     52.1      0.00      0.00      87.3     0.56      1012.0     5       192         7       174        9.09     267      426.2
   08/01/2016 15:10      92.8      91.9       25     50.9      0.00      0.00      87.2     0.56      1012.0     4       176         6       170        9.09     267      438.0
   08/01/2016 15:00      92.8      91.8       24     50.8      0.00      0.00      87.1     0.56      1012.0     4       167         8       147        9.09     267      451.6
   08/01/2016 14:50      93.9      92.5       24     51.4      0.00      0.00      87.2     0.56      1012.0     4       171        10       169        9.09     268      461.8
   08/01/2016 14:40      94.6      92.7       24     51.7      0.00      0.00      87.3     0.56      1013.0     3        70         8       212        9.09     268      476.2
   08/01/2016 14:30      94.3      93.1       24     51.8      0.00      0.00      87.3     0.56      1013.0     4        51         7        24        9.09     269      480.7
   08/01/2016 14:20      93.1      91.8       26     52.5      0.00      0.00      87.0     0.56      1013.0     4        63         6       135        9.09     270      493.7
   08/01/2016 14:10      93.2      91.8       27     53.1      0.00      0.00      87.0     0.56      1013.0     2       180         4       162        9.09     269      499.7
   08/01/2016 14:00      94.3      92.5       26     53.3      0.00      0.00      86.7     0.56      1013.0     3        32         6       158        9.09     270      507.1
   08/01/2016 13:50      92.6      91.3       27     53.5      0.00      0.00      86.7     0.56      1013.0     3        50         6         1        9.09     270      516.4
   08/01/2016 13:40      91.5      90.9       28     53.9      0.00      0.00      86.8     0.56      1013.0     4        63         5        36        9.09     270      524.6
   08/01/2016 13:30      91.6      89.8       29     53.8      0.00      0.00      86.7     0.56      1013.0     5        82         8       132        9.09     270      532.4
   08/01/2016 13:20      91.8      90.9       26     51.2      0.00      0.00      86.9     0.56      1013.0     5        38         9       355        9.09     270      529.6
   08/01/2016 13:10      91.1      90.0       26     51.3      0.00      0.00      86.7     0.56      1013.0     3        31         5        70        9.09     271      535.0
   08/01/2016 13:00      90.8      90.2       28     53.2      0.00      0.00      86.6     0.57      1013.0     4       101         7       136        9.09     271      539.3
   08/01/2016 12:50      90.7      90.2       30     54.9      0.00      0.00      86.7     0.57      1014.0     4        53         6        18        9.09     272      537.7
   08/01/2016 12:40      90.4      89.0       30     54.5      0.00      0.00      86.4     0.57      1014.0     3         7         5       334        9.09     272      535.1
   08/01/2016 12:30      90.6      89.3       29     53.8      0.00      0.00      86.3     0.57      1014.0     3        28         5        30        9.09     273      535.0
   08/01/2016 12:20      89.3      88.5       30     53.7      0.00      0.00      87.1     0.57      1014.0     4        14         6       348        9.09     274      533.9
   08/01/2016 12:10      89.0      87.2       32     54.4      0.00      0.00      86.8     0.57      1014.0     3        24         5        61        9.09     274      531.6
   08/01/2016 12:00      87.7      86.7       33     54.4      0.00      0.00      86.6     0.57      1014.0     4        83         6       124        9.09     274      528.4
   08/01/2016 11:50      86.6      86.0       34     54.4      0.00      0.00      86.8     0.57      1014.0     3        61         6        70        9.09     274      524.0
   08/01/2016 11:40      87.0      86.2       34     54.8      0.00      0.00      86.5     0.58      1014.0     4        67         6        54        9.09     274      516.9
   08/01/2016 11:30      87.4      85.2       38     57.5      0.00      0.00      86.7     0.58      1014.0     4        17         8        12        9.09     276      510.1
   08/01/2016 11:20      86.3      84.5       39     57.4      0.00      0.00      86.7     0.58      1014.0     3        12         5        18        9.09     277      502.2
   08/01/2016 11:10      84.6      84.3       40     57.8      0.00      0.00      86.6     0.58      1015.0     4        45         8        87        9.09     279      493.8
   08/01/2016 11:00      84.6      82.5       42     58.2      0.00      0.00      87.3     0.58      1015.0     4        33         7        84        9.09     285      484.1
   08/01/2016 10:50      83.7      82.4       42     57.6      0.00      0.00      86.8     0.59      1015.0     4        34         6        32        9.09     293      474.2
   08/01/2016 10:40      83.3      81.6       42     56.9      0.00      0.00      87.1     0.59      1015.0     4        61         6        62        9.09     292      463.9
   08/01/2016 10:30      81.9      81.4       43     57.0      0.00      0.00      87.1     0.59      1015.0     4        27         6        71        9.09     313      451.3
   08/01/2016 10:20      81.4      80.6       43     56.6      0.00      0.00      87.2     0.60      1015.0     3        50         6       145        9.09     330      442.0
   08/01/2016 10:10      80.9      79.3       44     56.5      0.00      0.00      87.4     0.60      1015.0     3        65         5       138        9.09     330      431.7
   08/01/2016 10:00      79.4      78.6       50     58.8      0.00      0.00      86.8     0.60      1015.0     3        29         4        12        9.09     333      419.4
   08/01/2016 09:50      78.7      78.4       56     61.5      0.00      0.00      86.4     0.61      1015.0     3        37         5        72        9.09     336      404.9
   08/01/2016 09:40      78.3      77.4       58     61.9      0.00      0.00      87.4     0.56      1015.0     3        39         7        67        9.09     353      370.2
   08/01/2016 09:30      78.1      76.5       59     62.0      0.00      0.00      87.6     0.46      1015.0     3        38         5        75        9.07     268      331.7
   08/01/2016 09:20      76.4      75.8       61     61.9      0.00      0.00      87.8     0.46      1015.0     2        17         4        22        8.33     268      315.2
   08/01/2016 09:10      75.8      74.7       64     62.0      0.00      0.00      87.8     0.46      1015.0     3        20         4        23        8.33     268      299.7
   08/01/2016 09:00      74.8      73.4       65     61.9      0.00      0.00      87.7     0.46      1015.0     2        35         5        32        8.33     268      290.2
   08/01/2016 08:50      73.6      73.2       67     61.7      0.00      0.00      88.1     0.46      1015.0     2        22         4         3        8.33     268      287.4
   08/01/2016 08:40      73.3      72.6       68     61.8      0.00      0.00      88.0     0.46      1015.0     2        37         4         1        8.34     268      173.9
   08/01/2016 08:30      72.6      72.2       69     61.6      0.00      0.00      87.8     0.46      1015.0     2        15         2        35        8.33     268       21.6
   08/01/2016 08:20      72.3      71.9       69     61.4      0.00      0.00      88.0     0.46      1015.0     2        42         3        74        8.34     268        8.8
   08/01/2016 08:10      71.9      71.2       70     61.2      0.00      0.00      87.9     0.46      1015.0     1       129         2       157        8.34     268       -7.6
   08/01/2016 08:00      71.4      71.0       70     61.1      0.00      0.00      87.6     0.46      1015.0     2       358         4       346        8.34     268       15.7
   08/01/2016 07:50      70.8      69.8       72     61.0      0.00      0.00      88.0     0.46      1014.0     2       103         3       126        8.34     268       -5.3
   08/01/2016 07:40      70.0      69.5       73     60.8      0.00      0.00      87.9     0.46      1014.0     2       113         3       126        8.34     268      -12.1
   08/01/2016 07:30      69.7      69.3       74     60.7      0.00      0.00      88.2     0.46      1014.0     2       120         4       134        8.34     268      -15.1
   08/01/2016 07:20      69.4      68.7       74     60.6      0.00      0.00      88.1     0.46      1014.0     1        51         2        29        8.34     268      -15.1
   08/01/2016 07:10      68.8      68.0       75     60.0      0.00      0.00      87.9     0.46      1014.0     1        91         2        71        8.34     267      -20.7
   08/01/2016 07:00      68.0      67.2       74     58.9      0.00      0.00      88.3     0.46      1014.0     1       105         2        85        8.34     267      -26.6
   08/01/2016 06:50      67.3      66.6       73     57.8      0.00      0.00      88.2     0.46      1014.0     1       157         1       113        8.34     267      -31.3
   08/01/2016 06:40      66.6      66.2       73     57.6      0.00      0.00      87.9     0.46      1014.0     0       187         1       181        8.34     267      -34.5
   08/01/2016 06:30      66.4      65.7       74     57.6      0.00      0.00      88.6     0.46      1014.0     1       225         2       216        8.34     267      -39.6
   08/01/2016 06:20      65.7      65.4       75     57.4      0.00      0.00      88.6     0.46      1014.0     1       182         1       225        8.34     267      -44.2
   08/01/2016 06:10      65.5      65.2       75     57.4      0.00      0.00      88.5     0.46      1014.0     1       145         1       120        8.34     267      -47.1
   08/01/2016 06:00      65.4      65.2       74     56.9      0.00      0.00      88.4     0.46      1014.0     1       138         1       128        8.34     267      -49.4
   08/01/2016 05:50      65.5      65.3       74     56.8      0.00      0.00      88.0     0.46      1014.0     1       126         1       160        8.34     267      -50.3
   08/01/2016 05:40      65.4      65.2       73     56.5      0.00      0.00      88.7     0.46      1013.0     1       106         1       139        8.34     267      -51.2
   08/01/2016 05:30      65.8      65.4       73     56.6      0.00      0.00      88.2     0.46      1013.0     2       143         2       157        8.34     267      -51.6
   08/01/2016 05:20      66.0      65.6       72     56.5      0.00      0.00      88.4     0.46      1013.0     1       137         2       133        8.34     267      -51.7
   08/01/2016 05:10      66.0      65.7       71     56.4      0.00      0.00      88.7     0.46      1013.0     1       162         1       207        8.34     267      -51.8
   08/01/2016 05:00      66.0      65.8       71     56.4      0.00      0.00      88.7     0.46      1013.0     1       153         1       187        8.35     267      -51.7
   08/01/2016 04:50      66.3      66.0       69     55.9      0.00      0.00      88.9     0.46      1013.0     1       163         2       155        8.35     267      -51.7
   08/01/2016 04:40      66.5      66.0       71     56.5      0.00      0.00      88.6     0.46      1013.0     1       157         2       156        8.35     267      -51.4
   08/01/2016 04:30      66.3      66.1       73     57.1      0.00      0.00      88.7     0.46      1013.0     1       131         2       133        8.35     267      -52.1
   08/01/2016 04:20      66.4      66.2       73     57.4      0.00      0.00      88.9     0.46      1013.0     2       156         2       162        8.35     267      -53.3
   08/01/2016 04:10      66.6      66.2       74     57.8      0.00      0.00      88.7     0.46      1013.0     2       148         2       139        8.35     267      -53.4
   08/01/2016 04:00      66.7      66.5       74     58.0      0.00      0.00      88.8     0.46      1013.0     2       142         2       136        8.35     267      -53.9
   08/01/2016 03:50      67.0      66.8       74     58.3      0.00      0.00      89.1     0.47      1013.0     1       145         2       138        8.36     267      -53.5
   08/01/2016 03:40      67.2      66.9       72     57.8      0.00      0.00      88.9     0.47      1013.0     1       151         1       134        8.36     267      -54.3
   08/01/2016 03:30      67.2      66.8       72     57.8      0.00      0.00      89.2     0.47      1013.0     1       167         1       154        8.37     267      -53.8
   08/01/2016 03:20      67.2      67.0       72     57.8      0.00      0.00      89.1     0.47      1013.0     1       132         1       140        8.37     267      -54.2
   08/01/2016 03:10      67.5      67.2       71     57.7      0.00      0.00      89.1     0.47      1013.0     1        95         1       116        8.37     267      -54.9
   08/01/2016 03:00      67.8      67.5       71     58.0      0.00      0.00      89.4     0.47      1013.0     1       165         1       185        8.38     267      -55.4
   08/01/2016 02:50      68.0      67.7       71     58.0      0.00      0.00      89.5     0.47      1013.0     1       150         1       134        8.38     266      -55.6
   08/01/2016 02:40      68.0      67.8       71     58.3      0.00      0.00      88.9     0.47      1013.0     0        12         1        56        8.38     267      -55.2
   08/01/2016 02:30      68.3      67.9       70     57.8      0.00      0.00      89.0     0.47      1013.0     1       113         1        67        8.38     266      -56.2
   08/01/2016 02:20      68.5      68.3       70     58.2      0.00      0.00      89.4     0.47      1013.0     0        79         1        86        8.38     266      -56.8
   08/01/2016 02:10      68.7      68.5       70     58.5      0.00      0.00      89.6     0.47      1013.0     1        88         1        82        8.39     266      -57.1
   08/01/2016 02:00      68.9      68.7       70     58.7      0.00      0.00      89.4     0.47      1013.0     1        85         2        74        8.39     266      -58.1
   08/01/2016 01:50      69.2      68.9       70     58.8      0.00      0.00      89.2     0.47      1013.0     1        84         2        69        8.39     266      -59.0
   08/01/2016 01:40      69.5      69.2       70     59.1      0.00      0.00      89.2     0.47      1013.0     1        60         2        70        8.39     266      -59.5
   08/01/2016 01:30      69.8      69.5       69     59.1      0.00      0.00      89.5     0.47      1013.0     1        64         2        91        8.40     266      -60.6
   08/01/2016 01:20      69.8      69.6       69     58.9      0.00      0.00      89.4     0.47      1013.0     1        60         2        20        8.40     266      -60.9
   08/01/2016 01:10      70.0      69.8       68     58.9      0.00      0.00      89.5     0.47      1013.0     2        72         3        72        8.40     266      -61.0
   08/01/2016 01:00      70.2      69.8       66     58.2      0.00      0.00      89.6     0.47      1013.0     1        64         3        84        8.40     266      -61.0
   08/01/2016 00:50      70.3      70.1       65     58.0      0.00      0.00      89.5     0.47      1013.0     1        69         1        64        8.41     266      -61.6
   08/01/2016 00:40      70.6      70.3       64     57.8      0.00      0.00      89.5     0.47      1013.0     1        82         2        69        8.41     266      -61.8
   08/01/2016 00:30      70.8      70.5       63     57.4      0.00      0.00      89.5     0.47      1013.0     2        92         3       112        8.41     266      -62.8
   08/01/2016 00:20      70.9      70.7       63     57.5      0.00      0.00      89.9     0.47      1013.0     2       101         4        66        8.41     266      -63.0
   08/01/2016 00:10      71.2      70.8       62     57.4      0.00      0.00      89.6     0.47      1013.0     1       107         2       123        8.41     265      -63.8
   08/01/2016 00:00      71.2      71.0       63     57.9      0.00      0.00      89.7     0.47      1013.0     1       106         1        84        8.42     265      -64.2


<<Back to data home page